<?xml version="1.0" encoding="UTF-8" standalone="no" ?>
<gpx xmlns="http://www.topografix.com/GPX/1/1" xmlns:xsi="http://www.w3.org/2001/XMLSchema-instance" xsi:schemaLocation="http://www.topografix.com/GPX/1/1 http://www.topografix.com/GPX/1/1/gpx.xsd" version="1.1" creator="VisuGPX - https://www.visugpx.com">
  <metadata>
    <name>Cyclo Toulouse 91KM</name>
    <desc><![CDATA[Avec Frédéric Gaulois.]]></desc>
  </metadata>
  <trk>
    <name><![CDATA[Cyclo 91 KM]]></name>
    <desc><![CDATA[Avec Frédéric Gaulois.

Quelques côtes et vent de face au menu du jour !

Température au départ 9.1°C, à l'arrivée 17.5°C.]]></desc>
    <trkseg>
      <trkpt lat="43.58463" lon="1.41495">
        <ele>143.80000305176</ele>
        <time>2014-11-02T07:02:54.000Z</time>
      </trkpt>
      <trkpt lat="43.58459" lon="1.41498">
        <ele>144</ele>
        <time>2014-11-02T07:02:57.000Z</time>
      </trkpt>
      <trkpt lat="43.58456" lon="1.41503">
        <ele>144</ele>
        <time>2014-11-02T07:02:59.000Z</time>
      </trkpt>
      <trkpt lat="43.58456" lon="1.41507">
        <ele>144</ele>
        <time>2014-11-02T07:03:01.000Z</time>
      </trkpt>
      <trkpt lat="43.58454" lon="1.4151">
        <ele>143.80000305176</ele>
        <time>2014-11-02T07:03:02.000Z</time>
      </trkpt>
      <trkpt lat="43.58452" lon="1.41516">
        <ele>143.80000305176</ele>
        <time>2014-11-02T07:03:04.000Z</time>
      </trkpt>
      <trkpt lat="43.58442" lon="1.41536">
        <ele>143.39999389648</ele>
        <time>2014-11-02T07:03:10.000Z</time>
      </trkpt>
      <trkpt lat="43.58437" lon="1.41544">
        <ele>143.19999694824</ele>
        <time>2014-11-02T07:03:13.000Z</time>
      </trkpt>
      <trkpt lat="43.58434" lon="1.41543">
        <ele>143.19999694824</ele>
        <time>2014-11-02T07:03:14.000Z</time>
      </trkpt>
      <trkpt lat="43.58409" lon="1.41527">
        <ele>143.19999694824</ele>
        <time>2014-11-02T07:03:22.000Z</time>
      </trkpt>
      <trkpt lat="43.58377" lon="1.41503">
        <ele>143</ele>
        <time>2014-11-02T07:03:31.000Z</time>
      </trkpt>
      <trkpt lat="43.58357" lon="1.41491">
        <ele>143</ele>
        <time>2014-11-02T07:03:37.000Z</time>
      </trkpt>
      <trkpt lat="43.58335" lon="1.41479">
        <ele>142.80000305176</ele>
        <time>2014-11-02T07:03:45.000Z</time>
      </trkpt>
      <trkpt lat="43.58312" lon="1.41467">
        <ele>142.80000305176</ele>
        <time>2014-11-02T07:03:52.000Z</time>
      </trkpt>
      <trkpt lat="43.58283" lon="1.41449">
        <ele>142.60000610352</ele>
        <time>2014-11-02T07:03:59.000Z</time>
      </trkpt>
      <trkpt lat="43.58279" lon="1.41447">
        <ele>142.60000610352</ele>
        <time>2014-11-02T07:04:00.000Z</time>
      </trkpt>
      <trkpt lat="43.58259" lon="1.41435">
        <ele>142.60000610352</ele>
        <time>2014-11-02T07:04:05.000Z</time>
      </trkpt>
      <trkpt lat="43.58252" lon="1.4143">
        <ele>142.60000610352</ele>
        <time>2014-11-02T07:04:07.000Z</time>
      </trkpt>
      <trkpt lat="43.58244" lon="1.41425">
        <ele>142.60000610352</ele>
        <time>2014-11-02T07:04:09.000Z</time>
      </trkpt>
      <trkpt lat="43.58232" lon="1.41418">
        <ele>142.80000305176</ele>
        <time>2014-11-02T07:04:12.000Z</time>
      </trkpt>
      <trkpt lat="43.58217" lon="1.41407">
        <ele>143</ele>
        <time>2014-11-02T07:04:16.000Z</time>
      </trkpt>
      <trkpt lat="43.58212" lon="1.41405">
        <ele>143</ele>
        <time>2014-11-02T07:04:17.000Z</time>
      </trkpt>
      <trkpt lat="43.58188" lon="1.41389">
        <ele>143.19999694824</ele>
        <time>2014-11-02T07:04:23.000Z</time>
      </trkpt>
      <trkpt lat="43.58149" lon="1.4136">
        <ele>144</ele>
        <time>2014-11-02T07:04:33.000Z</time>
      </trkpt>
      <trkpt lat="43.58141" lon="1.41353">
        <ele>144.19999694824</ele>
        <time>2014-11-02T07:04:35.000Z</time>
      </trkpt>
      <trkpt lat="43.58131" lon="1.41342">
        <ele>144.39999389648</ele>
        <time>2014-11-02T07:04:38.000Z</time>
      </trkpt>
      <trkpt lat="43.58127" lon="1.41339">
        <ele>144.39999389648</ele>
        <time>2014-11-02T07:04:39.000Z</time>
      </trkpt>
      <trkpt lat="43.58116" lon="1.4133">
        <ele>144.60000610352</ele>
        <time>2014-11-02T07:04:42.000Z</time>
      </trkpt>
      <trkpt lat="43.58105" lon="1.41319">
        <ele>145</ele>
        <time>2014-11-02T07:04:45.000Z</time>
      </trkpt>
      <trkpt lat="43.58101" lon="1.41316">
        <ele>145</ele>
        <time>2014-11-02T07:04:46.000Z</time>
      </trkpt>
      <trkpt lat="43.5807" lon="1.41289">
        <ele>144.39999389648</ele>
        <time>2014-11-02T07:04:54.000Z</time>
      </trkpt>
      <trkpt lat="43.58067" lon="1.41284">
        <ele>144.19999694824</ele>
        <time>2014-11-02T07:04:55.000Z</time>
      </trkpt>
      <trkpt lat="43.58059" lon="1.41277">
        <ele>144</ele>
        <time>2014-11-02T07:04:57.000Z</time>
      </trkpt>
      <trkpt lat="43.58048" lon="1.41267">
        <ele>143.80000305176</ele>
        <time>2014-11-02T07:05:00.000Z</time>
      </trkpt>
      <trkpt lat="43.58036" lon="1.41257">
        <ele>143.60000610352</ele>
        <time>2014-11-02T07:05:03.000Z</time>
      </trkpt>
      <trkpt lat="43.58028" lon="1.41251">
        <ele>143.39999389648</ele>
        <time>2014-11-02T07:05:05.000Z</time>
      </trkpt>
      <trkpt lat="43.58025" lon="1.41248">
        <ele>143.19999694824</ele>
        <time>2014-11-02T07:05:06.000Z</time>
      </trkpt>
      <trkpt lat="43.58017" lon="1.41241">
        <ele>143.19999694824</ele>
        <time>2014-11-02T07:05:08.000Z</time>
      </trkpt>
      <trkpt lat="43.58005" lon="1.41233">
        <ele>143.39999389648</ele>
        <time>2014-11-02T07:05:11.000Z</time>
      </trkpt>
      <trkpt lat="43.57991" lon="1.41218">
        <ele>143.39999389648</ele>
        <time>2014-11-02T07:05:15.000Z</time>
      </trkpt>
      <trkpt lat="43.57984" lon="1.41212">
        <ele>143.60000610352</ele>
        <time>2014-11-02T07:05:17.000Z</time>
      </trkpt>
      <trkpt lat="43.57981" lon="1.41207">
        <ele>143.60000610352</ele>
        <time>2014-11-02T07:05:18.000Z</time>
      </trkpt>
      <trkpt lat="43.57971" lon="1.41194">
        <ele>143.60000610352</ele>
        <time>2014-11-02T07:05:21.000Z</time>
      </trkpt>
      <trkpt lat="43.57965" lon="1.41186">
        <ele>143.80000305176</ele>
        <time>2014-11-02T07:05:23.000Z</time>
      </trkpt>
      <trkpt lat="43.57958" lon="1.41178">
        <ele>143.80000305176</ele>
        <time>2014-11-02T07:05:25.000Z</time>
      </trkpt>
      <trkpt lat="43.57945" lon="1.41161">
        <ele>143.80000305176</ele>
        <time>2014-11-02T07:05:29.000Z</time>
      </trkpt>
      <trkpt lat="43.57936" lon="1.41148">
        <ele>144</ele>
        <time>2014-11-02T07:05:32.000Z</time>
      </trkpt>
      <trkpt lat="43.57927" lon="1.41134">
        <ele>144.19999694824</ele>
        <time>2014-11-02T07:05:35.000Z</time>
      </trkpt>
      <trkpt lat="43.57903" lon="1.41085">
        <ele>144.80000305176</ele>
        <time>2014-11-02T07:05:44.000Z</time>
      </trkpt>
      <trkpt lat="43.57872" lon="1.41023">
        <ele>145</ele>
        <time>2014-11-02T07:05:55.000Z</time>
      </trkpt>
      <trkpt lat="43.5787" lon="1.41018">
        <ele>145</ele>
        <time>2014-11-02T07:05:56.000Z</time>
      </trkpt>
      <trkpt lat="43.57867" lon="1.41013">
        <ele>145</ele>
        <time>2014-11-02T07:05:57.000Z</time>
      </trkpt>
      <trkpt lat="43.57857" lon="1.40998">
        <ele>145.19999694824</ele>
        <time>2014-11-02T07:06:00.000Z</time>
      </trkpt>
      <trkpt lat="43.57851" lon="1.40987">
        <ele>145.19999694824</ele>
        <time>2014-11-02T07:06:02.000Z</time>
      </trkpt>
      <trkpt lat="43.57821" lon="1.40925">
        <ele>145.39999389648</ele>
        <time>2014-11-02T07:06:12.000Z</time>
      </trkpt>
      <trkpt lat="43.57802" lon="1.40876">
        <ele>145.19999694824</ele>
        <time>2014-11-02T07:06:20.000Z</time>
      </trkpt>
      <trkpt lat="43.57802" lon="1.40863">
        <ele>145</ele>
        <time>2014-11-02T07:06:22.000Z</time>
      </trkpt>
      <trkpt lat="43.57798" lon="1.40851">
        <ele>144.80000305176</ele>
        <time>2014-11-02T07:06:24.000Z</time>
      </trkpt>
      <trkpt lat="43.57791" lon="1.40843">
        <ele>144.60000610352</ele>
        <time>2014-11-02T07:06:26.000Z</time>
      </trkpt>
      <trkpt lat="43.57786" lon="1.4084">
        <ele>144.60000610352</ele>
        <time>2014-11-02T07:06:27.000Z</time>
      </trkpt>
      <trkpt lat="43.57782" lon="1.40837">
        <ele>144.39999389648</ele>
        <time>2014-11-02T07:06:28.000Z</time>
      </trkpt>
      <trkpt lat="43.57749" lon="1.40802">
        <ele>144.19999694824</ele>
        <time>2014-11-02T07:06:37.000Z</time>
      </trkpt>
      <trkpt lat="43.57715" lon="1.40768">
        <ele>144.80000305176</ele>
        <time>2014-11-02T07:06:46.000Z</time>
      </trkpt>
      <trkpt lat="43.57678" lon="1.40731">
        <ele>145</ele>
        <time>2014-11-02T07:06:55.000Z</time>
      </trkpt>
      <trkpt lat="43.5764" lon="1.40693">
        <ele>146</ele>
        <time>2014-11-02T07:07:03.000Z</time>
      </trkpt>
      <trkpt lat="43.5762" lon="1.40672">
        <ele>146.39999389648</ele>
        <time>2014-11-02T07:07:08.000Z</time>
      </trkpt>
      <trkpt lat="43.57617" lon="1.40668">
        <ele>146.60000610352</ele>
        <time>2014-11-02T07:07:09.000Z</time>
      </trkpt>
      <trkpt lat="43.57612" lon="1.4066">
        <ele>146.80000305176</ele>
        <time>2014-11-02T07:07:11.000Z</time>
      </trkpt>
      <trkpt lat="43.57598" lon="1.40647">
        <ele>147</ele>
        <time>2014-11-02T07:07:15.000Z</time>
      </trkpt>
      <trkpt lat="43.57591" lon="1.4064">
        <ele>147</ele>
        <time>2014-11-02T07:07:17.000Z</time>
      </trkpt>
      <trkpt lat="43.57571" lon="1.4062">
        <ele>147</ele>
        <time>2014-11-02T07:07:22.000Z</time>
      </trkpt>
      <trkpt lat="43.57534" lon="1.40579">
        <ele>147</ele>
        <time>2014-11-02T07:07:31.000Z</time>
      </trkpt>
      <trkpt lat="43.57506" lon="1.40544">
        <ele>146.39999389648</ele>
        <time>2014-11-02T07:07:38.000Z</time>
      </trkpt>
      <trkpt lat="43.57482" lon="1.4051">
        <ele>145.60000610352</ele>
        <time>2014-11-02T07:07:45.000Z</time>
      </trkpt>
      <trkpt lat="43.57478" lon="1.40506">
        <ele>145.60000610352</ele>
        <time>2014-11-02T07:07:46.000Z</time>
      </trkpt>
      <trkpt lat="43.57474" lon="1.40503">
        <ele>145.60000610352</ele>
        <time>2014-11-02T07:07:47.000Z</time>
      </trkpt>
      <trkpt lat="43.57466" lon="1.40497">
        <ele>145.39999389648</ele>
        <time>2014-11-02T07:07:49.000Z</time>
      </trkpt>
      <trkpt lat="43.57464" lon="1.40493">
        <ele>145.19999694824</ele>
        <time>2014-11-02T07:07:50.000Z</time>
      </trkpt>
      <trkpt lat="43.57461" lon="1.40481">
        <ele>145</ele>
        <time>2014-11-02T07:07:52.000Z</time>
      </trkpt>
      <trkpt lat="43.57459" lon="1.40467">
        <ele>145.60000610352</ele>
        <time>2014-11-02T07:07:54.000Z</time>
      </trkpt>
      <trkpt lat="43.57458" lon="1.40461">
        <ele>145.80000305176</ele>
        <time>2014-11-02T07:07:55.000Z</time>
      </trkpt>
      <trkpt lat="43.57442" lon="1.40386">
        <ele>147.60000610352</ele>
        <time>2014-11-02T07:08:06.000Z</time>
      </trkpt>
      <trkpt lat="43.57441" lon="1.40372">
        <ele>147.19999694824</ele>
        <time>2014-11-02T07:08:08.000Z</time>
      </trkpt>
      <trkpt lat="43.57439" lon="1.40343">
        <ele>146.60000610352</ele>
        <time>2014-11-02T07:08:12.000Z</time>
      </trkpt>
      <trkpt lat="43.57439" lon="1.40316">
        <ele>146.19999694824</ele>
        <time>2014-11-02T07:08:16.000Z</time>
      </trkpt>
      <trkpt lat="43.57439" lon="1.40294">
        <ele>146.19999694824</ele>
        <time>2014-11-02T07:08:19.000Z</time>
      </trkpt>
      <trkpt lat="43.57443" lon="1.40282">
        <ele>146.19999694824</ele>
        <time>2014-11-02T07:08:21.000Z</time>
      </trkpt>
      <trkpt lat="43.5745" lon="1.40265">
        <ele>146.60000610352</ele>
        <time>2014-11-02T07:08:24.000Z</time>
      </trkpt>
      <trkpt lat="43.5745" lon="1.40252">
        <ele>146.60000610352</ele>
        <time>2014-11-02T07:08:26.000Z</time>
      </trkpt>
      <trkpt lat="43.57447" lon="1.40246">
        <ele>146.39999389648</ele>
        <time>2014-11-02T07:08:27.000Z</time>
      </trkpt>
      <trkpt lat="43.57443" lon="1.40233">
        <ele>146.19999694824</ele>
        <time>2014-11-02T07:08:29.000Z</time>
      </trkpt>
      <trkpt lat="43.57442" lon="1.40212">
        <ele>146.19999694824</ele>
        <time>2014-11-02T07:08:32.000Z</time>
      </trkpt>
      <trkpt lat="43.57443" lon="1.40205">
        <ele>146.19999694824</ele>
        <time>2014-11-02T07:08:33.000Z</time>
      </trkpt>
      <trkpt lat="43.57443" lon="1.40191">
        <ele>146.19999694824</ele>
        <time>2014-11-02T07:08:35.000Z</time>
      </trkpt>
      <trkpt lat="43.57443" lon="1.40149">
        <ele>146.19999694824</ele>
        <time>2014-11-02T07:08:41.000Z</time>
      </trkpt>
      <trkpt lat="43.57443" lon="1.40129">
        <ele>146.60000610352</ele>
        <time>2014-11-02T07:08:44.000Z</time>
      </trkpt>
      <trkpt lat="43.57444" lon="1.40114">
        <ele>146.80000305176</ele>
        <time>2014-11-02T07:08:46.000Z</time>
      </trkpt>
      <trkpt lat="43.57447" lon="1.40108">
        <ele>147</ele>
        <time>2014-11-02T07:08:47.000Z</time>
      </trkpt>
      <trkpt lat="43.57449" lon="1.40094">
        <ele>147.19999694824</ele>
        <time>2014-11-02T07:08:49.000Z</time>
      </trkpt>
      <trkpt lat="43.57447" lon="1.40081">
        <ele>147.19999694824</ele>
        <time>2014-11-02T07:08:51.000Z</time>
      </trkpt>
      <trkpt lat="43.57446" lon="1.40067">
        <ele>147</ele>
        <time>2014-11-02T07:08:53.000Z</time>
      </trkpt>
      <trkpt lat="43.57448" lon="1.3999">
        <ele>151.39999389648</ele>
        <time>2014-11-02T07:09:04.000Z</time>
      </trkpt>
      <trkpt lat="43.57449" lon="1.39983">
        <ele>151.39999389648</ele>
        <time>2014-11-02T07:09:05.000Z</time>
      </trkpt>
      <trkpt lat="43.57451" lon="1.3992">
        <ele>153.60000610352</ele>
        <time>2014-11-02T07:09:15.000Z</time>
      </trkpt>
      <trkpt lat="43.57454" lon="1.39856">
        <ele>155.39999389648</ele>
        <time>2014-11-02T07:09:26.000Z</time>
      </trkpt>
      <trkpt lat="43.57456" lon="1.39832">
        <ele>156.39999389648</ele>
        <time>2014-11-02T07:09:30.000Z</time>
      </trkpt>
      <trkpt lat="43.57458" lon="1.39802">
        <ele>156.80000305176</ele>
        <time>2014-11-02T07:09:35.000Z</time>
      </trkpt>
      <trkpt lat="43.57459" lon="1.3979">
        <ele>156.60000610352</ele>
        <time>2014-11-02T07:09:37.000Z</time>
      </trkpt>
      <trkpt lat="43.57461" lon="1.39753">
        <ele>156.19999694824</ele>
        <time>2014-11-02T07:09:43.000Z</time>
      </trkpt>
      <trkpt lat="43.57465" lon="1.39695">
        <ele>157</ele>
        <time>2014-11-02T07:09:52.000Z</time>
      </trkpt>
      <trkpt lat="43.57467" lon="1.39668">
        <ele>156.60000610352</ele>
        <time>2014-11-02T07:09:56.000Z</time>
      </trkpt>
      <trkpt lat="43.57467" lon="1.39654">
        <ele>156.60000610352</ele>
        <time>2014-11-02T07:09:58.000Z</time>
      </trkpt>
      <trkpt lat="43.57469" lon="1.39647">
        <ele>156.39999389648</ele>
        <time>2014-11-02T07:09:59.000Z</time>
      </trkpt>
      <trkpt lat="43.57474" lon="1.39635">
        <ele>156</ele>
        <time>2014-11-02T07:10:01.000Z</time>
      </trkpt>
      <trkpt lat="43.57479" lon="1.39623">
        <ele>155.60000610352</ele>
        <time>2014-11-02T07:10:03.000Z</time>
      </trkpt>
      <trkpt lat="43.57481" lon="1.39609">
        <ele>155.39999389648</ele>
        <time>2014-11-02T07:10:05.000Z</time>
      </trkpt>
      <trkpt lat="43.57481" lon="1.39602">
        <ele>155.39999389648</ele>
        <time>2014-11-02T07:10:06.000Z</time>
      </trkpt>
      <trkpt lat="43.57479" lon="1.39595">
        <ele>155.60000610352</ele>
        <time>2014-11-02T07:10:07.000Z</time>
      </trkpt>
      <trkpt lat="43.57473" lon="1.39583">
        <ele>155.80000305176</ele>
        <time>2014-11-02T07:10:09.000Z</time>
      </trkpt>
      <trkpt lat="43.57465" lon="1.39574">
        <ele>156.19999694824</ele>
        <time>2014-11-02T07:10:11.000Z</time>
      </trkpt>
      <trkpt lat="43.57451" lon="1.39564">
        <ele>156.60000610352</ele>
        <time>2014-11-02T07:10:14.000Z</time>
      </trkpt>
      <trkpt lat="43.57412" lon="1.3954">
        <ele>158.19999694824</ele>
        <time>2014-11-02T07:10:22.000Z</time>
      </trkpt>
      <trkpt lat="43.57403" lon="1.39532">
        <ele>158.60000610352</ele>
        <time>2014-11-02T07:10:24.000Z</time>
      </trkpt>
      <trkpt lat="43.57386" lon="1.39514">
        <ele>159.39999389648</ele>
        <time>2014-11-02T07:10:28.000Z</time>
      </trkpt>
      <trkpt lat="43.57353" lon="1.39474">
        <ele>160.60000610352</ele>
        <time>2014-11-02T07:10:36.000Z</time>
      </trkpt>
      <trkpt lat="43.57312" lon="1.39421">
        <ele>158.60000610352</ele>
        <time>2014-11-02T07:10:46.000Z</time>
      </trkpt>
      <trkpt lat="43.57308" lon="1.39416">
        <ele>158.39999389648</ele>
        <time>2014-11-02T07:10:47.000Z</time>
      </trkpt>
      <trkpt lat="43.57275" lon="1.39373">
        <ele>157.60000610352</ele>
        <time>2014-11-02T07:10:55.000Z</time>
      </trkpt>
      <trkpt lat="43.57241" lon="1.39329">
        <ele>156.60000610352</ele>
        <time>2014-11-02T07:11:03.000Z</time>
      </trkpt>
      <trkpt lat="43.57211" lon="1.39289">
        <ele>155.60000610352</ele>
        <time>2014-11-02T07:11:10.000Z</time>
      </trkpt>
      <trkpt lat="43.57199" lon="1.39272">
        <ele>155.39999389648</ele>
        <time>2014-11-02T07:11:13.000Z</time>
      </trkpt>
      <trkpt lat="43.57185" lon="1.39255">
        <ele>155</ele>
        <time>2014-11-02T07:11:16.000Z</time>
      </trkpt>
      <trkpt lat="43.57154" lon="1.39215">
        <ele>155.60000610352</ele>
        <time>2014-11-02T07:11:23.000Z</time>
      </trkpt>
      <trkpt lat="43.57137" lon="1.3919">
        <ele>156</ele>
        <time>2014-11-02T07:11:27.000Z</time>
      </trkpt>
      <trkpt lat="43.57129" lon="1.39176">
        <ele>156.39999389648</ele>
        <time>2014-11-02T07:11:29.000Z</time>
      </trkpt>
      <trkpt lat="43.57107" lon="1.39134">
        <ele>157.60000610352</ele>
        <time>2014-11-02T07:11:35.000Z</time>
      </trkpt>
      <trkpt lat="43.57103" lon="1.39128">
        <ele>157.80000305176</ele>
        <time>2014-11-02T07:11:36.000Z</time>
      </trkpt>
      <trkpt lat="43.57094" lon="1.39117">
        <ele>157.60000610352</ele>
        <time>2014-11-02T07:11:38.000Z</time>
      </trkpt>
      <trkpt lat="43.5708" lon="1.39104">
        <ele>157</ele>
        <time>2014-11-02T07:11:41.000Z</time>
      </trkpt>
      <trkpt lat="43.57049" lon="1.39082">
        <ele>155.60000610352</ele>
        <time>2014-11-02T07:11:48.000Z</time>
      </trkpt>
      <trkpt lat="43.57039" lon="1.39063">
        <ele>155.60000610352</ele>
        <time>2014-11-02T07:11:52.000Z</time>
      </trkpt>
      <trkpt lat="43.57027" lon="1.39042">
        <ele>155.39999389648</ele>
        <time>2014-11-02T07:11:56.000Z</time>
      </trkpt>
      <trkpt lat="43.57024" lon="1.39036">
        <ele>155.39999389648</ele>
        <time>2014-11-02T07:11:57.000Z</time>
      </trkpt>
      <trkpt lat="43.57021" lon="1.39022">
        <ele>155.80000305176</ele>
        <time>2014-11-02T07:11:59.000Z</time>
      </trkpt>
      <trkpt lat="43.5702" lon="1.38984">
        <ele>157</ele>
        <time>2014-11-02T07:12:04.000Z</time>
      </trkpt>
      <trkpt lat="43.57019" lon="1.38977">
        <ele>157</ele>
        <time>2014-11-02T07:12:05.000Z</time>
      </trkpt>
      <trkpt lat="43.57013" lon="1.38946">
        <ele>157.19999694824</ele>
        <time>2014-11-02T07:12:09.000Z</time>
      </trkpt>
      <trkpt lat="43.57004" lon="1.38892">
        <ele>157</ele>
        <time>2014-11-02T07:12:16.000Z</time>
      </trkpt>
      <trkpt lat="43.57004" lon="1.38883">
        <ele>156.80000305176</ele>
        <time>2014-11-02T07:12:17.000Z</time>
      </trkpt>
      <trkpt lat="43.57004" lon="1.38834">
        <ele>156.19999694824</ele>
        <time>2014-11-02T07:12:23.000Z</time>
      </trkpt>
      <trkpt lat="43.5701" lon="1.38786">
        <ele>156.80000305176</ele>
        <time>2014-11-02T07:12:29.000Z</time>
      </trkpt>
      <trkpt lat="43.57021" lon="1.38723">
        <ele>159</ele>
        <time>2014-11-02T07:12:37.000Z</time>
      </trkpt>
      <trkpt lat="43.57034" lon="1.38663">
        <ele>158.39999389648</ele>
        <time>2014-11-02T07:12:45.000Z</time>
      </trkpt>
      <trkpt lat="43.57042" lon="1.38628">
        <ele>157.60000610352</ele>
        <time>2014-11-02T07:12:50.000Z</time>
      </trkpt>
      <trkpt lat="43.57042" lon="1.38615">
        <ele>157</ele>
        <time>2014-11-02T07:12:52.000Z</time>
      </trkpt>
      <trkpt lat="43.57035" lon="1.38604">
        <ele>156.19999694824</ele>
        <time>2014-11-02T07:12:54.000Z</time>
      </trkpt>
      <trkpt lat="43.57025" lon="1.38596">
        <ele>155.60000610352</ele>
        <time>2014-11-02T07:12:56.000Z</time>
      </trkpt>
      <trkpt lat="43.57019" lon="1.38595">
        <ele>155.39999389648</ele>
        <time>2014-11-02T07:12:57.000Z</time>
      </trkpt>
      <trkpt lat="43.57013" lon="1.38593">
        <ele>155.60000610352</ele>
        <time>2014-11-02T07:12:58.000Z</time>
      </trkpt>
      <trkpt lat="43.56965" lon="1.38576">
        <ele>156.39999389648</ele>
        <time>2014-11-02T07:13:07.000Z</time>
      </trkpt>
      <trkpt lat="43.56938" lon="1.38566">
        <ele>157</ele>
        <time>2014-11-02T07:13:12.000Z</time>
      </trkpt>
      <trkpt lat="43.56881" lon="1.38543">
        <ele>156.80000305176</ele>
        <time>2014-11-02T07:13:23.000Z</time>
      </trkpt>
      <trkpt lat="43.56829" lon="1.38523">
        <ele>156</ele>
        <time>2014-11-02T07:13:33.000Z</time>
      </trkpt>
      <trkpt lat="43.56778" lon="1.38502">
        <ele>154.60000610352</ele>
        <time>2014-11-02T07:13:43.000Z</time>
      </trkpt>
      <trkpt lat="43.56738" lon="1.38485">
        <ele>155.80000305176</ele>
        <time>2014-11-02T07:13:51.000Z</time>
      </trkpt>
      <trkpt lat="43.56734" lon="1.38481">
        <ele>156</ele>
        <time>2014-11-02T07:13:52.000Z</time>
      </trkpt>
      <trkpt lat="43.56727" lon="1.3847">
        <ele>156.60000610352</ele>
        <time>2014-11-02T07:13:54.000Z</time>
      </trkpt>
      <trkpt lat="43.56718" lon="1.38442">
        <ele>157.39999389648</ele>
        <time>2014-11-02T07:13:58.000Z</time>
      </trkpt>
      <trkpt lat="43.56719" lon="1.38434">
        <ele>157.39999389648</ele>
        <time>2014-11-02T07:13:59.000Z</time>
      </trkpt>
      <trkpt lat="43.56722" lon="1.3842">
        <ele>158.19999694824</ele>
        <time>2014-11-02T07:14:01.000Z</time>
      </trkpt>
      <trkpt lat="43.56736" lon="1.38349">
        <ele>159.60000610352</ele>
        <time>2014-11-02T07:14:10.000Z</time>
      </trkpt>
      <trkpt lat="43.56749" lon="1.38277">
        <ele>159.19999694824</ele>
        <time>2014-11-02T07:14:19.000Z</time>
      </trkpt>
      <trkpt lat="43.56751" lon="1.38269">
        <ele>159</ele>
        <time>2014-11-02T07:14:20.000Z</time>
      </trkpt>
      <trkpt lat="43.56761" lon="1.38211">
        <ele>158.60000610352</ele>
        <time>2014-11-02T07:14:27.000Z</time>
      </trkpt>
      <trkpt lat="43.56775" lon="1.38137">
        <ele>158.19999694824</ele>
        <time>2014-11-02T07:14:36.000Z</time>
      </trkpt>
      <trkpt lat="43.56786" lon="1.38073">
        <ele>160</ele>
        <time>2014-11-02T07:14:44.000Z</time>
      </trkpt>
      <trkpt lat="43.56791" lon="1.38051">
        <ele>160.19999694824</ele>
        <time>2014-11-02T07:14:47.000Z</time>
      </trkpt>
      <trkpt lat="43.56795" lon="1.38027">
        <ele>160.39999389648</ele>
        <time>2014-11-02T07:14:50.000Z</time>
      </trkpt>
      <trkpt lat="43.568" lon="1.37997">
        <ele>160.80000305176</ele>
        <time>2014-11-02T07:14:54.000Z</time>
      </trkpt>
      <trkpt lat="43.56807" lon="1.37959">
        <ele>162</ele>
        <time>2014-11-02T07:14:59.000Z</time>
      </trkpt>
      <trkpt lat="43.56817" lon="1.37897">
        <ele>162</ele>
        <time>2014-11-02T07:15:07.000Z</time>
      </trkpt>
      <trkpt lat="43.56827" lon="1.37832">
        <ele>161.19999694824</ele>
        <time>2014-11-02T07:15:15.000Z</time>
      </trkpt>
      <trkpt lat="43.56835" lon="1.37789">
        <ele>160.80000305176</ele>
        <time>2014-11-02T07:15:21.000Z</time>
      </trkpt>
      <trkpt lat="43.56837" lon="1.37785">
        <ele>160.80000305176</ele>
        <time>2014-11-02T07:15:22.000Z</time>
      </trkpt>
      <trkpt lat="43.56835" lon="1.3777">
        <ele>161</ele>
        <time>2014-11-02T07:15:26.000Z</time>
      </trkpt>
      <trkpt lat="43.56829" lon="1.37765">
        <ele>160.80000305176</ele>
        <time>2014-11-02T07:15:28.000Z</time>
      </trkpt>
      <trkpt lat="43.56819" lon="1.37761">
        <ele>160.39999389648</ele>
        <time>2014-11-02T07:15:31.000Z</time>
      </trkpt>
      <trkpt lat="43.56801" lon="1.37755">
        <ele>160</ele>
        <time>2014-11-02T07:15:37.000Z</time>
      </trkpt>
      <trkpt lat="43.56799" lon="1.3774">
        <ele>160</ele>
        <time>2014-11-02T07:15:41.000Z</time>
      </trkpt>
      <trkpt lat="43.56797" lon="1.37709">
        <ele>160</ele>
        <time>2014-11-02T07:15:46.000Z</time>
      </trkpt>
      <trkpt lat="43.56793" lon="1.37701">
        <ele>160</ele>
        <time>2014-11-02T07:15:47.000Z</time>
      </trkpt>
      <trkpt lat="43.56788" lon="1.37689">
        <ele>159.80000305176</ele>
        <time>2014-11-02T07:15:49.000Z</time>
      </trkpt>
      <trkpt lat="43.56767" lon="1.37653">
        <ele>159</ele>
        <time>2014-11-02T07:15:56.000Z</time>
      </trkpt>
      <trkpt lat="43.56758" lon="1.3764">
        <ele>159.19999694824</ele>
        <time>2014-11-02T07:15:58.000Z</time>
      </trkpt>
      <trkpt lat="43.56756" lon="1.37635">
        <ele>159.39999389648</ele>
        <time>2014-11-02T07:15:59.000Z</time>
      </trkpt>
      <trkpt lat="43.56754" lon="1.3762">
        <ele>159.60000610352</ele>
        <time>2014-11-02T07:16:02.000Z</time>
      </trkpt>
      <trkpt lat="43.56756" lon="1.37609">
        <ele>159.60000610352</ele>
        <time>2014-11-02T07:16:05.000Z</time>
      </trkpt>
      <trkpt lat="43.56756" lon="1.37599">
        <ele>159.80000305176</ele>
        <time>2014-11-02T07:16:08.000Z</time>
      </trkpt>
      <trkpt lat="43.56748" lon="1.37582">
        <ele>160</ele>
        <time>2014-11-02T07:16:12.000Z</time>
      </trkpt>
      <trkpt lat="43.56745" lon="1.37578">
        <ele>160.19999694824</ele>
        <time>2014-11-02T07:16:13.000Z</time>
      </trkpt>
      <trkpt lat="43.56723" lon="1.37549">
        <ele>160.80000305176</ele>
        <time>2014-11-02T07:16:19.000Z</time>
      </trkpt>
      <trkpt lat="43.56698" lon="1.37524">
        <ele>161.39999389648</ele>
        <time>2014-11-02T07:16:25.000Z</time>
      </trkpt>
      <trkpt lat="43.56693" lon="1.3752">
        <ele>161.39999389648</ele>
        <time>2014-11-02T07:16:26.000Z</time>
      </trkpt>
      <trkpt lat="43.5669" lon="1.37515">
        <ele>161.60000610352</ele>
        <time>2014-11-02T07:16:27.000Z</time>
      </trkpt>
      <trkpt lat="43.56664" lon="1.3749">
        <ele>161.80000305176</ele>
        <time>2014-11-02T07:16:33.000Z</time>
      </trkpt>
      <trkpt lat="43.56626" lon="1.37456">
        <ele>161.60000610352</ele>
        <time>2014-11-02T07:16:41.000Z</time>
      </trkpt>
      <trkpt lat="43.5659" lon="1.37422">
        <ele>161.19999694824</ele>
        <time>2014-11-02T07:16:49.000Z</time>
      </trkpt>
      <trkpt lat="43.56585" lon="1.37419">
        <ele>161.19999694824</ele>
        <time>2014-11-02T07:16:50.000Z</time>
      </trkpt>
      <trkpt lat="43.56567" lon="1.37403">
        <ele>161</ele>
        <time>2014-11-02T07:16:54.000Z</time>
      </trkpt>
      <trkpt lat="43.56529" lon="1.37372">
        <ele>161</ele>
        <time>2014-11-02T07:17:02.000Z</time>
      </trkpt>
      <trkpt lat="43.56489" lon="1.37345">
        <ele>161</ele>
        <time>2014-11-02T07:17:10.000Z</time>
      </trkpt>
      <trkpt lat="43.56436" lon="1.37314">
        <ele>161</ele>
        <time>2014-11-02T07:17:20.000Z</time>
      </trkpt>
      <trkpt lat="43.56399" lon="1.37292">
        <ele>161.39999389648</ele>
        <time>2014-11-02T07:17:27.000Z</time>
      </trkpt>
      <trkpt lat="43.56364" lon="1.37267">
        <ele>161.80000305176</ele>
        <time>2014-11-02T07:17:34.000Z</time>
      </trkpt>
      <trkpt lat="43.56328" lon="1.37235">
        <ele>162</ele>
        <time>2014-11-02T07:17:42.000Z</time>
      </trkpt>
      <trkpt lat="43.56288" lon="1.3719">
        <ele>162.39999389648</ele>
        <time>2014-11-02T07:17:51.000Z</time>
      </trkpt>
      <trkpt lat="43.56283" lon="1.37185">
        <ele>162.60000610352</ele>
        <time>2014-11-02T07:17:52.000Z</time>
      </trkpt>
      <trkpt lat="43.56279" lon="1.3718">
        <ele>162.60000610352</ele>
        <time>2014-11-02T07:17:53.000Z</time>
      </trkpt>
      <trkpt lat="43.56265" lon="1.37166">
        <ele>162.80000305176</ele>
        <time>2014-11-02T07:17:56.000Z</time>
      </trkpt>
      <trkpt lat="43.56261" lon="1.37161">
        <ele>162.80000305176</ele>
        <time>2014-11-02T07:17:57.000Z</time>
      </trkpt>
      <trkpt lat="43.56247" lon="1.37146">
        <ele>163</ele>
        <time>2014-11-02T07:18:00.000Z</time>
      </trkpt>
      <trkpt lat="43.56239" lon="1.37135">
        <ele>163</ele>
        <time>2014-11-02T07:18:02.000Z</time>
      </trkpt>
      <trkpt lat="43.56206" lon="1.37093">
        <ele>163</ele>
        <time>2014-11-02T07:18:10.000Z</time>
      </trkpt>
      <trkpt lat="43.56177" lon="1.37054">
        <ele>163</ele>
        <time>2014-11-02T07:18:17.000Z</time>
      </trkpt>
      <trkpt lat="43.56148" lon="1.37015">
        <ele>163.19999694824</ele>
        <time>2014-11-02T07:18:24.000Z</time>
      </trkpt>
      <trkpt lat="43.56131" lon="1.36993">
        <ele>163.19999694824</ele>
        <time>2014-11-02T07:18:28.000Z</time>
      </trkpt>
      <trkpt lat="43.56122" lon="1.36982">
        <ele>163.19999694824</ele>
        <time>2014-11-02T07:18:30.000Z</time>
      </trkpt>
      <trkpt lat="43.56087" lon="1.36938">
        <ele>163.19999694824</ele>
        <time>2014-11-02T07:18:38.000Z</time>
      </trkpt>
      <trkpt lat="43.56054" lon="1.36894">
        <ele>162</ele>
        <time>2014-11-02T07:18:46.000Z</time>
      </trkpt>
      <trkpt lat="43.56014" lon="1.36844">
        <ele>161.60000610352</ele>
        <time>2014-11-02T07:18:55.000Z</time>
      </trkpt>
      <trkpt lat="43.5598" lon="1.368">
        <ele>162.39999389648</ele>
        <time>2014-11-02T07:19:03.000Z</time>
      </trkpt>
      <trkpt lat="43.55949" lon="1.36764">
        <ele>163.19999694824</ele>
        <time>2014-11-02T07:19:10.000Z</time>
      </trkpt>
      <trkpt lat="43.55915" lon="1.36722">
        <ele>163.80000305176</ele>
        <time>2014-11-02T07:19:18.000Z</time>
      </trkpt>
      <trkpt lat="43.55911" lon="1.36717">
        <ele>163.80000305176</ele>
        <time>2014-11-02T07:19:19.000Z</time>
      </trkpt>
      <trkpt lat="43.55894" lon="1.36698">
        <ele>163.60000610352</ele>
        <time>2014-11-02T07:19:23.000Z</time>
      </trkpt>
      <trkpt lat="43.5589" lon="1.36692">
        <ele>163.39999389648</ele>
        <time>2014-11-02T07:19:24.000Z</time>
      </trkpt>
      <trkpt lat="43.55881" lon="1.3667">
        <ele>163.39999389648</ele>
        <time>2014-11-02T07:19:28.000Z</time>
      </trkpt>
      <trkpt lat="43.5588" lon="1.36665">
        <ele>163.39999389648</ele>
        <time>2014-11-02T07:19:29.000Z</time>
      </trkpt>
      <trkpt lat="43.5588" lon="1.36647">
        <ele>163.39999389648</ele>
        <time>2014-11-02T07:19:32.000Z</time>
      </trkpt>
      <trkpt lat="43.55886" lon="1.36627">
        <ele>163.39999389648</ele>
        <time>2014-11-02T07:19:35.000Z</time>
      </trkpt>
      <trkpt lat="43.55888" lon="1.36621">
        <ele>163.39999389648</ele>
        <time>2014-11-02T07:19:36.000Z</time>
      </trkpt>
      <trkpt lat="43.55905" lon="1.36554">
        <ele>163.19999694824</ele>
        <time>2014-11-02T07:19:45.000Z</time>
      </trkpt>
      <trkpt lat="43.55924" lon="1.36488">
        <ele>162.80000305176</ele>
        <time>2014-11-02T07:19:54.000Z</time>
      </trkpt>
      <trkpt lat="43.55939" lon="1.36421">
        <ele>165.19999694824</ele>
        <time>2014-11-02T07:20:03.000Z</time>
      </trkpt>
      <trkpt lat="43.55956" lon="1.36346">
        <ele>163.39999389648</ele>
        <time>2014-11-02T07:20:13.000Z</time>
      </trkpt>
      <trkpt lat="43.55966" lon="1.36285">
        <ele>162.80000305176</ele>
        <time>2014-11-02T07:20:21.000Z</time>
      </trkpt>
      <trkpt lat="43.55973" lon="1.3623">
        <ele>161.60000610352</ele>
        <time>2014-11-02T07:20:28.000Z</time>
      </trkpt>
      <trkpt lat="43.55976" lon="1.36213">
        <ele>161.19999694824</ele>
        <time>2014-11-02T07:20:30.000Z</time>
      </trkpt>
      <trkpt lat="43.55986" lon="1.36157">
        <ele>160.80000305176</ele>
        <time>2014-11-02T07:20:37.000Z</time>
      </trkpt>
      <trkpt lat="43.56005" lon="1.36081">
        <ele>160.19999694824</ele>
        <time>2014-11-02T07:20:47.000Z</time>
      </trkpt>
      <trkpt lat="43.56021" lon="1.36022">
        <ele>160.60000610352</ele>
        <time>2014-11-02T07:20:55.000Z</time>
      </trkpt>
      <trkpt lat="43.56038" lon="1.35956">
        <ele>161.39999389648</ele>
        <time>2014-11-02T07:21:04.000Z</time>
      </trkpt>
      <trkpt lat="43.56044" lon="1.35902">
        <ele>161.19999694824</ele>
        <time>2014-11-02T07:21:11.000Z</time>
      </trkpt>
      <trkpt lat="43.56048" lon="1.35838">
        <ele>159.80000305176</ele>
        <time>2014-11-02T07:21:19.000Z</time>
      </trkpt>
      <trkpt lat="43.5605" lon="1.35775">
        <ele>161</ele>
        <time>2014-11-02T07:21:27.000Z</time>
      </trkpt>
      <trkpt lat="43.56053" lon="1.35706">
        <ele>161.60000610352</ele>
        <time>2014-11-02T07:21:36.000Z</time>
      </trkpt>
      <trkpt lat="43.56052" lon="1.35652">
        <ele>161.39999389648</ele>
        <time>2014-11-02T07:21:43.000Z</time>
      </trkpt>
      <trkpt lat="43.56054" lon="1.35597">
        <ele>160.80000305176</ele>
        <time>2014-11-02T07:21:50.000Z</time>
      </trkpt>
      <trkpt lat="43.56056" lon="1.35528">
        <ele>162.60000610352</ele>
        <time>2014-11-02T07:21:59.000Z</time>
      </trkpt>
      <trkpt lat="43.56059" lon="1.35461">
        <ele>163.19999694824</ele>
        <time>2014-11-02T07:22:08.000Z</time>
      </trkpt>
      <trkpt lat="43.56062" lon="1.35399">
        <ele>163</ele>
        <time>2014-11-02T07:22:16.000Z</time>
      </trkpt>
      <trkpt lat="43.56064" lon="1.35343">
        <ele>162.60000610352</ele>
        <time>2014-11-02T07:22:23.000Z</time>
      </trkpt>
      <trkpt lat="43.56067" lon="1.35274">
        <ele>163.19999694824</ele>
        <time>2014-11-02T07:22:32.000Z</time>
      </trkpt>
      <trkpt lat="43.5607" lon="1.35218">
        <ele>164.39999389648</ele>
        <time>2014-11-02T07:22:39.000Z</time>
      </trkpt>
      <trkpt lat="43.56072" lon="1.35155">
        <ele>164</ele>
        <time>2014-11-02T07:22:47.000Z</time>
      </trkpt>
      <trkpt lat="43.56075" lon="1.35077">
        <ele>164.80000305176</ele>
        <time>2014-11-02T07:22:57.000Z</time>
      </trkpt>
      <trkpt lat="43.56076" lon="1.35061">
        <ele>165</ele>
        <time>2014-11-02T07:22:59.000Z</time>
      </trkpt>
      <trkpt lat="43.56077" lon="1.34991">
        <ele>165</ele>
        <time>2014-11-02T07:23:08.000Z</time>
      </trkpt>
      <trkpt lat="43.56077" lon="1.34975">
        <ele>165.19999694824</ele>
        <time>2014-11-02T07:23:10.000Z</time>
      </trkpt>
      <trkpt lat="43.56077" lon="1.34897">
        <ele>165.19999694824</ele>
        <time>2014-11-02T07:23:20.000Z</time>
      </trkpt>
      <trkpt lat="43.56077" lon="1.3489">
        <ele>165.19999694824</ele>
        <time>2014-11-02T07:23:21.000Z</time>
      </trkpt>
      <trkpt lat="43.56078" lon="1.34812">
        <ele>163</ele>
        <time>2014-11-02T07:23:31.000Z</time>
      </trkpt>
      <trkpt lat="43.56077" lon="1.34741">
        <ele>164.39999389648</ele>
        <time>2014-11-02T07:23:40.000Z</time>
      </trkpt>
      <trkpt lat="43.56077" lon="1.34664">
        <ele>165.19999694824</ele>
        <time>2014-11-02T07:23:50.000Z</time>
      </trkpt>
      <trkpt lat="43.56076" lon="1.34632">
        <ele>165.80000305176</ele>
        <time>2014-11-02T07:23:54.000Z</time>
      </trkpt>
      <trkpt lat="43.56076" lon="1.34608">
        <ele>166.60000610352</ele>
        <time>2014-11-02T07:23:57.000Z</time>
      </trkpt>
      <trkpt lat="43.56076" lon="1.34528">
        <ele>167</ele>
        <time>2014-11-02T07:24:07.000Z</time>
      </trkpt>
      <trkpt lat="43.56076" lon="1.3452">
        <ele>167</ele>
        <time>2014-11-02T07:24:08.000Z</time>
      </trkpt>
      <trkpt lat="43.56077" lon="1.34438">
        <ele>165.80000305176</ele>
        <time>2014-11-02T07:24:18.000Z</time>
      </trkpt>
      <trkpt lat="43.56088" lon="1.34384">
        <ele>165.60000610352</ele>
        <time>2014-11-02T07:24:25.000Z</time>
      </trkpt>
      <trkpt lat="43.56105" lon="1.34335">
        <ele>164</ele>
        <time>2014-11-02T07:24:32.000Z</time>
      </trkpt>
      <trkpt lat="43.56132" lon="1.34291">
        <ele>164.80000305176</ele>
        <time>2014-11-02T07:24:39.000Z</time>
      </trkpt>
      <trkpt lat="43.56168" lon="1.34249">
        <ele>165.19999694824</ele>
        <time>2014-11-02T07:24:47.000Z</time>
      </trkpt>
      <trkpt lat="43.56203" lon="1.34205">
        <ele>165</ele>
        <time>2014-11-02T07:24:55.000Z</time>
      </trkpt>
      <trkpt lat="43.56223" lon="1.34162">
        <ele>165</ele>
        <time>2014-11-02T07:25:01.000Z</time>
      </trkpt>
      <trkpt lat="43.56248" lon="1.34093">
        <ele>164.80000305176</ele>
        <time>2014-11-02T07:25:10.000Z</time>
      </trkpt>
      <trkpt lat="43.56251" lon="1.34085">
        <ele>164.80000305176</ele>
        <time>2014-11-02T07:25:11.000Z</time>
      </trkpt>
      <trkpt lat="43.56277" lon="1.34017">
        <ele>164.19999694824</ele>
        <time>2014-11-02T07:25:20.000Z</time>
      </trkpt>
      <trkpt lat="43.56295" lon="1.33982">
        <ele>163.60000610352</ele>
        <time>2014-11-02T07:25:26.000Z</time>
      </trkpt>
      <trkpt lat="43.56299" lon="1.33978">
        <ele>163.80000305176</ele>
        <time>2014-11-02T07:25:27.000Z</time>
      </trkpt>
      <trkpt lat="43.56317" lon="1.3397">
        <ele>164</ele>
        <time>2014-11-02T07:25:31.000Z</time>
      </trkpt>
      <trkpt lat="43.56322" lon="1.33969">
        <ele>164.19999694824</ele>
        <time>2014-11-02T07:25:32.000Z</time>
      </trkpt>
      <trkpt lat="43.56333" lon="1.33966">
        <ele>164.39999389648</ele>
        <time>2014-11-02T07:25:35.000Z</time>
      </trkpt>
      <trkpt lat="43.56334" lon="1.33963">
        <ele>164.39999389648</ele>
        <time>2014-11-02T07:25:36.000Z</time>
      </trkpt>
      <trkpt lat="43.56335" lon="1.33961">
        <ele>164.19999694824</ele>
        <time>2014-11-02T07:25:38.000Z</time>
      </trkpt>
      <trkpt lat="43.56335" lon="1.33955">
        <ele>164</ele>
        <time>2014-11-02T07:42:35.000Z</time>
      </trkpt>
      <trkpt lat="43.56334" lon="1.33945">
        <ele>163.80000305176</ele>
        <time>2014-11-02T07:42:40.000Z</time>
      </trkpt>
      <trkpt lat="43.56334" lon="1.33939">
        <ele>163.60000610352</ele>
        <time>2014-11-02T07:42:42.000Z</time>
      </trkpt>
      <trkpt lat="43.56339" lon="1.33928">
        <ele>163.19999694824</ele>
        <time>2014-11-02T07:42:46.000Z</time>
      </trkpt>
      <trkpt lat="43.56356" lon="1.3391">
        <ele>162.39999389648</ele>
        <time>2014-11-02T07:42:52.000Z</time>
      </trkpt>
      <trkpt lat="43.5636" lon="1.33906">
        <ele>162.19999694824</ele>
        <time>2014-11-02T07:42:53.000Z</time>
      </trkpt>
      <trkpt lat="43.5638" lon="1.33886">
        <ele>160.80000305176</ele>
        <time>2014-11-02T07:42:58.000Z</time>
      </trkpt>
      <trkpt lat="43.56413" lon="1.33853">
        <ele>159.60000610352</ele>
        <time>2014-11-02T07:43:05.000Z</time>
      </trkpt>
      <trkpt lat="43.56453" lon="1.33813">
        <ele>160</ele>
        <time>2014-11-02T07:43:13.000Z</time>
      </trkpt>
      <trkpt lat="43.56484" lon="1.33783">
        <ele>162.19999694824</ele>
        <time>2014-11-02T07:43:19.000Z</time>
      </trkpt>
      <trkpt lat="43.5653" lon="1.33739">
        <ele>162.19999694824</ele>
        <time>2014-11-02T07:43:27.000Z</time>
      </trkpt>
      <trkpt lat="43.56577" lon="1.33695">
        <ele>164</ele>
        <time>2014-11-02T07:43:35.000Z</time>
      </trkpt>
      <trkpt lat="43.56589" lon="1.33684">
        <ele>164</ele>
        <time>2014-11-02T07:43:37.000Z</time>
      </trkpt>
      <trkpt lat="43.56635" lon="1.33648">
        <ele>164</ele>
        <time>2014-11-02T07:43:44.000Z</time>
      </trkpt>
      <trkpt lat="43.56684" lon="1.3361">
        <ele>163.19999694824</ele>
        <time>2014-11-02T07:43:52.000Z</time>
      </trkpt>
      <trkpt lat="43.56689" lon="1.33605">
        <ele>162.80000305176</ele>
        <time>2014-11-02T07:43:53.000Z</time>
      </trkpt>
      <trkpt lat="43.56699" lon="1.33598">
        <ele>162.39999389648</ele>
        <time>2014-11-02T07:43:55.000Z</time>
      </trkpt>
      <trkpt lat="43.56706" lon="1.33599">
        <ele>162.39999389648</ele>
        <time>2014-11-02T07:43:57.000Z</time>
      </trkpt>
      <trkpt lat="43.56712" lon="1.33607">
        <ele>162.39999389648</ele>
        <time>2014-11-02T07:44:00.000Z</time>
      </trkpt>
      <trkpt lat="43.56717" lon="1.33602">
        <ele>162.19999694824</ele>
        <time>2014-11-02T07:44:03.000Z</time>
      </trkpt>
      <trkpt lat="43.56726" lon="1.33598">
        <ele>162</ele>
        <time>2014-11-02T07:44:06.000Z</time>
      </trkpt>
      <trkpt lat="43.56728" lon="1.33585">
        <ele>162</ele>
        <time>2014-11-02T07:44:09.000Z</time>
      </trkpt>
      <trkpt lat="43.56734" lon="1.3357">
        <ele>162</ele>
        <time>2014-11-02T07:44:12.000Z</time>
      </trkpt>
      <trkpt lat="43.56742" lon="1.33564">
        <ele>162</ele>
        <time>2014-11-02T07:44:14.000Z</time>
      </trkpt>
      <trkpt lat="43.56761" lon="1.3355">
        <ele>162</ele>
        <time>2014-11-02T07:44:18.000Z</time>
      </trkpt>
      <trkpt lat="43.56798" lon="1.3352">
        <ele>163.19999694824</ele>
        <time>2014-11-02T07:44:25.000Z</time>
      </trkpt>
      <trkpt lat="43.56846" lon="1.33481">
        <ele>162</ele>
        <time>2014-11-02T07:44:33.000Z</time>
      </trkpt>
      <trkpt lat="43.56889" lon="1.33448">
        <ele>162.60000610352</ele>
        <time>2014-11-02T07:44:40.000Z</time>
      </trkpt>
      <trkpt lat="43.56916" lon="1.33428">
        <ele>161.60000610352</ele>
        <time>2014-11-02T07:44:45.000Z</time>
      </trkpt>
      <trkpt lat="43.56928" lon="1.33422">
        <ele>161.19999694824</ele>
        <time>2014-11-02T07:44:49.000Z</time>
      </trkpt>
      <trkpt lat="43.56932" lon="1.33413">
        <ele>160.80000305176</ele>
        <time>2014-11-02T07:44:53.000Z</time>
      </trkpt>
      <trkpt lat="43.56946" lon="1.3341">
        <ele>160.39999389648</ele>
        <time>2014-11-02T07:44:57.000Z</time>
      </trkpt>
      <trkpt lat="43.56951" lon="1.33412">
        <ele>160.60000610352</ele>
        <time>2014-11-02T07:44:58.000Z</time>
      </trkpt>
      <trkpt lat="43.56967" lon="1.33412">
        <ele>161.19999694824</ele>
        <time>2014-11-02T07:45:01.000Z</time>
      </trkpt>
      <trkpt lat="43.56973" lon="1.33407">
        <ele>161.39999389648</ele>
        <time>2014-11-02T07:45:02.000Z</time>
      </trkpt>
      <trkpt lat="43.56981" lon="1.33394">
        <ele>161.80000305176</ele>
        <time>2014-11-02T07:45:04.000Z</time>
      </trkpt>
      <trkpt lat="43.56982" lon="1.33369">
        <ele>162.80000305176</ele>
        <time>2014-11-02T07:45:07.000Z</time>
      </trkpt>
      <trkpt lat="43.56967" lon="1.33353">
        <ele>162.80000305176</ele>
        <time>2014-11-02T07:45:10.000Z</time>
      </trkpt>
      <trkpt lat="43.56942" lon="1.33347">
        <ele>162</ele>
        <time>2014-11-02T07:45:14.000Z</time>
      </trkpt>
      <trkpt lat="43.5693" lon="1.33326">
        <ele>162.60000610352</ele>
        <time>2014-11-02T07:45:17.000Z</time>
      </trkpt>
      <trkpt lat="43.56927" lon="1.33317">
        <ele>162.80000305176</ele>
        <time>2014-11-02T07:45:18.000Z</time>
      </trkpt>
      <trkpt lat="43.56912" lon="1.33271">
        <ele>162.39999389648</ele>
        <time>2014-11-02T07:45:23.000Z</time>
      </trkpt>
      <trkpt lat="43.569" lon="1.33234">
        <ele>162</ele>
        <time>2014-11-02T07:45:27.000Z</time>
      </trkpt>
      <trkpt lat="43.5689" lon="1.33206">
        <ele>162.19999694824</ele>
        <time>2014-11-02T07:45:30.000Z</time>
      </trkpt>
      <trkpt lat="43.56868" lon="1.3314">
        <ele>162.60000610352</ele>
        <time>2014-11-02T07:45:37.000Z</time>
      </trkpt>
      <trkpt lat="43.56844" lon="1.33066">
        <ele>165</ele>
        <time>2014-11-02T07:45:45.000Z</time>
      </trkpt>
      <trkpt lat="43.56841" lon="1.33057">
        <ele>165</ele>
        <time>2014-11-02T07:45:46.000Z</time>
      </trkpt>
      <trkpt lat="43.56816" lon="1.32981">
        <ele>165</ele>
        <time>2014-11-02T07:45:54.000Z</time>
      </trkpt>
      <trkpt lat="43.56794" lon="1.32913">
        <ele>164</ele>
        <time>2014-11-02T07:46:01.000Z</time>
      </trkpt>
      <trkpt lat="43.56771" lon="1.32846">
        <ele>162.19999694824</ele>
        <time>2014-11-02T07:46:08.000Z</time>
      </trkpt>
      <trkpt lat="43.56748" lon="1.32779">
        <ele>161.80000305176</ele>
        <time>2014-11-02T07:46:15.000Z</time>
      </trkpt>
      <trkpt lat="43.5674" lon="1.32751">
        <ele>162.60000610352</ele>
        <time>2014-11-02T07:46:18.000Z</time>
      </trkpt>
      <trkpt lat="43.56738" lon="1.32732">
        <ele>163.19999694824</ele>
        <time>2014-11-02T07:46:20.000Z</time>
      </trkpt>
      <trkpt lat="43.56732" lon="1.32714">
        <ele>163</ele>
        <time>2014-11-02T07:46:22.000Z</time>
      </trkpt>
      <trkpt lat="43.56726" lon="1.32695">
        <ele>162.60000610352</ele>
        <time>2014-11-02T07:46:24.000Z</time>
      </trkpt>
      <trkpt lat="43.56699" lon="1.32619">
        <ele>161</ele>
        <time>2014-11-02T07:46:32.000Z</time>
      </trkpt>
      <trkpt lat="43.56693" lon="1.32602">
        <ele>161</ele>
        <time>2014-11-02T07:46:34.000Z</time>
      </trkpt>
      <trkpt lat="43.5667" lon="1.32531">
        <ele>161.80000305176</ele>
        <time>2014-11-02T07:46:42.000Z</time>
      </trkpt>
      <trkpt lat="43.56667" lon="1.32522">
        <ele>161.80000305176</ele>
        <time>2014-11-02T07:46:43.000Z</time>
      </trkpt>
      <trkpt lat="43.5666" lon="1.32505">
        <ele>162.19999694824</ele>
        <time>2014-11-02T07:46:45.000Z</time>
      </trkpt>
      <trkpt lat="43.56652" lon="1.32488">
        <ele>162.60000610352</ele>
        <time>2014-11-02T07:46:47.000Z</time>
      </trkpt>
      <trkpt lat="43.56647" lon="1.32471">
        <ele>162.60000610352</ele>
        <time>2014-11-02T07:46:49.000Z</time>
      </trkpt>
      <trkpt lat="43.56634" lon="1.32429">
        <ele>162.19999694824</ele>
        <time>2014-11-02T07:46:54.000Z</time>
      </trkpt>
      <trkpt lat="43.5662" lon="1.32378">
        <ele>162.19999694824</ele>
        <time>2014-11-02T07:47:00.000Z</time>
      </trkpt>
      <trkpt lat="43.56603" lon="1.32318">
        <ele>161</ele>
        <time>2014-11-02T07:47:07.000Z</time>
      </trkpt>
      <trkpt lat="43.56588" lon="1.32276">
        <ele>162</ele>
        <time>2014-11-02T07:47:12.000Z</time>
      </trkpt>
      <trkpt lat="43.56585" lon="1.32269">
        <ele>162.19999694824</ele>
        <time>2014-11-02T07:47:13.000Z</time>
      </trkpt>
      <trkpt lat="43.5657" lon="1.32236">
        <ele>163</ele>
        <time>2014-11-02T07:47:17.000Z</time>
      </trkpt>
      <trkpt lat="43.56544" lon="1.32183">
        <ele>163.19999694824</ele>
        <time>2014-11-02T07:47:24.000Z</time>
      </trkpt>
      <trkpt lat="43.56528" lon="1.3214">
        <ele>163.60000610352</ele>
        <time>2014-11-02T07:47:29.000Z</time>
      </trkpt>
      <trkpt lat="43.56521" lon="1.32113">
        <ele>165.39999389648</ele>
        <time>2014-11-02T07:47:32.000Z</time>
      </trkpt>
      <trkpt lat="43.56514" lon="1.32087">
        <ele>167.19999694824</ele>
        <time>2014-11-02T07:47:35.000Z</time>
      </trkpt>
      <trkpt lat="43.56498" lon="1.32022">
        <ele>168.19999694824</ele>
        <time>2014-11-02T07:47:42.000Z</time>
      </trkpt>
      <trkpt lat="43.56496" lon="1.32012">
        <ele>168.19999694824</ele>
        <time>2014-11-02T07:47:43.000Z</time>
      </trkpt>
      <trkpt lat="43.56495" lon="1.32003">
        <ele>168.19999694824</ele>
        <time>2014-11-02T07:47:44.000Z</time>
      </trkpt>
      <trkpt lat="43.56493" lon="1.31984">
        <ele>168.19999694824</ele>
        <time>2014-11-02T07:47:46.000Z</time>
      </trkpt>
      <trkpt lat="43.5649" lon="1.31975">
        <ele>168</ele>
        <time>2014-11-02T07:47:47.000Z</time>
      </trkpt>
      <trkpt lat="43.56481" lon="1.3194">
        <ele>167.19999694824</ele>
        <time>2014-11-02T07:47:51.000Z</time>
      </trkpt>
      <trkpt lat="43.56478" lon="1.31931">
        <ele>166.80000305176</ele>
        <time>2014-11-02T07:47:52.000Z</time>
      </trkpt>
      <trkpt lat="43.56464" lon="1.31878">
        <ele>165.19999694824</ele>
        <time>2014-11-02T07:47:58.000Z</time>
      </trkpt>
      <trkpt lat="43.56459" lon="1.31859">
        <ele>164.80000305176</ele>
        <time>2014-11-02T07:48:01.000Z</time>
      </trkpt>
      <trkpt lat="43.56456" lon="1.31854">
        <ele>164.80000305176</ele>
        <time>2014-11-02T07:48:02.000Z</time>
      </trkpt>
      <trkpt lat="43.56444" lon="1.31826">
        <ele>164.19999694824</ele>
        <time>2014-11-02T07:48:06.000Z</time>
      </trkpt>
      <trkpt lat="43.56432" lon="1.31782">
        <ele>164</ele>
        <time>2014-11-02T07:48:11.000Z</time>
      </trkpt>
      <trkpt lat="43.56421" lon="1.31735">
        <ele>163.60000610352</ele>
        <time>2014-11-02T07:48:16.000Z</time>
      </trkpt>
      <trkpt lat="43.56415" lon="1.31705">
        <ele>163.39999389648</ele>
        <time>2014-11-02T07:48:19.000Z</time>
      </trkpt>
      <trkpt lat="43.5641" lon="1.31687">
        <ele>163.39999389648</ele>
        <time>2014-11-02T07:48:21.000Z</time>
      </trkpt>
      <trkpt lat="43.56403" lon="1.31656">
        <ele>163.39999389648</ele>
        <time>2014-11-02T07:48:24.000Z</time>
      </trkpt>
      <trkpt lat="43.56387" lon="1.31587">
        <ele>163</ele>
        <time>2014-11-02T07:48:31.000Z</time>
      </trkpt>
      <trkpt lat="43.56369" lon="1.31508">
        <ele>163.60000610352</ele>
        <time>2014-11-02T07:48:39.000Z</time>
      </trkpt>
      <trkpt lat="43.56367" lon="1.31498">
        <ele>163.80000305176</ele>
        <time>2014-11-02T07:48:40.000Z</time>
      </trkpt>
      <trkpt lat="43.56349" lon="1.31419">
        <ele>164</ele>
        <time>2014-11-02T07:48:48.000Z</time>
      </trkpt>
      <trkpt lat="43.56346" lon="1.31409">
        <ele>164</ele>
        <time>2014-11-02T07:48:49.000Z</time>
      </trkpt>
      <trkpt lat="43.5633" lon="1.31342">
        <ele>163.80000305176</ele>
        <time>2014-11-02T07:48:56.000Z</time>
      </trkpt>
      <trkpt lat="43.56309" lon="1.31277">
        <ele>164</ele>
        <time>2014-11-02T07:49:03.000Z</time>
      </trkpt>
      <trkpt lat="43.56307" lon="1.31268">
        <ele>164</ele>
        <time>2014-11-02T07:49:04.000Z</time>
      </trkpt>
      <trkpt lat="43.56306" lon="1.31249">
        <ele>164.19999694824</ele>
        <time>2014-11-02T07:49:06.000Z</time>
      </trkpt>
      <trkpt lat="43.563" lon="1.31234">
        <ele>164.39999389648</ele>
        <time>2014-11-02T07:49:08.000Z</time>
      </trkpt>
      <trkpt lat="43.56295" lon="1.31227">
        <ele>164.39999389648</ele>
        <time>2014-11-02T07:49:09.000Z</time>
      </trkpt>
      <trkpt lat="43.56291" lon="1.31219">
        <ele>164.60000610352</ele>
        <time>2014-11-02T07:49:10.000Z</time>
      </trkpt>
      <trkpt lat="43.56284" lon="1.31202">
        <ele>164.80000305176</ele>
        <time>2014-11-02T07:49:12.000Z</time>
      </trkpt>
      <trkpt lat="43.56271" lon="1.31166">
        <ele>165.60000610352</ele>
        <time>2014-11-02T07:49:16.000Z</time>
      </trkpt>
      <trkpt lat="43.56254" lon="1.31119">
        <ele>165.60000610352</ele>
        <time>2014-11-02T07:49:21.000Z</time>
      </trkpt>
      <trkpt lat="43.5623" lon="1.31053">
        <ele>164.60000610352</ele>
        <time>2014-11-02T07:49:28.000Z</time>
      </trkpt>
      <trkpt lat="43.56215" lon="1.31008">
        <ele>165</ele>
        <time>2014-11-02T07:49:33.000Z</time>
      </trkpt>
      <trkpt lat="43.56213" lon="1.30998">
        <ele>164.80000305176</ele>
        <time>2014-11-02T07:49:34.000Z</time>
      </trkpt>
      <trkpt lat="43.56208" lon="1.30971">
        <ele>164.80000305176</ele>
        <time>2014-11-02T07:49:37.000Z</time>
      </trkpt>
      <trkpt lat="43.56203" lon="1.30965">
        <ele>164.80000305176</ele>
        <time>2014-11-02T07:49:38.000Z</time>
      </trkpt>
      <trkpt lat="43.56198" lon="1.3096">
        <ele>164.80000305176</ele>
        <time>2014-11-02T07:49:39.000Z</time>
      </trkpt>
      <trkpt lat="43.56187" lon="1.30933">
        <ele>165</ele>
        <time>2014-11-02T07:49:42.000Z</time>
      </trkpt>
      <trkpt lat="43.56161" lon="1.3086">
        <ele>165.19999694824</ele>
        <time>2014-11-02T07:49:50.000Z</time>
      </trkpt>
      <trkpt lat="43.56143" lon="1.30793">
        <ele>164.80000305176</ele>
        <time>2014-11-02T07:49:57.000Z</time>
      </trkpt>
      <trkpt lat="43.56138" lon="1.30729">
        <ele>164.19999694824</ele>
        <time>2014-11-02T07:50:03.000Z</time>
      </trkpt>
      <trkpt lat="43.56131" lon="1.30656">
        <ele>164.60000610352</ele>
        <time>2014-11-02T07:50:10.000Z</time>
      </trkpt>
      <trkpt lat="43.56118" lon="1.30583">
        <ele>164</ele>
        <time>2014-11-02T07:50:17.000Z</time>
      </trkpt>
      <trkpt lat="43.56116" lon="1.30572">
        <ele>164</ele>
        <time>2014-11-02T07:50:18.000Z</time>
      </trkpt>
      <trkpt lat="43.561" lon="1.30501">
        <ele>164</ele>
        <time>2014-11-02T07:50:25.000Z</time>
      </trkpt>
      <trkpt lat="43.56093" lon="1.3047">
        <ele>164</ele>
        <time>2014-11-02T07:50:28.000Z</time>
      </trkpt>
      <trkpt lat="43.56076" lon="1.30398">
        <ele>164</ele>
        <time>2014-11-02T07:50:35.000Z</time>
      </trkpt>
      <trkpt lat="43.5607" lon="1.30366">
        <ele>164.39999389648</ele>
        <time>2014-11-02T07:50:38.000Z</time>
      </trkpt>
      <trkpt lat="43.56059" lon="1.30293">
        <ele>166.19999694824</ele>
        <time>2014-11-02T07:50:45.000Z</time>
      </trkpt>
      <trkpt lat="43.56058" lon="1.30283">
        <ele>166.60000610352</ele>
        <time>2014-11-02T07:50:46.000Z</time>
      </trkpt>
      <trkpt lat="43.56053" lon="1.30209">
        <ele>166.60000610352</ele>
        <time>2014-11-02T07:50:53.000Z</time>
      </trkpt>
      <trkpt lat="43.56052" lon="1.30167">
        <ele>166</ele>
        <time>2014-11-02T07:50:57.000Z</time>
      </trkpt>
      <trkpt lat="43.56051" lon="1.30082">
        <ele>163.80000305176</ele>
        <time>2014-11-02T07:51:05.000Z</time>
      </trkpt>
      <trkpt lat="43.56052" lon="1.30072">
        <ele>163.60000610352</ele>
        <time>2014-11-02T07:51:06.000Z</time>
      </trkpt>
      <trkpt lat="43.56055" lon="1.29996">
        <ele>163.39999389648</ele>
        <time>2014-11-02T07:51:13.000Z</time>
      </trkpt>
      <trkpt lat="43.56056" lon="1.29975">
        <ele>163.19999694824</ele>
        <time>2014-11-02T07:51:15.000Z</time>
      </trkpt>
      <trkpt lat="43.56059" lon="1.299">
        <ele>164</ele>
        <time>2014-11-02T07:51:22.000Z</time>
      </trkpt>
      <trkpt lat="43.56062" lon="1.29857">
        <ele>163.80000305176</ele>
        <time>2014-11-02T07:51:26.000Z</time>
      </trkpt>
      <trkpt lat="43.56066" lon="1.29784">
        <ele>164.19999694824</ele>
        <time>2014-11-02T07:51:33.000Z</time>
      </trkpt>
      <trkpt lat="43.56072" lon="1.29764">
        <ele>164.60000610352</ele>
        <time>2014-11-02T07:51:35.000Z</time>
      </trkpt>
      <trkpt lat="43.56079" lon="1.29745">
        <ele>164.80000305176</ele>
        <time>2014-11-02T07:51:37.000Z</time>
      </trkpt>
      <trkpt lat="43.56083" lon="1.29737">
        <ele>165</ele>
        <time>2014-11-02T07:51:38.000Z</time>
      </trkpt>
      <trkpt lat="43.56095" lon="1.29724">
        <ele>165</ele>
        <time>2014-11-02T07:51:40.000Z</time>
      </trkpt>
      <trkpt lat="43.56139" lon="1.29685">
        <ele>164.80000305176</ele>
        <time>2014-11-02T07:51:47.000Z</time>
      </trkpt>
      <trkpt lat="43.56185" lon="1.29646">
        <ele>166</ele>
        <time>2014-11-02T07:51:54.000Z</time>
      </trkpt>
      <trkpt lat="43.56192" lon="1.2964">
        <ele>166</ele>
        <time>2014-11-02T07:51:55.000Z</time>
      </trkpt>
      <trkpt lat="43.56233" lon="1.29606">
        <ele>165.60000610352</ele>
        <time>2014-11-02T07:52:01.000Z</time>
      </trkpt>
      <trkpt lat="43.56271" lon="1.29573">
        <ele>166.80000305176</ele>
        <time>2014-11-02T07:52:07.000Z</time>
      </trkpt>
      <trkpt lat="43.56289" lon="1.29561">
        <ele>166.80000305176</ele>
        <time>2014-11-02T07:52:10.000Z</time>
      </trkpt>
      <trkpt lat="43.56295" lon="1.29562">
        <ele>166.60000610352</ele>
        <time>2014-11-02T07:52:11.000Z</time>
      </trkpt>
      <trkpt lat="43.56316" lon="1.29571">
        <ele>166.39999389648</ele>
        <time>2014-11-02T07:52:14.000Z</time>
      </trkpt>
      <trkpt lat="43.56323" lon="1.29573">
        <ele>166.19999694824</ele>
        <time>2014-11-02T07:52:15.000Z</time>
      </trkpt>
      <trkpt lat="43.56355" lon="1.29586">
        <ele>165.80000305176</ele>
        <time>2014-11-02T07:52:19.000Z</time>
      </trkpt>
      <trkpt lat="43.56384" lon="1.29609">
        <ele>165.80000305176</ele>
        <time>2014-11-02T07:52:23.000Z</time>
      </trkpt>
      <trkpt lat="43.5641" lon="1.29632">
        <ele>165.80000305176</ele>
        <time>2014-11-02T07:52:27.000Z</time>
      </trkpt>
      <trkpt lat="43.56445" lon="1.29672">
        <ele>165.80000305176</ele>
        <time>2014-11-02T07:52:33.000Z</time>
      </trkpt>
      <trkpt lat="43.5645" lon="1.2968">
        <ele>165.80000305176</ele>
        <time>2014-11-02T07:52:34.000Z</time>
      </trkpt>
      <trkpt lat="43.56463" lon="1.29705">
        <ele>165.60000610352</ele>
        <time>2014-11-02T07:52:37.000Z</time>
      </trkpt>
      <trkpt lat="43.56486" lon="1.29755">
        <ele>165.60000610352</ele>
        <time>2014-11-02T07:52:43.000Z</time>
      </trkpt>
      <trkpt lat="43.56487" lon="1.29764">
        <ele>165.60000610352</ele>
        <time>2014-11-02T07:52:44.000Z</time>
      </trkpt>
      <trkpt lat="43.56491" lon="1.29785">
        <ele>165.60000610352</ele>
        <time>2014-11-02T07:52:47.000Z</time>
      </trkpt>
      <trkpt lat="43.56505" lon="1.29797">
        <ele>165.80000305176</ele>
        <time>2014-11-02T07:52:50.000Z</time>
      </trkpt>
      <trkpt lat="43.56513" lon="1.29819">
        <ele>165.80000305176</ele>
        <time>2014-11-02T07:52:53.000Z</time>
      </trkpt>
      <trkpt lat="43.56515" lon="1.29827">
        <ele>165.60000610352</ele>
        <time>2014-11-02T07:52:54.000Z</time>
      </trkpt>
      <trkpt lat="43.56525" lon="1.29843">
        <ele>165.80000305176</ele>
        <time>2014-11-02T07:52:57.000Z</time>
      </trkpt>
      <trkpt lat="43.56536" lon="1.29838">
        <ele>166.39999389648</ele>
        <time>2014-11-02T07:52:59.000Z</time>
      </trkpt>
      <trkpt lat="43.56541" lon="1.29834">
        <ele>166.80000305176</ele>
        <time>2014-11-02T07:53:00.000Z</time>
      </trkpt>
      <trkpt lat="43.56552" lon="1.29826">
        <ele>167.19999694824</ele>
        <time>2014-11-02T07:53:02.000Z</time>
      </trkpt>
      <trkpt lat="43.56562" lon="1.29819">
        <ele>167.60000610352</ele>
        <time>2014-11-02T07:53:04.000Z</time>
      </trkpt>
      <trkpt lat="43.56584" lon="1.29801">
        <ele>168.39999389648</ele>
        <time>2014-11-02T07:53:09.000Z</time>
      </trkpt>
      <trkpt lat="43.56611" lon="1.29782">
        <ele>168.60000610352</ele>
        <time>2014-11-02T07:53:14.000Z</time>
      </trkpt>
      <trkpt lat="43.56649" lon="1.29754">
        <ele>168.60000610352</ele>
        <time>2014-11-02T07:53:21.000Z</time>
      </trkpt>
      <trkpt lat="43.56654" lon="1.29749">
        <ele>168.60000610352</ele>
        <time>2014-11-02T07:53:22.000Z</time>
      </trkpt>
      <trkpt lat="43.56664" lon="1.29746">
        <ele>168.80000305176</ele>
        <time>2014-11-02T07:53:24.000Z</time>
      </trkpt>
      <trkpt lat="43.56669" lon="1.29743">
        <ele>168.80000305176</ele>
        <time>2014-11-02T07:53:25.000Z</time>
      </trkpt>
      <trkpt lat="43.56677" lon="1.29733">
        <ele>169</ele>
        <time>2014-11-02T07:53:27.000Z</time>
      </trkpt>
      <trkpt lat="43.56686" lon="1.29723">
        <ele>169</ele>
        <time>2014-11-02T07:53:29.000Z</time>
      </trkpt>
      <trkpt lat="43.56706" lon="1.29703">
        <ele>168.80000305176</ele>
        <time>2014-11-02T07:53:33.000Z</time>
      </trkpt>
      <trkpt lat="43.56753" lon="1.29662">
        <ele>167.60000610352</ele>
        <time>2014-11-02T07:53:41.000Z</time>
      </trkpt>
      <trkpt lat="43.56759" lon="1.29657">
        <ele>167.39999389648</ele>
        <time>2014-11-02T07:53:42.000Z</time>
      </trkpt>
      <trkpt lat="43.56784" lon="1.29637">
        <ele>166.80000305176</ele>
        <time>2014-11-02T07:53:46.000Z</time>
      </trkpt>
      <trkpt lat="43.56809" lon="1.29618">
        <ele>166.60000610352</ele>
        <time>2014-11-02T07:53:50.000Z</time>
      </trkpt>
      <trkpt lat="43.56856" lon="1.29577">
        <ele>166.80000305176</ele>
        <time>2014-11-02T07:53:58.000Z</time>
      </trkpt>
      <trkpt lat="43.56897" lon="1.29537">
        <ele>168.39999389648</ele>
        <time>2014-11-02T07:54:05.000Z</time>
      </trkpt>
      <trkpt lat="43.56944" lon="1.29493">
        <ele>169.80000305176</ele>
        <time>2014-11-02T07:54:13.000Z</time>
      </trkpt>
      <trkpt lat="43.56984" lon="1.29455">
        <ele>170.19999694824</ele>
        <time>2014-11-02T07:54:20.000Z</time>
      </trkpt>
      <trkpt lat="43.57018" lon="1.29422">
        <ele>171.60000610352</ele>
        <time>2014-11-02T07:54:26.000Z</time>
      </trkpt>
      <trkpt lat="43.57065" lon="1.29379">
        <ele>173.19999694824</ele>
        <time>2014-11-02T07:54:34.000Z</time>
      </trkpt>
      <trkpt lat="43.57071" lon="1.29373">
        <ele>173.19999694824</ele>
        <time>2014-11-02T07:54:35.000Z</time>
      </trkpt>
      <trkpt lat="43.57118" lon="1.29335">
        <ele>176.39999389648</ele>
        <time>2014-11-02T07:54:43.000Z</time>
      </trkpt>
      <trkpt lat="43.57166" lon="1.29303">
        <ele>179.39999389648</ele>
        <time>2014-11-02T07:54:51.000Z</time>
      </trkpt>
      <trkpt lat="43.57206" lon="1.29276">
        <ele>183.39999389648</ele>
        <time>2014-11-02T07:54:58.000Z</time>
      </trkpt>
      <trkpt lat="43.57255" lon="1.29239">
        <ele>185.80000305176</ele>
        <time>2014-11-02T07:55:07.000Z</time>
      </trkpt>
      <trkpt lat="43.57272" lon="1.29226">
        <ele>186.39999389648</ele>
        <time>2014-11-02T07:55:10.000Z</time>
      </trkpt>
      <trkpt lat="43.57283" lon="1.29219">
        <ele>187.39999389648</ele>
        <time>2014-11-02T07:55:12.000Z</time>
      </trkpt>
      <trkpt lat="43.57318" lon="1.29202">
        <ele>190</ele>
        <time>2014-11-02T07:55:18.000Z</time>
      </trkpt>
      <trkpt lat="43.57355" lon="1.29188">
        <ele>192.60000610352</ele>
        <time>2014-11-02T07:55:24.000Z</time>
      </trkpt>
      <trkpt lat="43.57397" lon="1.29175">
        <ele>193.19999694824</ele>
        <time>2014-11-02T07:55:31.000Z</time>
      </trkpt>
      <trkpt lat="43.57431" lon="1.29158">
        <ele>193</ele>
        <time>2014-11-02T07:55:37.000Z</time>
      </trkpt>
      <trkpt lat="43.57453" lon="1.29144">
        <ele>192.80000305176</ele>
        <time>2014-11-02T07:55:41.000Z</time>
      </trkpt>
      <trkpt lat="43.57474" lon="1.29127">
        <ele>192.60000610352</ele>
        <time>2014-11-02T07:55:45.000Z</time>
      </trkpt>
      <trkpt lat="43.57479" lon="1.29123">
        <ele>192.39999389648</ele>
        <time>2014-11-02T07:55:46.000Z</time>
      </trkpt>
      <trkpt lat="43.57516" lon="1.29105">
        <ele>192.60000610352</ele>
        <time>2014-11-02T07:55:53.000Z</time>
      </trkpt>
      <trkpt lat="43.57556" lon="1.29095">
        <ele>193</ele>
        <time>2014-11-02T07:56:00.000Z</time>
      </trkpt>
      <trkpt lat="43.57582" lon="1.29092">
        <ele>192.60000610352</ele>
        <time>2014-11-02T07:56:04.000Z</time>
      </trkpt>
      <trkpt lat="43.57608" lon="1.2909">
        <ele>192.39999389648</ele>
        <time>2014-11-02T07:56:08.000Z</time>
      </trkpt>
      <trkpt lat="43.57662" lon="1.29089">
        <ele>192.39999389648</ele>
        <time>2014-11-02T07:56:16.000Z</time>
      </trkpt>
      <trkpt lat="43.57719" lon="1.29089">
        <ele>191.60000610352</ele>
        <time>2014-11-02T07:56:24.000Z</time>
      </trkpt>
      <trkpt lat="43.57777" lon="1.29089">
        <ele>191</ele>
        <time>2014-11-02T07:56:32.000Z</time>
      </trkpt>
      <trkpt lat="43.57784" lon="1.29088">
        <ele>191</ele>
        <time>2014-11-02T07:56:33.000Z</time>
      </trkpt>
      <trkpt lat="43.57835" lon="1.29081">
        <ele>190.39999389648</ele>
        <time>2014-11-02T07:56:40.000Z</time>
      </trkpt>
      <trkpt lat="43.57894" lon="1.29066">
        <ele>190</ele>
        <time>2014-11-02T07:56:48.000Z</time>
      </trkpt>
      <trkpt lat="43.57953" lon="1.29051">
        <ele>190.19999694824</ele>
        <time>2014-11-02T07:56:56.000Z</time>
      </trkpt>
      <trkpt lat="43.57976" lon="1.29043">
        <ele>190.39999389648</ele>
        <time>2014-11-02T07:56:59.000Z</time>
      </trkpt>
      <trkpt lat="43.58036" lon="1.29022">
        <ele>190.39999389648</ele>
        <time>2014-11-02T07:57:07.000Z</time>
      </trkpt>
      <trkpt lat="43.58089" lon="1.29007">
        <ele>189.60000610352</ele>
        <time>2014-11-02T07:57:14.000Z</time>
      </trkpt>
      <trkpt lat="43.58103" lon="1.29002">
        <ele>189.19999694824</ele>
        <time>2014-11-02T07:57:16.000Z</time>
      </trkpt>
      <trkpt lat="43.58158" lon="1.28987">
        <ele>188.60000610352</ele>
        <time>2014-11-02T07:57:23.000Z</time>
      </trkpt>
      <trkpt lat="43.58166" lon="1.28985">
        <ele>188.39999389648</ele>
        <time>2014-11-02T07:57:24.000Z</time>
      </trkpt>
      <trkpt lat="43.58219" lon="1.2897">
        <ele>189</ele>
        <time>2014-11-02T07:57:31.000Z</time>
      </trkpt>
      <trkpt lat="43.58251" lon="1.28962">
        <ele>189.80000305176</ele>
        <time>2014-11-02T07:57:35.000Z</time>
      </trkpt>
      <trkpt lat="43.58306" lon="1.28945">
        <ele>189.60000610352</ele>
        <time>2014-11-02T07:57:42.000Z</time>
      </trkpt>
      <trkpt lat="43.5833" lon="1.28937">
        <ele>190</ele>
        <time>2014-11-02T07:57:45.000Z</time>
      </trkpt>
      <trkpt lat="43.58385" lon="1.28918">
        <ele>191</ele>
        <time>2014-11-02T07:57:52.000Z</time>
      </trkpt>
      <trkpt lat="43.58409" lon="1.28913">
        <ele>190.39999389648</ele>
        <time>2014-11-02T07:57:55.000Z</time>
      </trkpt>
      <trkpt lat="43.58433" lon="1.28917">
        <ele>189.80000305176</ele>
        <time>2014-11-02T07:57:58.000Z</time>
      </trkpt>
      <trkpt lat="43.58447" lon="1.28904">
        <ele>189.80000305176</ele>
        <time>2014-11-02T07:58:00.000Z</time>
      </trkpt>
      <trkpt lat="43.58462" lon="1.28892">
        <ele>189.60000610352</ele>
        <time>2014-11-02T07:58:02.000Z</time>
      </trkpt>
      <trkpt lat="43.58469" lon="1.28888">
        <ele>189.60000610352</ele>
        <time>2014-11-02T07:58:03.000Z</time>
      </trkpt>
      <trkpt lat="43.58477" lon="1.28884">
        <ele>189.39999389648</ele>
        <time>2014-11-02T07:58:04.000Z</time>
      </trkpt>
      <trkpt lat="43.58503" lon="1.28878">
        <ele>189.19999694824</ele>
        <time>2014-11-02T07:58:07.000Z</time>
      </trkpt>
      <trkpt lat="43.58511" lon="1.28879">
        <ele>188.80000305176</ele>
        <time>2014-11-02T07:58:08.000Z</time>
      </trkpt>
      <trkpt lat="43.58545" lon="1.28892">
        <ele>189.19999694824</ele>
        <time>2014-11-02T07:58:12.000Z</time>
      </trkpt>
      <trkpt lat="43.58553" lon="1.28897">
        <ele>189.39999389648</ele>
        <time>2014-11-02T07:58:13.000Z</time>
      </trkpt>
      <trkpt lat="43.58597" lon="1.28932">
        <ele>190</ele>
        <time>2014-11-02T07:58:19.000Z</time>
      </trkpt>
      <trkpt lat="43.58617" lon="1.28951">
        <ele>190</ele>
        <time>2014-11-02T07:58:22.000Z</time>
      </trkpt>
      <trkpt lat="43.58636" lon="1.28975">
        <ele>190</ele>
        <time>2014-11-02T07:58:25.000Z</time>
      </trkpt>
      <trkpt lat="43.58674" lon="1.29036">
        <ele>189.39999389648</ele>
        <time>2014-11-02T07:58:32.000Z</time>
      </trkpt>
      <trkpt lat="43.58714" lon="1.29092">
        <ele>187.60000610352</ele>
        <time>2014-11-02T07:58:39.000Z</time>
      </trkpt>
      <trkpt lat="43.58721" lon="1.291">
        <ele>187.19999694824</ele>
        <time>2014-11-02T07:58:40.000Z</time>
      </trkpt>
      <trkpt lat="43.58765" lon="1.29149">
        <ele>185.19999694824</ele>
        <time>2014-11-02T07:58:47.000Z</time>
      </trkpt>
      <trkpt lat="43.58796" lon="1.29185">
        <ele>187.19999694824</ele>
        <time>2014-11-02T07:58:52.000Z</time>
      </trkpt>
      <trkpt lat="43.58842" lon="1.29229">
        <ele>189.80000305176</ele>
        <time>2014-11-02T07:58:59.000Z</time>
      </trkpt>
      <trkpt lat="43.58848" lon="1.29236">
        <ele>190</ele>
        <time>2014-11-02T07:59:00.000Z</time>
      </trkpt>
      <trkpt lat="43.58865" lon="1.2926">
        <ele>189.80000305176</ele>
        <time>2014-11-02T07:59:03.000Z</time>
      </trkpt>
      <trkpt lat="43.58883" lon="1.29282">
        <ele>189.60000610352</ele>
        <time>2014-11-02T07:59:06.000Z</time>
      </trkpt>
      <trkpt lat="43.58891" lon="1.29286">
        <ele>189.60000610352</ele>
        <time>2014-11-02T07:59:07.000Z</time>
      </trkpt>
      <trkpt lat="43.58916" lon="1.29287">
        <ele>189.39999389648</ele>
        <time>2014-11-02T07:59:10.000Z</time>
      </trkpt>
      <trkpt lat="43.58932" lon="1.29288">
        <ele>189.39999389648</ele>
        <time>2014-11-02T07:59:12.000Z</time>
      </trkpt>
      <trkpt lat="43.58948" lon="1.29295">
        <ele>188.19999694824</ele>
        <time>2014-11-02T07:59:14.000Z</time>
      </trkpt>
      <trkpt lat="43.59001" lon="1.29325">
        <ele>184.39999389648</ele>
        <time>2014-11-02T07:59:21.000Z</time>
      </trkpt>
      <trkpt lat="43.59018" lon="1.29331">
        <ele>183.19999694824</ele>
        <time>2014-11-02T07:59:23.000Z</time>
      </trkpt>
      <trkpt lat="43.59052" lon="1.29334">
        <ele>183</ele>
        <time>2014-11-02T07:59:27.000Z</time>
      </trkpt>
      <trkpt lat="43.59111" lon="1.29327">
        <ele>184.80000305176</ele>
        <time>2014-11-02T07:59:34.000Z</time>
      </trkpt>
      <trkpt lat="43.5912" lon="1.29326">
        <ele>185.19999694824</ele>
        <time>2014-11-02T07:59:35.000Z</time>
      </trkpt>
      <trkpt lat="43.59169" lon="1.29319">
        <ele>186.39999389648</ele>
        <time>2014-11-02T07:59:41.000Z</time>
      </trkpt>
      <trkpt lat="43.59178" lon="1.29323">
        <ele>186.60000610352</ele>
        <time>2014-11-02T07:59:42.000Z</time>
      </trkpt>
      <trkpt lat="43.592" lon="1.29334">
        <ele>186.60000610352</ele>
        <time>2014-11-02T07:59:45.000Z</time>
      </trkpt>
      <trkpt lat="43.59225" lon="1.29336">
        <ele>187</ele>
        <time>2014-11-02T07:59:48.000Z</time>
      </trkpt>
      <trkpt lat="43.59239" lon="1.29348">
        <ele>186.80000305176</ele>
        <time>2014-11-02T07:59:50.000Z</time>
      </trkpt>
      <trkpt lat="43.59245" lon="1.29353">
        <ele>186.80000305176</ele>
        <time>2014-11-02T07:59:51.000Z</time>
      </trkpt>
      <trkpt lat="43.59277" lon="1.29368">
        <ele>186.60000610352</ele>
        <time>2014-11-02T07:59:55.000Z</time>
      </trkpt>
      <trkpt lat="43.59332" lon="1.29384">
        <ele>186.19999694824</ele>
        <time>2014-11-02T08:00:02.000Z</time>
      </trkpt>
      <trkpt lat="43.59363" lon="1.29393">
        <ele>186</ele>
        <time>2014-11-02T08:00:06.000Z</time>
      </trkpt>
      <trkpt lat="43.5942" lon="1.29409">
        <ele>185.39999389648</ele>
        <time>2014-11-02T08:00:13.000Z</time>
      </trkpt>
      <trkpt lat="43.59436" lon="1.29412">
        <ele>185.19999694824</ele>
        <time>2014-11-02T08:00:15.000Z</time>
      </trkpt>
      <trkpt lat="43.59452" lon="1.29413">
        <ele>185</ele>
        <time>2014-11-02T08:00:17.000Z</time>
      </trkpt>
      <trkpt lat="43.59477" lon="1.29408">
        <ele>185.39999389648</ele>
        <time>2014-11-02T08:00:20.000Z</time>
      </trkpt>
      <trkpt lat="43.59484" lon="1.29405">
        <ele>185.39999389648</ele>
        <time>2014-11-02T08:00:21.000Z</time>
      </trkpt>
      <trkpt lat="43.59516" lon="1.29385">
        <ele>186</ele>
        <time>2014-11-02T08:00:25.000Z</time>
      </trkpt>
      <trkpt lat="43.59554" lon="1.29348">
        <ele>186.39999389648</ele>
        <time>2014-11-02T08:00:31.000Z</time>
      </trkpt>
      <trkpt lat="43.59589" lon="1.29297">
        <ele>187.39999389648</ele>
        <time>2014-11-02T08:00:37.000Z</time>
      </trkpt>
      <trkpt lat="43.59621" lon="1.29228">
        <ele>188.19999694824</ele>
        <time>2014-11-02T08:00:44.000Z</time>
      </trkpt>
      <trkpt lat="43.59651" lon="1.29158">
        <ele>185.39999389648</ele>
        <time>2014-11-02T08:00:51.000Z</time>
      </trkpt>
      <trkpt lat="43.5966" lon="1.29138">
        <ele>184.60000610352</ele>
        <time>2014-11-02T08:00:53.000Z</time>
      </trkpt>
      <trkpt lat="43.59686" lon="1.29082">
        <ele>184.80000305176</ele>
        <time>2014-11-02T08:00:59.000Z</time>
      </trkpt>
      <trkpt lat="43.59691" lon="1.29074">
        <ele>184.80000305176</ele>
        <time>2014-11-02T08:01:00.000Z</time>
      </trkpt>
      <trkpt lat="43.5971" lon="1.29058">
        <ele>185.19999694824</ele>
        <time>2014-11-02T08:01:03.000Z</time>
      </trkpt>
      <trkpt lat="43.59718" lon="1.29041">
        <ele>185.19999694824</ele>
        <time>2014-11-02T08:01:05.000Z</time>
      </trkpt>
      <trkpt lat="43.59718" lon="1.29032">
        <ele>185</ele>
        <time>2014-11-02T08:01:06.000Z</time>
      </trkpt>
      <trkpt lat="43.59712" lon="1.29017">
        <ele>184.80000305176</ele>
        <time>2014-11-02T08:01:08.000Z</time>
      </trkpt>
      <trkpt lat="43.59692" lon="1.29009">
        <ele>184.39999389648</ele>
        <time>2014-11-02T08:01:11.000Z</time>
      </trkpt>
      <trkpt lat="43.59685" lon="1.29005">
        <ele>184.39999389648</ele>
        <time>2014-11-02T08:01:12.000Z</time>
      </trkpt>
      <trkpt lat="43.59672" lon="1.28992">
        <ele>184.60000610352</ele>
        <time>2014-11-02T08:01:14.000Z</time>
      </trkpt>
      <trkpt lat="43.59634" lon="1.28943">
        <ele>185.80000305176</ele>
        <time>2014-11-02T08:01:21.000Z</time>
      </trkpt>
      <trkpt lat="43.59593" lon="1.28887">
        <ele>187</ele>
        <time>2014-11-02T08:01:28.000Z</time>
      </trkpt>
      <trkpt lat="43.59588" lon="1.28879">
        <ele>187.19999694824</ele>
        <time>2014-11-02T08:01:29.000Z</time>
      </trkpt>
      <trkpt lat="43.59554" lon="1.2882">
        <ele>188</ele>
        <time>2014-11-02T08:01:36.000Z</time>
      </trkpt>
      <trkpt lat="43.59525" lon="1.2877">
        <ele>187.19999694824</ele>
        <time>2014-11-02T08:01:42.000Z</time>
      </trkpt>
      <trkpt lat="43.59515" lon="1.28752">
        <ele>187</ele>
        <time>2014-11-02T08:01:44.000Z</time>
      </trkpt>
      <trkpt lat="43.59474" lon="1.28692">
        <ele>186.60000610352</ele>
        <time>2014-11-02T08:01:51.000Z</time>
      </trkpt>
      <trkpt lat="43.59427" lon="1.28643">
        <ele>186.19999694824</ele>
        <time>2014-11-02T08:01:58.000Z</time>
      </trkpt>
      <trkpt lat="43.59378" lon="1.28604">
        <ele>186.80000305176</ele>
        <time>2014-11-02T08:02:05.000Z</time>
      </trkpt>
      <trkpt lat="43.59334" lon="1.28583">
        <ele>187.39999389648</ele>
        <time>2014-11-02T08:02:11.000Z</time>
      </trkpt>
      <trkpt lat="43.59274" lon="1.28564">
        <ele>188</ele>
        <time>2014-11-02T08:02:19.000Z</time>
      </trkpt>
      <trkpt lat="43.59261" lon="1.28559">
        <ele>187.80000305176</ele>
        <time>2014-11-02T08:02:21.000Z</time>
      </trkpt>
      <trkpt lat="43.59255" lon="1.28555">
        <ele>187.80000305176</ele>
        <time>2014-11-02T08:02:22.000Z</time>
      </trkpt>
      <trkpt lat="43.59247" lon="1.2854">
        <ele>187.60000610352</ele>
        <time>2014-11-02T08:02:24.000Z</time>
      </trkpt>
      <trkpt lat="43.5925" lon="1.2852">
        <ele>187.19999694824</ele>
        <time>2014-11-02T08:02:26.000Z</time>
      </trkpt>
      <trkpt lat="43.59269" lon="1.28493">
        <ele>186.39999389648</ele>
        <time>2014-11-02T08:02:29.000Z</time>
      </trkpt>
      <trkpt lat="43.59277" lon="1.28486">
        <ele>186</ele>
        <time>2014-11-02T08:02:30.000Z</time>
      </trkpt>
      <trkpt lat="43.59314" lon="1.28442">
        <ele>186</ele>
        <time>2014-11-02T08:02:35.000Z</time>
      </trkpt>
      <trkpt lat="43.59352" lon="1.28392">
        <ele>188</ele>
        <time>2014-11-02T08:02:40.000Z</time>
      </trkpt>
      <trkpt lat="43.59388" lon="1.2834">
        <ele>188</ele>
        <time>2014-11-02T08:02:45.000Z</time>
      </trkpt>
      <trkpt lat="43.59427" lon="1.28278">
        <ele>186.60000610352</ele>
        <time>2014-11-02T08:02:50.000Z</time>
      </trkpt>
      <trkpt lat="43.59439" lon="1.28241">
        <ele>187</ele>
        <time>2014-11-02T08:02:53.000Z</time>
      </trkpt>
      <trkpt lat="43.59444" lon="1.28226">
        <ele>186.60000610352</ele>
        <time>2014-11-02T08:02:54.000Z</time>
      </trkpt>
      <trkpt lat="43.59462" lon="1.28173">
        <ele>183.80000305176</ele>
        <time>2014-11-02T08:02:57.000Z</time>
      </trkpt>
      <trkpt lat="43.59479" lon="1.28087">
        <ele>174</ele>
        <time>2014-11-02T08:03:02.000Z</time>
      </trkpt>
      <trkpt lat="43.59488" lon="1.28005">
        <ele>165.60000610352</ele>
        <time>2014-11-02T08:03:07.000Z</time>
      </trkpt>
      <trkpt lat="43.59491" lon="1.2799">
        <ele>164.60000610352</ele>
        <time>2014-11-02T08:03:08.000Z</time>
      </trkpt>
      <trkpt lat="43.59501" lon="1.27949">
        <ele>163.19999694824</ele>
        <time>2014-11-02T08:03:11.000Z</time>
      </trkpt>
      <trkpt lat="43.59507" lon="1.27936">
        <ele>163.39999389648</ele>
        <time>2014-11-02T08:03:12.000Z</time>
      </trkpt>
      <trkpt lat="43.59531" lon="1.27889">
        <ele>164.19999694824</ele>
        <time>2014-11-02T08:03:16.000Z</time>
      </trkpt>
      <trkpt lat="43.59543" lon="1.27866">
        <ele>164.19999694824</ele>
        <time>2014-11-02T08:03:18.000Z</time>
      </trkpt>
      <trkpt lat="43.5957" lon="1.27799">
        <ele>165</ele>
        <time>2014-11-02T08:03:24.000Z</time>
      </trkpt>
      <trkpt lat="43.59588" lon="1.27745">
        <ele>165.80000305176</ele>
        <time>2014-11-02T08:03:29.000Z</time>
      </trkpt>
      <trkpt lat="43.59609" lon="1.27693">
        <ele>167.39999389648</ele>
        <time>2014-11-02T08:03:35.000Z</time>
      </trkpt>
      <trkpt lat="43.59613" lon="1.27686">
        <ele>167.80000305176</ele>
        <time>2014-11-02T08:03:36.000Z</time>
      </trkpt>
      <trkpt lat="43.59624" lon="1.27677">
        <ele>168.19999694824</ele>
        <time>2014-11-02T08:03:38.000Z</time>
      </trkpt>
      <trkpt lat="43.59641" lon="1.27682">
        <ele>168</ele>
        <time>2014-11-02T08:03:41.000Z</time>
      </trkpt>
      <trkpt lat="43.59647" lon="1.27686">
        <ele>168</ele>
        <time>2014-11-02T08:03:42.000Z</time>
      </trkpt>
      <trkpt lat="43.59666" lon="1.27697">
        <ele>167.60000610352</ele>
        <time>2014-11-02T08:03:45.000Z</time>
      </trkpt>
      <trkpt lat="43.59672" lon="1.277">
        <ele>167.60000610352</ele>
        <time>2014-11-02T08:03:46.000Z</time>
      </trkpt>
      <trkpt lat="43.59707" lon="1.27715">
        <ele>166.60000610352</ele>
        <time>2014-11-02T08:03:51.000Z</time>
      </trkpt>
      <trkpt lat="43.59759" lon="1.27741">
        <ele>165.19999694824</ele>
        <time>2014-11-02T08:03:58.000Z</time>
      </trkpt>
      <trkpt lat="43.59814" lon="1.27773">
        <ele>165</ele>
        <time>2014-11-02T08:04:05.000Z</time>
      </trkpt>
      <trkpt lat="43.59867" lon="1.27808">
        <ele>165.39999389648</ele>
        <time>2014-11-02T08:04:12.000Z</time>
      </trkpt>
      <trkpt lat="43.59882" lon="1.27817">
        <ele>165.60000610352</ele>
        <time>2014-11-02T08:04:14.000Z</time>
      </trkpt>
      <trkpt lat="43.59939" lon="1.27842">
        <ele>166.39999389648</ele>
        <time>2014-11-02T08:04:21.000Z</time>
      </trkpt>
      <trkpt lat="43.59996" lon="1.27866">
        <ele>166.39999389648</ele>
        <time>2014-11-02T08:04:28.000Z</time>
      </trkpt>
      <trkpt lat="43.60021" lon="1.27876">
        <ele>166.60000610352</ele>
        <time>2014-11-02T08:04:31.000Z</time>
      </trkpt>
      <trkpt lat="43.60079" lon="1.27896">
        <ele>166.80000305176</ele>
        <time>2014-11-02T08:04:38.000Z</time>
      </trkpt>
      <trkpt lat="43.60095" lon="1.27901">
        <ele>166.80000305176</ele>
        <time>2014-11-02T08:04:40.000Z</time>
      </trkpt>
      <trkpt lat="43.60154" lon="1.27917">
        <ele>167.39999389648</ele>
        <time>2014-11-02T08:04:47.000Z</time>
      </trkpt>
      <trkpt lat="43.60215" lon="1.2793">
        <ele>166.60000610352</ele>
        <time>2014-11-02T08:04:54.000Z</time>
      </trkpt>
      <trkpt lat="43.6025" lon="1.27935">
        <ele>165.80000305176</ele>
        <time>2014-11-02T08:04:58.000Z</time>
      </trkpt>
      <trkpt lat="43.60284" lon="1.27924">
        <ele>165.39999389648</ele>
        <time>2014-11-02T08:05:02.000Z</time>
      </trkpt>
      <trkpt lat="43.60307" lon="1.27912">
        <ele>165.39999389648</ele>
        <time>2014-11-02T08:05:05.000Z</time>
      </trkpt>
      <trkpt lat="43.60315" lon="1.27909">
        <ele>165.19999694824</ele>
        <time>2014-11-02T08:05:06.000Z</time>
      </trkpt>
      <trkpt lat="43.60323" lon="1.27907">
        <ele>165.19999694824</ele>
        <time>2014-11-02T08:05:07.000Z</time>
      </trkpt>
      <trkpt lat="43.60346" lon="1.27912">
        <ele>164.39999389648</ele>
        <time>2014-11-02T08:05:10.000Z</time>
      </trkpt>
      <trkpt lat="43.6037" lon="1.27934">
        <ele>164.19999694824</ele>
        <time>2014-11-02T08:05:14.000Z</time>
      </trkpt>
      <trkpt lat="43.60386" lon="1.27967">
        <ele>163.19999694824</ele>
        <time>2014-11-02T08:05:18.000Z</time>
      </trkpt>
      <trkpt lat="43.60399" lon="1.27989">
        <ele>163.19999694824</ele>
        <time>2014-11-02T08:05:21.000Z</time>
      </trkpt>
      <trkpt lat="43.60416" lon="1.2799">
        <ele>164</ele>
        <time>2014-11-02T08:05:23.000Z</time>
      </trkpt>
      <trkpt lat="43.60427" lon="1.27976">
        <ele>164.80000305176</ele>
        <time>2014-11-02T08:05:25.000Z</time>
      </trkpt>
      <trkpt lat="43.60429" lon="1.27956">
        <ele>165.60000610352</ele>
        <time>2014-11-02T08:05:27.000Z</time>
      </trkpt>
      <trkpt lat="43.60433" lon="1.27924">
        <ele>167</ele>
        <time>2014-11-02T08:05:30.000Z</time>
      </trkpt>
      <trkpt lat="43.60436" lon="1.27916">
        <ele>167.39999389648</ele>
        <time>2014-11-02T08:05:31.000Z</time>
      </trkpt>
      <trkpt lat="43.60453" lon="1.27875">
        <ele>172.39999389648</ele>
        <time>2014-11-02T08:05:36.000Z</time>
      </trkpt>
      <trkpt lat="43.60473" lon="1.27833">
        <ele>178.19999694824</ele>
        <time>2014-11-02T08:05:42.000Z</time>
      </trkpt>
      <trkpt lat="43.60492" lon="1.27788">
        <ele>182.39999389648</ele>
        <time>2014-11-02T08:05:49.000Z</time>
      </trkpt>
      <trkpt lat="43.60507" lon="1.27738">
        <ele>185.60000610352</ele>
        <time>2014-11-02T08:05:57.000Z</time>
      </trkpt>
      <trkpt lat="43.60511" lon="1.27717">
        <ele>186</ele>
        <time>2014-11-02T08:06:00.000Z</time>
      </trkpt>
      <trkpt lat="43.60515" lon="1.27689">
        <ele>186.39999389648</ele>
        <time>2014-11-02T08:06:04.000Z</time>
      </trkpt>
      <trkpt lat="43.60516" lon="1.27681">
        <ele>186.60000610352</ele>
        <time>2014-11-02T08:06:05.000Z</time>
      </trkpt>
      <trkpt lat="43.60518" lon="1.27662">
        <ele>186.80000305176</ele>
        <time>2014-11-02T08:06:08.000Z</time>
      </trkpt>
      <trkpt lat="43.60519" lon="1.27655">
        <ele>186.80000305176</ele>
        <time>2014-11-02T08:06:09.000Z</time>
      </trkpt>
      <trkpt lat="43.60524" lon="1.27626">
        <ele>186.80000305176</ele>
        <time>2014-11-02T08:06:13.000Z</time>
      </trkpt>
      <trkpt lat="43.60531" lon="1.2758">
        <ele>185.80000305176</ele>
        <time>2014-11-02T08:06:19.000Z</time>
      </trkpt>
      <trkpt lat="43.60533" lon="1.27532">
        <ele>184.80000305176</ele>
        <time>2014-11-02T08:06:25.000Z</time>
      </trkpt>
      <trkpt lat="43.60532" lon="1.27486">
        <ele>184.60000610352</ele>
        <time>2014-11-02T08:06:31.000Z</time>
      </trkpt>
      <trkpt lat="43.60537" lon="1.27471">
        <ele>185.19999694824</ele>
        <time>2014-11-02T08:06:33.000Z</time>
      </trkpt>
      <trkpt lat="43.60548" lon="1.27442">
        <ele>185.80000305176</ele>
        <time>2014-11-02T08:06:37.000Z</time>
      </trkpt>
      <trkpt lat="43.60556" lon="1.27429">
        <ele>186.19999694824</ele>
        <time>2014-11-02T08:06:39.000Z</time>
      </trkpt>
      <trkpt lat="43.60577" lon="1.27384">
        <ele>187</ele>
        <time>2014-11-02T08:06:45.000Z</time>
      </trkpt>
      <trkpt lat="43.60595" lon="1.27339">
        <ele>188.39999389648</ele>
        <time>2014-11-02T08:06:51.000Z</time>
      </trkpt>
      <trkpt lat="43.60621" lon="1.27277">
        <ele>189.39999389648</ele>
        <time>2014-11-02T08:06:59.000Z</time>
      </trkpt>
      <trkpt lat="43.60651" lon="1.27207">
        <ele>190.19999694824</ele>
        <time>2014-11-02T08:07:08.000Z</time>
      </trkpt>
      <trkpt lat="43.60676" lon="1.27149">
        <ele>191</ele>
        <time>2014-11-02T08:07:15.000Z</time>
      </trkpt>
      <trkpt lat="43.60703" lon="1.27085">
        <ele>190.39999389648</ele>
        <time>2014-11-02T08:07:22.000Z</time>
      </trkpt>
      <trkpt lat="43.60718" lon="1.27048">
        <ele>190.39999389648</ele>
        <time>2014-11-02T08:07:26.000Z</time>
      </trkpt>
      <trkpt lat="43.60734" lon="1.2701">
        <ele>190.19999694824</ele>
        <time>2014-11-02T08:07:30.000Z</time>
      </trkpt>
      <trkpt lat="43.60763" lon="1.26943">
        <ele>189.39999389648</ele>
        <time>2014-11-02T08:07:37.000Z</time>
      </trkpt>
      <trkpt lat="43.60771" lon="1.26924">
        <ele>189.60000610352</ele>
        <time>2014-11-02T08:07:39.000Z</time>
      </trkpt>
      <trkpt lat="43.608" lon="1.26857">
        <ele>189.19999694824</ele>
        <time>2014-11-02T08:07:46.000Z</time>
      </trkpt>
      <trkpt lat="43.60825" lon="1.26799">
        <ele>189.39999389648</ele>
        <time>2014-11-02T08:07:52.000Z</time>
      </trkpt>
      <trkpt lat="43.60855" lon="1.2673">
        <ele>191</ele>
        <time>2014-11-02T08:07:59.000Z</time>
      </trkpt>
      <trkpt lat="43.60872" lon="1.2669">
        <ele>190.19999694824</ele>
        <time>2014-11-02T08:08:03.000Z</time>
      </trkpt>
      <trkpt lat="43.60901" lon="1.26621">
        <ele>190.60000610352</ele>
        <time>2014-11-02T08:08:10.000Z</time>
      </trkpt>
      <trkpt lat="43.60905" lon="1.26612">
        <ele>190.60000610352</ele>
        <time>2014-11-02T08:08:11.000Z</time>
      </trkpt>
      <trkpt lat="43.60937" lon="1.26544">
        <ele>192.19999694824</ele>
        <time>2014-11-02T08:08:18.000Z</time>
      </trkpt>
      <trkpt lat="43.60943" lon="1.26536">
        <ele>192.39999389648</ele>
        <time>2014-11-02T08:08:19.000Z</time>
      </trkpt>
      <trkpt lat="43.60978" lon="1.26492">
        <ele>192.19999694824</ele>
        <time>2014-11-02T08:08:25.000Z</time>
      </trkpt>
      <trkpt lat="43.60985" lon="1.26488">
        <ele>192</ele>
        <time>2014-11-02T08:08:26.000Z</time>
      </trkpt>
      <trkpt lat="43.61001" lon="1.26484">
        <ele>191.39999389648</ele>
        <time>2014-11-02T08:08:28.000Z</time>
      </trkpt>
      <trkpt lat="43.61011" lon="1.26469">
        <ele>191.19999694824</ele>
        <time>2014-11-02T08:08:30.000Z</time>
      </trkpt>
      <trkpt lat="43.61023" lon="1.2644">
        <ele>191.60000610352</ele>
        <time>2014-11-02T08:08:33.000Z</time>
      </trkpt>
      <trkpt lat="43.61035" lon="1.26424">
        <ele>192</ele>
        <time>2014-11-02T08:08:35.000Z</time>
      </trkpt>
      <trkpt lat="43.61059" lon="1.26395">
        <ele>192.39999389648</ele>
        <time>2014-11-02T08:08:39.000Z</time>
      </trkpt>
      <trkpt lat="43.61105" lon="1.26347">
        <ele>193</ele>
        <time>2014-11-02T08:08:46.000Z</time>
      </trkpt>
      <trkpt lat="43.61152" lon="1.26299">
        <ele>192.80000305176</ele>
        <time>2014-11-02T08:08:53.000Z</time>
      </trkpt>
      <trkpt lat="43.61166" lon="1.26285">
        <ele>192.60000610352</ele>
        <time>2014-11-02T08:08:55.000Z</time>
      </trkpt>
      <trkpt lat="43.61213" lon="1.26236">
        <ele>191.19999694824</ele>
        <time>2014-11-02T08:09:02.000Z</time>
      </trkpt>
      <trkpt lat="43.6124" lon="1.26208">
        <ele>191</ele>
        <time>2014-11-02T08:09:06.000Z</time>
      </trkpt>
      <trkpt lat="43.61291" lon="1.26156">
        <ele>190.60000610352</ele>
        <time>2014-11-02T08:09:13.000Z</time>
      </trkpt>
      <trkpt lat="43.61298" lon="1.26149">
        <ele>190.39999389648</ele>
        <time>2014-11-02T08:09:14.000Z</time>
      </trkpt>
      <trkpt lat="43.61305" lon="1.26141">
        <ele>190.39999389648</ele>
        <time>2014-11-02T08:09:15.000Z</time>
      </trkpt>
      <trkpt lat="43.61351" lon="1.26099">
        <ele>191.60000610352</ele>
        <time>2014-11-02T08:09:21.000Z</time>
      </trkpt>
      <trkpt lat="43.61375" lon="1.2608">
        <ele>192.19999694824</ele>
        <time>2014-11-02T08:09:24.000Z</time>
      </trkpt>
      <trkpt lat="43.61429" lon="1.26048">
        <ele>191.80000305176</ele>
        <time>2014-11-02T08:09:30.000Z</time>
      </trkpt>
      <trkpt lat="43.61481" lon="1.26024">
        <ele>191.60000610352</ele>
        <time>2014-11-02T08:09:35.000Z</time>
      </trkpt>
      <trkpt lat="43.61491" lon="1.2602">
        <ele>192.19999694824</ele>
        <time>2014-11-02T08:09:36.000Z</time>
      </trkpt>
      <trkpt lat="43.61546" lon="1.25986">
        <ele>192.60000610352</ele>
        <time>2014-11-02T08:09:41.000Z</time>
      </trkpt>
      <trkpt lat="43.61582" lon="1.25941">
        <ele>187</ele>
        <time>2014-11-02T08:09:45.000Z</time>
      </trkpt>
      <trkpt lat="43.61627" lon="1.25881">
        <ele>180.19999694824</ele>
        <time>2014-11-02T08:09:50.000Z</time>
      </trkpt>
      <trkpt lat="43.61636" lon="1.25871">
        <ele>179.19999694824</ele>
        <time>2014-11-02T08:09:51.000Z</time>
      </trkpt>
      <trkpt lat="43.61669" lon="1.25818">
        <ele>175.19999694824</ele>
        <time>2014-11-02T08:09:55.000Z</time>
      </trkpt>
      <trkpt lat="43.61705" lon="1.25749">
        <ele>173.80000305176</ele>
        <time>2014-11-02T08:10:00.000Z</time>
      </trkpt>
      <trkpt lat="43.61726" lon="1.25711">
        <ele>173.60000610352</ele>
        <time>2014-11-02T08:10:03.000Z</time>
      </trkpt>
      <trkpt lat="43.61755" lon="1.25652">
        <ele>173.60000610352</ele>
        <time>2014-11-02T08:10:08.000Z</time>
      </trkpt>
      <trkpt lat="43.61787" lon="1.25593">
        <ele>173.19999694824</ele>
        <time>2014-11-02T08:10:14.000Z</time>
      </trkpt>
      <trkpt lat="43.61812" lon="1.25541">
        <ele>175.39999389648</ele>
        <time>2014-11-02T08:10:20.000Z</time>
      </trkpt>
      <trkpt lat="43.61831" lon="1.25493">
        <ele>179.39999389648</ele>
        <time>2014-11-02T08:10:26.000Z</time>
      </trkpt>
      <trkpt lat="43.61835" lon="1.25476">
        <ele>180.80000305176</ele>
        <time>2014-11-02T08:10:28.000Z</time>
      </trkpt>
      <trkpt lat="43.61842" lon="1.25453">
        <ele>182.60000610352</ele>
        <time>2014-11-02T08:10:31.000Z</time>
      </trkpt>
      <trkpt lat="43.61855" lon="1.25402">
        <ele>184.80000305176</ele>
        <time>2014-11-02T08:10:38.000Z</time>
      </trkpt>
      <trkpt lat="43.61874" lon="1.2534">
        <ele>187.80000305176</ele>
        <time>2014-11-02T08:10:47.000Z</time>
      </trkpt>
      <trkpt lat="43.61886" lon="1.25291">
        <ele>189</ele>
        <time>2014-11-02T08:10:54.000Z</time>
      </trkpt>
      <trkpt lat="43.61891" lon="1.25272">
        <ele>189.39999389648</ele>
        <time>2014-11-02T08:10:57.000Z</time>
      </trkpt>
      <trkpt lat="43.61905" lon="1.25233">
        <ele>190.60000610352</ele>
        <time>2014-11-02T08:11:03.000Z</time>
      </trkpt>
      <trkpt lat="43.6193" lon="1.2518">
        <ele>192.19999694824</ele>
        <time>2014-11-02T08:11:11.000Z</time>
      </trkpt>
      <trkpt lat="43.61966" lon="1.25131">
        <ele>191.19999694824</ele>
        <time>2014-11-02T08:11:19.000Z</time>
      </trkpt>
      <trkpt lat="43.62005" lon="1.25078">
        <ele>189.39999389648</ele>
        <time>2014-11-02T08:11:27.000Z</time>
      </trkpt>
      <trkpt lat="43.62048" lon="1.25024">
        <ele>189.19999694824</ele>
        <time>2014-11-02T08:11:35.000Z</time>
      </trkpt>
      <trkpt lat="43.62053" lon="1.25017">
        <ele>189.19999694824</ele>
        <time>2014-11-02T08:11:36.000Z</time>
      </trkpt>
      <trkpt lat="43.62097" lon="1.24961">
        <ele>189</ele>
        <time>2014-11-02T08:11:44.000Z</time>
      </trkpt>
      <trkpt lat="43.62108" lon="1.24947">
        <ele>189</ele>
        <time>2014-11-02T08:11:46.000Z</time>
      </trkpt>
      <trkpt lat="43.62149" lon="1.24896">
        <ele>189</ele>
        <time>2014-11-02T08:11:53.000Z</time>
      </trkpt>
      <trkpt lat="43.6216" lon="1.24881">
        <ele>188.80000305176</ele>
        <time>2014-11-02T08:11:55.000Z</time>
      </trkpt>
      <trkpt lat="43.62201" lon="1.24829">
        <ele>187.19999694824</ele>
        <time>2014-11-02T08:12:02.000Z</time>
      </trkpt>
      <trkpt lat="43.62219" lon="1.24807">
        <ele>188</ele>
        <time>2014-11-02T08:12:05.000Z</time>
      </trkpt>
      <trkpt lat="43.6226" lon="1.24755">
        <ele>190.80000305176</ele>
        <time>2014-11-02T08:12:12.000Z</time>
      </trkpt>
      <trkpt lat="43.62278" lon="1.24732">
        <ele>191.80000305176</ele>
        <time>2014-11-02T08:12:15.000Z</time>
      </trkpt>
      <trkpt lat="43.6232" lon="1.24679">
        <ele>192</ele>
        <time>2014-11-02T08:12:22.000Z</time>
      </trkpt>
      <trkpt lat="43.62362" lon="1.24626">
        <ele>191.39999389648</ele>
        <time>2014-11-02T08:12:29.000Z</time>
      </trkpt>
      <trkpt lat="43.62367" lon="1.24618">
        <ele>191.19999694824</ele>
        <time>2014-11-02T08:12:30.000Z</time>
      </trkpt>
      <trkpt lat="43.6241" lon="1.24565">
        <ele>190</ele>
        <time>2014-11-02T08:12:37.000Z</time>
      </trkpt>
      <trkpt lat="43.62416" lon="1.24558">
        <ele>190</ele>
        <time>2014-11-02T08:12:38.000Z</time>
      </trkpt>
      <trkpt lat="43.62458" lon="1.24505">
        <ele>190</ele>
        <time>2014-11-02T08:12:45.000Z</time>
      </trkpt>
      <trkpt lat="43.62464" lon="1.24498">
        <ele>190.19999694824</ele>
        <time>2014-11-02T08:12:46.000Z</time>
      </trkpt>
      <trkpt lat="43.62509" lon="1.24442">
        <ele>191</ele>
        <time>2014-11-02T08:12:53.000Z</time>
      </trkpt>
      <trkpt lat="43.62534" lon="1.2441">
        <ele>190.60000610352</ele>
        <time>2014-11-02T08:12:57.000Z</time>
      </trkpt>
      <trkpt lat="43.62553" lon="1.24386">
        <ele>190.39999389648</ele>
        <time>2014-11-02T08:13:00.000Z</time>
      </trkpt>
      <trkpt lat="43.62598" lon="1.24329">
        <ele>190</ele>
        <time>2014-11-02T08:13:07.000Z</time>
      </trkpt>
      <trkpt lat="43.62617" lon="1.24305">
        <ele>189.80000305176</ele>
        <time>2014-11-02T08:13:10.000Z</time>
      </trkpt>
      <trkpt lat="43.62662" lon="1.24248">
        <ele>189.19999694824</ele>
        <time>2014-11-02T08:13:17.000Z</time>
      </trkpt>
      <trkpt lat="43.62669" lon="1.2424">
        <ele>189.19999694824</ele>
        <time>2014-11-02T08:13:18.000Z</time>
      </trkpt>
      <trkpt lat="43.62714" lon="1.24183">
        <ele>189.60000610352</ele>
        <time>2014-11-02T08:13:25.000Z</time>
      </trkpt>
      <trkpt lat="43.6272" lon="1.24176">
        <ele>189.60000610352</ele>
        <time>2014-11-02T08:13:26.000Z</time>
      </trkpt>
      <trkpt lat="43.62766" lon="1.24118">
        <ele>190.60000610352</ele>
        <time>2014-11-02T08:13:33.000Z</time>
      </trkpt>
      <trkpt lat="43.6278" lon="1.24101">
        <ele>190.60000610352</ele>
        <time>2014-11-02T08:13:35.000Z</time>
      </trkpt>
      <trkpt lat="43.62827" lon="1.24043">
        <ele>191</ele>
        <time>2014-11-02T08:13:42.000Z</time>
      </trkpt>
      <trkpt lat="43.6284" lon="1.24026">
        <ele>192.19999694824</ele>
        <time>2014-11-02T08:13:44.000Z</time>
      </trkpt>
      <trkpt lat="43.62885" lon="1.23969">
        <ele>194.80000305176</ele>
        <time>2014-11-02T08:13:51.000Z</time>
      </trkpt>
      <trkpt lat="43.62895" lon="1.23953">
        <ele>194.39999389648</ele>
        <time>2014-11-02T08:13:53.000Z</time>
      </trkpt>
      <trkpt lat="43.62901" lon="1.23946">
        <ele>194.19999694824</ele>
        <time>2014-11-02T08:13:54.000Z</time>
      </trkpt>
      <trkpt lat="43.62918" lon="1.23924">
        <ele>196.39999389648</ele>
        <time>2014-11-02T08:13:57.000Z</time>
      </trkpt>
      <trkpt lat="43.62934" lon="1.23903">
        <ele>198.60000610352</ele>
        <time>2014-11-02T08:14:00.000Z</time>
      </trkpt>
      <trkpt lat="43.62939" lon="1.23896">
        <ele>198.60000610352</ele>
        <time>2014-11-02T08:14:01.000Z</time>
      </trkpt>
      <trkpt lat="43.62967" lon="1.23856">
        <ele>195.80000305176</ele>
        <time>2014-11-02T08:14:06.000Z</time>
      </trkpt>
      <trkpt lat="43.63003" lon="1.23808">
        <ele>195.80000305176</ele>
        <time>2014-11-02T08:14:12.000Z</time>
      </trkpt>
      <trkpt lat="43.63041" lon="1.23761">
        <ele>196.19999694824</ele>
        <time>2014-11-02T08:14:18.000Z</time>
      </trkpt>
      <trkpt lat="43.63088" lon="1.23707">
        <ele>194.19999694824</ele>
        <time>2014-11-02T08:14:25.000Z</time>
      </trkpt>
      <trkpt lat="43.6313" lon="1.23657">
        <ele>197.80000305176</ele>
        <time>2014-11-02T08:14:32.000Z</time>
      </trkpt>
      <trkpt lat="43.63135" lon="1.23651">
        <ele>198.19999694824</ele>
        <time>2014-11-02T08:14:33.000Z</time>
      </trkpt>
      <trkpt lat="43.63171" lon="1.23604">
        <ele>200.39999389648</ele>
        <time>2014-11-02T08:14:40.000Z</time>
      </trkpt>
      <trkpt lat="43.63196" lon="1.23573">
        <ele>201.39999389648</ele>
        <time>2014-11-02T08:14:45.000Z</time>
      </trkpt>
      <trkpt lat="43.63226" lon="1.23534">
        <ele>200.80000305176</ele>
        <time>2014-11-02T08:14:51.000Z</time>
      </trkpt>
      <trkpt lat="43.63267" lon="1.23486">
        <ele>202.60000610352</ele>
        <time>2014-11-02T08:14:59.000Z</time>
      </trkpt>
      <trkpt lat="43.63308" lon="1.23436">
        <ele>206.60000610352</ele>
        <time>2014-11-02T08:15:08.000Z</time>
      </trkpt>
      <trkpt lat="43.63344" lon="1.23389">
        <ele>209.19999694824</ele>
        <time>2014-11-02T08:15:16.000Z</time>
      </trkpt>
      <trkpt lat="43.63386" lon="1.23336">
        <ele>210.39999389648</ele>
        <time>2014-11-02T08:15:25.000Z</time>
      </trkpt>
      <trkpt lat="43.6339" lon="1.2333">
        <ele>210.19999694824</ele>
        <time>2014-11-02T08:15:26.000Z</time>
      </trkpt>
      <trkpt lat="43.6343" lon="1.23273">
        <ele>207.60000610352</ele>
        <time>2014-11-02T08:15:34.000Z</time>
      </trkpt>
      <trkpt lat="43.63469" lon="1.23218">
        <ele>207</ele>
        <time>2014-11-02T08:15:41.000Z</time>
      </trkpt>
      <trkpt lat="43.63506" lon="1.23164">
        <ele>209.80000305176</ele>
        <time>2014-11-02T08:15:47.000Z</time>
      </trkpt>
      <trkpt lat="43.63511" lon="1.23154">
        <ele>210.39999389648</ele>
        <time>2014-11-02T08:15:48.000Z</time>
      </trkpt>
      <trkpt lat="43.63553" lon="1.23092">
        <ele>214.39999389648</ele>
        <time>2014-11-02T08:15:55.000Z</time>
      </trkpt>
      <trkpt lat="43.63588" lon="1.23041">
        <ele>216.39999389648</ele>
        <time>2014-11-02T08:16:01.000Z</time>
      </trkpt>
      <trkpt lat="43.6363" lon="1.2298">
        <ele>217.39999389648</ele>
        <time>2014-11-02T08:16:08.000Z</time>
      </trkpt>
      <trkpt lat="43.63667" lon="1.22925">
        <ele>218.80000305176</ele>
        <time>2014-11-02T08:16:14.000Z</time>
      </trkpt>
      <trkpt lat="43.63673" lon="1.22917">
        <ele>219.19999694824</ele>
        <time>2014-11-02T08:16:15.000Z</time>
      </trkpt>
      <trkpt lat="43.63713" lon="1.22863">
        <ele>221.39999389648</ele>
        <time>2014-11-02T08:16:21.000Z</time>
      </trkpt>
      <trkpt lat="43.6372" lon="1.22853">
        <ele>221.80000305176</ele>
        <time>2014-11-02T08:16:22.000Z</time>
      </trkpt>
      <trkpt lat="43.6375" lon="1.22809">
        <ele>219.60000610352</ele>
        <time>2014-11-02T08:16:27.000Z</time>
      </trkpt>
      <trkpt lat="43.63785" lon="1.22758">
        <ele>218.19999694824</ele>
        <time>2014-11-02T08:16:33.000Z</time>
      </trkpt>
      <trkpt lat="43.63819" lon="1.22703">
        <ele>217.39999389648</ele>
        <time>2014-11-02T08:16:39.000Z</time>
      </trkpt>
      <trkpt lat="43.63825" lon="1.22694">
        <ele>217.19999694824</ele>
        <time>2014-11-02T08:16:40.000Z</time>
      </trkpt>
      <trkpt lat="43.63837" lon="1.22675">
        <ele>216.19999694824</ele>
        <time>2014-11-02T08:16:42.000Z</time>
      </trkpt>
      <trkpt lat="43.63849" lon="1.22658">
        <ele>215.39999389648</ele>
        <time>2014-11-02T08:16:44.000Z</time>
      </trkpt>
      <trkpt lat="43.63885" lon="1.22603">
        <ele>215.19999694824</ele>
        <time>2014-11-02T08:16:50.000Z</time>
      </trkpt>
      <trkpt lat="43.63915" lon="1.22557">
        <ele>215.39999389648</ele>
        <time>2014-11-02T08:16:55.000Z</time>
      </trkpt>
      <trkpt lat="43.63954" lon="1.22505">
        <ele>214.80000305176</ele>
        <time>2014-11-02T08:17:01.000Z</time>
      </trkpt>
      <trkpt lat="43.63984" lon="1.22462">
        <ele>215.19999694824</ele>
        <time>2014-11-02T08:17:06.000Z</time>
      </trkpt>
      <trkpt lat="43.6402" lon="1.22414">
        <ele>215.80000305176</ele>
        <time>2014-11-02T08:17:12.000Z</time>
      </trkpt>
      <trkpt lat="43.64031" lon="1.22397">
        <ele>216.60000610352</ele>
        <time>2014-11-02T08:17:14.000Z</time>
      </trkpt>
      <trkpt lat="43.64041" lon="1.22382">
        <ele>217.60000610352</ele>
        <time>2014-11-02T08:17:16.000Z</time>
      </trkpt>
      <trkpt lat="43.64069" lon="1.22343">
        <ele>219.60000610352</ele>
        <time>2014-11-02T08:17:21.000Z</time>
      </trkpt>
      <trkpt lat="43.6411" lon="1.22285">
        <ele>219.39999389648</ele>
        <time>2014-11-02T08:17:28.000Z</time>
      </trkpt>
      <trkpt lat="43.64121" lon="1.22269">
        <ele>218.80000305176</ele>
        <time>2014-11-02T08:17:30.000Z</time>
      </trkpt>
      <trkpt lat="43.64156" lon="1.2222">
        <ele>219.19999694824</ele>
        <time>2014-11-02T08:17:36.000Z</time>
      </trkpt>
      <trkpt lat="43.6419" lon="1.22171">
        <ele>220.39999389648</ele>
        <time>2014-11-02T08:17:42.000Z</time>
      </trkpt>
      <trkpt lat="43.64231" lon="1.22113">
        <ele>219.39999389648</ele>
        <time>2014-11-02T08:17:49.000Z</time>
      </trkpt>
      <trkpt lat="43.6426" lon="1.22068">
        <ele>218.39999389648</ele>
        <time>2014-11-02T08:17:54.000Z</time>
      </trkpt>
      <trkpt lat="43.64291" lon="1.22024">
        <ele>218</ele>
        <time>2014-11-02T08:17:59.000Z</time>
      </trkpt>
      <trkpt lat="43.64297" lon="1.22016">
        <ele>217.80000305176</ele>
        <time>2014-11-02T08:18:00.000Z</time>
      </trkpt>
      <trkpt lat="43.64337" lon="1.21956">
        <ele>217</ele>
        <time>2014-11-02T08:18:07.000Z</time>
      </trkpt>
      <trkpt lat="43.64343" lon="1.21948">
        <ele>216.60000610352</ele>
        <time>2014-11-02T08:18:08.000Z</time>
      </trkpt>
      <trkpt lat="43.64378" lon="1.21898">
        <ele>216.60000610352</ele>
        <time>2014-11-02T08:18:14.000Z</time>
      </trkpt>
      <trkpt lat="43.64407" lon="1.21857">
        <ele>217.80000305176</ele>
        <time>2014-11-02T08:18:19.000Z</time>
      </trkpt>
      <trkpt lat="43.64413" lon="1.21849">
        <ele>217.80000305176</ele>
        <time>2014-11-02T08:18:20.000Z</time>
      </trkpt>
      <trkpt lat="43.64446" lon="1.218">
        <ele>217.60000610352</ele>
        <time>2014-11-02T08:18:26.000Z</time>
      </trkpt>
      <trkpt lat="43.64481" lon="1.21749">
        <ele>219.19999694824</ele>
        <time>2014-11-02T08:18:32.000Z</time>
      </trkpt>
      <trkpt lat="43.64514" lon="1.217">
        <ele>220.39999389648</ele>
        <time>2014-11-02T08:18:38.000Z</time>
      </trkpt>
      <trkpt lat="43.64554" lon="1.21645">
        <ele>220.60000610352</ele>
        <time>2014-11-02T08:18:45.000Z</time>
      </trkpt>
      <trkpt lat="43.64583" lon="1.21608">
        <ele>222</ele>
        <time>2014-11-02T08:18:50.000Z</time>
      </trkpt>
      <trkpt lat="43.64612" lon="1.21571">
        <ele>223.60000610352</ele>
        <time>2014-11-02T08:18:55.000Z</time>
      </trkpt>
      <trkpt lat="43.64642" lon="1.21533">
        <ele>224.60000610352</ele>
        <time>2014-11-02T08:19:00.000Z</time>
      </trkpt>
      <trkpt lat="43.64676" lon="1.21489">
        <ele>224.19999694824</ele>
        <time>2014-11-02T08:19:06.000Z</time>
      </trkpt>
      <trkpt lat="43.64688" lon="1.21474">
        <ele>224</ele>
        <time>2014-11-02T08:19:08.000Z</time>
      </trkpt>
      <trkpt lat="43.64699" lon="1.2146">
        <ele>224</ele>
        <time>2014-11-02T08:19:10.000Z</time>
      </trkpt>
      <trkpt lat="43.64739" lon="1.21411">
        <ele>223.80000305176</ele>
        <time>2014-11-02T08:19:17.000Z</time>
      </trkpt>
      <trkpt lat="43.64771" lon="1.21374">
        <ele>221.80000305176</ele>
        <time>2014-11-02T08:19:22.000Z</time>
      </trkpt>
      <trkpt lat="43.64779" lon="1.21367">
        <ele>221.19999694824</ele>
        <time>2014-11-02T08:19:23.000Z</time>
      </trkpt>
      <trkpt lat="43.64821" lon="1.21335">
        <ele>219.80000305176</ele>
        <time>2014-11-02T08:19:28.000Z</time>
      </trkpt>
      <trkpt lat="43.64858" lon="1.21302">
        <ele>217.60000610352</ele>
        <time>2014-11-02T08:19:32.000Z</time>
      </trkpt>
      <trkpt lat="43.64892" lon="1.2126">
        <ele>213.19999694824</ele>
        <time>2014-11-02T08:19:36.000Z</time>
      </trkpt>
      <trkpt lat="43.64922" lon="1.21206">
        <ele>213</ele>
        <time>2014-11-02T08:19:40.000Z</time>
      </trkpt>
      <trkpt lat="43.64946" lon="1.21167">
        <ele>206.19999694824</ele>
        <time>2014-11-02T08:19:43.000Z</time>
      </trkpt>
      <trkpt lat="43.64962" lon="1.21146">
        <ele>204.19999694824</ele>
        <time>2014-11-02T08:19:45.000Z</time>
      </trkpt>
      <trkpt lat="43.64995" lon="1.21119">
        <ele>206.39999389648</ele>
        <time>2014-11-02T08:19:48.000Z</time>
      </trkpt>
      <trkpt lat="43.65056" lon="1.21079">
        <ele>202.80000305176</ele>
        <time>2014-11-02T08:19:53.000Z</time>
      </trkpt>
      <trkpt lat="43.65081" lon="1.21033">
        <ele>199.80000305176</ele>
        <time>2014-11-02T08:19:56.000Z</time>
      </trkpt>
      <trkpt lat="43.65086" lon="1.20994">
        <ele>196.80000305176</ele>
        <time>2014-11-02T08:19:58.000Z</time>
      </trkpt>
      <trkpt lat="43.65079" lon="1.20958">
        <ele>196.80000305176</ele>
        <time>2014-11-02T08:20:00.000Z</time>
      </trkpt>
      <trkpt lat="43.6507" lon="1.20926">
        <ele>198</ele>
        <time>2014-11-02T08:20:02.000Z</time>
      </trkpt>
      <trkpt lat="43.65062" lon="1.20896">
        <ele>199</ele>
        <time>2014-11-02T08:20:04.000Z</time>
      </trkpt>
      <trkpt lat="43.65052" lon="1.20844">
        <ele>201.60000610352</ele>
        <time>2014-11-02T08:20:08.000Z</time>
      </trkpt>
      <trkpt lat="43.65048" lon="1.20799">
        <ele>205.19999694824</ele>
        <time>2014-11-02T08:20:12.000Z</time>
      </trkpt>
      <trkpt lat="43.65048" lon="1.20763">
        <ele>205.60000610352</ele>
        <time>2014-11-02T08:20:16.000Z</time>
      </trkpt>
      <trkpt lat="43.65046" lon="1.20713">
        <ele>205.80000305176</ele>
        <time>2014-11-02T08:20:22.000Z</time>
      </trkpt>
      <trkpt lat="43.65048" lon="1.20669">
        <ele>205.39999389648</ele>
        <time>2014-11-02T08:20:28.000Z</time>
      </trkpt>
      <trkpt lat="43.65047" lon="1.20662">
        <ele>205.39999389648</ele>
        <time>2014-11-02T08:20:29.000Z</time>
      </trkpt>
      <trkpt lat="43.65045" lon="1.20632">
        <ele>206</ele>
        <time>2014-11-02T08:20:33.000Z</time>
      </trkpt>
      <trkpt lat="43.65045" lon="1.20625">
        <ele>206.39999389648</ele>
        <time>2014-11-02T08:20:34.000Z</time>
      </trkpt>
      <trkpt lat="43.65046" lon="1.20603">
        <ele>207.19999694824</ele>
        <time>2014-11-02T08:20:37.000Z</time>
      </trkpt>
      <trkpt lat="43.65046" lon="1.20577">
        <ele>208.19999694824</ele>
        <time>2014-11-02T08:20:41.000Z</time>
      </trkpt>
      <trkpt lat="43.65045" lon="1.2057">
        <ele>208.60000610352</ele>
        <time>2014-11-02T08:20:42.000Z</time>
      </trkpt>
      <trkpt lat="43.65045" lon="1.20537">
        <ele>210.39999389648</ele>
        <time>2014-11-02T08:20:47.000Z</time>
      </trkpt>
      <trkpt lat="43.65045" lon="1.20524">
        <ele>211.19999694824</ele>
        <time>2014-11-02T08:20:49.000Z</time>
      </trkpt>
      <trkpt lat="43.65047" lon="1.20486">
        <ele>213.60000610352</ele>
        <time>2014-11-02T08:20:55.000Z</time>
      </trkpt>
      <trkpt lat="43.65054" lon="1.20443">
        <ele>215.19999694824</ele>
        <time>2014-11-02T08:21:02.000Z</time>
      </trkpt>
      <trkpt lat="43.65056" lon="1.20431">
        <ele>215.39999389648</ele>
        <time>2014-11-02T08:21:04.000Z</time>
      </trkpt>
      <trkpt lat="43.65064" lon="1.20404">
        <ele>216</ele>
        <time>2014-11-02T08:21:09.000Z</time>
      </trkpt>
      <trkpt lat="43.65077" lon="1.20371">
        <ele>216.39999389648</ele>
        <time>2014-11-02T08:21:15.000Z</time>
      </trkpt>
      <trkpt lat="43.65085" lon="1.20355">
        <ele>217</ele>
        <time>2014-11-02T08:21:18.000Z</time>
      </trkpt>
      <trkpt lat="43.65094" lon="1.20334">
        <ele>218</ele>
        <time>2014-11-02T08:21:22.000Z</time>
      </trkpt>
      <trkpt lat="43.65111" lon="1.20294">
        <ele>220.39999389648</ele>
        <time>2014-11-02T08:21:29.000Z</time>
      </trkpt>
      <trkpt lat="43.65132" lon="1.20255">
        <ele>223.39999389648</ele>
        <time>2014-11-02T08:21:36.000Z</time>
      </trkpt>
      <trkpt lat="43.65136" lon="1.20249">
        <ele>224</ele>
        <time>2014-11-02T08:21:37.000Z</time>
      </trkpt>
      <trkpt lat="43.65164" lon="1.20203">
        <ele>226.19999694824</ele>
        <time>2014-11-02T08:21:45.000Z</time>
      </trkpt>
      <trkpt lat="43.65192" lon="1.20159">
        <ele>225.39999389648</ele>
        <time>2014-11-02T08:21:52.000Z</time>
      </trkpt>
      <trkpt lat="43.65222" lon="1.20121">
        <ele>225.19999694824</ele>
        <time>2014-11-02T08:21:58.000Z</time>
      </trkpt>
      <trkpt lat="43.65265" lon="1.20083">
        <ele>223.80000305176</ele>
        <time>2014-11-02T08:22:05.000Z</time>
      </trkpt>
      <trkpt lat="43.65315" lon="1.2004">
        <ele>222</ele>
        <time>2014-11-02T08:22:12.000Z</time>
      </trkpt>
      <trkpt lat="43.65363" lon="1.19998">
        <ele>217.19999694824</ele>
        <time>2014-11-02T08:22:18.000Z</time>
      </trkpt>
      <trkpt lat="43.65409" lon="1.19958">
        <ele>215.39999389648</ele>
        <time>2014-11-02T08:22:23.000Z</time>
      </trkpt>
      <trkpt lat="43.65418" lon="1.1995">
        <ele>214.60000610352</ele>
        <time>2014-11-02T08:22:24.000Z</time>
      </trkpt>
      <trkpt lat="43.65468" lon="1.19908">
        <ele>212</ele>
        <time>2014-11-02T08:22:29.000Z</time>
      </trkpt>
      <trkpt lat="43.65478" lon="1.19901">
        <ele>212.39999389648</ele>
        <time>2014-11-02T08:22:30.000Z</time>
      </trkpt>
      <trkpt lat="43.65523" lon="1.19883">
        <ele>211.80000305176</ele>
        <time>2014-11-02T08:22:34.000Z</time>
      </trkpt>
      <trkpt lat="43.65572" lon="1.19884">
        <ele>207.80000305176</ele>
        <time>2014-11-02T08:22:38.000Z</time>
      </trkpt>
      <trkpt lat="43.65595" lon="1.19874">
        <ele>204.80000305176</ele>
        <time>2014-11-02T08:22:40.000Z</time>
      </trkpt>
      <trkpt lat="43.65613" lon="1.19852">
        <ele>202</ele>
        <time>2014-11-02T08:22:42.000Z</time>
      </trkpt>
      <trkpt lat="43.65629" lon="1.19825">
        <ele>198.80000305176</ele>
        <time>2014-11-02T08:22:44.000Z</time>
      </trkpt>
      <trkpt lat="43.65653" lon="1.19785">
        <ele>195</ele>
        <time>2014-11-02T08:22:47.000Z</time>
      </trkpt>
      <trkpt lat="43.65685" lon="1.19732">
        <ele>192.19999694824</ele>
        <time>2014-11-02T08:22:51.000Z</time>
      </trkpt>
      <trkpt lat="43.65695" lon="1.19718">
        <ele>192</ele>
        <time>2014-11-02T08:22:52.000Z</time>
      </trkpt>
      <trkpt lat="43.65745" lon="1.19663">
        <ele>190.19999694824</ele>
        <time>2014-11-02T08:22:57.000Z</time>
      </trkpt>
      <trkpt lat="43.65755" lon="1.19651">
        <ele>189.19999694824</ele>
        <time>2014-11-02T08:22:58.000Z</time>
      </trkpt>
      <trkpt lat="43.65808" lon="1.19597">
        <ele>184.80000305176</ele>
        <time>2014-11-02T08:23:03.000Z</time>
      </trkpt>
      <trkpt lat="43.6583" lon="1.19575">
        <ele>182.19999694824</ele>
        <time>2014-11-02T08:23:05.000Z</time>
      </trkpt>
      <trkpt lat="43.65884" lon="1.19522">
        <ele>177</ele>
        <time>2014-11-02T08:23:10.000Z</time>
      </trkpt>
      <trkpt lat="43.65906" lon="1.19501">
        <ele>175.60000610352</ele>
        <time>2014-11-02T08:23:12.000Z</time>
      </trkpt>
      <trkpt lat="43.65962" lon="1.19453">
        <ele>172.19999694824</ele>
        <time>2014-11-02T08:23:17.000Z</time>
      </trkpt>
      <trkpt lat="43.66025" lon="1.19424">
        <ele>167.60000610352</ele>
        <time>2014-11-02T08:23:22.000Z</time>
      </trkpt>
      <trkpt lat="43.6609" lon="1.19412">
        <ele>164.39999389648</ele>
        <time>2014-11-02T08:23:27.000Z</time>
      </trkpt>
      <trkpt lat="43.66154" lon="1.19389">
        <ele>159.80000305176</ele>
        <time>2014-11-02T08:23:32.000Z</time>
      </trkpt>
      <trkpt lat="43.6618" lon="1.19379">
        <ele>158</ele>
        <time>2014-11-02T08:23:34.000Z</time>
      </trkpt>
      <trkpt lat="43.6623" lon="1.19354">
        <ele>154.39999389648</ele>
        <time>2014-11-02T08:23:38.000Z</time>
      </trkpt>
      <trkpt lat="43.66276" lon="1.19321">
        <ele>152.19999694824</ele>
        <time>2014-11-02T08:23:42.000Z</time>
      </trkpt>
      <trkpt lat="43.66319" lon="1.19283">
        <ele>150</ele>
        <time>2014-11-02T08:23:46.000Z</time>
      </trkpt>
      <trkpt lat="43.66344" lon="1.19276">
        <ele>149.39999389648</ele>
        <time>2014-11-02T08:23:48.000Z</time>
      </trkpt>
      <trkpt lat="43.66367" lon="1.19284">
        <ele>149</ele>
        <time>2014-11-02T08:23:50.000Z</time>
      </trkpt>
      <trkpt lat="43.66397" lon="1.19311">
        <ele>148.80000305176</ele>
        <time>2014-11-02T08:23:53.000Z</time>
      </trkpt>
      <trkpt lat="43.66422" lon="1.1934">
        <ele>148</ele>
        <time>2014-11-02T08:23:56.000Z</time>
      </trkpt>
      <trkpt lat="43.66467" lon="1.19385">
        <ele>147.19999694824</ele>
        <time>2014-11-02T08:24:01.000Z</time>
      </trkpt>
      <trkpt lat="43.66476" lon="1.19392">
        <ele>147</ele>
        <time>2014-11-02T08:24:02.000Z</time>
      </trkpt>
      <trkpt lat="43.66495" lon="1.19395">
        <ele>146.19999694824</ele>
        <time>2014-11-02T08:24:04.000Z</time>
      </trkpt>
      <trkpt lat="43.66511" lon="1.19389">
        <ele>145.19999694824</ele>
        <time>2014-11-02T08:24:06.000Z</time>
      </trkpt>
      <trkpt lat="43.66521" lon="1.19385">
        <ele>144.39999389648</ele>
        <time>2014-11-02T08:24:07.000Z</time>
      </trkpt>
      <trkpt lat="43.66554" lon="1.19373">
        <ele>141.39999389648</ele>
        <time>2014-11-02T08:24:11.000Z</time>
      </trkpt>
      <trkpt lat="43.66574" lon="1.19364">
        <ele>139.60000610352</ele>
        <time>2014-11-02T08:24:14.000Z</time>
      </trkpt>
      <trkpt lat="43.66582" lon="1.1936">
        <ele>139.19999694824</ele>
        <time>2014-11-02T08:24:16.000Z</time>
      </trkpt>
      <trkpt lat="43.66587" lon="1.19358">
        <ele>138.80000305176</ele>
        <time>2014-11-02T08:24:19.000Z</time>
      </trkpt>
      <trkpt lat="43.66589" lon="1.1936">
        <ele>138.80000305176</ele>
        <time>2014-11-02T08:24:31.000Z</time>
      </trkpt>
      <trkpt lat="43.66593" lon="1.1936">
        <ele>138.60000610352</ele>
        <time>2014-11-02T08:24:35.000Z</time>
      </trkpt>
      <trkpt lat="43.66595" lon="1.1936">
        <ele>138.60000610352</ele>
        <time>2014-11-02T08:24:36.000Z</time>
      </trkpt>
      <trkpt lat="43.66602" lon="1.19364">
        <ele>138.19999694824</ele>
        <time>2014-11-02T08:24:39.000Z</time>
      </trkpt>
      <trkpt lat="43.66606" lon="1.19358">
        <ele>138</ele>
        <time>2014-11-02T08:24:41.000Z</time>
      </trkpt>
      <trkpt lat="43.66622" lon="1.19342">
        <ele>137.19999694824</ele>
        <time>2014-11-02T08:24:45.000Z</time>
      </trkpt>
      <trkpt lat="43.66628" lon="1.19338">
        <ele>137</ele>
        <time>2014-11-02T08:24:46.000Z</time>
      </trkpt>
      <trkpt lat="43.66638" lon="1.19327">
        <ele>136.80000305176</ele>
        <time>2014-11-02T08:24:48.000Z</time>
      </trkpt>
      <trkpt lat="43.66647" lon="1.19314">
        <ele>136.60000610352</ele>
        <time>2014-11-02T08:24:50.000Z</time>
      </trkpt>
      <trkpt lat="43.66671" lon="1.19274">
        <ele>135</ele>
        <time>2014-11-02T08:24:56.000Z</time>
      </trkpt>
      <trkpt lat="43.66681" lon="1.19252">
        <ele>133.39999389648</ele>
        <time>2014-11-02T08:24:59.000Z</time>
      </trkpt>
      <trkpt lat="43.66687" lon="1.19245">
        <ele>132.80000305176</ele>
        <time>2014-11-02T08:25:00.000Z</time>
      </trkpt>
      <trkpt lat="43.66729" lon="1.19191">
        <ele>132.39999389648</ele>
        <time>2014-11-02T08:25:08.000Z</time>
      </trkpt>
      <trkpt lat="43.66764" lon="1.19157">
        <ele>130.39999389648</ele>
        <time>2014-11-02T08:25:14.000Z</time>
      </trkpt>
      <trkpt lat="43.66807" lon="1.19121">
        <ele>127.80000305176</ele>
        <time>2014-11-02T08:25:21.000Z</time>
      </trkpt>
      <trkpt lat="43.66826" lon="1.19103">
        <ele>126.59999847412</ele>
        <time>2014-11-02T08:25:24.000Z</time>
      </trkpt>
      <trkpt lat="43.66837" lon="1.19088">
        <ele>126</ele>
        <time>2014-11-02T08:25:26.000Z</time>
      </trkpt>
      <trkpt lat="43.66846" lon="1.19071">
        <ele>125.40000152588</ele>
        <time>2014-11-02T08:25:28.000Z</time>
      </trkpt>
      <trkpt lat="43.66855" lon="1.19055">
        <ele>125.19999694824</ele>
        <time>2014-11-02T08:25:30.000Z</time>
      </trkpt>
      <trkpt lat="43.6686" lon="1.19048">
        <ele>125.40000152588</ele>
        <time>2014-11-02T08:25:31.000Z</time>
      </trkpt>
      <trkpt lat="43.66879" lon="1.19021">
        <ele>126</ele>
        <time>2014-11-02T08:25:35.000Z</time>
      </trkpt>
      <trkpt lat="43.66874" lon="1.19005">
        <ele>126.40000152588</ele>
        <time>2014-11-02T08:25:37.000Z</time>
      </trkpt>
      <trkpt lat="43.66869" lon="1.18998">
        <ele>126.59999847412</ele>
        <time>2014-11-02T08:25:38.000Z</time>
      </trkpt>
      <trkpt lat="43.66866" lon="1.1899">
        <ele>126.80000305176</ele>
        <time>2014-11-02T08:25:39.000Z</time>
      </trkpt>
      <trkpt lat="43.66864" lon="1.1898">
        <ele>127.19999694824</ele>
        <time>2014-11-02T08:25:40.000Z</time>
      </trkpt>
      <trkpt lat="43.66861" lon="1.18961">
        <ele>127.40000152588</ele>
        <time>2014-11-02T08:25:42.000Z</time>
      </trkpt>
      <trkpt lat="43.66853" lon="1.18913">
        <ele>127.80000305176</ele>
        <time>2014-11-02T08:25:47.000Z</time>
      </trkpt>
      <trkpt lat="43.6684" lon="1.18837">
        <ele>127.40000152588</ele>
        <time>2014-11-02T08:25:55.000Z</time>
      </trkpt>
      <trkpt lat="43.66838" lon="1.18828">
        <ele>127.19999694824</ele>
        <time>2014-11-02T08:25:56.000Z</time>
      </trkpt>
      <trkpt lat="43.66825" lon="1.18752">
        <ele>126.59999847412</ele>
        <time>2014-11-02T08:26:04.000Z</time>
      </trkpt>
      <trkpt lat="43.66823" lon="1.18743">
        <ele>126.59999847412</ele>
        <time>2014-11-02T08:26:05.000Z</time>
      </trkpt>
      <trkpt lat="43.6681" lon="1.18668">
        <ele>126.59999847412</ele>
        <time>2014-11-02T08:26:13.000Z</time>
      </trkpt>
      <trkpt lat="43.66798" lon="1.18595">
        <ele>126.59999847412</ele>
        <time>2014-11-02T08:26:21.000Z</time>
      </trkpt>
      <trkpt lat="43.66793" lon="1.18566">
        <ele>127</ele>
        <time>2014-11-02T08:26:24.000Z</time>
      </trkpt>
      <trkpt lat="43.66779" lon="1.1849">
        <ele>125.19999694824</ele>
        <time>2014-11-02T08:26:32.000Z</time>
      </trkpt>
      <trkpt lat="43.66778" lon="1.18481">
        <ele>125.19999694824</ele>
        <time>2014-11-02T08:26:33.000Z</time>
      </trkpt>
      <trkpt lat="43.66764" lon="1.18406">
        <ele>126</ele>
        <time>2014-11-02T08:26:41.000Z</time>
      </trkpt>
      <trkpt lat="43.66751" lon="1.1833">
        <ele>128.39999389648</ele>
        <time>2014-11-02T08:26:49.000Z</time>
      </trkpt>
      <trkpt lat="43.66749" lon="1.1832">
        <ele>128.60000610352</ele>
        <time>2014-11-02T08:26:50.000Z</time>
      </trkpt>
      <trkpt lat="43.66736" lon="1.18244">
        <ele>129</ele>
        <time>2014-11-02T08:26:58.000Z</time>
      </trkpt>
      <trkpt lat="43.66733" lon="1.18225">
        <ele>129</ele>
        <time>2014-11-02T08:27:00.000Z</time>
      </trkpt>
      <trkpt lat="43.6672" lon="1.18152">
        <ele>130</ele>
        <time>2014-11-02T08:27:08.000Z</time>
      </trkpt>
      <trkpt lat="43.66718" lon="1.18144">
        <ele>130</ele>
        <time>2014-11-02T08:27:09.000Z</time>
      </trkpt>
      <trkpt lat="43.66706" lon="1.18071">
        <ele>128.39999389648</ele>
        <time>2014-11-02T08:27:17.000Z</time>
      </trkpt>
      <trkpt lat="43.66691" lon="1.17991">
        <ele>130.60000610352</ele>
        <time>2014-11-02T08:27:26.000Z</time>
      </trkpt>
      <trkpt lat="43.6669" lon="1.17983">
        <ele>131</ele>
        <time>2014-11-02T08:27:27.000Z</time>
      </trkpt>
      <trkpt lat="43.6668" lon="1.17913">
        <ele>131.60000610352</ele>
        <time>2014-11-02T08:27:35.000Z</time>
      </trkpt>
      <trkpt lat="43.66678" lon="1.17848">
        <ele>132.80000305176</ele>
        <time>2014-11-02T08:27:43.000Z</time>
      </trkpt>
      <trkpt lat="43.6668" lon="1.17834">
        <ele>133.19999694824</ele>
        <time>2014-11-02T08:27:45.000Z</time>
      </trkpt>
      <trkpt lat="43.66685" lon="1.17806">
        <ele>134.19999694824</ele>
        <time>2014-11-02T08:27:49.000Z</time>
      </trkpt>
      <trkpt lat="43.66698" lon="1.17753">
        <ele>137.19999694824</ele>
        <time>2014-11-02T08:27:57.000Z</time>
      </trkpt>
      <trkpt lat="43.66714" lon="1.17693">
        <ele>140.19999694824</ele>
        <time>2014-11-02T08:28:06.000Z</time>
      </trkpt>
      <trkpt lat="43.66725" lon="1.17638">
        <ele>141.60000610352</ele>
        <time>2014-11-02T08:28:14.000Z</time>
      </trkpt>
      <trkpt lat="43.66728" lon="1.17593">
        <ele>143.60000610352</ele>
        <time>2014-11-02T08:28:21.000Z</time>
      </trkpt>
      <trkpt lat="43.66731" lon="1.17532">
        <ele>146.80000305176</ele>
        <time>2014-11-02T08:28:30.000Z</time>
      </trkpt>
      <trkpt lat="43.66733" lon="1.17479">
        <ele>148</ele>
        <time>2014-11-02T08:28:38.000Z</time>
      </trkpt>
      <trkpt lat="43.66736" lon="1.17399">
        <ele>149.19999694824</ele>
        <time>2014-11-02T08:28:50.000Z</time>
      </trkpt>
      <trkpt lat="43.66737" lon="1.17332">
        <ele>152.19999694824</ele>
        <time>2014-11-02T08:29:00.000Z</time>
      </trkpt>
      <trkpt lat="43.66733" lon="1.17278">
        <ele>154.80000305176</ele>
        <time>2014-11-02T08:29:08.000Z</time>
      </trkpt>
      <trkpt lat="43.6673" lon="1.17216">
        <ele>155.19999694824</ele>
        <time>2014-11-02T08:29:17.000Z</time>
      </trkpt>
      <trkpt lat="43.66726" lon="1.17148">
        <ele>158.19999694824</ele>
        <time>2014-11-02T08:29:27.000Z</time>
      </trkpt>
      <trkpt lat="43.66726" lon="1.17133">
        <ele>158</ele>
        <time>2014-11-02T08:29:29.000Z</time>
      </trkpt>
      <trkpt lat="43.66725" lon="1.17112">
        <ele>157.80000305176</ele>
        <time>2014-11-02T08:29:32.000Z</time>
      </trkpt>
      <trkpt lat="43.6672" lon="1.17055">
        <ele>159.39999389648</ele>
        <time>2014-11-02T08:29:40.000Z</time>
      </trkpt>
      <trkpt lat="43.6672" lon="1.17026">
        <ele>159.39999389648</ele>
        <time>2014-11-02T08:29:44.000Z</time>
      </trkpt>
      <trkpt lat="43.6672" lon="1.17012">
        <ele>159.19999694824</ele>
        <time>2014-11-02T08:29:46.000Z</time>
      </trkpt>
      <trkpt lat="43.66728" lon="1.16955">
        <ele>159.19999694824</ele>
        <time>2014-11-02T08:29:54.000Z</time>
      </trkpt>
      <trkpt lat="43.66738" lon="1.16895">
        <ele>162</ele>
        <time>2014-11-02T08:30:03.000Z</time>
      </trkpt>
      <trkpt lat="43.66742" lon="1.16846">
        <ele>163.19999694824</ele>
        <time>2014-11-02T08:30:10.000Z</time>
      </trkpt>
      <trkpt lat="43.66742" lon="1.16774">
        <ele>165.19999694824</ele>
        <time>2014-11-02T08:30:20.000Z</time>
      </trkpt>
      <trkpt lat="43.66746" lon="1.16707">
        <ele>166.80000305176</ele>
        <time>2014-11-02T08:30:29.000Z</time>
      </trkpt>
      <trkpt lat="43.6675" lon="1.16683">
        <ele>167.39999389648</ele>
        <time>2014-11-02T08:30:32.000Z</time>
      </trkpt>
      <trkpt lat="43.66756" lon="1.16658">
        <ele>168.19999694824</ele>
        <time>2014-11-02T08:30:35.000Z</time>
      </trkpt>
      <trkpt lat="43.66774" lon="1.16596">
        <ele>169</ele>
        <time>2014-11-02T08:30:43.000Z</time>
      </trkpt>
      <trkpt lat="43.66791" lon="1.16537">
        <ele>168</ele>
        <time>2014-11-02T08:30:51.000Z</time>
      </trkpt>
      <trkpt lat="43.66793" lon="1.16528">
        <ele>167.80000305176</ele>
        <time>2014-11-02T08:30:52.000Z</time>
      </trkpt>
      <trkpt lat="43.66811" lon="1.16463">
        <ele>168</ele>
        <time>2014-11-02T08:31:01.000Z</time>
      </trkpt>
      <trkpt lat="43.66832" lon="1.16391">
        <ele>170</ele>
        <time>2014-11-02T08:31:11.000Z</time>
      </trkpt>
      <trkpt lat="43.6684" lon="1.16364">
        <ele>171.19999694824</ele>
        <time>2014-11-02T08:31:15.000Z</time>
      </trkpt>
      <trkpt lat="43.66844" lon="1.1635">
        <ele>172.60000610352</ele>
        <time>2014-11-02T08:31:17.000Z</time>
      </trkpt>
      <trkpt lat="43.66864" lon="1.16307">
        <ele>175.80000305176</ele>
        <time>2014-11-02T08:31:24.000Z</time>
      </trkpt>
      <trkpt lat="43.66891" lon="1.16261">
        <ele>180</ele>
        <time>2014-11-02T08:31:32.000Z</time>
      </trkpt>
      <trkpt lat="43.66911" lon="1.16226">
        <ele>186.80000305176</ele>
        <time>2014-11-02T08:31:38.000Z</time>
      </trkpt>
      <trkpt lat="43.66933" lon="1.16184">
        <ele>193</ele>
        <time>2014-11-02T08:31:45.000Z</time>
      </trkpt>
      <trkpt lat="43.66941" lon="1.16165">
        <ele>195.19999694824</ele>
        <time>2014-11-02T08:31:48.000Z</time>
      </trkpt>
      <trkpt lat="43.66947" lon="1.16153">
        <ele>195.80000305176</ele>
        <time>2014-11-02T08:31:50.000Z</time>
      </trkpt>
      <trkpt lat="43.66976" lon="1.16107">
        <ele>194.60000610352</ele>
        <time>2014-11-02T08:31:58.000Z</time>
      </trkpt>
      <trkpt lat="43.67009" lon="1.16073">
        <ele>194.60000610352</ele>
        <time>2014-11-02T08:32:05.000Z</time>
      </trkpt>
      <trkpt lat="43.67032" lon="1.16039">
        <ele>196.39999389648</ele>
        <time>2014-11-02T08:32:11.000Z</time>
      </trkpt>
      <trkpt lat="43.67057" lon="1.15995">
        <ele>198.60000610352</ele>
        <time>2014-11-02T08:32:18.000Z</time>
      </trkpt>
      <trkpt lat="43.67076" lon="1.15957">
        <ele>198.19999694824</ele>
        <time>2014-11-02T08:32:24.000Z</time>
      </trkpt>
      <trkpt lat="43.671" lon="1.15905">
        <ele>201</ele>
        <time>2014-11-02T08:32:32.000Z</time>
      </trkpt>
      <trkpt lat="43.67107" lon="1.15885">
        <ele>202.19999694824</ele>
        <time>2014-11-02T08:32:35.000Z</time>
      </trkpt>
      <trkpt lat="43.67111" lon="1.15872">
        <ele>202.60000610352</ele>
        <time>2014-11-02T08:32:37.000Z</time>
      </trkpt>
      <trkpt lat="43.6712" lon="1.15844">
        <ele>203.60000610352</ele>
        <time>2014-11-02T08:32:41.000Z</time>
      </trkpt>
      <trkpt lat="43.67125" lon="1.1583">
        <ele>204</ele>
        <time>2014-11-02T08:32:43.000Z</time>
      </trkpt>
      <trkpt lat="43.6713" lon="1.15818">
        <ele>203.80000305176</ele>
        <time>2014-11-02T08:32:45.000Z</time>
      </trkpt>
      <trkpt lat="43.67137" lon="1.15797">
        <ele>203.60000610352</ele>
        <time>2014-11-02T08:32:48.000Z</time>
      </trkpt>
      <trkpt lat="43.67149" lon="1.15738">
        <ele>205.60000610352</ele>
        <time>2014-11-02T08:32:56.000Z</time>
      </trkpt>
      <trkpt lat="43.67152" lon="1.15715">
        <ele>206.60000610352</ele>
        <time>2014-11-02T08:32:59.000Z</time>
      </trkpt>
      <trkpt lat="43.67153" lon="1.15685">
        <ele>207.60000610352</ele>
        <time>2014-11-02T08:33:03.000Z</time>
      </trkpt>
      <trkpt lat="43.6715" lon="1.15627">
        <ele>209.80000305176</ele>
        <time>2014-11-02T08:33:11.000Z</time>
      </trkpt>
      <trkpt lat="43.67146" lon="1.15599">
        <ele>210.39999389648</ele>
        <time>2014-11-02T08:33:15.000Z</time>
      </trkpt>
      <trkpt lat="43.67141" lon="1.15587">
        <ele>211.19999694824</ele>
        <time>2014-11-02T08:33:17.000Z</time>
      </trkpt>
      <trkpt lat="43.67127" lon="1.15567">
        <ele>213.39999389648</ele>
        <time>2014-11-02T08:33:21.000Z</time>
      </trkpt>
      <trkpt lat="43.67123" lon="1.15562">
        <ele>214</ele>
        <time>2014-11-02T08:33:22.000Z</time>
      </trkpt>
      <trkpt lat="43.67112" lon="1.15549">
        <ele>214.80000305176</ele>
        <time>2014-11-02T08:33:25.000Z</time>
      </trkpt>
      <trkpt lat="43.67105" lon="1.15539">
        <ele>215.19999694824</ele>
        <time>2014-11-02T08:33:27.000Z</time>
      </trkpt>
      <trkpt lat="43.67094" lon="1.15517">
        <ele>215</ele>
        <time>2014-11-02T08:33:31.000Z</time>
      </trkpt>
      <trkpt lat="43.67092" lon="1.1551">
        <ele>214.80000305176</ele>
        <time>2014-11-02T08:33:32.000Z</time>
      </trkpt>
      <trkpt lat="43.67091" lon="1.15504">
        <ele>214.39999389648</ele>
        <time>2014-11-02T08:33:33.000Z</time>
      </trkpt>
      <trkpt lat="43.67087" lon="1.15484">
        <ele>213.60000610352</ele>
        <time>2014-11-02T08:33:36.000Z</time>
      </trkpt>
      <trkpt lat="43.67086" lon="1.15478">
        <ele>213.19999694824</ele>
        <time>2014-11-02T08:33:37.000Z</time>
      </trkpt>
      <trkpt lat="43.67083" lon="1.1544">
        <ele>215</ele>
        <time>2014-11-02T08:33:43.000Z</time>
      </trkpt>
      <trkpt lat="43.67081" lon="1.15408">
        <ele>216.39999389648</ele>
        <time>2014-11-02T08:33:48.000Z</time>
      </trkpt>
      <trkpt lat="43.67081" lon="1.15401">
        <ele>216.60000610352</ele>
        <time>2014-11-02T08:33:49.000Z</time>
      </trkpt>
      <trkpt lat="43.67088" lon="1.1535">
        <ele>217.80000305176</ele>
        <time>2014-11-02T08:33:57.000Z</time>
      </trkpt>
      <trkpt lat="43.67098" lon="1.15312">
        <ele>218.39999389648</ele>
        <time>2014-11-02T08:34:03.000Z</time>
      </trkpt>
      <trkpt lat="43.67118" lon="1.15254">
        <ele>220</ele>
        <time>2014-11-02T08:34:12.000Z</time>
      </trkpt>
      <trkpt lat="43.6713" lon="1.15208">
        <ele>219.60000610352</ele>
        <time>2014-11-02T08:34:19.000Z</time>
      </trkpt>
      <trkpt lat="43.67137" lon="1.15158">
        <ele>219.19999694824</ele>
        <time>2014-11-02T08:34:26.000Z</time>
      </trkpt>
      <trkpt lat="43.67144" lon="1.15106">
        <ele>215.39999389648</ele>
        <time>2014-11-02T08:34:33.000Z</time>
      </trkpt>
      <trkpt lat="43.67148" lon="1.15084">
        <ele>215.39999389648</ele>
        <time>2014-11-02T08:34:36.000Z</time>
      </trkpt>
      <trkpt lat="43.67153" lon="1.15052">
        <ele>215.60000610352</ele>
        <time>2014-11-02T08:34:40.000Z</time>
      </trkpt>
      <trkpt lat="43.67162" lon="1.14978">
        <ele>217.19999694824</ele>
        <time>2014-11-02T08:34:49.000Z</time>
      </trkpt>
      <trkpt lat="43.67166" lon="1.14915">
        <ele>218.80000305176</ele>
        <time>2014-11-02T08:34:57.000Z</time>
      </trkpt>
      <trkpt lat="43.67169" lon="1.14862">
        <ele>219.80000305176</ele>
        <time>2014-11-02T08:35:04.000Z</time>
      </trkpt>
      <trkpt lat="43.67174" lon="1.14803">
        <ele>222.60000610352</ele>
        <time>2014-11-02T08:35:12.000Z</time>
      </trkpt>
      <trkpt lat="43.67185" lon="1.14738">
        <ele>226.39999389648</ele>
        <time>2014-11-02T08:35:21.000Z</time>
      </trkpt>
      <trkpt lat="43.67203" lon="1.14694">
        <ele>228.19999694824</ele>
        <time>2014-11-02T08:35:28.000Z</time>
      </trkpt>
      <trkpt lat="43.67216" lon="1.14672">
        <ele>229.19999694824</ele>
        <time>2014-11-02T08:35:32.000Z</time>
      </trkpt>
      <trkpt lat="43.67222" lon="1.14661">
        <ele>231</ele>
        <time>2014-11-02T08:35:34.000Z</time>
      </trkpt>
      <trkpt lat="43.67229" lon="1.1465">
        <ele>232.80000305176</ele>
        <time>2014-11-02T08:35:36.000Z</time>
      </trkpt>
      <trkpt lat="43.67241" lon="1.14628">
        <ele>235.80000305176</ele>
        <time>2014-11-02T08:35:40.000Z</time>
      </trkpt>
      <trkpt lat="43.67253" lon="1.14608">
        <ele>238.19999694824</ele>
        <time>2014-11-02T08:35:44.000Z</time>
      </trkpt>
      <trkpt lat="43.67261" lon="1.14591">
        <ele>240</ele>
        <time>2014-11-02T08:35:47.000Z</time>
      </trkpt>
      <trkpt lat="43.67271" lon="1.14547">
        <ele>243.19999694824</ele>
        <time>2014-11-02T08:35:54.000Z</time>
      </trkpt>
      <trkpt lat="43.67273" lon="1.14528">
        <ele>243.39999389648</ele>
        <time>2014-11-02T08:35:57.000Z</time>
      </trkpt>
      <trkpt lat="43.67274" lon="1.14516">
        <ele>243.60000610352</ele>
        <time>2014-11-02T08:35:59.000Z</time>
      </trkpt>
      <trkpt lat="43.67273" lon="1.1449">
        <ele>244.39999389648</ele>
        <time>2014-11-02T08:36:03.000Z</time>
      </trkpt>
      <trkpt lat="43.67273" lon="1.14485">
        <ele>244.60000610352</ele>
        <time>2014-11-02T08:36:04.000Z</time>
      </trkpt>
      <trkpt lat="43.67266" lon="1.14448">
        <ele>245.19999694824</ele>
        <time>2014-11-02T08:36:10.000Z</time>
      </trkpt>
      <trkpt lat="43.6726" lon="1.14422">
        <ele>245.19999694824</ele>
        <time>2014-11-02T08:36:14.000Z</time>
      </trkpt>
      <trkpt lat="43.67257" lon="1.14411">
        <ele>245.19999694824</ele>
        <time>2014-11-02T08:36:16.000Z</time>
      </trkpt>
      <trkpt lat="43.67248" lon="1.14372">
        <ele>245.80000305176</ele>
        <time>2014-11-02T08:36:22.000Z</time>
      </trkpt>
      <trkpt lat="43.6724" lon="1.14347">
        <ele>245</ele>
        <time>2014-11-02T08:36:26.000Z</time>
      </trkpt>
      <trkpt lat="43.67235" lon="1.14326">
        <ele>244.39999389648</ele>
        <time>2014-11-02T08:36:29.000Z</time>
      </trkpt>
      <trkpt lat="43.6723" lon="1.14311">
        <ele>244</ele>
        <time>2014-11-02T08:36:31.000Z</time>
      </trkpt>
      <trkpt lat="43.67221" lon="1.14281">
        <ele>242.80000305176</ele>
        <time>2014-11-02T08:36:35.000Z</time>
      </trkpt>
      <trkpt lat="43.67207" lon="1.14233">
        <ele>241</ele>
        <time>2014-11-02T08:36:41.000Z</time>
      </trkpt>
      <trkpt lat="43.67192" lon="1.1417">
        <ele>240.19999694824</ele>
        <time>2014-11-02T08:36:48.000Z</time>
      </trkpt>
      <trkpt lat="43.67185" lon="1.14125">
        <ele>240</ele>
        <time>2014-11-02T08:36:53.000Z</time>
      </trkpt>
      <trkpt lat="43.67184" lon="1.14116">
        <ele>240</ele>
        <time>2014-11-02T08:36:54.000Z</time>
      </trkpt>
      <trkpt lat="43.67187" lon="1.1407">
        <ele>240.80000305176</ele>
        <time>2014-11-02T08:36:59.000Z</time>
      </trkpt>
      <trkpt lat="43.67197" lon="1.14026">
        <ele>242.60000610352</ele>
        <time>2014-11-02T08:37:05.000Z</time>
      </trkpt>
      <trkpt lat="43.67204" lon="1.13999">
        <ele>244</ele>
        <time>2014-11-02T08:37:09.000Z</time>
      </trkpt>
      <trkpt lat="43.67207" lon="1.1398">
        <ele>245.80000305176</ele>
        <time>2014-11-02T08:37:12.000Z</time>
      </trkpt>
      <trkpt lat="43.67207" lon="1.13974">
        <ele>246</ele>
        <time>2014-11-02T08:37:13.000Z</time>
      </trkpt>
      <trkpt lat="43.67209" lon="1.13955">
        <ele>246.60000610352</ele>
        <time>2014-11-02T08:37:16.000Z</time>
      </trkpt>
      <trkpt lat="43.67212" lon="1.13943">
        <ele>247</ele>
        <time>2014-11-02T08:37:18.000Z</time>
      </trkpt>
      <trkpt lat="43.67213" lon="1.13925">
        <ele>247.60000610352</ele>
        <time>2014-11-02T08:37:21.000Z</time>
      </trkpt>
      <trkpt lat="43.67213" lon="1.13919">
        <ele>247.80000305176</ele>
        <time>2014-11-02T08:37:22.000Z</time>
      </trkpt>
      <trkpt lat="43.6721" lon="1.1388">
        <ele>250.80000305176</ele>
        <time>2014-11-02T08:37:28.000Z</time>
      </trkpt>
      <trkpt lat="43.67206" lon="1.13857">
        <ele>250.80000305176</ele>
        <time>2014-11-02T08:37:31.000Z</time>
      </trkpt>
      <trkpt lat="43.67202" lon="1.1384">
        <ele>250.39999389648</ele>
        <time>2014-11-02T08:37:33.000Z</time>
      </trkpt>
      <trkpt lat="43.67194" lon="1.13816">
        <ele>250</ele>
        <time>2014-11-02T08:37:36.000Z</time>
      </trkpt>
      <trkpt lat="43.67186" lon="1.13798">
        <ele>250</ele>
        <time>2014-11-02T08:37:38.000Z</time>
      </trkpt>
      <trkpt lat="43.67177" lon="1.13781">
        <ele>249.39999389648</ele>
        <time>2014-11-02T08:37:40.000Z</time>
      </trkpt>
      <trkpt lat="43.67157" lon="1.13746">
        <ele>247.80000305176</ele>
        <time>2014-11-02T08:37:44.000Z</time>
      </trkpt>
      <trkpt lat="43.67154" lon="1.13736">
        <ele>247.80000305176</ele>
        <time>2014-11-02T08:37:45.000Z</time>
      </trkpt>
      <trkpt lat="43.6715" lon="1.13715">
        <ele>247.19999694824</ele>
        <time>2014-11-02T08:37:47.000Z</time>
      </trkpt>
      <trkpt lat="43.67151" lon="1.13666">
        <ele>243.80000305176</ele>
        <time>2014-11-02T08:37:51.000Z</time>
      </trkpt>
      <trkpt lat="43.67163" lon="1.13631">
        <ele>243</ele>
        <time>2014-11-02T08:37:54.000Z</time>
      </trkpt>
      <trkpt lat="43.67168" lon="1.13621">
        <ele>243</ele>
        <time>2014-11-02T08:37:55.000Z</time>
      </trkpt>
      <trkpt lat="43.67187" lon="1.13574">
        <ele>240.39999389648</ele>
        <time>2014-11-02T08:37:59.000Z</time>
      </trkpt>
      <trkpt lat="43.67204" lon="1.13509">
        <ele>233.80000305176</ele>
        <time>2014-11-02T08:38:04.000Z</time>
      </trkpt>
      <trkpt lat="43.67217" lon="1.13448">
        <ele>233.39999389648</ele>
        <time>2014-11-02T08:38:09.000Z</time>
      </trkpt>
      <trkpt lat="43.67229" lon="1.13402">
        <ele>234</ele>
        <time>2014-11-02T08:38:14.000Z</time>
      </trkpt>
      <trkpt lat="43.67242" lon="1.13376">
        <ele>235.60000610352</ele>
        <time>2014-11-02T08:38:18.000Z</time>
      </trkpt>
      <trkpt lat="43.67263" lon="1.13344">
        <ele>240.80000305176</ele>
        <time>2014-11-02T08:38:24.000Z</time>
      </trkpt>
      <trkpt lat="43.67285" lon="1.13312">
        <ele>243</ele>
        <time>2014-11-02T08:38:30.000Z</time>
      </trkpt>
      <trkpt lat="43.67294" lon="1.13304">
        <ele>242.60000610352</ele>
        <time>2014-11-02T08:38:32.000Z</time>
      </trkpt>
      <trkpt lat="43.67306" lon="1.1329">
        <ele>242.39999389648</ele>
        <time>2014-11-02T08:38:35.000Z</time>
      </trkpt>
      <trkpt lat="43.67317" lon="1.13273">
        <ele>242.60000610352</ele>
        <time>2014-11-02T08:38:38.000Z</time>
      </trkpt>
      <trkpt lat="43.67323" lon="1.13262">
        <ele>243.80000305176</ele>
        <time>2014-11-02T08:38:40.000Z</time>
      </trkpt>
      <trkpt lat="43.6733" lon="1.13243">
        <ele>246.19999694824</ele>
        <time>2014-11-02T08:38:43.000Z</time>
      </trkpt>
      <trkpt lat="43.67331" lon="1.13211">
        <ele>249.19999694824</ele>
        <time>2014-11-02T08:38:48.000Z</time>
      </trkpt>
      <trkpt lat="43.67325" lon="1.13186">
        <ele>250.80000305176</ele>
        <time>2014-11-02T08:38:52.000Z</time>
      </trkpt>
      <trkpt lat="43.67323" lon="1.13179">
        <ele>251.19999694824</ele>
        <time>2014-11-02T08:38:53.000Z</time>
      </trkpt>
      <trkpt lat="43.67314" lon="1.13149">
        <ele>253</ele>
        <time>2014-11-02T08:38:58.000Z</time>
      </trkpt>
      <trkpt lat="43.67312" lon="1.13142">
        <ele>253.19999694824</ele>
        <time>2014-11-02T08:38:59.000Z</time>
      </trkpt>
      <trkpt lat="43.67306" lon="1.13123">
        <ele>251.39999389648</ele>
        <time>2014-11-02T08:39:02.000Z</time>
      </trkpt>
      <trkpt lat="43.67299" lon="1.13104">
        <ele>249.80000305176</ele>
        <time>2014-11-02T08:39:05.000Z</time>
      </trkpt>
      <trkpt lat="43.67295" lon="1.13091">
        <ele>248.60000610352</ele>
        <time>2014-11-02T08:39:07.000Z</time>
      </trkpt>
      <trkpt lat="43.67289" lon="1.13057">
        <ele>246</ele>
        <time>2014-11-02T08:39:12.000Z</time>
      </trkpt>
      <trkpt lat="43.67289" lon="1.1305">
        <ele>245.19999694824</ele>
        <time>2014-11-02T08:39:13.000Z</time>
      </trkpt>
      <trkpt lat="43.67292" lon="1.13017">
        <ele>242</ele>
        <time>2014-11-02T08:39:17.000Z</time>
      </trkpt>
      <trkpt lat="43.67296" lon="1.12999">
        <ele>240.60000610352</ele>
        <time>2014-11-02T08:39:19.000Z</time>
      </trkpt>
      <trkpt lat="43.67298" lon="1.12992">
        <ele>240.60000610352</ele>
        <time>2014-11-02T08:39:20.000Z</time>
      </trkpt>
      <trkpt lat="43.67304" lon="1.12977">
        <ele>240.60000610352</ele>
        <time>2014-11-02T08:39:22.000Z</time>
      </trkpt>
      <trkpt lat="43.67307" lon="1.1297">
        <ele>240.19999694824</ele>
        <time>2014-11-02T08:39:23.000Z</time>
      </trkpt>
      <trkpt lat="43.6732" lon="1.12939">
        <ele>238.60000610352</ele>
        <time>2014-11-02T08:39:27.000Z</time>
      </trkpt>
      <trkpt lat="43.67337" lon="1.12893">
        <ele>241.60000610352</ele>
        <time>2014-11-02T08:39:33.000Z</time>
      </trkpt>
      <trkpt lat="43.67343" lon="1.12868">
        <ele>242.39999389648</ele>
        <time>2014-11-02T08:39:36.000Z</time>
      </trkpt>
      <trkpt lat="43.67344" lon="1.12851">
        <ele>242.60000610352</ele>
        <time>2014-11-02T08:39:38.000Z</time>
      </trkpt>
      <trkpt lat="43.67344" lon="1.12833">
        <ele>242.60000610352</ele>
        <time>2014-11-02T08:39:40.000Z</time>
      </trkpt>
      <trkpt lat="43.67342" lon="1.12824">
        <ele>242.39999389648</ele>
        <time>2014-11-02T08:39:41.000Z</time>
      </trkpt>
      <trkpt lat="43.67338" lon="1.12806">
        <ele>242</ele>
        <time>2014-11-02T08:39:43.000Z</time>
      </trkpt>
      <trkpt lat="43.67324" lon="1.12759">
        <ele>243.19999694824</ele>
        <time>2014-11-02T08:39:48.000Z</time>
      </trkpt>
      <trkpt lat="43.67303" lon="1.12689">
        <ele>243.80000305176</ele>
        <time>2014-11-02T08:39:55.000Z</time>
      </trkpt>
      <trkpt lat="43.67297" lon="1.12669">
        <ele>243.60000610352</ele>
        <time>2014-11-02T08:39:57.000Z</time>
      </trkpt>
      <trkpt lat="43.67284" lon="1.12608">
        <ele>242.80000305176</ele>
        <time>2014-11-02T08:40:03.000Z</time>
      </trkpt>
      <trkpt lat="43.67278" lon="1.12546">
        <ele>243.60000610352</ele>
        <time>2014-11-02T08:40:09.000Z</time>
      </trkpt>
      <trkpt lat="43.6728" lon="1.12524">
        <ele>243.60000610352</ele>
        <time>2014-11-02T08:40:11.000Z</time>
      </trkpt>
      <trkpt lat="43.67285" lon="1.125">
        <ele>244</ele>
        <time>2014-11-02T08:40:13.000Z</time>
      </trkpt>
      <trkpt lat="43.67294" lon="1.12478">
        <ele>244</ele>
        <time>2014-11-02T08:40:15.000Z</time>
      </trkpt>
      <trkpt lat="43.67303" lon="1.12455">
        <ele>243.39999389648</ele>
        <time>2014-11-02T08:40:17.000Z</time>
      </trkpt>
      <trkpt lat="43.67305" lon="1.12442">
        <ele>243</ele>
        <time>2014-11-02T08:40:18.000Z</time>
      </trkpt>
      <trkpt lat="43.67306" lon="1.12417">
        <ele>242.39999389648</ele>
        <time>2014-11-02T08:40:20.000Z</time>
      </trkpt>
      <trkpt lat="43.67301" lon="1.12382">
        <ele>241.80000305176</ele>
        <time>2014-11-02T08:40:23.000Z</time>
      </trkpt>
      <trkpt lat="43.67298" lon="1.12372">
        <ele>241.39999389648</ele>
        <time>2014-11-02T08:40:24.000Z</time>
      </trkpt>
      <trkpt lat="43.67288" lon="1.12342">
        <ele>240.39999389648</ele>
        <time>2014-11-02T08:40:27.000Z</time>
      </trkpt>
      <trkpt lat="43.67276" lon="1.123">
        <ele>240</ele>
        <time>2014-11-02T08:40:31.000Z</time>
      </trkpt>
      <trkpt lat="43.67274" lon="1.12288">
        <ele>239.80000305176</ele>
        <time>2014-11-02T08:40:32.000Z</time>
      </trkpt>
      <trkpt lat="43.67271" lon="1.12266">
        <ele>239.60000610352</ele>
        <time>2014-11-02T08:40:34.000Z</time>
      </trkpt>
      <trkpt lat="43.67268" lon="1.12232">
        <ele>239.60000610352</ele>
        <time>2014-11-02T08:40:37.000Z</time>
      </trkpt>
      <trkpt lat="43.67272" lon="1.12173">
        <ele>240.39999389648</ele>
        <time>2014-11-02T08:40:42.000Z</time>
      </trkpt>
      <trkpt lat="43.67283" lon="1.12089">
        <ele>239.80000305176</ele>
        <time>2014-11-02T08:40:49.000Z</time>
      </trkpt>
      <trkpt lat="43.67291" lon="1.12008">
        <ele>237.19999694824</ele>
        <time>2014-11-02T08:40:55.000Z</time>
      </trkpt>
      <trkpt lat="43.67298" lon="1.11968">
        <ele>237.39999389648</ele>
        <time>2014-11-02T08:40:58.000Z</time>
      </trkpt>
      <trkpt lat="43.6731" lon="1.11927">
        <ele>237.80000305176</ele>
        <time>2014-11-02T08:41:01.000Z</time>
      </trkpt>
      <trkpt lat="43.67334" lon="1.11861">
        <ele>237.80000305176</ele>
        <time>2014-11-02T08:41:06.000Z</time>
      </trkpt>
      <trkpt lat="43.67349" lon="1.11802">
        <ele>235.60000610352</ele>
        <time>2014-11-02T08:41:10.000Z</time>
      </trkpt>
      <trkpt lat="43.6737" lon="1.11727">
        <ele>234.19999694824</ele>
        <time>2014-11-02T08:41:15.000Z</time>
      </trkpt>
      <trkpt lat="43.67374" lon="1.11714">
        <ele>233.80000305176</ele>
        <time>2014-11-02T08:41:16.000Z</time>
      </trkpt>
      <trkpt lat="43.67385" lon="1.11664">
        <ele>231.39999389648</ele>
        <time>2014-11-02T08:41:19.000Z</time>
      </trkpt>
      <trkpt lat="43.67386" lon="1.11647">
        <ele>230.19999694824</ele>
        <time>2014-11-02T08:41:20.000Z</time>
      </trkpt>
      <trkpt lat="43.67382" lon="1.11598">
        <ele>229.39999389648</ele>
        <time>2014-11-02T08:41:23.000Z</time>
      </trkpt>
      <trkpt lat="43.67377" lon="1.11527">
        <ele>227.39999389648</ele>
        <time>2014-11-02T08:41:28.000Z</time>
      </trkpt>
      <trkpt lat="43.67375" lon="1.11516">
        <ele>227</ele>
        <time>2014-11-02T08:41:29.000Z</time>
      </trkpt>
      <trkpt lat="43.67365" lon="1.11502">
        <ele>225.19999694824</ele>
        <time>2014-11-02T08:41:31.000Z</time>
      </trkpt>
      <trkpt lat="43.6734" lon="1.11492">
        <ele>222.80000305176</ele>
        <time>2014-11-02T08:41:34.000Z</time>
      </trkpt>
      <trkpt lat="43.67286" lon="1.11479">
        <ele>222.19999694824</ele>
        <time>2014-11-02T08:41:40.000Z</time>
      </trkpt>
      <trkpt lat="43.67262" lon="1.11471">
        <ele>223</ele>
        <time>2014-11-02T08:41:43.000Z</time>
      </trkpt>
      <trkpt lat="43.67247" lon="1.11469">
        <ele>223.60000610352</ele>
        <time>2014-11-02T08:41:45.000Z</time>
      </trkpt>
      <trkpt lat="43.67222" lon="1.11462">
        <ele>224.80000305176</ele>
        <time>2014-11-02T08:41:49.000Z</time>
      </trkpt>
      <trkpt lat="43.67212" lon="1.11459">
        <ele>225.60000610352</ele>
        <time>2014-11-02T08:41:51.000Z</time>
      </trkpt>
      <trkpt lat="43.67201" lon="1.11456">
        <ele>226</ele>
        <time>2014-11-02T08:41:53.000Z</time>
      </trkpt>
      <trkpt lat="43.67191" lon="1.11456">
        <ele>226.19999694824</ele>
        <time>2014-11-02T08:41:55.000Z</time>
      </trkpt>
      <trkpt lat="43.67178" lon="1.11458">
        <ele>225.19999694824</ele>
        <time>2014-11-02T08:41:57.000Z</time>
      </trkpt>
      <trkpt lat="43.67151" lon="1.11468">
        <ele>222.19999694824</ele>
        <time>2014-11-02T08:42:01.000Z</time>
      </trkpt>
      <trkpt lat="43.67144" lon="1.11472">
        <ele>221.39999389648</ele>
        <time>2014-11-02T08:42:02.000Z</time>
      </trkpt>
      <trkpt lat="43.67098" lon="1.11503">
        <ele>214.19999694824</ele>
        <time>2014-11-02T08:42:08.000Z</time>
      </trkpt>
      <trkpt lat="43.67089" lon="1.11506">
        <ele>213</ele>
        <time>2014-11-02T08:42:09.000Z</time>
      </trkpt>
      <trkpt lat="43.67061" lon="1.11511">
        <ele>209.60000610352</ele>
        <time>2014-11-02T08:42:12.000Z</time>
      </trkpt>
      <trkpt lat="43.67051" lon="1.11512">
        <ele>208.80000305176</ele>
        <time>2014-11-02T08:42:13.000Z</time>
      </trkpt>
      <trkpt lat="43.67001" lon="1.11527">
        <ele>204.19999694824</ele>
        <time>2014-11-02T08:42:18.000Z</time>
      </trkpt>
      <trkpt lat="43.6696" lon="1.11547">
        <ele>202.39999389648</ele>
        <time>2014-11-02T08:42:22.000Z</time>
      </trkpt>
      <trkpt lat="43.66948" lon="1.11548">
        <ele>202.19999694824</ele>
        <time>2014-11-02T08:42:23.000Z</time>
      </trkpt>
      <trkpt lat="43.66914" lon="1.11542">
        <ele>200</ele>
        <time>2014-11-02T08:42:26.000Z</time>
      </trkpt>
      <trkpt lat="43.66876" lon="1.11541">
        <ele>198.19999694824</ele>
        <time>2014-11-02T08:42:29.000Z</time>
      </trkpt>
      <trkpt lat="43.66863" lon="1.11546">
        <ele>197.80000305176</ele>
        <time>2014-11-02T08:42:30.000Z</time>
      </trkpt>
      <trkpt lat="43.66819" lon="1.11566">
        <ele>197.19999694824</ele>
        <time>2014-11-02T08:42:34.000Z</time>
      </trkpt>
      <trkpt lat="43.66766" lon="1.11591">
        <ele>196.39999389648</ele>
        <time>2014-11-02T08:42:39.000Z</time>
      </trkpt>
      <trkpt lat="43.66757" lon="1.11595">
        <ele>195.60000610352</ele>
        <time>2014-11-02T08:42:40.000Z</time>
      </trkpt>
      <trkpt lat="43.66709" lon="1.11616">
        <ele>194</ele>
        <time>2014-11-02T08:42:45.000Z</time>
      </trkpt>
      <trkpt lat="43.66665" lon="1.11636">
        <ele>192.39999389648</ele>
        <time>2014-11-02T08:42:50.000Z</time>
      </trkpt>
      <trkpt lat="43.66605" lon="1.11656">
        <ele>185.80000305176</ele>
        <time>2014-11-02T08:42:56.000Z</time>
      </trkpt>
      <trkpt lat="43.66552" lon="1.11672">
        <ele>184.19999694824</ele>
        <time>2014-11-02T08:43:01.000Z</time>
      </trkpt>
      <trkpt lat="43.66532" lon="1.11678">
        <ele>183.19999694824</ele>
        <time>2014-11-02T08:43:03.000Z</time>
      </trkpt>
      <trkpt lat="43.66477" lon="1.1169">
        <ele>180.19999694824</ele>
        <time>2014-11-02T08:43:09.000Z</time>
      </trkpt>
      <trkpt lat="43.66427" lon="1.11686">
        <ele>176.39999389648</ele>
        <time>2014-11-02T08:43:14.000Z</time>
      </trkpt>
      <trkpt lat="43.66386" lon="1.11669">
        <ele>175.19999694824</ele>
        <time>2014-11-02T08:43:18.000Z</time>
      </trkpt>
      <trkpt lat="43.66329" lon="1.11635">
        <ele>173.80000305176</ele>
        <time>2014-11-02T08:43:24.000Z</time>
      </trkpt>
      <trkpt lat="43.6632" lon="1.11629">
        <ele>173.39999389648</ele>
        <time>2014-11-02T08:43:25.000Z</time>
      </trkpt>
      <trkpt lat="43.6628" lon="1.11591">
        <ele>172.19999694824</ele>
        <time>2014-11-02T08:43:30.000Z</time>
      </trkpt>
      <trkpt lat="43.66241" lon="1.11537">
        <ele>172</ele>
        <time>2014-11-02T08:43:35.000Z</time>
      </trkpt>
      <trkpt lat="43.66198" lon="1.11474">
        <ele>170</ele>
        <time>2014-11-02T08:43:40.000Z</time>
      </trkpt>
      <trkpt lat="43.66188" lon="1.11461">
        <ele>168.80000305176</ele>
        <time>2014-11-02T08:43:41.000Z</time>
      </trkpt>
      <trkpt lat="43.6615" lon="1.11404">
        <ele>165.60000610352</ele>
        <time>2014-11-02T08:43:45.000Z</time>
      </trkpt>
      <trkpt lat="43.66121" lon="1.11363">
        <ele>161.19999694824</ele>
        <time>2014-11-02T08:43:48.000Z</time>
      </trkpt>
      <trkpt lat="43.66084" lon="1.11308">
        <ele>152.80000305176</ele>
        <time>2014-11-02T08:43:52.000Z</time>
      </trkpt>
      <trkpt lat="43.66054" lon="1.11265">
        <ele>150.60000610352</ele>
        <time>2014-11-02T08:43:55.000Z</time>
      </trkpt>
      <trkpt lat="43.66008" lon="1.112">
        <ele>148.19999694824</ele>
        <time>2014-11-02T08:44:00.000Z</time>
      </trkpt>
      <trkpt lat="43.66" lon="1.11188">
        <ele>148.19999694824</ele>
        <time>2014-11-02T08:44:01.000Z</time>
      </trkpt>
      <trkpt lat="43.65962" lon="1.11132">
        <ele>148</ele>
        <time>2014-11-02T08:44:06.000Z</time>
      </trkpt>
      <trkpt lat="43.65955" lon="1.11121">
        <ele>148</ele>
        <time>2014-11-02T08:44:07.000Z</time>
      </trkpt>
      <trkpt lat="43.65917" lon="1.11066">
        <ele>147</ele>
        <time>2014-11-02T08:44:13.000Z</time>
      </trkpt>
      <trkpt lat="43.659" lon="1.11039">
        <ele>146.19999694824</ele>
        <time>2014-11-02T08:44:17.000Z</time>
      </trkpt>
      <trkpt lat="43.65889" lon="1.11022">
        <ele>145.80000305176</ele>
        <time>2014-11-02T08:44:21.000Z</time>
      </trkpt>
      <trkpt lat="43.65882" lon="1.11014">
        <ele>145.39999389648</ele>
        <time>2014-11-02T08:44:25.000Z</time>
      </trkpt>
      <trkpt lat="43.65881" lon="1.11013">
        <ele>145.39999389648</ele>
        <time>2014-11-02T08:44:26.000Z</time>
      </trkpt>
      <trkpt lat="43.65877" lon="1.11009">
        <ele>145.19999694824</ele>
        <time>2014-11-02T08:44:31.000Z</time>
      </trkpt>
      <trkpt lat="43.65866" lon="1.11002">
        <ele>144.60000610352</ele>
        <time>2014-11-02T08:44:35.000Z</time>
      </trkpt>
      <trkpt lat="43.65862" lon="1.11001">
        <ele>144.39999389648</ele>
        <time>2014-11-02T08:44:36.000Z</time>
      </trkpt>
      <trkpt lat="43.65843" lon="1.10997">
        <ele>143.80000305176</ele>
        <time>2014-11-02T08:44:41.000Z</time>
      </trkpt>
      <trkpt lat="43.65807" lon="1.10995">
        <ele>143</ele>
        <time>2014-11-02T08:44:48.000Z</time>
      </trkpt>
      <trkpt lat="43.6578" lon="1.10992">
        <ele>142.19999694824</ele>
        <time>2014-11-02T08:44:52.000Z</time>
      </trkpt>
      <trkpt lat="43.65773" lon="1.1099">
        <ele>142</ele>
        <time>2014-11-02T08:44:53.000Z</time>
      </trkpt>
      <trkpt lat="43.65733" lon="1.10975">
        <ele>142.39999389648</ele>
        <time>2014-11-02T08:44:59.000Z</time>
      </trkpt>
      <trkpt lat="43.65697" lon="1.10961">
        <ele>142.80000305176</ele>
        <time>2014-11-02T08:45:05.000Z</time>
      </trkpt>
      <trkpt lat="43.65653" lon="1.10941">
        <ele>145.80000305176</ele>
        <time>2014-11-02T08:45:12.000Z</time>
      </trkpt>
      <trkpt lat="43.65616" lon="1.10914">
        <ele>148.80000305176</ele>
        <time>2014-11-02T08:45:19.000Z</time>
      </trkpt>
      <trkpt lat="43.6559" lon="1.10895">
        <ele>150.80000305176</ele>
        <time>2014-11-02T08:45:25.000Z</time>
      </trkpt>
      <trkpt lat="43.65571" lon="1.10886">
        <ele>151.60000610352</ele>
        <time>2014-11-02T08:45:30.000Z</time>
      </trkpt>
      <trkpt lat="43.6556" lon="1.10882">
        <ele>152.19999694824</ele>
        <time>2014-11-02T08:45:33.000Z</time>
      </trkpt>
      <trkpt lat="43.65553" lon="1.1088">
        <ele>152.39999389648</ele>
        <time>2014-11-02T08:45:35.000Z</time>
      </trkpt>
      <trkpt lat="43.65549" lon="1.10879">
        <ele>152.60000610352</ele>
        <time>2014-11-02T08:45:36.000Z</time>
      </trkpt>
      <trkpt lat="43.65521" lon="1.10879">
        <ele>154.39999389648</ele>
        <time>2014-11-02T08:45:43.000Z</time>
      </trkpt>
      <trkpt lat="43.65496" lon="1.10882">
        <ele>155.60000610352</ele>
        <time>2014-11-02T08:45:49.000Z</time>
      </trkpt>
      <trkpt lat="43.65472" lon="1.10885">
        <ele>156.80000305176</ele>
        <time>2014-11-02T08:45:54.000Z</time>
      </trkpt>
      <trkpt lat="43.6544" lon="1.10877">
        <ele>158</ele>
        <time>2014-11-02T08:46:01.000Z</time>
      </trkpt>
      <trkpt lat="43.65405" lon="1.10863">
        <ele>159</ele>
        <time>2014-11-02T08:46:09.000Z</time>
      </trkpt>
      <trkpt lat="43.65373" lon="1.10848">
        <ele>159.39999389648</ele>
        <time>2014-11-02T08:46:16.000Z</time>
      </trkpt>
      <trkpt lat="43.6533" lon="1.10822">
        <ele>160.19999694824</ele>
        <time>2014-11-02T08:46:24.000Z</time>
      </trkpt>
      <trkpt lat="43.65314" lon="1.1081">
        <ele>160.39999389648</ele>
        <time>2014-11-02T08:46:27.000Z</time>
      </trkpt>
      <trkpt lat="43.65299" lon="1.10798">
        <ele>160.80000305176</ele>
        <time>2014-11-02T08:46:30.000Z</time>
      </trkpt>
      <trkpt lat="43.65277" lon="1.10771">
        <ele>161.19999694824</ele>
        <time>2014-11-02T08:46:35.000Z</time>
      </trkpt>
      <trkpt lat="43.65274" lon="1.10765">
        <ele>161.39999389648</ele>
        <time>2014-11-02T08:46:36.000Z</time>
      </trkpt>
      <trkpt lat="43.65252" lon="1.10726">
        <ele>161.80000305176</ele>
        <time>2014-11-02T08:46:43.000Z</time>
      </trkpt>
      <trkpt lat="43.65247" lon="1.10722">
        <ele>162.19999694824</ele>
        <time>2014-11-02T08:46:44.000Z</time>
      </trkpt>
      <trkpt lat="43.65239" lon="1.10708">
        <ele>163.19999694824</ele>
        <time>2014-11-02T08:46:47.000Z</time>
      </trkpt>
      <trkpt lat="43.65237" lon="1.10703">
        <ele>163.39999389648</ele>
        <time>2014-11-02T08:46:48.000Z</time>
      </trkpt>
      <trkpt lat="43.65227" lon="1.10686">
        <ele>164.39999389648</ele>
        <time>2014-11-02T08:46:52.000Z</time>
      </trkpt>
      <trkpt lat="43.65224" lon="1.10678">
        <ele>165</ele>
        <time>2014-11-02T08:46:54.000Z</time>
      </trkpt>
      <trkpt lat="43.65208" lon="1.10648">
        <ele>167</ele>
        <time>2014-11-02T08:47:02.000Z</time>
      </trkpt>
      <trkpt lat="43.65196" lon="1.10625">
        <ele>169.19999694824</ele>
        <time>2014-11-02T08:47:08.000Z</time>
      </trkpt>
      <trkpt lat="43.65188" lon="1.10605">
        <ele>171.19999694824</ele>
        <time>2014-11-02T08:47:13.000Z</time>
      </trkpt>
      <trkpt lat="43.65181" lon="1.10584">
        <ele>173.60000610352</ele>
        <time>2014-11-02T08:47:18.000Z</time>
      </trkpt>
      <trkpt lat="43.65169" lon="1.1056">
        <ele>177.19999694824</ele>
        <time>2014-11-02T08:47:24.000Z</time>
      </trkpt>
      <trkpt lat="43.65154" lon="1.1055">
        <ele>180</ele>
        <time>2014-11-02T08:47:29.000Z</time>
      </trkpt>
      <trkpt lat="43.65141" lon="1.1055">
        <ele>181.60000610352</ele>
        <time>2014-11-02T08:47:33.000Z</time>
      </trkpt>
      <trkpt lat="43.65121" lon="1.10559">
        <ele>183.80000305176</ele>
        <time>2014-11-02T08:47:40.000Z</time>
      </trkpt>
      <trkpt lat="43.65107" lon="1.1057">
        <ele>184.80000305176</ele>
        <time>2014-11-02T08:47:45.000Z</time>
      </trkpt>
      <trkpt lat="43.65083" lon="1.1058">
        <ele>187.39999389648</ele>
        <time>2014-11-02T08:47:53.000Z</time>
      </trkpt>
      <trkpt lat="43.65065" lon="1.10579">
        <ele>190</ele>
        <time>2014-11-02T08:47:59.000Z</time>
      </trkpt>
      <trkpt lat="43.65053" lon="1.10566">
        <ele>192.80000305176</ele>
        <time>2014-11-02T08:48:05.000Z</time>
      </trkpt>
      <trkpt lat="43.65047" lon="1.10546">
        <ele>194</ele>
        <time>2014-11-02T08:48:12.000Z</time>
      </trkpt>
      <trkpt lat="43.65043" lon="1.10522">
        <ele>194.60000610352</ele>
        <time>2014-11-02T08:48:18.000Z</time>
      </trkpt>
      <trkpt lat="43.65037" lon="1.10506">
        <ele>195.39999389648</ele>
        <time>2014-11-02T08:48:23.000Z</time>
      </trkpt>
      <trkpt lat="43.65027" lon="1.10501">
        <ele>196.80000305176</ele>
        <time>2014-11-02T08:48:27.000Z</time>
      </trkpt>
      <trkpt lat="43.6501" lon="1.10493">
        <ele>196.80000305176</ele>
        <time>2014-11-02T08:48:34.000Z</time>
      </trkpt>
      <trkpt lat="43.64993" lon="1.10492">
        <ele>194.80000305176</ele>
        <time>2014-11-02T08:48:39.000Z</time>
      </trkpt>
      <trkpt lat="43.64973" lon="1.105">
        <ele>192.39999389648</ele>
        <time>2014-11-02T08:48:45.000Z</time>
      </trkpt>
      <trkpt lat="43.64954" lon="1.10517">
        <ele>191</ele>
        <time>2014-11-02T08:48:50.000Z</time>
      </trkpt>
      <trkpt lat="43.64944" lon="1.10534">
        <ele>190.80000305176</ele>
        <time>2014-11-02T08:48:54.000Z</time>
      </trkpt>
      <trkpt lat="43.64941" lon="1.10543">
        <ele>190.80000305176</ele>
        <time>2014-11-02T08:48:56.000Z</time>
      </trkpt>
      <trkpt lat="43.64937" lon="1.10557">
        <ele>191</ele>
        <time>2014-11-02T08:48:59.000Z</time>
      </trkpt>
      <trkpt lat="43.64935" lon="1.10574">
        <ele>190.80000305176</ele>
        <time>2014-11-02T08:49:02.000Z</time>
      </trkpt>
      <trkpt lat="43.6493" lon="1.10598">
        <ele>189.60000610352</ele>
        <time>2014-11-02T08:49:06.000Z</time>
      </trkpt>
      <trkpt lat="43.6493" lon="1.10605">
        <ele>189.39999389648</ele>
        <time>2014-11-02T08:49:07.000Z</time>
      </trkpt>
      <trkpt lat="43.64926" lon="1.1063">
        <ele>188.39999389648</ele>
        <time>2014-11-02T08:49:11.000Z</time>
      </trkpt>
      <trkpt lat="43.64917" lon="1.10679">
        <ele>189.19999694824</ele>
        <time>2014-11-02T08:49:18.000Z</time>
      </trkpt>
      <trkpt lat="43.64915" lon="1.10686">
        <ele>189.19999694824</ele>
        <time>2014-11-02T08:49:19.000Z</time>
      </trkpt>
      <trkpt lat="43.6491" lon="1.10714">
        <ele>190</ele>
        <time>2014-11-02T08:49:23.000Z</time>
      </trkpt>
      <trkpt lat="43.6491" lon="1.10721">
        <ele>190.39999389648</ele>
        <time>2014-11-02T08:49:24.000Z</time>
      </trkpt>
      <trkpt lat="43.64914" lon="1.10748">
        <ele>191.19999694824</ele>
        <time>2014-11-02T08:49:28.000Z</time>
      </trkpt>
      <trkpt lat="43.64915" lon="1.10755">
        <ele>191.19999694824</ele>
        <time>2014-11-02T08:49:29.000Z</time>
      </trkpt>
      <trkpt lat="43.64916" lon="1.10774">
        <ele>191.39999389648</ele>
        <time>2014-11-02T08:49:32.000Z</time>
      </trkpt>
      <trkpt lat="43.64915" lon="1.10793">
        <ele>191.39999389648</ele>
        <time>2014-11-02T08:49:35.000Z</time>
      </trkpt>
      <trkpt lat="43.64911" lon="1.10811">
        <ele>192.39999389648</ele>
        <time>2014-11-02T08:49:38.000Z</time>
      </trkpt>
      <trkpt lat="43.64908" lon="1.10823">
        <ele>192</ele>
        <time>2014-11-02T08:49:40.000Z</time>
      </trkpt>
      <trkpt lat="43.64893" lon="1.10871">
        <ele>191.80000305176</ele>
        <time>2014-11-02T08:49:48.000Z</time>
      </trkpt>
      <trkpt lat="43.64891" lon="1.10878">
        <ele>192</ele>
        <time>2014-11-02T08:49:49.000Z</time>
      </trkpt>
      <trkpt lat="43.64886" lon="1.10896">
        <ele>192.60000610352</ele>
        <time>2014-11-02T08:49:52.000Z</time>
      </trkpt>
      <trkpt lat="43.64884" lon="1.10902">
        <ele>192.19999694824</ele>
        <time>2014-11-02T08:49:53.000Z</time>
      </trkpt>
      <trkpt lat="43.64869" lon="1.10944">
        <ele>192.60000610352</ele>
        <time>2014-11-02T08:50:00.000Z</time>
      </trkpt>
      <trkpt lat="43.64849" lon="1.10985">
        <ele>194.80000305176</ele>
        <time>2014-11-02T08:50:07.000Z</time>
      </trkpt>
      <trkpt lat="43.64828" lon="1.11023">
        <ele>193.80000305176</ele>
        <time>2014-11-02T08:50:14.000Z</time>
      </trkpt>
      <trkpt lat="43.64821" lon="1.11033">
        <ele>193.39999389648</ele>
        <time>2014-11-02T08:50:16.000Z</time>
      </trkpt>
      <trkpt lat="43.64806" lon="1.1106">
        <ele>194.19999694824</ele>
        <time>2014-11-02T08:50:21.000Z</time>
      </trkpt>
      <trkpt lat="43.64801" lon="1.11072">
        <ele>193.39999389648</ele>
        <time>2014-11-02T08:50:23.000Z</time>
      </trkpt>
      <trkpt lat="43.64784" lon="1.11122">
        <ele>193.80000305176</ele>
        <time>2014-11-02T08:50:30.000Z</time>
      </trkpt>
      <trkpt lat="43.64768" lon="1.11172">
        <ele>195.19999694824</ele>
        <time>2014-11-02T08:50:37.000Z</time>
      </trkpt>
      <trkpt lat="43.64755" lon="1.11228">
        <ele>194.39999389648</ele>
        <time>2014-11-02T08:50:44.000Z</time>
      </trkpt>
      <trkpt lat="43.6475" lon="1.11286">
        <ele>193.60000610352</ele>
        <time>2014-11-02T08:50:51.000Z</time>
      </trkpt>
      <trkpt lat="43.64743" lon="1.11324">
        <ele>193.60000610352</ele>
        <time>2014-11-02T08:50:55.000Z</time>
      </trkpt>
      <trkpt lat="43.6474" lon="1.11333">
        <ele>193.39999389648</ele>
        <time>2014-11-02T08:50:56.000Z</time>
      </trkpt>
      <trkpt lat="43.64715" lon="1.11409">
        <ele>191.19999694824</ele>
        <time>2014-11-02T08:51:04.000Z</time>
      </trkpt>
      <trkpt lat="43.64712" lon="1.11418">
        <ele>190.19999694824</ele>
        <time>2014-11-02T08:51:05.000Z</time>
      </trkpt>
      <trkpt lat="43.64685" lon="1.11493">
        <ele>190.60000610352</ele>
        <time>2014-11-02T08:51:13.000Z</time>
      </trkpt>
      <trkpt lat="43.64656" lon="1.11562">
        <ele>186</ele>
        <time>2014-11-02T08:51:21.000Z</time>
      </trkpt>
      <trkpt lat="43.64637" lon="1.11609">
        <ele>183</ele>
        <time>2014-11-02T08:51:26.000Z</time>
      </trkpt>
      <trkpt lat="43.64635" lon="1.1162">
        <ele>183.19999694824</ele>
        <time>2014-11-02T08:51:27.000Z</time>
      </trkpt>
      <trkpt lat="43.64634" lon="1.11656">
        <ele>183</ele>
        <time>2014-11-02T08:51:30.000Z</time>
      </trkpt>
      <trkpt lat="43.64646" lon="1.1169">
        <ele>181.19999694824</ele>
        <time>2014-11-02T08:51:33.000Z</time>
      </trkpt>
      <trkpt lat="43.64651" lon="1.11701">
        <ele>180.80000305176</ele>
        <time>2014-11-02T08:51:34.000Z</time>
      </trkpt>
      <trkpt lat="43.64675" lon="1.1175">
        <ele>177.80000305176</ele>
        <time>2014-11-02T08:51:38.000Z</time>
      </trkpt>
      <trkpt lat="43.64692" lon="1.11805">
        <ele>174</ele>
        <time>2014-11-02T08:51:42.000Z</time>
      </trkpt>
      <trkpt lat="43.64709" lon="1.11882">
        <ele>173.80000305176</ele>
        <time>2014-11-02T08:51:48.000Z</time>
      </trkpt>
      <trkpt lat="43.64721" lon="1.1195">
        <ele>174.39999389648</ele>
        <time>2014-11-02T08:51:54.000Z</time>
      </trkpt>
      <trkpt lat="43.64731" lon="1.12023">
        <ele>176</ele>
        <time>2014-11-02T08:52:01.000Z</time>
      </trkpt>
      <trkpt lat="43.64734" lon="1.12066">
        <ele>177.60000610352</ele>
        <time>2014-11-02T08:52:06.000Z</time>
      </trkpt>
      <trkpt lat="43.64733" lon="1.12113">
        <ele>180.80000305176</ele>
        <time>2014-11-02T08:52:12.000Z</time>
      </trkpt>
      <trkpt lat="43.6473" lon="1.12157">
        <ele>183</ele>
        <time>2014-11-02T08:52:19.000Z</time>
      </trkpt>
      <trkpt lat="43.64729" lon="1.12169">
        <ele>183.39999389648</ele>
        <time>2014-11-02T08:52:21.000Z</time>
      </trkpt>
      <trkpt lat="43.64725" lon="1.12219">
        <ele>185.39999389648</ele>
        <time>2014-11-02T08:52:29.000Z</time>
      </trkpt>
      <trkpt lat="43.64722" lon="1.12266">
        <ele>185.39999389648</ele>
        <time>2014-11-02T08:52:37.000Z</time>
      </trkpt>
      <trkpt lat="43.64721" lon="1.12278">
        <ele>185.19999694824</ele>
        <time>2014-11-02T08:52:39.000Z</time>
      </trkpt>
      <trkpt lat="43.64719" lon="1.12301">
        <ele>185</ele>
        <time>2014-11-02T08:52:43.000Z</time>
      </trkpt>
      <trkpt lat="43.64716" lon="1.12341">
        <ele>184.19999694824</ele>
        <time>2014-11-02T08:52:51.000Z</time>
      </trkpt>
      <trkpt lat="43.64715" lon="1.1238">
        <ele>185.19999694824</ele>
        <time>2014-11-02T08:52:58.000Z</time>
      </trkpt>
      <trkpt lat="43.64718" lon="1.12441">
        <ele>185.60000610352</ele>
        <time>2014-11-02T08:53:07.000Z</time>
      </trkpt>
      <trkpt lat="43.64719" lon="1.12448">
        <ele>185.60000610352</ele>
        <time>2014-11-02T08:53:08.000Z</time>
      </trkpt>
      <trkpt lat="43.64724" lon="1.1248">
        <ele>185.60000610352</ele>
        <time>2014-11-02T08:53:12.000Z</time>
      </trkpt>
      <trkpt lat="43.64733" lon="1.12535">
        <ele>183.60000610352</ele>
        <time>2014-11-02T08:53:19.000Z</time>
      </trkpt>
      <trkpt lat="43.64734" lon="1.12543">
        <ele>183</ele>
        <time>2014-11-02T08:53:20.000Z</time>
      </trkpt>
      <trkpt lat="43.64736" lon="1.12591">
        <ele>181.60000610352</ele>
        <time>2014-11-02T08:53:27.000Z</time>
      </trkpt>
      <trkpt lat="43.64737" lon="1.12597">
        <ele>181.80000305176</ele>
        <time>2014-11-02T08:53:28.000Z</time>
      </trkpt>
      <trkpt lat="43.6474" lon="1.12615">
        <ele>181.80000305176</ele>
        <time>2014-11-02T08:53:31.000Z</time>
      </trkpt>
      <trkpt lat="43.64743" lon="1.12628">
        <ele>181.80000305176</ele>
        <time>2014-11-02T08:53:33.000Z</time>
      </trkpt>
      <trkpt lat="43.64757" lon="1.12673">
        <ele>183.39999389648</ele>
        <time>2014-11-02T08:53:40.000Z</time>
      </trkpt>
      <trkpt lat="43.64765" lon="1.12716">
        <ele>184.39999389648</ele>
        <time>2014-11-02T08:53:45.000Z</time>
      </trkpt>
      <trkpt lat="43.64774" lon="1.12789">
        <ele>183.60000610352</ele>
        <time>2014-11-02T08:53:52.000Z</time>
      </trkpt>
      <trkpt lat="43.64787" lon="1.12866">
        <ele>179.19999694824</ele>
        <time>2014-11-02T08:53:59.000Z</time>
      </trkpt>
      <trkpt lat="43.648" lon="1.12945">
        <ele>174.39999389648</ele>
        <time>2014-11-02T08:54:06.000Z</time>
      </trkpt>
      <trkpt lat="43.64804" lon="1.13017">
        <ele>170.60000610352</ele>
        <time>2014-11-02T08:54:12.000Z</time>
      </trkpt>
      <trkpt lat="43.64802" lon="1.13096">
        <ele>166.60000610352</ele>
        <time>2014-11-02T08:54:18.000Z</time>
      </trkpt>
      <trkpt lat="43.64806" lon="1.13169">
        <ele>163</ele>
        <time>2014-11-02T08:54:23.000Z</time>
      </trkpt>
      <trkpt lat="43.6482" lon="1.13227">
        <ele>158.80000305176</ele>
        <time>2014-11-02T08:54:27.000Z</time>
      </trkpt>
      <trkpt lat="43.64824" lon="1.13258">
        <ele>157.60000610352</ele>
        <time>2014-11-02T08:54:29.000Z</time>
      </trkpt>
      <trkpt lat="43.64823" lon="1.13288">
        <ele>156.19999694824</ele>
        <time>2014-11-02T08:54:31.000Z</time>
      </trkpt>
      <trkpt lat="43.64819" lon="1.13366">
        <ele>149.80000305176</ele>
        <time>2014-11-02T08:54:36.000Z</time>
      </trkpt>
      <trkpt lat="43.64817" lon="1.134">
        <ele>147.19999694824</ele>
        <time>2014-11-02T08:54:38.000Z</time>
      </trkpt>
      <trkpt lat="43.64816" lon="1.13415">
        <ele>146</ele>
        <time>2014-11-02T08:54:39.000Z</time>
      </trkpt>
      <trkpt lat="43.64806" lon="1.13499">
        <ele>140</ele>
        <time>2014-11-02T08:54:44.000Z</time>
      </trkpt>
      <trkpt lat="43.64804" lon="1.13516">
        <ele>139.39999389648</ele>
        <time>2014-11-02T08:54:45.000Z</time>
      </trkpt>
      <trkpt lat="43.64803" lon="1.13601">
        <ele>137.19999694824</ele>
        <time>2014-11-02T08:54:50.000Z</time>
      </trkpt>
      <trkpt lat="43.64802" lon="1.13678">
        <ele>135.80000305176</ele>
        <time>2014-11-02T08:54:55.000Z</time>
      </trkpt>
      <trkpt lat="43.64798" lon="1.1371">
        <ele>135</ele>
        <time>2014-11-02T08:54:58.000Z</time>
      </trkpt>
      <trkpt lat="43.64786" lon="1.13732">
        <ele>134.80000305176</ele>
        <time>2014-11-02T08:55:01.000Z</time>
      </trkpt>
      <trkpt lat="43.64769" lon="1.13743">
        <ele>135.19999694824</ele>
        <time>2014-11-02T08:55:04.000Z</time>
      </trkpt>
      <trkpt lat="43.64762" lon="1.13748">
        <ele>135.19999694824</ele>
        <time>2014-11-02T08:55:05.000Z</time>
      </trkpt>
      <trkpt lat="43.64722" lon="1.13775">
        <ele>135.19999694824</ele>
        <time>2014-11-02T08:55:11.000Z</time>
      </trkpt>
      <trkpt lat="43.6467" lon="1.1381">
        <ele>134.19999694824</ele>
        <time>2014-11-02T08:55:18.000Z</time>
      </trkpt>
      <trkpt lat="43.6465" lon="1.13824">
        <ele>134.39999389648</ele>
        <time>2014-11-02T08:55:21.000Z</time>
      </trkpt>
      <trkpt lat="43.64606" lon="1.13854">
        <ele>135</ele>
        <time>2014-11-02T08:55:27.000Z</time>
      </trkpt>
      <trkpt lat="43.64552" lon="1.1389">
        <ele>135</ele>
        <time>2014-11-02T08:55:34.000Z</time>
      </trkpt>
      <trkpt lat="43.64498" lon="1.13924">
        <ele>136.39999389648</ele>
        <time>2014-11-02T08:55:41.000Z</time>
      </trkpt>
      <trkpt lat="43.64449" lon="1.13954">
        <ele>137.19999694824</ele>
        <time>2014-11-02T08:55:48.000Z</time>
      </trkpt>
      <trkpt lat="43.64402" lon="1.13987">
        <ele>135.19999694824</ele>
        <time>2014-11-02T08:55:55.000Z</time>
      </trkpt>
      <trkpt lat="43.64351" lon="1.14021">
        <ele>133.60000610352</ele>
        <time>2014-11-02T08:56:03.000Z</time>
      </trkpt>
      <trkpt lat="43.64301" lon="1.14056">
        <ele>134</ele>
        <time>2014-11-02T08:56:11.000Z</time>
      </trkpt>
      <trkpt lat="43.64283" lon="1.14071">
        <ele>133.80000305176</ele>
        <time>2014-11-02T08:56:14.000Z</time>
      </trkpt>
      <trkpt lat="43.64237" lon="1.14113">
        <ele>135.19999694824</ele>
        <time>2014-11-02T08:56:22.000Z</time>
      </trkpt>
      <trkpt lat="43.64232" lon="1.14119">
        <ele>135.19999694824</ele>
        <time>2014-11-02T08:56:23.000Z</time>
      </trkpt>
      <trkpt lat="43.64209" lon="1.14141">
        <ele>135.39999389648</ele>
        <time>2014-11-02T08:56:27.000Z</time>
      </trkpt>
      <trkpt lat="43.64186" lon="1.14164">
        <ele>135.80000305176</ele>
        <time>2014-11-02T08:56:31.000Z</time>
      </trkpt>
      <trkpt lat="43.64141" lon="1.14207">
        <ele>135.19999694824</ele>
        <time>2014-11-02T08:56:39.000Z</time>
      </trkpt>
      <trkpt lat="43.64136" lon="1.14212">
        <ele>135.19999694824</ele>
        <time>2014-11-02T08:56:40.000Z</time>
      </trkpt>
      <trkpt lat="43.64091" lon="1.14256">
        <ele>134.80000305176</ele>
        <time>2014-11-02T08:56:48.000Z</time>
      </trkpt>
      <trkpt lat="43.64042" lon="1.14304">
        <ele>134.80000305176</ele>
        <time>2014-11-02T08:56:57.000Z</time>
      </trkpt>
      <trkpt lat="43.64031" lon="1.14314">
        <ele>134.80000305176</ele>
        <time>2014-11-02T08:56:59.000Z</time>
      </trkpt>
      <trkpt lat="43.63988" lon="1.14356">
        <ele>136.19999694824</ele>
        <time>2014-11-02T08:57:07.000Z</time>
      </trkpt>
      <trkpt lat="43.63941" lon="1.14402">
        <ele>138</ele>
        <time>2014-11-02T08:57:16.000Z</time>
      </trkpt>
      <trkpt lat="43.63935" lon="1.14407">
        <ele>138.60000610352</ele>
        <time>2014-11-02T08:57:17.000Z</time>
      </trkpt>
      <trkpt lat="43.63889" lon="1.14452">
        <ele>142.19999694824</ele>
        <time>2014-11-02T08:57:26.000Z</time>
      </trkpt>
      <trkpt lat="43.63884" lon="1.14458">
        <ele>142.60000610352</ele>
        <time>2014-11-02T08:57:27.000Z</time>
      </trkpt>
      <trkpt lat="43.6387" lon="1.14474">
        <ele>143.39999389648</ele>
        <time>2014-11-02T08:57:30.000Z</time>
      </trkpt>
      <trkpt lat="43.63855" lon="1.14497">
        <ele>144.39999389648</ele>
        <time>2014-11-02T08:57:34.000Z</time>
      </trkpt>
      <trkpt lat="43.63845" lon="1.14516">
        <ele>145</ele>
        <time>2014-11-02T08:57:37.000Z</time>
      </trkpt>
      <trkpt lat="43.63837" lon="1.14535">
        <ele>145.39999389648</ele>
        <time>2014-11-02T08:57:40.000Z</time>
      </trkpt>
      <trkpt lat="43.63834" lon="1.14542">
        <ele>145.60000610352</ele>
        <time>2014-11-02T08:57:41.000Z</time>
      </trkpt>
      <trkpt lat="43.63827" lon="1.14564">
        <ele>145.39999389648</ele>
        <time>2014-11-02T08:57:44.000Z</time>
      </trkpt>
      <trkpt lat="43.63825" lon="1.14572">
        <ele>145.39999389648</ele>
        <time>2014-11-02T08:57:45.000Z</time>
      </trkpt>
      <trkpt lat="43.63809" lon="1.14639">
        <ele>145.39999389648</ele>
        <time>2014-11-02T08:57:54.000Z</time>
      </trkpt>
      <trkpt lat="43.63799" lon="1.14681">
        <ele>144.60000610352</ele>
        <time>2014-11-02T08:58:00.000Z</time>
      </trkpt>
      <trkpt lat="43.63782" lon="1.14757">
        <ele>144</ele>
        <time>2014-11-02T08:58:11.000Z</time>
      </trkpt>
      <trkpt lat="43.63767" lon="1.14823">
        <ele>143.80000305176</ele>
        <time>2014-11-02T08:58:20.000Z</time>
      </trkpt>
      <trkpt lat="43.63754" lon="1.14874">
        <ele>147</ele>
        <time>2014-11-02T08:58:27.000Z</time>
      </trkpt>
      <trkpt lat="43.63742" lon="1.14927">
        <ele>148.80000305176</ele>
        <time>2014-11-02T08:58:34.000Z</time>
      </trkpt>
      <trkpt lat="43.63725" lon="1.15001">
        <ele>150.80000305176</ele>
        <time>2014-11-02T08:58:44.000Z</time>
      </trkpt>
      <trkpt lat="43.6372" lon="1.1502">
        <ele>151.60000610352</ele>
        <time>2014-11-02T08:58:47.000Z</time>
      </trkpt>
      <trkpt lat="43.63716" lon="1.15029">
        <ele>151.80000305176</ele>
        <time>2014-11-02T08:58:49.000Z</time>
      </trkpt>
      <trkpt lat="43.6371" lon="1.15034">
        <ele>152</ele>
        <time>2014-11-02T08:58:51.000Z</time>
      </trkpt>
      <trkpt lat="43.63708" lon="1.15036">
        <ele>152.19999694824</ele>
        <time>2014-11-02T08:58:52.000Z</time>
      </trkpt>
      <trkpt lat="43.63705" lon="1.1504">
        <ele>152.19999694824</ele>
        <time>2014-11-02T08:58:55.000Z</time>
      </trkpt>
      <trkpt lat="43.63702" lon="1.15051">
        <ele>152.60000610352</ele>
        <time>2014-11-02T08:58:58.000Z</time>
      </trkpt>
      <trkpt lat="43.63701" lon="1.15056">
        <ele>152.80000305176</ele>
        <time>2014-11-02T08:58:59.000Z</time>
      </trkpt>
      <trkpt lat="43.63701" lon="1.15064">
        <ele>152.80000305176</ele>
        <time>2014-11-02T08:59:01.000Z</time>
      </trkpt>
      <trkpt lat="43.63702" lon="1.15072">
        <ele>152.60000610352</ele>
        <time>2014-11-02T08:59:03.000Z</time>
      </trkpt>
      <trkpt lat="43.637" lon="1.15079">
        <ele>152.80000305176</ele>
        <time>2014-11-02T08:59:05.000Z</time>
      </trkpt>
      <trkpt lat="43.63696" lon="1.15085">
        <ele>153</ele>
        <time>2014-11-02T08:59:07.000Z</time>
      </trkpt>
      <trkpt lat="43.63697" lon="1.15102">
        <ele>153</ele>
        <time>2014-11-02T08:59:11.000Z</time>
      </trkpt>
      <trkpt lat="43.63701" lon="1.15114">
        <ele>153</ele>
        <time>2014-11-02T08:59:16.000Z</time>
      </trkpt>
      <trkpt lat="43.63701" lon="1.15114">
        <ele>153</ele>
        <time>2014-11-02T08:59:17.000Z</time>
      </trkpt>
      <trkpt lat="43.63702" lon="1.15052">
        <ele>152.60000610352</ele>
        <time>2014-11-02T09:08:36.000Z</time>
      </trkpt>
      <trkpt lat="43.63703" lon="1.15056">
        <ele>152.60000610352</ele>
        <time>2014-11-02T09:08:37.000Z</time>
      </trkpt>
      <trkpt lat="43.63715" lon="1.15084">
        <ele>152.39999389648</ele>
        <time>2014-11-02T09:08:43.000Z</time>
      </trkpt>
      <trkpt lat="43.63726" lon="1.15118">
        <ele>152.19999694824</ele>
        <time>2014-11-02T09:08:49.000Z</time>
      </trkpt>
      <trkpt lat="43.63727" lon="1.15124">
        <ele>152.19999694824</ele>
        <time>2014-11-02T09:08:50.000Z</time>
      </trkpt>
      <trkpt lat="43.63738" lon="1.15155">
        <ele>151.80000305176</ele>
        <time>2014-11-02T09:08:55.000Z</time>
      </trkpt>
      <trkpt lat="43.63751" lon="1.15194">
        <ele>150.39999389648</ele>
        <time>2014-11-02T09:09:01.000Z</time>
      </trkpt>
      <trkpt lat="43.63773" lon="1.15258">
        <ele>149.60000610352</ele>
        <time>2014-11-02T09:09:10.000Z</time>
      </trkpt>
      <trkpt lat="43.63795" lon="1.15325">
        <ele>150.60000610352</ele>
        <time>2014-11-02T09:09:19.000Z</time>
      </trkpt>
      <trkpt lat="43.63811" lon="1.15366">
        <ele>150.80000305176</ele>
        <time>2014-11-02T09:09:25.000Z</time>
      </trkpt>
      <trkpt lat="43.63813" lon="1.15369">
        <ele>150.80000305176</ele>
        <time>2014-11-02T09:09:26.000Z</time>
      </trkpt>
      <trkpt lat="43.63813" lon="1.15377">
        <ele>151</ele>
        <time>2014-11-02T09:09:28.000Z</time>
      </trkpt>
      <trkpt lat="43.63805" lon="1.15378">
        <ele>151.19999694824</ele>
        <time>2014-11-02T09:09:30.000Z</time>
      </trkpt>
      <trkpt lat="43.63801" lon="1.15378">
        <ele>151.19999694824</ele>
        <time>2014-11-02T09:09:31.000Z</time>
      </trkpt>
      <trkpt lat="43.63792" lon="1.1538">
        <ele>151.39999389648</ele>
        <time>2014-11-02T09:09:33.000Z</time>
      </trkpt>
      <trkpt lat="43.63785" lon="1.15385">
        <ele>151.60000610352</ele>
        <time>2014-11-02T09:09:35.000Z</time>
      </trkpt>
      <trkpt lat="43.6376" lon="1.154">
        <ele>152</ele>
        <time>2014-11-02T09:09:41.000Z</time>
      </trkpt>
      <trkpt lat="43.63724" lon="1.15411">
        <ele>152.39999389648</ele>
        <time>2014-11-02T09:09:48.000Z</time>
      </trkpt>
      <trkpt lat="43.6368" lon="1.15426">
        <ele>154</ele>
        <time>2014-11-02T09:09:56.000Z</time>
      </trkpt>
      <trkpt lat="43.63632" lon="1.15443">
        <ele>154</ele>
        <time>2014-11-02T09:10:04.000Z</time>
      </trkpt>
      <trkpt lat="43.63578" lon="1.15462">
        <ele>154.19999694824</ele>
        <time>2014-11-02T09:10:13.000Z</time>
      </trkpt>
      <trkpt lat="43.63521" lon="1.15484">
        <ele>156</ele>
        <time>2014-11-02T09:10:23.000Z</time>
      </trkpt>
      <trkpt lat="43.63516" lon="1.15486">
        <ele>156</ele>
        <time>2014-11-02T09:10:24.000Z</time>
      </trkpt>
      <trkpt lat="43.63465" lon="1.15506">
        <ele>156</ele>
        <time>2014-11-02T09:10:33.000Z</time>
      </trkpt>
      <trkpt lat="43.63411" lon="1.15531">
        <ele>156.39999389648</ele>
        <time>2014-11-02T09:10:43.000Z</time>
      </trkpt>
      <trkpt lat="43.63405" lon="1.15534">
        <ele>156.39999389648</ele>
        <time>2014-11-02T09:10:44.000Z</time>
      </trkpt>
      <trkpt lat="43.63355" lon="1.15558">
        <ele>156</ele>
        <time>2014-11-02T09:10:53.000Z</time>
      </trkpt>
      <trkpt lat="43.63297" lon="1.15584">
        <ele>155.39999389648</ele>
        <time>2014-11-02T09:11:03.000Z</time>
      </trkpt>
      <trkpt lat="43.63242" lon="1.15604">
        <ele>153.60000610352</ele>
        <time>2014-11-02T09:11:11.000Z</time>
      </trkpt>
      <trkpt lat="43.63234" lon="1.15608">
        <ele>153.39999389648</ele>
        <time>2014-11-02T09:11:12.000Z</time>
      </trkpt>
      <trkpt lat="43.63192" lon="1.15624">
        <ele>153.19999694824</ele>
        <time>2014-11-02T09:11:18.000Z</time>
      </trkpt>
      <trkpt lat="43.63142" lon="1.15644">
        <ele>155</ele>
        <time>2014-11-02T09:11:26.000Z</time>
      </trkpt>
      <trkpt lat="43.63119" lon="1.15649">
        <ele>156.39999389648</ele>
        <time>2014-11-02T09:11:30.000Z</time>
      </trkpt>
      <trkpt lat="43.63108" lon="1.15649">
        <ele>157</ele>
        <time>2014-11-02T09:11:32.000Z</time>
      </trkpt>
      <trkpt lat="43.63077" lon="1.15646">
        <ele>159.80000305176</ele>
        <time>2014-11-02T09:11:38.000Z</time>
      </trkpt>
      <trkpt lat="43.6304" lon="1.15636">
        <ele>163.39999389648</ele>
        <time>2014-11-02T09:11:46.000Z</time>
      </trkpt>
      <trkpt lat="43.63019" lon="1.15631">
        <ele>165.60000610352</ele>
        <time>2014-11-02T09:11:51.000Z</time>
      </trkpt>
      <trkpt lat="43.63015" lon="1.15629">
        <ele>165.80000305176</ele>
        <time>2014-11-02T09:11:52.000Z</time>
      </trkpt>
      <trkpt lat="43.6301" lon="1.15629">
        <ele>166</ele>
        <time>2014-11-02T09:11:53.000Z</time>
      </trkpt>
      <trkpt lat="43.62988" lon="1.15624">
        <ele>167.60000610352</ele>
        <time>2014-11-02T09:11:58.000Z</time>
      </trkpt>
      <trkpt lat="43.62953" lon="1.15612">
        <ele>170.80000305176</ele>
        <time>2014-11-02T09:12:06.000Z</time>
      </trkpt>
      <trkpt lat="43.62934" lon="1.15599">
        <ele>171.80000305176</ele>
        <time>2014-11-02T09:12:11.000Z</time>
      </trkpt>
      <trkpt lat="43.6293" lon="1.15596">
        <ele>171.80000305176</ele>
        <time>2014-11-02T09:12:12.000Z</time>
      </trkpt>
      <trkpt lat="43.62909" lon="1.15578">
        <ele>171.60000610352</ele>
        <time>2014-11-02T09:12:18.000Z</time>
      </trkpt>
      <trkpt lat="43.62905" lon="1.15575">
        <ele>171.60000610352</ele>
        <time>2014-11-02T09:12:19.000Z</time>
      </trkpt>
      <trkpt lat="43.62902" lon="1.15572">
        <ele>171.39999389648</ele>
        <time>2014-11-02T09:12:20.000Z</time>
      </trkpt>
      <trkpt lat="43.62894" lon="1.15568">
        <ele>171.60000610352</ele>
        <time>2014-11-02T09:12:22.000Z</time>
      </trkpt>
      <trkpt lat="43.62886" lon="1.15564">
        <ele>172</ele>
        <time>2014-11-02T09:12:24.000Z</time>
      </trkpt>
      <trkpt lat="43.62882" lon="1.15564">
        <ele>172.19999694824</ele>
        <time>2014-11-02T09:12:25.000Z</time>
      </trkpt>
      <trkpt lat="43.62867" lon="1.15565">
        <ele>173.39999389648</ele>
        <time>2014-11-02T09:12:29.000Z</time>
      </trkpt>
      <trkpt lat="43.62863" lon="1.15566">
        <ele>173.80000305176</ele>
        <time>2014-11-02T09:12:30.000Z</time>
      </trkpt>
      <trkpt lat="43.62831" lon="1.15577">
        <ele>174.19999694824</ele>
        <time>2014-11-02T09:12:39.000Z</time>
      </trkpt>
      <trkpt lat="43.62813" lon="1.15591">
        <ele>174.39999389648</ele>
        <time>2014-11-02T09:12:45.000Z</time>
      </trkpt>
      <trkpt lat="43.62805" lon="1.15605">
        <ele>175.80000305176</ele>
        <time>2014-11-02T09:12:50.000Z</time>
      </trkpt>
      <trkpt lat="43.62805" lon="1.15608">
        <ele>176.19999694824</ele>
        <time>2014-11-02T09:12:51.000Z</time>
      </trkpt>
      <trkpt lat="43.62804" lon="1.15621">
        <ele>178.39999389648</ele>
        <time>2014-11-02T09:12:55.000Z</time>
      </trkpt>
      <trkpt lat="43.62804" lon="1.15624">
        <ele>178.80000305176</ele>
        <time>2014-11-02T09:12:56.000Z</time>
      </trkpt>
      <trkpt lat="43.62811" lon="1.1564">
        <ele>181.80000305176</ele>
        <time>2014-11-02T09:13:02.000Z</time>
      </trkpt>
      <trkpt lat="43.62824" lon="1.1566">
        <ele>183.39999389648</ele>
        <time>2014-11-02T09:13:10.000Z</time>
      </trkpt>
      <trkpt lat="43.62827" lon="1.1568">
        <ele>184</ele>
        <time>2014-11-02T09:13:16.000Z</time>
      </trkpt>
      <trkpt lat="43.62821" lon="1.15702">
        <ele>184.60000610352</ele>
        <time>2014-11-02T09:13:22.000Z</time>
      </trkpt>
      <trkpt lat="43.62814" lon="1.15724">
        <ele>186.19999694824</ele>
        <time>2014-11-02T09:13:28.000Z</time>
      </trkpt>
      <trkpt lat="43.62804" lon="1.15752">
        <ele>186.60000610352</ele>
        <time>2014-11-02T09:13:35.000Z</time>
      </trkpt>
      <trkpt lat="43.62796" lon="1.15781">
        <ele>187.39999389648</ele>
        <time>2014-11-02T09:13:42.000Z</time>
      </trkpt>
      <trkpt lat="43.62785" lon="1.15813">
        <ele>188.39999389648</ele>
        <time>2014-11-02T09:13:49.000Z</time>
      </trkpt>
      <trkpt lat="43.62774" lon="1.15841">
        <ele>190.39999389648</ele>
        <time>2014-11-02T09:13:55.000Z</time>
      </trkpt>
      <trkpt lat="43.6276" lon="1.15883">
        <ele>193</ele>
        <time>2014-11-02T09:14:04.000Z</time>
      </trkpt>
      <trkpt lat="43.62747" lon="1.15915">
        <ele>192.39999389648</ele>
        <time>2014-11-02T09:14:11.000Z</time>
      </trkpt>
      <trkpt lat="43.62734" lon="1.15948">
        <ele>190.80000305176</ele>
        <time>2014-11-02T09:14:18.000Z</time>
      </trkpt>
      <trkpt lat="43.62719" lon="1.15983">
        <ele>193.39999389648</ele>
        <time>2014-11-02T09:14:26.000Z</time>
      </trkpt>
      <trkpt lat="43.627" lon="1.16027">
        <ele>194.39999389648</ele>
        <time>2014-11-02T09:14:36.000Z</time>
      </trkpt>
      <trkpt lat="43.62689" lon="1.16053">
        <ele>196.39999389648</ele>
        <time>2014-11-02T09:14:42.000Z</time>
      </trkpt>
      <trkpt lat="43.62679" lon="1.16077">
        <ele>195.80000305176</ele>
        <time>2014-11-02T09:14:48.000Z</time>
      </trkpt>
      <trkpt lat="43.62664" lon="1.16105">
        <ele>193.19999694824</ele>
        <time>2014-11-02T09:14:55.000Z</time>
      </trkpt>
      <trkpt lat="43.6265" lon="1.16133">
        <ele>192.60000610352</ele>
        <time>2014-11-02T09:15:01.000Z</time>
      </trkpt>
      <trkpt lat="43.62644" lon="1.16143">
        <ele>193</ele>
        <time>2014-11-02T09:15:03.000Z</time>
      </trkpt>
      <trkpt lat="43.62631" lon="1.16167">
        <ele>192</ele>
        <time>2014-11-02T09:15:08.000Z</time>
      </trkpt>
      <trkpt lat="43.62621" lon="1.16185">
        <ele>193.19999694824</ele>
        <time>2014-11-02T09:15:12.000Z</time>
      </trkpt>
      <trkpt lat="43.62612" lon="1.16198">
        <ele>194.60000610352</ele>
        <time>2014-11-02T09:15:15.000Z</time>
      </trkpt>
      <trkpt lat="43.62585" lon="1.16244">
        <ele>195.80000305176</ele>
        <time>2014-11-02T09:15:25.000Z</time>
      </trkpt>
      <trkpt lat="43.62565" lon="1.16278">
        <ele>194.19999694824</ele>
        <time>2014-11-02T09:15:33.000Z</time>
      </trkpt>
      <trkpt lat="43.62545" lon="1.16314">
        <ele>197.19999694824</ele>
        <time>2014-11-02T09:15:41.000Z</time>
      </trkpt>
      <trkpt lat="43.62532" lon="1.16336">
        <ele>197.19999694824</ele>
        <time>2014-11-02T09:15:47.000Z</time>
      </trkpt>
      <trkpt lat="43.62514" lon="1.16367">
        <ele>198.39999389648</ele>
        <time>2014-11-02T09:15:56.000Z</time>
      </trkpt>
      <trkpt lat="43.62492" lon="1.16404">
        <ele>198.39999389648</ele>
        <time>2014-11-02T09:16:04.000Z</time>
      </trkpt>
      <trkpt lat="43.62468" lon="1.16447">
        <ele>198.80000305176</ele>
        <time>2014-11-02T09:16:12.000Z</time>
      </trkpt>
      <trkpt lat="43.62443" lon="1.1649">
        <ele>201.60000610352</ele>
        <time>2014-11-02T09:16:21.000Z</time>
      </trkpt>
      <trkpt lat="43.62438" lon="1.16499">
        <ele>201.60000610352</ele>
        <time>2014-11-02T09:16:23.000Z</time>
      </trkpt>
      <trkpt lat="43.62436" lon="1.16504">
        <ele>201.80000305176</ele>
        <time>2014-11-02T09:16:25.000Z</time>
      </trkpt>
      <trkpt lat="43.6244" lon="1.165">
        <ele>201.39999389648</ele>
        <time>2014-11-02T09:16:28.000Z</time>
      </trkpt>
      <trkpt lat="43.62443" lon="1.16494">
        <ele>201.60000610352</ele>
        <time>2014-11-02T09:16:30.000Z</time>
      </trkpt>
      <trkpt lat="43.62451" lon="1.16481">
        <ele>201.19999694824</ele>
        <time>2014-11-02T09:16:34.000Z</time>
      </trkpt>
      <trkpt lat="43.62463" lon="1.16458">
        <ele>199.39999389648</ele>
        <time>2014-11-02T09:16:39.000Z</time>
      </trkpt>
      <trkpt lat="43.6249" lon="1.16411">
        <ele>198.19999694824</ele>
        <time>2014-11-02T09:16:47.000Z</time>
      </trkpt>
      <trkpt lat="43.62521" lon="1.16358">
        <ele>198.19999694824</ele>
        <time>2014-11-02T09:16:55.000Z</time>
      </trkpt>
      <trkpt lat="43.62551" lon="1.16306">
        <ele>196.80000305176</ele>
        <time>2014-11-02T09:17:02.000Z</time>
      </trkpt>
      <trkpt lat="43.62587" lon="1.16246">
        <ele>195.80000305176</ele>
        <time>2014-11-02T09:17:09.000Z</time>
      </trkpt>
      <trkpt lat="43.62622" lon="1.16186">
        <ele>193.19999694824</ele>
        <time>2014-11-02T09:17:15.000Z</time>
      </trkpt>
      <trkpt lat="43.62657" lon="1.16124">
        <ele>192.19999694824</ele>
        <time>2014-11-02T09:17:21.000Z</time>
      </trkpt>
      <trkpt lat="43.62674" lon="1.1609">
        <ele>194.60000610352</ele>
        <time>2014-11-02T09:17:24.000Z</time>
      </trkpt>
      <trkpt lat="43.62704" lon="1.16021">
        <ele>193.80000305176</ele>
        <time>2014-11-02T09:17:30.000Z</time>
      </trkpt>
      <trkpt lat="43.6272" lon="1.15985">
        <ele>193.39999389648</ele>
        <time>2014-11-02T09:17:33.000Z</time>
      </trkpt>
      <trkpt lat="43.62748" lon="1.1592">
        <ele>192.39999389648</ele>
        <time>2014-11-02T09:17:38.000Z</time>
      </trkpt>
      <trkpt lat="43.62759" lon="1.15891">
        <ele>193.80000305176</ele>
        <time>2014-11-02T09:17:40.000Z</time>
      </trkpt>
      <trkpt lat="43.62764" lon="1.15877">
        <ele>193.19999694824</ele>
        <time>2014-11-02T09:17:41.000Z</time>
      </trkpt>
      <trkpt lat="43.6279" lon="1.15804">
        <ele>188</ele>
        <time>2014-11-02T09:17:46.000Z</time>
      </trkpt>
      <trkpt lat="43.62816" lon="1.15729">
        <ele>186.39999389648</ele>
        <time>2014-11-02T09:17:51.000Z</time>
      </trkpt>
      <trkpt lat="43.6282" lon="1.15717">
        <ele>185.60000610352</ele>
        <time>2014-11-02T09:17:52.000Z</time>
      </trkpt>
      <trkpt lat="43.62832" lon="1.15673">
        <ele>184</ele>
        <time>2014-11-02T09:17:56.000Z</time>
      </trkpt>
      <trkpt lat="43.62824" lon="1.15652">
        <ele>183.19999694824</ele>
        <time>2014-11-02T09:17:58.000Z</time>
      </trkpt>
      <trkpt lat="43.62806" lon="1.15631">
        <ele>180</ele>
        <time>2014-11-02T09:18:01.000Z</time>
      </trkpt>
      <trkpt lat="43.62782" lon="1.15622">
        <ele>177.60000610352</ele>
        <time>2014-11-02T09:18:04.000Z</time>
      </trkpt>
      <trkpt lat="43.62755" lon="1.15635">
        <ele>178.39999389648</ele>
        <time>2014-11-02T09:18:07.000Z</time>
      </trkpt>
      <trkpt lat="43.62731" lon="1.15658">
        <ele>175.19999694824</ele>
        <time>2014-11-02T09:18:10.000Z</time>
      </trkpt>
      <trkpt lat="43.62722" lon="1.15665">
        <ele>174</ele>
        <time>2014-11-02T09:18:11.000Z</time>
      </trkpt>
      <trkpt lat="43.62712" lon="1.15671">
        <ele>172.80000305176</ele>
        <time>2014-11-02T09:18:12.000Z</time>
      </trkpt>
      <trkpt lat="43.6269" lon="1.15668">
        <ele>168.80000305176</ele>
        <time>2014-11-02T09:18:14.000Z</time>
      </trkpt>
      <trkpt lat="43.62659" lon="1.15647">
        <ele>167.19999694824</ele>
        <time>2014-11-02T09:18:17.000Z</time>
      </trkpt>
      <trkpt lat="43.6265" lon="1.15639">
        <ele>167</ele>
        <time>2014-11-02T09:18:18.000Z</time>
      </trkpt>
      <trkpt lat="43.62613" lon="1.15616">
        <ele>167.60000610352</ele>
        <time>2014-11-02T09:18:22.000Z</time>
      </trkpt>
      <trkpt lat="43.6258" lon="1.15606">
        <ele>168.80000305176</ele>
        <time>2014-11-02T09:18:26.000Z</time>
      </trkpt>
      <trkpt lat="43.62547" lon="1.15595">
        <ele>169.80000305176</ele>
        <time>2014-11-02T09:18:31.000Z</time>
      </trkpt>
      <trkpt lat="43.62507" lon="1.15581">
        <ele>171</ele>
        <time>2014-11-02T09:18:38.000Z</time>
      </trkpt>
      <trkpt lat="43.62463" lon="1.1557">
        <ele>173.39999389648</ele>
        <time>2014-11-02T09:18:46.000Z</time>
      </trkpt>
      <trkpt lat="43.62421" lon="1.15568">
        <ele>175.19999694824</ele>
        <time>2014-11-02T09:18:54.000Z</time>
      </trkpt>
      <trkpt lat="43.62388" lon="1.15569">
        <ele>176</ele>
        <time>2014-11-02T09:19:01.000Z</time>
      </trkpt>
      <trkpt lat="43.62356" lon="1.15574">
        <ele>177</ele>
        <time>2014-11-02T09:19:08.000Z</time>
      </trkpt>
      <trkpt lat="43.62317" lon="1.15579">
        <ele>180.60000610352</ele>
        <time>2014-11-02T09:19:17.000Z</time>
      </trkpt>
      <trkpt lat="43.6231" lon="1.1558">
        <ele>181.19999694824</ele>
        <time>2014-11-02T09:19:19.000Z</time>
      </trkpt>
      <trkpt lat="43.6229" lon="1.15583">
        <ele>183.19999694824</ele>
        <time>2014-11-02T09:19:24.000Z</time>
      </trkpt>
      <trkpt lat="43.62262" lon="1.15586">
        <ele>184.60000610352</ele>
        <time>2014-11-02T09:19:32.000Z</time>
      </trkpt>
      <trkpt lat="43.62232" lon="1.15588">
        <ele>186.80000305176</ele>
        <time>2014-11-02T09:19:41.000Z</time>
      </trkpt>
      <trkpt lat="43.62205" lon="1.15588">
        <ele>188.39999389648</ele>
        <time>2014-11-02T09:19:49.000Z</time>
      </trkpt>
      <trkpt lat="43.62179" lon="1.15588">
        <ele>189.60000610352</ele>
        <time>2014-11-02T09:19:57.000Z</time>
      </trkpt>
      <trkpt lat="43.62163" lon="1.15589">
        <ele>190.19999694824</ele>
        <time>2014-11-02T09:20:02.000Z</time>
      </trkpt>
      <trkpt lat="43.62141" lon="1.1559">
        <ele>190.80000305176</ele>
        <time>2014-11-02T09:20:09.000Z</time>
      </trkpt>
      <trkpt lat="43.62138" lon="1.15591">
        <ele>191</ele>
        <time>2014-11-02T09:20:10.000Z</time>
      </trkpt>
      <trkpt lat="43.62112" lon="1.15592">
        <ele>191.19999694824</ele>
        <time>2014-11-02T09:20:18.000Z</time>
      </trkpt>
      <trkpt lat="43.62079" lon="1.15595">
        <ele>192.60000610352</ele>
        <time>2014-11-02T09:20:26.000Z</time>
      </trkpt>
      <trkpt lat="43.62042" lon="1.15599">
        <ele>194.39999389648</ele>
        <time>2014-11-02T09:20:35.000Z</time>
      </trkpt>
      <trkpt lat="43.62009" lon="1.15608">
        <ele>196.19999694824</ele>
        <time>2014-11-02T09:20:43.000Z</time>
      </trkpt>
      <trkpt lat="43.61977" lon="1.15621">
        <ele>198.60000610352</ele>
        <time>2014-11-02T09:20:50.000Z</time>
      </trkpt>
      <trkpt lat="43.61954" lon="1.15632">
        <ele>200.60000610352</ele>
        <time>2014-11-02T09:20:56.000Z</time>
      </trkpt>
      <trkpt lat="43.61949" lon="1.15635">
        <ele>201</ele>
        <time>2014-11-02T09:20:58.000Z</time>
      </trkpt>
      <trkpt lat="43.61938" lon="1.15641">
        <ele>201.80000305176</ele>
        <time>2014-11-02T09:21:01.000Z</time>
      </trkpt>
      <trkpt lat="43.61923" lon="1.15651">
        <ele>202.60000610352</ele>
        <time>2014-11-02T09:21:05.000Z</time>
      </trkpt>
      <trkpt lat="43.61903" lon="1.15661">
        <ele>203.80000305176</ele>
        <time>2014-11-02T09:21:11.000Z</time>
      </trkpt>
      <trkpt lat="43.61876" lon="1.15667">
        <ele>205.80000305176</ele>
        <time>2014-11-02T09:21:18.000Z</time>
      </trkpt>
      <trkpt lat="43.61847" lon="1.1567">
        <ele>207</ele>
        <time>2014-11-02T09:21:26.000Z</time>
      </trkpt>
      <trkpt lat="43.61826" lon="1.15671">
        <ele>207.80000305176</ele>
        <time>2014-11-02T09:21:33.000Z</time>
      </trkpt>
      <trkpt lat="43.618" lon="1.15673">
        <ele>208.39999389648</ele>
        <time>2014-11-02T09:21:41.000Z</time>
      </trkpt>
      <trkpt lat="43.61776" lon="1.15675">
        <ele>209.80000305176</ele>
        <time>2014-11-02T09:21:49.000Z</time>
      </trkpt>
      <trkpt lat="43.61749" lon="1.15677">
        <ele>212.39999389648</ele>
        <time>2014-11-02T09:21:58.000Z</time>
      </trkpt>
      <trkpt lat="43.61725" lon="1.15679">
        <ele>214.80000305176</ele>
        <time>2014-11-02T09:22:06.000Z</time>
      </trkpt>
      <trkpt lat="43.61701" lon="1.1568">
        <ele>217.39999389648</ele>
        <time>2014-11-02T09:22:14.000Z</time>
      </trkpt>
      <trkpt lat="43.61676" lon="1.15683">
        <ele>219.60000610352</ele>
        <time>2014-11-02T09:22:22.000Z</time>
      </trkpt>
      <trkpt lat="43.61658" lon="1.15686">
        <ele>220.80000305176</ele>
        <time>2014-11-02T09:22:28.000Z</time>
      </trkpt>
      <trkpt lat="43.61639" lon="1.15691">
        <ele>222.19999694824</ele>
        <time>2014-11-02T09:22:34.000Z</time>
      </trkpt>
      <trkpt lat="43.61619" lon="1.15697">
        <ele>224</ele>
        <time>2014-11-02T09:22:40.000Z</time>
      </trkpt>
      <trkpt lat="43.61603" lon="1.15704">
        <ele>225.39999389648</ele>
        <time>2014-11-02T09:22:46.000Z</time>
      </trkpt>
      <trkpt lat="43.61584" lon="1.15713">
        <ele>226.19999694824</ele>
        <time>2014-11-02T09:22:52.000Z</time>
      </trkpt>
      <trkpt lat="43.61562" lon="1.15723">
        <ele>228</ele>
        <time>2014-11-02T09:22:59.000Z</time>
      </trkpt>
      <trkpt lat="43.61544" lon="1.15731">
        <ele>229.19999694824</ele>
        <time>2014-11-02T09:23:05.000Z</time>
      </trkpt>
      <trkpt lat="43.61529" lon="1.15738">
        <ele>229.80000305176</ele>
        <time>2014-11-02T09:23:10.000Z</time>
      </trkpt>
      <trkpt lat="43.61515" lon="1.15743">
        <ele>230.60000610352</ele>
        <time>2014-11-02T09:23:14.000Z</time>
      </trkpt>
      <trkpt lat="43.61499" lon="1.15751">
        <ele>230.80000305176</ele>
        <time>2014-11-02T09:23:19.000Z</time>
      </trkpt>
      <trkpt lat="43.61479" lon="1.15761">
        <ele>230.80000305176</ele>
        <time>2014-11-02T09:23:25.000Z</time>
      </trkpt>
      <trkpt lat="43.61455" lon="1.15773">
        <ele>232.39999389648</ele>
        <time>2014-11-02T09:23:32.000Z</time>
      </trkpt>
      <trkpt lat="43.61437" lon="1.15784">
        <ele>234.60000610352</ele>
        <time>2014-11-02T09:23:38.000Z</time>
      </trkpt>
      <trkpt lat="43.6142" lon="1.15792">
        <ele>234.60000610352</ele>
        <time>2014-11-02T09:23:43.000Z</time>
      </trkpt>
      <trkpt lat="43.61404" lon="1.158">
        <ele>236.80000305176</ele>
        <time>2014-11-02T09:23:49.000Z</time>
      </trkpt>
      <trkpt lat="43.61386" lon="1.1581">
        <ele>239.80000305176</ele>
        <time>2014-11-02T09:23:55.000Z</time>
      </trkpt>
      <trkpt lat="43.61363" lon="1.15823">
        <ele>242.19999694824</ele>
        <time>2014-11-02T09:24:03.000Z</time>
      </trkpt>
      <trkpt lat="43.6134" lon="1.15835">
        <ele>245.60000610352</ele>
        <time>2014-11-02T09:24:11.000Z</time>
      </trkpt>
      <trkpt lat="43.61319" lon="1.15848">
        <ele>248.19999694824</ele>
        <time>2014-11-02T09:24:18.000Z</time>
      </trkpt>
      <trkpt lat="43.613" lon="1.15855">
        <ele>251.80000305176</ele>
        <time>2014-11-02T09:24:25.000Z</time>
      </trkpt>
      <trkpt lat="43.61284" lon="1.15855">
        <ele>255.19999694824</ele>
        <time>2014-11-02T09:24:30.000Z</time>
      </trkpt>
      <trkpt lat="43.61267" lon="1.15851">
        <ele>258</ele>
        <time>2014-11-02T09:24:35.000Z</time>
      </trkpt>
      <trkpt lat="43.61261" lon="1.15847">
        <ele>258.39999389648</ele>
        <time>2014-11-02T09:24:37.000Z</time>
      </trkpt>
      <trkpt lat="43.61242" lon="1.15832">
        <ele>259.39999389648</ele>
        <time>2014-11-02T09:24:43.000Z</time>
      </trkpt>
      <trkpt lat="43.61227" lon="1.1581">
        <ele>259.39999389648</ele>
        <time>2014-11-02T09:24:49.000Z</time>
      </trkpt>
      <trkpt lat="43.6121" lon="1.15784">
        <ele>258.20001220703</ele>
        <time>2014-11-02T09:24:56.000Z</time>
      </trkpt>
      <trkpt lat="43.61188" lon="1.15765">
        <ele>258.20001220703</ele>
        <time>2014-11-02T09:25:03.000Z</time>
      </trkpt>
      <trkpt lat="43.61171" lon="1.15766">
        <ele>257.60000610352</ele>
        <time>2014-11-02T09:25:08.000Z</time>
      </trkpt>
      <trkpt lat="43.61159" lon="1.15779">
        <ele>258.39999389648</ele>
        <time>2014-11-02T09:25:13.000Z</time>
      </trkpt>
      <trkpt lat="43.61153" lon="1.15796">
        <ele>260.20001220703</ele>
        <time>2014-11-02T09:25:18.000Z</time>
      </trkpt>
      <trkpt lat="43.61149" lon="1.15813">
        <ele>262</ele>
        <time>2014-11-02T09:25:23.000Z</time>
      </trkpt>
      <trkpt lat="43.61141" lon="1.15838">
        <ele>264.20001220703</ele>
        <time>2014-11-02T09:25:30.000Z</time>
      </trkpt>
      <trkpt lat="43.61133" lon="1.15857">
        <ele>267</ele>
        <time>2014-11-02T09:25:36.000Z</time>
      </trkpt>
      <trkpt lat="43.61119" lon="1.15879">
        <ele>271</ele>
        <time>2014-11-02T09:25:43.000Z</time>
      </trkpt>
      <trkpt lat="43.61106" lon="1.15892">
        <ele>273.39999389648</ele>
        <time>2014-11-02T09:25:49.000Z</time>
      </trkpt>
      <trkpt lat="43.61091" lon="1.15902">
        <ele>274.60000610352</ele>
        <time>2014-11-02T09:25:55.000Z</time>
      </trkpt>
      <trkpt lat="43.61083" lon="1.15907">
        <ele>275</ele>
        <time>2014-11-02T09:25:58.000Z</time>
      </trkpt>
      <trkpt lat="43.61078" lon="1.1591">
        <ele>275.20001220703</ele>
        <time>2014-11-02T09:26:00.000Z</time>
      </trkpt>
      <trkpt lat="43.61056" lon="1.15922">
        <ele>276.20001220703</ele>
        <time>2014-11-02T09:26:08.000Z</time>
      </trkpt>
      <trkpt lat="43.61035" lon="1.15933">
        <ele>277.39999389648</ele>
        <time>2014-11-02T09:26:16.000Z</time>
      </trkpt>
      <trkpt lat="43.61017" lon="1.15945">
        <ele>278.60000610352</ele>
        <time>2014-11-02T09:26:23.000Z</time>
      </trkpt>
      <trkpt lat="43.61003" lon="1.15955">
        <ele>279.20001220703</ele>
        <time>2014-11-02T09:26:28.000Z</time>
      </trkpt>
      <trkpt lat="43.60984" lon="1.15967">
        <ele>280.60000610352</ele>
        <time>2014-11-02T09:26:36.000Z</time>
      </trkpt>
      <trkpt lat="43.60967" lon="1.15977">
        <ele>282.20001220703</ele>
        <time>2014-11-02T09:26:43.000Z</time>
      </trkpt>
      <trkpt lat="43.60955" lon="1.15988">
        <ele>282.20001220703</ele>
        <time>2014-11-02T09:26:48.000Z</time>
      </trkpt>
      <trkpt lat="43.60936" lon="1.15998">
        <ele>283</ele>
        <time>2014-11-02T09:26:54.000Z</time>
      </trkpt>
      <trkpt lat="43.6091" lon="1.16007">
        <ele>283.60000610352</ele>
        <time>2014-11-02T09:27:01.000Z</time>
      </trkpt>
      <trkpt lat="43.6088" lon="1.16017">
        <ele>284.39999389648</ele>
        <time>2014-11-02T09:27:09.000Z</time>
      </trkpt>
      <trkpt lat="43.60862" lon="1.16022">
        <ele>284.79998779297</ele>
        <time>2014-11-02T09:27:14.000Z</time>
      </trkpt>
      <trkpt lat="43.60834" lon="1.16029">
        <ele>285.60000610352</ele>
        <time>2014-11-02T09:27:22.000Z</time>
      </trkpt>
      <trkpt lat="43.60819" lon="1.16031">
        <ele>286.20001220703</ele>
        <time>2014-11-02T09:27:27.000Z</time>
      </trkpt>
      <trkpt lat="43.60797" lon="1.16026">
        <ele>286.79998779297</ele>
        <time>2014-11-02T09:27:34.000Z</time>
      </trkpt>
      <trkpt lat="43.60779" lon="1.16017">
        <ele>287.20001220703</ele>
        <time>2014-11-02T09:27:40.000Z</time>
      </trkpt>
      <trkpt lat="43.60762" lon="1.16009">
        <ele>287.79998779297</ele>
        <time>2014-11-02T09:27:46.000Z</time>
      </trkpt>
      <trkpt lat="43.60743" lon="1.16003">
        <ele>288.60000610352</ele>
        <time>2014-11-02T09:27:52.000Z</time>
      </trkpt>
      <trkpt lat="43.60729" lon="1.15995">
        <ele>289.20001220703</ele>
        <time>2014-11-02T09:27:57.000Z</time>
      </trkpt>
      <trkpt lat="43.60707" lon="1.15987">
        <ele>290</ele>
        <time>2014-11-02T09:28:04.000Z</time>
      </trkpt>
      <trkpt lat="43.60687" lon="1.15979">
        <ele>291</ele>
        <time>2014-11-02T09:28:10.000Z</time>
      </trkpt>
      <trkpt lat="43.60655" lon="1.15968">
        <ele>290.39999389648</ele>
        <time>2014-11-02T09:28:19.000Z</time>
      </trkpt>
      <trkpt lat="43.60631" lon="1.15957">
        <ele>289.79998779297</ele>
        <time>2014-11-02T09:28:25.000Z</time>
      </trkpt>
      <trkpt lat="43.60613" lon="1.15947">
        <ele>289.20001220703</ele>
        <time>2014-11-02T09:28:29.000Z</time>
      </trkpt>
      <trkpt lat="43.60599" lon="1.15938">
        <ele>288.79998779297</ele>
        <time>2014-11-02T09:28:32.000Z</time>
      </trkpt>
      <trkpt lat="43.60569" lon="1.15919">
        <ele>288.60000610352</ele>
        <time>2014-11-02T09:28:38.000Z</time>
      </trkpt>
      <trkpt lat="43.60557" lon="1.15908">
        <ele>288.39999389648</ele>
        <time>2014-11-02T09:28:41.000Z</time>
      </trkpt>
      <trkpt lat="43.60544" lon="1.15892">
        <ele>288</ele>
        <time>2014-11-02T09:28:44.000Z</time>
      </trkpt>
      <trkpt lat="43.6054" lon="1.15886">
        <ele>288.20001220703</ele>
        <time>2014-11-02T09:28:45.000Z</time>
      </trkpt>
      <trkpt lat="43.60526" lon="1.15861">
        <ele>288.39999389648</ele>
        <time>2014-11-02T09:28:49.000Z</time>
      </trkpt>
      <trkpt lat="43.6051" lon="1.15827">
        <ele>288.39999389648</ele>
        <time>2014-11-02T09:28:54.000Z</time>
      </trkpt>
      <trkpt lat="43.605" lon="1.15808">
        <ele>288.39999389648</ele>
        <time>2014-11-02T09:28:57.000Z</time>
      </trkpt>
      <trkpt lat="43.60476" lon="1.15759">
        <ele>288.79998779297</ele>
        <time>2014-11-02T09:29:05.000Z</time>
      </trkpt>
      <trkpt lat="43.60446" lon="1.15698">
        <ele>289.39999389648</ele>
        <time>2014-11-02T09:29:15.000Z</time>
      </trkpt>
      <trkpt lat="43.60421" lon="1.15648">
        <ele>290.39999389648</ele>
        <time>2014-11-02T09:29:23.000Z</time>
      </trkpt>
      <trkpt lat="43.60389" lon="1.15594">
        <ele>290.60000610352</ele>
        <time>2014-11-02T09:29:31.000Z</time>
      </trkpt>
      <trkpt lat="43.60352" lon="1.15533">
        <ele>292.60000610352</ele>
        <time>2014-11-02T09:29:40.000Z</time>
      </trkpt>
      <trkpt lat="43.60322" lon="1.15485">
        <ele>295.20001220703</ele>
        <time>2014-11-02T09:29:47.000Z</time>
      </trkpt>
      <trkpt lat="43.60302" lon="1.15464">
        <ele>294.79998779297</ele>
        <time>2014-11-02T09:29:51.000Z</time>
      </trkpt>
      <trkpt lat="43.60297" lon="1.15459">
        <ele>294.39999389648</ele>
        <time>2014-11-02T09:29:52.000Z</time>
      </trkpt>
      <trkpt lat="43.60256" lon="1.15431">
        <ele>293</ele>
        <time>2014-11-02T09:29:59.000Z</time>
      </trkpt>
      <trkpt lat="43.60212" lon="1.15401">
        <ele>292.79998779297</ele>
        <time>2014-11-02T09:30:06.000Z</time>
      </trkpt>
      <trkpt lat="43.60189" lon="1.15377">
        <ele>292.60000610352</ele>
        <time>2014-11-02T09:30:10.000Z</time>
      </trkpt>
      <trkpt lat="43.6018" lon="1.1536">
        <ele>292.39999389648</ele>
        <time>2014-11-02T09:30:12.000Z</time>
      </trkpt>
      <trkpt lat="43.6016" lon="1.15307">
        <ele>291.20001220703</ele>
        <time>2014-11-02T09:30:18.000Z</time>
      </trkpt>
      <trkpt lat="43.6014" lon="1.15244">
        <ele>291.20001220703</ele>
        <time>2014-11-02T09:30:25.000Z</time>
      </trkpt>
      <trkpt lat="43.60122" lon="1.15196">
        <ele>292.20001220703</ele>
        <time>2014-11-02T09:30:31.000Z</time>
      </trkpt>
      <trkpt lat="43.60112" lon="1.15171">
        <ele>293</ele>
        <time>2014-11-02T09:30:34.000Z</time>
      </trkpt>
      <trkpt lat="43.60103" lon="1.15157">
        <ele>293.39999389648</ele>
        <time>2014-11-02T09:30:36.000Z</time>
      </trkpt>
      <trkpt lat="43.60075" lon="1.15123">
        <ele>292.60000610352</ele>
        <time>2014-11-02T09:30:41.000Z</time>
      </trkpt>
      <trkpt lat="43.60052" lon="1.15107">
        <ele>291.39999389648</ele>
        <time>2014-11-02T09:30:44.000Z</time>
      </trkpt>
      <trkpt lat="43.60044" lon="1.15104">
        <ele>290.79998779297</ele>
        <time>2014-11-02T09:30:45.000Z</time>
      </trkpt>
      <trkpt lat="43.60012" lon="1.15098">
        <ele>289.20001220703</ele>
        <time>2014-11-02T09:30:49.000Z</time>
      </trkpt>
      <trkpt lat="43.5997" lon="1.15097">
        <ele>289.60000610352</ele>
        <time>2014-11-02T09:30:55.000Z</time>
      </trkpt>
      <trkpt lat="43.59934" lon="1.15105">
        <ele>289.39999389648</ele>
        <time>2014-11-02T09:31:01.000Z</time>
      </trkpt>
      <trkpt lat="43.59899" lon="1.15116">
        <ele>289.39999389648</ele>
        <time>2014-11-02T09:31:07.000Z</time>
      </trkpt>
      <trkpt lat="43.59865" lon="1.1512">
        <ele>291.60000610352</ele>
        <time>2014-11-02T09:31:13.000Z</time>
      </trkpt>
      <trkpt lat="43.5986" lon="1.1512">
        <ele>292</ele>
        <time>2014-11-02T09:31:14.000Z</time>
      </trkpt>
      <trkpt lat="43.59843" lon="1.15116">
        <ele>293</ele>
        <time>2014-11-02T09:31:17.000Z</time>
      </trkpt>
      <trkpt lat="43.59832" lon="1.15114">
        <ele>294</ele>
        <time>2014-11-02T09:31:19.000Z</time>
      </trkpt>
      <trkpt lat="43.59811" lon="1.15106">
        <ele>295.39999389648</ele>
        <time>2014-11-02T09:31:23.000Z</time>
      </trkpt>
      <trkpt lat="43.59802" lon="1.15102">
        <ele>295.79998779297</ele>
        <time>2014-11-02T09:31:25.000Z</time>
      </trkpt>
      <trkpt lat="43.5977" lon="1.15087">
        <ele>297.60000610352</ele>
        <time>2014-11-02T09:31:32.000Z</time>
      </trkpt>
      <trkpt lat="43.59765" lon="1.15086">
        <ele>297.79998779297</ele>
        <time>2014-11-02T09:31:33.000Z</time>
      </trkpt>
      <trkpt lat="43.59743" lon="1.15076">
        <ele>298.39999389648</ele>
        <time>2014-11-02T09:31:38.000Z</time>
      </trkpt>
      <trkpt lat="43.59729" lon="1.1507">
        <ele>298.79998779297</ele>
        <time>2014-11-02T09:31:41.000Z</time>
      </trkpt>
      <trkpt lat="43.59715" lon="1.15066">
        <ele>299.20001220703</ele>
        <time>2014-11-02T09:31:44.000Z</time>
      </trkpt>
      <trkpt lat="43.59694" lon="1.15064">
        <ele>299.79998779297</ele>
        <time>2014-11-02T09:31:48.000Z</time>
      </trkpt>
      <trkpt lat="43.59677" lon="1.15066">
        <ele>299.60000610352</ele>
        <time>2014-11-02T09:31:51.000Z</time>
      </trkpt>
      <trkpt lat="43.59653" lon="1.15072">
        <ele>298.20001220703</ele>
        <time>2014-11-02T09:31:55.000Z</time>
      </trkpt>
      <trkpt lat="43.59647" lon="1.15075">
        <ele>297.79998779297</ele>
        <time>2014-11-02T09:31:56.000Z</time>
      </trkpt>
      <trkpt lat="43.59604" lon="1.15092">
        <ele>295</ele>
        <time>2014-11-02T09:32:02.000Z</time>
      </trkpt>
      <trkpt lat="43.59567" lon="1.15092">
        <ele>295.20001220703</ele>
        <time>2014-11-02T09:32:07.000Z</time>
      </trkpt>
      <trkpt lat="43.59534" lon="1.15081">
        <ele>296.39999389648</ele>
        <time>2014-11-02T09:32:12.000Z</time>
      </trkpt>
      <trkpt lat="43.59493" lon="1.15064">
        <ele>298</ele>
        <time>2014-11-02T09:32:19.000Z</time>
      </trkpt>
      <trkpt lat="43.59465" lon="1.15051">
        <ele>299</ele>
        <time>2014-11-02T09:32:25.000Z</time>
      </trkpt>
      <trkpt lat="43.5943" lon="1.15037">
        <ele>300</ele>
        <time>2014-11-02T09:32:32.000Z</time>
      </trkpt>
      <trkpt lat="43.59394" lon="1.15017">
        <ele>300</ele>
        <time>2014-11-02T09:32:39.000Z</time>
      </trkpt>
      <trkpt lat="43.5936" lon="1.14988">
        <ele>300</ele>
        <time>2014-11-02T09:32:46.000Z</time>
      </trkpt>
      <trkpt lat="43.59316" lon="1.1495">
        <ele>299.79998779297</ele>
        <time>2014-11-02T09:32:55.000Z</time>
      </trkpt>
      <trkpt lat="43.59272" lon="1.14916">
        <ele>299.79998779297</ele>
        <time>2014-11-02T09:33:04.000Z</time>
      </trkpt>
      <trkpt lat="43.59234" lon="1.14897">
        <ele>301.20001220703</ele>
        <time>2014-11-02T09:33:11.000Z</time>
      </trkpt>
      <trkpt lat="43.59198" lon="1.1488">
        <ele>302.60000610352</ele>
        <time>2014-11-02T09:33:18.000Z</time>
      </trkpt>
      <trkpt lat="43.59187" lon="1.14877">
        <ele>303</ele>
        <time>2014-11-02T09:33:20.000Z</time>
      </trkpt>
      <trkpt lat="43.59172" lon="1.14882">
        <ele>302.60000610352</ele>
        <time>2014-11-02T09:33:23.000Z</time>
      </trkpt>
      <trkpt lat="43.59163" lon="1.149">
        <ele>302.39999389648</ele>
        <time>2014-11-02T09:33:26.000Z</time>
      </trkpt>
      <trkpt lat="43.59158" lon="1.14914">
        <ele>301.79998779297</ele>
        <time>2014-11-02T09:33:28.000Z</time>
      </trkpt>
      <trkpt lat="43.59151" lon="1.14935">
        <ele>301.20001220703</ele>
        <time>2014-11-02T09:33:31.000Z</time>
      </trkpt>
      <trkpt lat="43.59147" lon="1.1494">
        <ele>301</ele>
        <time>2014-11-02T09:33:32.000Z</time>
      </trkpt>
      <trkpt lat="43.59131" lon="1.14939">
        <ele>301.20001220703</ele>
        <time>2014-11-02T09:33:35.000Z</time>
      </trkpt>
      <trkpt lat="43.59121" lon="1.14931">
        <ele>301.20001220703</ele>
        <time>2014-11-02T09:33:37.000Z</time>
      </trkpt>
      <trkpt lat="43.59116" lon="1.14928">
        <ele>301.20001220703</ele>
        <time>2014-11-02T09:33:38.000Z</time>
      </trkpt>
      <trkpt lat="43.59112" lon="1.14925">
        <ele>301.20001220703</ele>
        <time>2014-11-02T09:33:39.000Z</time>
      </trkpt>
      <trkpt lat="43.59093" lon="1.14911">
        <ele>300.39999389648</ele>
        <time>2014-11-02T09:33:44.000Z</time>
      </trkpt>
      <trkpt lat="43.59091" lon="1.14906">
        <ele>300.20001220703</ele>
        <time>2014-11-02T09:33:45.000Z</time>
      </trkpt>
      <trkpt lat="43.59088" lon="1.14894">
        <ele>299.60000610352</ele>
        <time>2014-11-02T09:33:47.000Z</time>
      </trkpt>
      <trkpt lat="43.59083" lon="1.14881">
        <ele>299.39999389648</ele>
        <time>2014-11-02T09:33:49.000Z</time>
      </trkpt>
      <trkpt lat="43.5908" lon="1.14874">
        <ele>299.20001220703</ele>
        <time>2014-11-02T09:33:50.000Z</time>
      </trkpt>
      <trkpt lat="43.59068" lon="1.14844">
        <ele>298</ele>
        <time>2014-11-02T09:33:54.000Z</time>
      </trkpt>
      <trkpt lat="43.59062" lon="1.14827">
        <ele>297.39999389648</ele>
        <time>2014-11-02T09:33:56.000Z</time>
      </trkpt>
      <trkpt lat="43.59034" lon="1.1476">
        <ele>297</ele>
        <time>2014-11-02T09:34:03.000Z</time>
      </trkpt>
      <trkpt lat="43.59011" lon="1.14704">
        <ele>297.39999389648</ele>
        <time>2014-11-02T09:34:08.000Z</time>
      </trkpt>
      <trkpt lat="43.58996" lon="1.14666">
        <ele>298</ele>
        <time>2014-11-02T09:34:12.000Z</time>
      </trkpt>
      <trkpt lat="43.58975" lon="1.14616">
        <ele>299.79998779297</ele>
        <time>2014-11-02T09:34:18.000Z</time>
      </trkpt>
      <trkpt lat="43.58951" lon="1.14562">
        <ele>301.79998779297</ele>
        <time>2014-11-02T09:34:25.000Z</time>
      </trkpt>
      <trkpt lat="43.58926" lon="1.14528">
        <ele>302.20001220703</ele>
        <time>2014-11-02T09:34:30.000Z</time>
      </trkpt>
      <trkpt lat="43.58891" lon="1.14495">
        <ele>301</ele>
        <time>2014-11-02T09:34:36.000Z</time>
      </trkpt>
      <trkpt lat="43.58852" lon="1.14471">
        <ele>299.79998779297</ele>
        <time>2014-11-02T09:34:42.000Z</time>
      </trkpt>
      <trkpt lat="43.58806" lon="1.14445">
        <ele>301</ele>
        <time>2014-11-02T09:34:49.000Z</time>
      </trkpt>
      <trkpt lat="43.58755" lon="1.14416">
        <ele>301.79998779297</ele>
        <time>2014-11-02T09:34:57.000Z</time>
      </trkpt>
      <trkpt lat="43.58749" lon="1.14413">
        <ele>302</ele>
        <time>2014-11-02T09:34:58.000Z</time>
      </trkpt>
      <trkpt lat="43.58697" lon="1.14384">
        <ele>302.79998779297</ele>
        <time>2014-11-02T09:35:06.000Z</time>
      </trkpt>
      <trkpt lat="43.58652" lon="1.14359">
        <ele>303</ele>
        <time>2014-11-02T09:35:13.000Z</time>
      </trkpt>
      <trkpt lat="43.58612" lon="1.14337">
        <ele>303.20001220703</ele>
        <time>2014-11-02T09:35:19.000Z</time>
      </trkpt>
      <trkpt lat="43.58556" lon="1.14305">
        <ele>303</ele>
        <time>2014-11-02T09:35:27.000Z</time>
      </trkpt>
      <trkpt lat="43.58549" lon="1.143">
        <ele>302.79998779297</ele>
        <time>2014-11-02T09:35:28.000Z</time>
      </trkpt>
      <trkpt lat="43.58512" lon="1.14268">
        <ele>302.60000610352</ele>
        <time>2014-11-02T09:35:34.000Z</time>
      </trkpt>
      <trkpt lat="43.58506" lon="1.14262">
        <ele>302.60000610352</ele>
        <time>2014-11-02T09:35:35.000Z</time>
      </trkpt>
      <trkpt lat="43.58477" lon="1.14232">
        <ele>302.60000610352</ele>
        <time>2014-11-02T09:35:41.000Z</time>
      </trkpt>
      <trkpt lat="43.58445" lon="1.14202">
        <ele>303.39999389648</ele>
        <time>2014-11-02T09:35:48.000Z</time>
      </trkpt>
      <trkpt lat="43.5844" lon="1.142">
        <ele>303.60000610352</ele>
        <time>2014-11-02T09:35:49.000Z</time>
      </trkpt>
      <trkpt lat="43.5841" lon="1.14184">
        <ele>304</ele>
        <time>2014-11-02T09:35:56.000Z</time>
      </trkpt>
      <trkpt lat="43.58402" lon="1.14179">
        <ele>304.20001220703</ele>
        <time>2014-11-02T09:35:58.000Z</time>
      </trkpt>
      <trkpt lat="43.58389" lon="1.14182">
        <ele>304</ele>
        <time>2014-11-02T09:36:00.000Z</time>
      </trkpt>
      <trkpt lat="43.58378" lon="1.14188">
        <ele>304.20001220703</ele>
        <time>2014-11-02T09:36:02.000Z</time>
      </trkpt>
      <trkpt lat="43.58373" lon="1.1419">
        <ele>304.20001220703</ele>
        <time>2014-11-02T09:36:03.000Z</time>
      </trkpt>
      <trkpt lat="43.58367" lon="1.14191">
        <ele>304.20001220703</ele>
        <time>2014-11-02T09:36:04.000Z</time>
      </trkpt>
      <trkpt lat="43.58361" lon="1.14191">
        <ele>304.39999389648</ele>
        <time>2014-11-02T09:36:05.000Z</time>
      </trkpt>
      <trkpt lat="43.58349" lon="1.14191">
        <ele>304.39999389648</ele>
        <time>2014-11-02T09:36:07.000Z</time>
      </trkpt>
      <trkpt lat="43.58339" lon="1.14191">
        <ele>304.60000610352</ele>
        <time>2014-11-02T09:36:09.000Z</time>
      </trkpt>
      <trkpt lat="43.58304" lon="1.14189">
        <ele>305.20001220703</ele>
        <time>2014-11-02T09:36:16.000Z</time>
      </trkpt>
      <trkpt lat="43.58273" lon="1.14185">
        <ele>305.79998779297</ele>
        <time>2014-11-02T09:36:21.000Z</time>
      </trkpt>
      <trkpt lat="43.58267" lon="1.14183">
        <ele>306</ele>
        <time>2014-11-02T09:36:22.000Z</time>
      </trkpt>
      <trkpt lat="43.58243" lon="1.14174">
        <ele>305.39999389648</ele>
        <time>2014-11-02T09:36:26.000Z</time>
      </trkpt>
      <trkpt lat="43.58225" lon="1.14182">
        <ele>305</ele>
        <time>2014-11-02T09:36:29.000Z</time>
      </trkpt>
      <trkpt lat="43.58207" lon="1.14176">
        <ele>304.79998779297</ele>
        <time>2014-11-02T09:36:32.000Z</time>
      </trkpt>
      <trkpt lat="43.58194" lon="1.14153">
        <ele>304.20001220703</ele>
        <time>2014-11-02T09:36:35.000Z</time>
      </trkpt>
      <trkpt lat="43.58186" lon="1.14115">
        <ele>304.39999389648</ele>
        <time>2014-11-02T09:36:39.000Z</time>
      </trkpt>
      <trkpt lat="43.58179" lon="1.14044">
        <ele>304.60000610352</ele>
        <time>2014-11-02T09:36:46.000Z</time>
      </trkpt>
      <trkpt lat="43.58167" lon="1.1397">
        <ele>303.79998779297</ele>
        <time>2014-11-02T09:36:53.000Z</time>
      </trkpt>
      <trkpt lat="43.58165" lon="1.1396">
        <ele>303.60000610352</ele>
        <time>2014-11-02T09:36:54.000Z</time>
      </trkpt>
      <trkpt lat="43.58149" lon="1.13886">
        <ele>302.39999389648</ele>
        <time>2014-11-02T09:37:01.000Z</time>
      </trkpt>
      <trkpt lat="43.58147" lon="1.13875">
        <ele>302.20001220703</ele>
        <time>2014-11-02T09:37:02.000Z</time>
      </trkpt>
      <trkpt lat="43.58134" lon="1.138">
        <ele>301</ele>
        <time>2014-11-02T09:37:09.000Z</time>
      </trkpt>
      <trkpt lat="43.5813" lon="1.13779">
        <ele>301</ele>
        <time>2014-11-02T09:37:11.000Z</time>
      </trkpt>
      <trkpt lat="43.58117" lon="1.13699">
        <ele>302.20001220703</ele>
        <time>2014-11-02T09:37:18.000Z</time>
      </trkpt>
      <trkpt lat="43.58115" lon="1.13687">
        <ele>302.60000610352</ele>
        <time>2014-11-02T09:37:19.000Z</time>
      </trkpt>
      <trkpt lat="43.58101" lon="1.13605">
        <ele>303.60000610352</ele>
        <time>2014-11-02T09:37:26.000Z</time>
      </trkpt>
      <trkpt lat="43.58099" lon="1.13593">
        <ele>303.39999389648</ele>
        <time>2014-11-02T09:37:27.000Z</time>
      </trkpt>
      <trkpt lat="43.58097" lon="1.13569">
        <ele>303.20001220703</ele>
        <time>2014-11-02T09:37:29.000Z</time>
      </trkpt>
      <trkpt lat="43.58095" lon="1.1352">
        <ele>304</ele>
        <time>2014-11-02T09:37:33.000Z</time>
      </trkpt>
      <trkpt lat="43.58098" lon="1.13461">
        <ele>305</ele>
        <time>2014-11-02T09:37:38.000Z</time>
      </trkpt>
      <trkpt lat="43.58108" lon="1.13382">
        <ele>305</ele>
        <time>2014-11-02T09:37:45.000Z</time>
      </trkpt>
      <trkpt lat="43.58109" lon="1.13372">
        <ele>305</ele>
        <time>2014-11-02T09:37:46.000Z</time>
      </trkpt>
      <trkpt lat="43.5811" lon="1.13307">
        <ele>304.20001220703</ele>
        <time>2014-11-02T09:37:52.000Z</time>
      </trkpt>
      <trkpt lat="43.58108" lon="1.13296">
        <ele>304</ele>
        <time>2014-11-02T09:37:53.000Z</time>
      </trkpt>
      <trkpt lat="43.58095" lon="1.1327">
        <ele>303.39999389648</ele>
        <time>2014-11-02T09:37:56.000Z</time>
      </trkpt>
      <trkpt lat="43.5807" lon="1.13246">
        <ele>302.20001220703</ele>
        <time>2014-11-02T09:38:00.000Z</time>
      </trkpt>
      <trkpt lat="43.58057" lon="1.13238">
        <ele>301.79998779297</ele>
        <time>2014-11-02T09:38:02.000Z</time>
      </trkpt>
      <trkpt lat="43.58044" lon="1.13231">
        <ele>301.39999389648</ele>
        <time>2014-11-02T09:38:04.000Z</time>
      </trkpt>
      <trkpt lat="43.5803" lon="1.13224">
        <ele>301.20001220703</ele>
        <time>2014-11-02T09:38:06.000Z</time>
      </trkpt>
      <trkpt lat="43.57983" lon="1.13198">
        <ele>300.79998779297</ele>
        <time>2014-11-02T09:38:13.000Z</time>
      </trkpt>
      <trkpt lat="43.57969" lon="1.13191">
        <ele>300.79998779297</ele>
        <time>2014-11-02T09:38:15.000Z</time>
      </trkpt>
      <trkpt lat="43.57951" lon="1.1318">
        <ele>300.60000610352</ele>
        <time>2014-11-02T09:38:18.000Z</time>
      </trkpt>
      <trkpt lat="43.57906" lon="1.13157">
        <ele>300.39999389648</ele>
        <time>2014-11-02T09:38:25.000Z</time>
      </trkpt>
      <trkpt lat="43.57863" lon="1.13142">
        <ele>300</ele>
        <time>2014-11-02T09:38:32.000Z</time>
      </trkpt>
      <trkpt lat="43.57809" lon="1.13129">
        <ele>299.20001220703</ele>
        <time>2014-11-02T09:38:41.000Z</time>
      </trkpt>
      <trkpt lat="43.57767" lon="1.13111">
        <ele>298.20001220703</ele>
        <time>2014-11-02T09:38:47.000Z</time>
      </trkpt>
      <trkpt lat="43.5774" lon="1.13081">
        <ele>298.39999389648</ele>
        <time>2014-11-02T09:38:51.000Z</time>
      </trkpt>
      <trkpt lat="43.57725" lon="1.13049">
        <ele>298.60000610352</ele>
        <time>2014-11-02T09:38:54.000Z</time>
      </trkpt>
      <trkpt lat="43.5772" lon="1.13039">
        <ele>298.79998779297</ele>
        <time>2014-11-02T09:38:55.000Z</time>
      </trkpt>
      <trkpt lat="43.57695" lon="1.12975">
        <ele>299.20001220703</ele>
        <time>2014-11-02T09:39:01.000Z</time>
      </trkpt>
      <trkpt lat="43.57671" lon="1.12926">
        <ele>296.39999389648</ele>
        <time>2014-11-02T09:39:06.000Z</time>
      </trkpt>
      <trkpt lat="43.57664" lon="1.12918">
        <ele>296</ele>
        <time>2014-11-02T09:39:07.000Z</time>
      </trkpt>
      <trkpt lat="43.57632" lon="1.12897">
        <ele>294.79998779297</ele>
        <time>2014-11-02T09:39:11.000Z</time>
      </trkpt>
      <trkpt lat="43.57602" lon="1.12892">
        <ele>294.79998779297</ele>
        <time>2014-11-02T09:39:14.000Z</time>
      </trkpt>
      <trkpt lat="43.57592" lon="1.1289">
        <ele>294.39999389648</ele>
        <time>2014-11-02T09:39:15.000Z</time>
      </trkpt>
      <trkpt lat="43.57529" lon="1.12882">
        <ele>293.20001220703</ele>
        <time>2014-11-02T09:39:21.000Z</time>
      </trkpt>
      <trkpt lat="43.5747" lon="1.12873">
        <ele>289</ele>
        <time>2014-11-02T09:39:26.000Z</time>
      </trkpt>
      <trkpt lat="43.57458" lon="1.12872">
        <ele>288.20001220703</ele>
        <time>2014-11-02T09:39:27.000Z</time>
      </trkpt>
      <trkpt lat="43.574" lon="1.12869">
        <ele>285.79998779297</ele>
        <time>2014-11-02T09:39:32.000Z</time>
      </trkpt>
      <trkpt lat="43.57388" lon="1.12868">
        <ele>285.39999389648</ele>
        <time>2014-11-02T09:39:33.000Z</time>
      </trkpt>
      <trkpt lat="43.57332" lon="1.12867">
        <ele>282.39999389648</ele>
        <time>2014-11-02T09:39:38.000Z</time>
      </trkpt>
      <trkpt lat="43.57298" lon="1.12867">
        <ele>280.60000610352</ele>
        <time>2014-11-02T09:39:41.000Z</time>
      </trkpt>
      <trkpt lat="43.57241" lon="1.12865">
        <ele>276.60000610352</ele>
        <time>2014-11-02T09:39:46.000Z</time>
      </trkpt>
      <trkpt lat="43.57228" lon="1.12865">
        <ele>275.20001220703</ele>
        <time>2014-11-02T09:39:47.000Z</time>
      </trkpt>
      <trkpt lat="43.57204" lon="1.12865">
        <ele>272.20001220703</ele>
        <time>2014-11-02T09:39:49.000Z</time>
      </trkpt>
      <trkpt lat="43.57146" lon="1.12878">
        <ele>267.20001220703</ele>
        <time>2014-11-02T09:39:54.000Z</time>
      </trkpt>
      <trkpt lat="43.57104" lon="1.12901">
        <ele>264</ele>
        <time>2014-11-02T09:39:58.000Z</time>
      </trkpt>
      <trkpt lat="43.57095" lon="1.12911">
        <ele>263</ele>
        <time>2014-11-02T09:39:59.000Z</time>
      </trkpt>
      <trkpt lat="43.57074" lon="1.12946">
        <ele>261.60000610352</ele>
        <time>2014-11-02T09:40:02.000Z</time>
      </trkpt>
      <trkpt lat="43.57069" lon="1.12958">
        <ele>260.79998779297</ele>
        <time>2014-11-02T09:40:03.000Z</time>
      </trkpt>
      <trkpt lat="43.57055" lon="1.12996">
        <ele>258.79998779297</ele>
        <time>2014-11-02T09:40:06.000Z</time>
      </trkpt>
      <trkpt lat="43.57028" lon="1.13061">
        <ele>255</ele>
        <time>2014-11-02T09:40:11.000Z</time>
      </trkpt>
      <trkpt lat="43.57021" lon="1.13074">
        <ele>253.60000610352</ele>
        <time>2014-11-02T09:40:12.000Z</time>
      </trkpt>
      <trkpt lat="43.56982" lon="1.13144">
        <ele>249.19999694824</ele>
        <time>2014-11-02T09:40:18.000Z</time>
      </trkpt>
      <trkpt lat="43.56944" lon="1.13212">
        <ele>244.19999694824</ele>
        <time>2014-11-02T09:40:24.000Z</time>
      </trkpt>
      <trkpt lat="43.56938" lon="1.13224">
        <ele>243.39999389648</ele>
        <time>2014-11-02T09:40:25.000Z</time>
      </trkpt>
      <trkpt lat="43.56899" lon="1.1329">
        <ele>239.19999694824</ele>
        <time>2014-11-02T09:40:31.000Z</time>
      </trkpt>
      <trkpt lat="43.5689" lon="1.13298">
        <ele>238.39999389648</ele>
        <time>2014-11-02T09:40:32.000Z</time>
      </trkpt>
      <trkpt lat="43.56859" lon="1.13308">
        <ele>236.39999389648</ele>
        <time>2014-11-02T09:40:35.000Z</time>
      </trkpt>
      <trkpt lat="43.56826" lon="1.13297">
        <ele>236.60000610352</ele>
        <time>2014-11-02T09:40:38.000Z</time>
      </trkpt>
      <trkpt lat="43.56815" lon="1.13292">
        <ele>236.80000305176</ele>
        <time>2014-11-02T09:40:39.000Z</time>
      </trkpt>
      <trkpt lat="43.56764" lon="1.13267">
        <ele>238</ele>
        <time>2014-11-02T09:40:44.000Z</time>
      </trkpt>
      <trkpt lat="43.56756" lon="1.13258">
        <ele>238.39999389648</ele>
        <time>2014-11-02T09:40:45.000Z</time>
      </trkpt>
      <trkpt lat="43.56742" lon="1.13237">
        <ele>239</ele>
        <time>2014-11-02T09:40:47.000Z</time>
      </trkpt>
      <trkpt lat="43.56726" lon="1.13204">
        <ele>239.80000305176</ele>
        <time>2014-11-02T09:40:50.000Z</time>
      </trkpt>
      <trkpt lat="43.56722" lon="1.13194">
        <ele>240</ele>
        <time>2014-11-02T09:40:51.000Z</time>
      </trkpt>
      <trkpt lat="43.56703" lon="1.13156">
        <ele>240.60000610352</ele>
        <time>2014-11-02T09:40:55.000Z</time>
      </trkpt>
      <trkpt lat="43.56699" lon="1.13148">
        <ele>240.80000305176</ele>
        <time>2014-11-02T09:40:56.000Z</time>
      </trkpt>
      <trkpt lat="43.56696" lon="1.13139">
        <ele>241.19999694824</ele>
        <time>2014-11-02T09:40:57.000Z</time>
      </trkpt>
      <trkpt lat="43.56682" lon="1.1311">
        <ele>242.80000305176</ele>
        <time>2014-11-02T09:41:01.000Z</time>
      </trkpt>
      <trkpt lat="43.56665" lon="1.13076">
        <ele>245.19999694824</ele>
        <time>2014-11-02T09:41:07.000Z</time>
      </trkpt>
      <trkpt lat="43.56651" lon="1.13045">
        <ele>247.39999389648</ele>
        <time>2014-11-02T09:41:13.000Z</time>
      </trkpt>
      <trkpt lat="43.56633" lon="1.13006">
        <ele>250</ele>
        <time>2014-11-02T09:41:21.000Z</time>
      </trkpt>
      <trkpt lat="43.56617" lon="1.12979">
        <ele>251.80000305176</ele>
        <time>2014-11-02T09:41:27.000Z</time>
      </trkpt>
      <trkpt lat="43.56615" lon="1.12975">
        <ele>252</ele>
        <time>2014-11-02T09:41:28.000Z</time>
      </trkpt>
      <trkpt lat="43.5661" lon="1.12968">
        <ele>252.60000610352</ele>
        <time>2014-11-02T09:41:30.000Z</time>
      </trkpt>
      <trkpt lat="43.56601" lon="1.12957">
        <ele>253.19999694824</ele>
        <time>2014-11-02T09:41:33.000Z</time>
      </trkpt>
      <trkpt lat="43.56582" lon="1.1294">
        <ele>254.80000305176</ele>
        <time>2014-11-02T09:41:39.000Z</time>
      </trkpt>
      <trkpt lat="43.56562" lon="1.12925">
        <ele>256.39999389648</ele>
        <time>2014-11-02T09:41:45.000Z</time>
      </trkpt>
      <trkpt lat="43.56533" lon="1.12905">
        <ele>258.79998779297</ele>
        <time>2014-11-02T09:41:53.000Z</time>
      </trkpt>
      <trkpt lat="43.56507" lon="1.12886">
        <ele>261.79998779297</ele>
        <time>2014-11-02T09:42:01.000Z</time>
      </trkpt>
      <trkpt lat="43.56474" lon="1.12864">
        <ele>267.39999389648</ele>
        <time>2014-11-02T09:42:11.000Z</time>
      </trkpt>
      <trkpt lat="43.56453" lon="1.12848">
        <ele>271</ele>
        <time>2014-11-02T09:42:18.000Z</time>
      </trkpt>
      <trkpt lat="43.56432" lon="1.12834">
        <ele>274.60000610352</ele>
        <time>2014-11-02T09:42:25.000Z</time>
      </trkpt>
      <trkpt lat="43.56415" lon="1.12821">
        <ele>277.20001220703</ele>
        <time>2014-11-02T09:42:31.000Z</time>
      </trkpt>
      <trkpt lat="43.56395" lon="1.12811">
        <ele>279.79998779297</ele>
        <time>2014-11-02T09:42:37.000Z</time>
      </trkpt>
      <trkpt lat="43.56374" lon="1.128">
        <ele>281.39999389648</ele>
        <time>2014-11-02T09:42:44.000Z</time>
      </trkpt>
      <trkpt lat="43.56354" lon="1.12797">
        <ele>283.20001220703</ele>
        <time>2014-11-02T09:42:50.000Z</time>
      </trkpt>
      <trkpt lat="43.56329" lon="1.12796">
        <ele>283.60000610352</ele>
        <time>2014-11-02T09:42:58.000Z</time>
      </trkpt>
      <trkpt lat="43.56316" lon="1.12797">
        <ele>283.60000610352</ele>
        <time>2014-11-02T09:43:03.000Z</time>
      </trkpt>
      <trkpt lat="43.56303" lon="1.12795">
        <ele>283.60000610352</ele>
        <time>2014-11-02T09:43:08.000Z</time>
      </trkpt>
      <trkpt lat="43.56282" lon="1.12798">
        <ele>283.79998779297</ele>
        <time>2014-11-02T09:43:15.000Z</time>
      </trkpt>
      <trkpt lat="43.56276" lon="1.128">
        <ele>283.79998779297</ele>
        <time>2014-11-02T09:43:19.000Z</time>
      </trkpt>
      <trkpt lat="43.56274" lon="1.12799">
        <ele>283.79998779297</ele>
        <time>2014-11-02T09:43:20.000Z</time>
      </trkpt>
      <trkpt lat="43.56276" lon="1.12795">
        <ele>283.60000610352</ele>
        <time>2014-11-02T09:43:23.000Z</time>
      </trkpt>
      <trkpt lat="43.56282" lon="1.12791">
        <ele>283.60000610352</ele>
        <time>2014-11-02T09:43:29.000Z</time>
      </trkpt>
      <trkpt lat="43.56288" lon="1.12792">
        <ele>283.60000610352</ele>
        <time>2014-11-02T09:43:34.000Z</time>
      </trkpt>
      <trkpt lat="43.56292" lon="1.12803">
        <ele>283.79998779297</ele>
        <time>2014-11-02T09:43:39.000Z</time>
      </trkpt>
      <trkpt lat="43.56288" lon="1.12812">
        <ele>284</ele>
        <time>2014-11-02T09:43:41.000Z</time>
      </trkpt>
      <trkpt lat="43.56287" lon="1.12822">
        <ele>283.60000610352</ele>
        <time>2014-11-02T09:43:43.000Z</time>
      </trkpt>
      <trkpt lat="43.56285" lon="1.1286">
        <ele>283</ele>
        <time>2014-11-02T09:43:51.000Z</time>
      </trkpt>
      <trkpt lat="43.56282" lon="1.12894">
        <ele>282.60000610352</ele>
        <time>2014-11-02T09:43:58.000Z</time>
      </trkpt>
      <trkpt lat="43.56279" lon="1.12923">
        <ele>282.79998779297</ele>
        <time>2014-11-02T09:44:04.000Z</time>
      </trkpt>
      <trkpt lat="43.56274" lon="1.12959">
        <ele>284.60000610352</ele>
        <time>2014-11-02T09:44:11.000Z</time>
      </trkpt>
      <trkpt lat="43.56269" lon="1.12995">
        <ele>286.20001220703</ele>
        <time>2014-11-02T09:44:18.000Z</time>
      </trkpt>
      <trkpt lat="43.56266" lon="1.13035">
        <ele>287.20001220703</ele>
        <time>2014-11-02T09:44:25.000Z</time>
      </trkpt>
      <trkpt lat="43.56268" lon="1.13081">
        <ele>288</ele>
        <time>2014-11-02T09:44:32.000Z</time>
      </trkpt>
      <trkpt lat="43.56265" lon="1.13134">
        <ele>287.79998779297</ele>
        <time>2014-11-02T09:44:39.000Z</time>
      </trkpt>
      <trkpt lat="43.56257" lon="1.13193">
        <ele>288.20001220703</ele>
        <time>2014-11-02T09:44:47.000Z</time>
      </trkpt>
      <trkpt lat="43.56245" lon="1.13258">
        <ele>286</ele>
        <time>2014-11-02T09:44:56.000Z</time>
      </trkpt>
      <trkpt lat="43.56239" lon="1.13286">
        <ele>284.20001220703</ele>
        <time>2014-11-02T09:45:00.000Z</time>
      </trkpt>
      <trkpt lat="43.56232" lon="1.13306">
        <ele>283</ele>
        <time>2014-11-02T09:45:03.000Z</time>
      </trkpt>
      <trkpt lat="43.56226" lon="1.13329">
        <ele>282</ele>
        <time>2014-11-02T09:45:06.000Z</time>
      </trkpt>
      <trkpt lat="43.56225" lon="1.13345">
        <ele>281.60000610352</ele>
        <time>2014-11-02T09:45:08.000Z</time>
      </trkpt>
      <trkpt lat="43.5623" lon="1.13379">
        <ele>279.60000610352</ele>
        <time>2014-11-02T09:45:12.000Z</time>
      </trkpt>
      <trkpt lat="43.56243" lon="1.13444">
        <ele>278.39999389648</ele>
        <time>2014-11-02T09:45:19.000Z</time>
      </trkpt>
      <trkpt lat="43.56249" lon="1.13483">
        <ele>277.60000610352</ele>
        <time>2014-11-02T09:45:23.000Z</time>
      </trkpt>
      <trkpt lat="43.56254" lon="1.13528">
        <ele>274.79998779297</ele>
        <time>2014-11-02T09:45:28.000Z</time>
      </trkpt>
      <trkpt lat="43.56259" lon="1.1357">
        <ele>273.20001220703</ele>
        <time>2014-11-02T09:45:33.000Z</time>
      </trkpt>
      <trkpt lat="43.56266" lon="1.13639">
        <ele>271</ele>
        <time>2014-11-02T09:45:40.000Z</time>
      </trkpt>
      <trkpt lat="43.56269" lon="1.13699">
        <ele>268.39999389648</ele>
        <time>2014-11-02T09:45:46.000Z</time>
      </trkpt>
      <trkpt lat="43.56272" lon="1.1376">
        <ele>266</ele>
        <time>2014-11-02T09:45:51.000Z</time>
      </trkpt>
      <trkpt lat="43.56275" lon="1.13836">
        <ele>264.20001220703</ele>
        <time>2014-11-02T09:45:57.000Z</time>
      </trkpt>
      <trkpt lat="43.56276" lon="1.13859">
        <ele>263.60000610352</ele>
        <time>2014-11-02T09:45:59.000Z</time>
      </trkpt>
      <trkpt lat="43.56279" lon="1.13919">
        <ele>261.79998779297</ele>
        <time>2014-11-02T09:46:05.000Z</time>
      </trkpt>
      <trkpt lat="43.56281" lon="1.13984">
        <ele>259.39999389648</ele>
        <time>2014-11-02T09:46:12.000Z</time>
      </trkpt>
      <trkpt lat="43.5628" lon="1.1406">
        <ele>259.20001220703</ele>
        <time>2014-11-02T09:46:20.000Z</time>
      </trkpt>
      <trkpt lat="43.5628" lon="1.1407">
        <ele>259.20001220703</ele>
        <time>2014-11-02T09:46:21.000Z</time>
      </trkpt>
      <trkpt lat="43.56272" lon="1.14138">
        <ele>258</ele>
        <time>2014-11-02T09:46:28.000Z</time>
      </trkpt>
      <trkpt lat="43.56265" lon="1.14166">
        <ele>257.60000610352</ele>
        <time>2014-11-02T09:46:31.000Z</time>
      </trkpt>
      <trkpt lat="43.56264" lon="1.14176">
        <ele>257.39999389648</ele>
        <time>2014-11-02T09:46:32.000Z</time>
      </trkpt>
      <trkpt lat="43.5626" lon="1.14227">
        <ele>256.60000610352</ele>
        <time>2014-11-02T09:46:37.000Z</time>
      </trkpt>
      <trkpt lat="43.56246" lon="1.14308">
        <ele>256</ele>
        <time>2014-11-02T09:46:45.000Z</time>
      </trkpt>
      <trkpt lat="43.56234" lon="1.1438">
        <ele>252.60000610352</ele>
        <time>2014-11-02T09:46:52.000Z</time>
      </trkpt>
      <trkpt lat="43.56229" lon="1.1442">
        <ele>251.39999389648</ele>
        <time>2014-11-02T09:46:56.000Z</time>
      </trkpt>
      <trkpt lat="43.5623" lon="1.14441">
        <ele>251</ele>
        <time>2014-11-02T09:46:58.000Z</time>
      </trkpt>
      <trkpt lat="43.56241" lon="1.14484">
        <ele>250</ele>
        <time>2014-11-02T09:47:02.000Z</time>
      </trkpt>
      <trkpt lat="43.56264" lon="1.14558">
        <ele>246</ele>
        <time>2014-11-02T09:47:09.000Z</time>
      </trkpt>
      <trkpt lat="43.56268" lon="1.14569">
        <ele>245.39999389648</ele>
        <time>2014-11-02T09:47:10.000Z</time>
      </trkpt>
      <trkpt lat="43.56289" lon="1.14642">
        <ele>240.39999389648</ele>
        <time>2014-11-02T09:47:16.000Z</time>
      </trkpt>
      <trkpt lat="43.56303" lon="1.14695">
        <ele>238.60000610352</ele>
        <time>2014-11-02T09:47:20.000Z</time>
      </trkpt>
      <trkpt lat="43.56312" lon="1.14735">
        <ele>237.19999694824</ele>
        <time>2014-11-02T09:47:23.000Z</time>
      </trkpt>
      <trkpt lat="43.56332" lon="1.14817">
        <ele>233.19999694824</ele>
        <time>2014-11-02T09:47:29.000Z</time>
      </trkpt>
      <trkpt lat="43.56339" lon="1.14844">
        <ele>232.60000610352</ele>
        <time>2014-11-02T09:47:31.000Z</time>
      </trkpt>
      <trkpt lat="43.56357" lon="1.14924">
        <ele>229.19999694824</ele>
        <time>2014-11-02T09:47:37.000Z</time>
      </trkpt>
      <trkpt lat="43.5636" lon="1.14937">
        <ele>228.19999694824</ele>
        <time>2014-11-02T09:47:38.000Z</time>
      </trkpt>
      <trkpt lat="43.56371" lon="1.15018">
        <ele>224.60000610352</ele>
        <time>2014-11-02T09:47:44.000Z</time>
      </trkpt>
      <trkpt lat="43.56375" lon="1.15096">
        <ele>223.60000610352</ele>
        <time>2014-11-02T09:47:50.000Z</time>
      </trkpt>
      <trkpt lat="43.56374" lon="1.15107">
        <ele>223.80000305176</ele>
        <time>2014-11-02T09:47:51.000Z</time>
      </trkpt>
      <trkpt lat="43.56372" lon="1.15119">
        <ele>224</ele>
        <time>2014-11-02T09:47:52.000Z</time>
      </trkpt>
      <trkpt lat="43.56366" lon="1.15142">
        <ele>224.39999389648</ele>
        <time>2014-11-02T09:47:54.000Z</time>
      </trkpt>
      <trkpt lat="43.56358" lon="1.15161">
        <ele>224.19999694824</ele>
        <time>2014-11-02T09:47:56.000Z</time>
      </trkpt>
      <trkpt lat="43.56346" lon="1.15189">
        <ele>223.39999389648</ele>
        <time>2014-11-02T09:47:59.000Z</time>
      </trkpt>
      <trkpt lat="43.56321" lon="1.15246">
        <ele>223</ele>
        <time>2014-11-02T09:48:06.000Z</time>
      </trkpt>
      <trkpt lat="43.56294" lon="1.15305">
        <ele>224.60000610352</ele>
        <time>2014-11-02T09:48:14.000Z</time>
      </trkpt>
      <trkpt lat="43.56282" lon="1.15333">
        <ele>225.60000610352</ele>
        <time>2014-11-02T09:48:18.000Z</time>
      </trkpt>
      <trkpt lat="43.56274" lon="1.15352">
        <ele>226.19999694824</ele>
        <time>2014-11-02T09:48:21.000Z</time>
      </trkpt>
      <trkpt lat="43.56245" lon="1.15417">
        <ele>228.80000305176</ele>
        <time>2014-11-02T09:48:31.000Z</time>
      </trkpt>
      <trkpt lat="43.56221" lon="1.15472">
        <ele>231.60000610352</ele>
        <time>2014-11-02T09:48:40.000Z</time>
      </trkpt>
      <trkpt lat="43.5622" lon="1.15478">
        <ele>231.80000305176</ele>
        <time>2014-11-02T09:48:41.000Z</time>
      </trkpt>
      <trkpt lat="43.56209" lon="1.155">
        <ele>233</ele>
        <time>2014-11-02T09:48:45.000Z</time>
      </trkpt>
      <trkpt lat="43.56194" lon="1.15534">
        <ele>233.60000610352</ele>
        <time>2014-11-02T09:48:51.000Z</time>
      </trkpt>
      <trkpt lat="43.56172" lon="1.15584">
        <ele>235.39999389648</ele>
        <time>2014-11-02T09:49:00.000Z</time>
      </trkpt>
      <trkpt lat="43.56158" lon="1.15619">
        <ele>237</ele>
        <time>2014-11-02T09:49:07.000Z</time>
      </trkpt>
      <trkpt lat="43.56153" lon="1.15633">
        <ele>236.19999694824</ele>
        <time>2014-11-02T09:49:10.000Z</time>
      </trkpt>
      <trkpt lat="43.5615" lon="1.15644">
        <ele>235.39999389648</ele>
        <time>2014-11-02T09:49:12.000Z</time>
      </trkpt>
      <trkpt lat="43.56148" lon="1.1565">
        <ele>235.39999389648</ele>
        <time>2014-11-02T09:49:13.000Z</time>
      </trkpt>
      <trkpt lat="43.56147" lon="1.15662">
        <ele>235.19999694824</ele>
        <time>2014-11-02T09:49:15.000Z</time>
      </trkpt>
      <trkpt lat="43.56143" lon="1.1569">
        <ele>234.80000305176</ele>
        <time>2014-11-02T09:49:19.000Z</time>
      </trkpt>
      <trkpt lat="43.56139" lon="1.15739">
        <ele>233</ele>
        <time>2014-11-02T09:49:25.000Z</time>
      </trkpt>
      <trkpt lat="43.56132" lon="1.15816">
        <ele>232.60000610352</ele>
        <time>2014-11-02T09:49:33.000Z</time>
      </trkpt>
      <trkpt lat="43.56131" lon="1.15826">
        <ele>232.39999389648</ele>
        <time>2014-11-02T09:49:34.000Z</time>
      </trkpt>
      <trkpt lat="43.56124" lon="1.15885">
        <ele>232.39999389648</ele>
        <time>2014-11-02T09:49:40.000Z</time>
      </trkpt>
      <trkpt lat="43.56125" lon="1.15947">
        <ele>232.39999389648</ele>
        <time>2014-11-02T09:49:46.000Z</time>
      </trkpt>
      <trkpt lat="43.56133" lon="1.16026">
        <ele>229.60000610352</ele>
        <time>2014-11-02T09:49:53.000Z</time>
      </trkpt>
      <trkpt lat="43.56134" lon="1.1605">
        <ele>228</ele>
        <time>2014-11-02T09:49:55.000Z</time>
      </trkpt>
      <trkpt lat="43.56138" lon="1.16135">
        <ele>226.39999389648</ele>
        <time>2014-11-02T09:50:02.000Z</time>
      </trkpt>
      <trkpt lat="43.56138" lon="1.16147">
        <ele>226.19999694824</ele>
        <time>2014-11-02T09:50:03.000Z</time>
      </trkpt>
      <trkpt lat="43.56134" lon="1.16233">
        <ele>224.39999389648</ele>
        <time>2014-11-02T09:50:10.000Z</time>
      </trkpt>
      <trkpt lat="43.56128" lon="1.16308">
        <ele>223.80000305176</ele>
        <time>2014-11-02T09:50:16.000Z</time>
      </trkpt>
      <trkpt lat="43.56126" lon="1.16333">
        <ele>223.19999694824</ele>
        <time>2014-11-02T09:50:18.000Z</time>
      </trkpt>
      <trkpt lat="43.56116" lon="1.16402">
        <ele>223</ele>
        <time>2014-11-02T09:50:24.000Z</time>
      </trkpt>
      <trkpt lat="43.56103" lon="1.16479">
        <ele>221.80000305176</ele>
        <time>2014-11-02T09:50:31.000Z</time>
      </trkpt>
      <trkpt lat="43.561" lon="1.165">
        <ele>220.39999389648</ele>
        <time>2014-11-02T09:50:33.000Z</time>
      </trkpt>
      <trkpt lat="43.56094" lon="1.16569">
        <ele>216</ele>
        <time>2014-11-02T09:50:39.000Z</time>
      </trkpt>
      <trkpt lat="43.5609" lon="1.16648">
        <ele>214</ele>
        <time>2014-11-02T09:50:45.000Z</time>
      </trkpt>
      <trkpt lat="43.56086" lon="1.16722">
        <ele>212.39999389648</ele>
        <time>2014-11-02T09:50:51.000Z</time>
      </trkpt>
      <trkpt lat="43.56083" lon="1.16802">
        <ele>211.39999389648</ele>
        <time>2014-11-02T09:50:58.000Z</time>
      </trkpt>
      <trkpt lat="43.56082" lon="1.16814">
        <ele>211.19999694824</ele>
        <time>2014-11-02T09:50:59.000Z</time>
      </trkpt>
      <trkpt lat="43.56078" lon="1.16893">
        <ele>211.19999694824</ele>
        <time>2014-11-02T09:51:06.000Z</time>
      </trkpt>
      <trkpt lat="43.56075" lon="1.16971">
        <ele>211.60000610352</ele>
        <time>2014-11-02T09:51:13.000Z</time>
      </trkpt>
      <trkpt lat="43.56074" lon="1.16981">
        <ele>211.39999389648</ele>
        <time>2014-11-02T09:51:14.000Z</time>
      </trkpt>
      <trkpt lat="43.56069" lon="1.17054">
        <ele>210</ele>
        <time>2014-11-02T09:51:21.000Z</time>
      </trkpt>
      <trkpt lat="43.56066" lon="1.17085">
        <ele>209.80000305176</ele>
        <time>2014-11-02T09:51:24.000Z</time>
      </trkpt>
      <trkpt lat="43.5606" lon="1.17164">
        <ele>209.60000610352</ele>
        <time>2014-11-02T09:51:32.000Z</time>
      </trkpt>
      <trkpt lat="43.5606" lon="1.1723">
        <ele>208</ele>
        <time>2014-11-02T09:51:39.000Z</time>
      </trkpt>
      <trkpt lat="43.56051" lon="1.17285">
        <ele>208</ele>
        <time>2014-11-02T09:51:45.000Z</time>
      </trkpt>
      <trkpt lat="43.56032" lon="1.17335">
        <ele>208.19999694824</ele>
        <time>2014-11-02T09:51:51.000Z</time>
      </trkpt>
      <trkpt lat="43.56003" lon="1.174">
        <ele>208.60000610352</ele>
        <time>2014-11-02T09:51:59.000Z</time>
      </trkpt>
      <trkpt lat="43.56" lon="1.17408">
        <ele>208.39999389648</ele>
        <time>2014-11-02T09:52:00.000Z</time>
      </trkpt>
      <trkpt lat="43.5597" lon="1.17477">
        <ele>208</ele>
        <time>2014-11-02T09:52:09.000Z</time>
      </trkpt>
      <trkpt lat="43.55942" lon="1.17526">
        <ele>208.19999694824</ele>
        <time>2014-11-02T09:52:16.000Z</time>
      </trkpt>
      <trkpt lat="43.55903" lon="1.17582">
        <ele>208.39999389648</ele>
        <time>2014-11-02T09:52:24.000Z</time>
      </trkpt>
      <trkpt lat="43.55862" lon="1.17636">
        <ele>208.80000305176</ele>
        <time>2014-11-02T09:52:32.000Z</time>
      </trkpt>
      <trkpt lat="43.55817" lon="1.17684">
        <ele>209</ele>
        <time>2014-11-02T09:52:40.000Z</time>
      </trkpt>
      <trkpt lat="43.55811" lon="1.1769">
        <ele>209</ele>
        <time>2014-11-02T09:52:41.000Z</time>
      </trkpt>
      <trkpt lat="43.55765" lon="1.17739">
        <ele>209</ele>
        <time>2014-11-02T09:52:49.000Z</time>
      </trkpt>
      <trkpt lat="43.5576" lon="1.17745">
        <ele>209</ele>
        <time>2014-11-02T09:52:50.000Z</time>
      </trkpt>
      <trkpt lat="43.55719" lon="1.17791">
        <ele>207.80000305176</ele>
        <time>2014-11-02T09:52:58.000Z</time>
      </trkpt>
      <trkpt lat="43.55715" lon="1.17798">
        <ele>207.39999389648</ele>
        <time>2014-11-02T09:52:59.000Z</time>
      </trkpt>
      <trkpt lat="43.557" lon="1.17829">
        <ele>206.19999694824</ele>
        <time>2014-11-02T09:53:03.000Z</time>
      </trkpt>
      <trkpt lat="43.55689" lon="1.17869">
        <ele>204.19999694824</ele>
        <time>2014-11-02T09:53:08.000Z</time>
      </trkpt>
      <trkpt lat="43.55679" lon="1.17918">
        <ele>204</ele>
        <time>2014-11-02T09:53:14.000Z</time>
      </trkpt>
      <trkpt lat="43.55662" lon="1.17964">
        <ele>205.39999389648</ele>
        <time>2014-11-02T09:53:20.000Z</time>
      </trkpt>
      <trkpt lat="43.55657" lon="1.17968">
        <ele>205.39999389648</ele>
        <time>2014-11-02T09:53:21.000Z</time>
      </trkpt>
      <trkpt lat="43.5564" lon="1.1798">
        <ele>205</ele>
        <time>2014-11-02T09:53:24.000Z</time>
      </trkpt>
      <trkpt lat="43.55633" lon="1.17982">
        <ele>204.80000305176</ele>
        <time>2014-11-02T09:53:25.000Z</time>
      </trkpt>
      <trkpt lat="43.55614" lon="1.17978">
        <ele>204.39999389648</ele>
        <time>2014-11-02T09:53:28.000Z</time>
      </trkpt>
      <trkpt lat="43.55575" lon="1.17968">
        <ele>204.19999694824</ele>
        <time>2014-11-02T09:53:34.000Z</time>
      </trkpt>
      <trkpt lat="43.55568" lon="1.17965">
        <ele>204.19999694824</ele>
        <time>2014-11-02T09:53:35.000Z</time>
      </trkpt>
      <trkpt lat="43.55513" lon="1.17948">
        <ele>204.39999389648</ele>
        <time>2014-11-02T09:53:43.000Z</time>
      </trkpt>
      <trkpt lat="43.5546" lon="1.17933">
        <ele>205.39999389648</ele>
        <time>2014-11-02T09:53:51.000Z</time>
      </trkpt>
      <trkpt lat="43.55401" lon="1.17917">
        <ele>206</ele>
        <time>2014-11-02T09:54:00.000Z</time>
      </trkpt>
      <trkpt lat="43.55395" lon="1.17915">
        <ele>206</ele>
        <time>2014-11-02T09:54:01.000Z</time>
      </trkpt>
      <trkpt lat="43.55351" lon="1.17906">
        <ele>206</ele>
        <time>2014-11-02T09:54:08.000Z</time>
      </trkpt>
      <trkpt lat="43.55325" lon="1.17894">
        <ele>206.39999389648</ele>
        <time>2014-11-02T09:54:12.000Z</time>
      </trkpt>
      <trkpt lat="43.5532" lon="1.17888">
        <ele>206.19999694824</ele>
        <time>2014-11-02T09:54:13.000Z</time>
      </trkpt>
      <trkpt lat="43.55311" lon="1.17877">
        <ele>206.19999694824</ele>
        <time>2014-11-02T09:54:15.000Z</time>
      </trkpt>
      <trkpt lat="43.55298" lon="1.17871">
        <ele>206.39999389648</ele>
        <time>2014-11-02T09:54:17.000Z</time>
      </trkpt>
      <trkpt lat="43.55281" lon="1.1788">
        <ele>206.60000610352</ele>
        <time>2014-11-02T09:54:20.000Z</time>
      </trkpt>
      <trkpt lat="43.55274" lon="1.17903">
        <ele>206.80000305176</ele>
        <time>2014-11-02T09:54:23.000Z</time>
      </trkpt>
      <trkpt lat="43.55269" lon="1.17912">
        <ele>206.80000305176</ele>
        <time>2014-11-02T09:54:24.000Z</time>
      </trkpt>
      <trkpt lat="43.5526" lon="1.17925">
        <ele>206.39999389648</ele>
        <time>2014-11-02T09:54:26.000Z</time>
      </trkpt>
      <trkpt lat="43.55215" lon="1.17967">
        <ele>205.80000305176</ele>
        <time>2014-11-02T09:54:34.000Z</time>
      </trkpt>
      <trkpt lat="43.55165" lon="1.18011">
        <ele>206.19999694824</ele>
        <time>2014-11-02T09:54:43.000Z</time>
      </trkpt>
      <trkpt lat="43.55121" lon="1.18051">
        <ele>206.19999694824</ele>
        <time>2014-11-02T09:54:51.000Z</time>
      </trkpt>
      <trkpt lat="43.55074" lon="1.18101">
        <ele>205.60000610352</ele>
        <time>2014-11-02T09:55:00.000Z</time>
      </trkpt>
      <trkpt lat="43.55033" lon="1.18151">
        <ele>205.19999694824</ele>
        <time>2014-11-02T09:55:08.000Z</time>
      </trkpt>
      <trkpt lat="43.55023" lon="1.18164">
        <ele>205</ele>
        <time>2014-11-02T09:55:10.000Z</time>
      </trkpt>
      <trkpt lat="43.54985" lon="1.18218">
        <ele>203.19999694824</ele>
        <time>2014-11-02T09:55:18.000Z</time>
      </trkpt>
      <trkpt lat="43.54972" lon="1.18239">
        <ele>203</ele>
        <time>2014-11-02T09:55:21.000Z</time>
      </trkpt>
      <trkpt lat="43.54942" lon="1.18291">
        <ele>201</ele>
        <time>2014-11-02T09:55:28.000Z</time>
      </trkpt>
      <trkpt lat="43.54911" lon="1.18352">
        <ele>201</ele>
        <time>2014-11-02T09:55:36.000Z</time>
      </trkpt>
      <trkpt lat="43.54907" lon="1.1836">
        <ele>201.19999694824</ele>
        <time>2014-11-02T09:55:37.000Z</time>
      </trkpt>
      <trkpt lat="43.54881" lon="1.18417">
        <ele>203.39999389648</ele>
        <time>2014-11-02T09:55:44.000Z</time>
      </trkpt>
      <trkpt lat="43.54865" lon="1.18449">
        <ele>203.80000305176</ele>
        <time>2014-11-02T09:55:48.000Z</time>
      </trkpt>
      <trkpt lat="43.54846" lon="1.18489">
        <ele>204</ele>
        <time>2014-11-02T09:55:53.000Z</time>
      </trkpt>
      <trkpt lat="43.54814" lon="1.18558">
        <ele>204.39999389648</ele>
        <time>2014-11-02T09:56:02.000Z</time>
      </trkpt>
      <trkpt lat="43.54783" lon="1.18625">
        <ele>204.60000610352</ele>
        <time>2014-11-02T09:56:11.000Z</time>
      </trkpt>
      <trkpt lat="43.5476" lon="1.18675">
        <ele>204.80000305176</ele>
        <time>2014-11-02T09:56:18.000Z</time>
      </trkpt>
      <trkpt lat="43.54733" lon="1.18731">
        <ele>206</ele>
        <time>2014-11-02T09:56:26.000Z</time>
      </trkpt>
      <trkpt lat="43.54701" lon="1.18801">
        <ele>206.19999694824</ele>
        <time>2014-11-02T09:56:36.000Z</time>
      </trkpt>
      <trkpt lat="43.54671" lon="1.18867">
        <ele>205.80000305176</ele>
        <time>2014-11-02T09:56:45.000Z</time>
      </trkpt>
      <trkpt lat="43.54638" lon="1.18936">
        <ele>205.60000610352</ele>
        <time>2014-11-02T09:56:54.000Z</time>
      </trkpt>
      <trkpt lat="43.54613" lon="1.18989">
        <ele>205.19999694824</ele>
        <time>2014-11-02T09:57:01.000Z</time>
      </trkpt>
      <trkpt lat="43.54592" lon="1.19024">
        <ele>205.60000610352</ele>
        <time>2014-11-02T09:57:06.000Z</time>
      </trkpt>
      <trkpt lat="43.54587" lon="1.1903">
        <ele>205.80000305176</ele>
        <time>2014-11-02T09:57:07.000Z</time>
      </trkpt>
      <trkpt lat="43.54545" lon="1.1907">
        <ele>206.19999694824</ele>
        <time>2014-11-02T09:57:15.000Z</time>
      </trkpt>
      <trkpt lat="43.54527" lon="1.19083">
        <ele>206.19999694824</ele>
        <time>2014-11-02T09:57:18.000Z</time>
      </trkpt>
      <trkpt lat="43.54521" lon="1.19084">
        <ele>206</ele>
        <time>2014-11-02T09:57:19.000Z</time>
      </trkpt>
      <trkpt lat="43.54496" lon="1.19088">
        <ele>206</ele>
        <time>2014-11-02T09:57:23.000Z</time>
      </trkpt>
      <trkpt lat="43.5449" lon="1.19094">
        <ele>206</ele>
        <time>2014-11-02T09:57:24.000Z</time>
      </trkpt>
      <trkpt lat="43.54489" lon="1.19103">
        <ele>206</ele>
        <time>2014-11-02T09:57:25.000Z</time>
      </trkpt>
      <trkpt lat="43.54489" lon="1.19112">
        <ele>206</ele>
        <time>2014-11-02T09:57:26.000Z</time>
      </trkpt>
      <trkpt lat="43.54492" lon="1.19139">
        <ele>206</ele>
        <time>2014-11-02T09:57:29.000Z</time>
      </trkpt>
      <trkpt lat="43.54491" lon="1.19148">
        <ele>206</ele>
        <time>2014-11-02T09:57:30.000Z</time>
      </trkpt>
      <trkpt lat="43.5448" lon="1.19202">
        <ele>206</ele>
        <time>2014-11-02T09:57:36.000Z</time>
      </trkpt>
      <trkpt lat="43.54474" lon="1.19256">
        <ele>206</ele>
        <time>2014-11-02T09:57:42.000Z</time>
      </trkpt>
      <trkpt lat="43.54467" lon="1.19337">
        <ele>204.80000305176</ele>
        <time>2014-11-02T09:57:51.000Z</time>
      </trkpt>
      <trkpt lat="43.54471" lon="1.19392">
        <ele>204</ele>
        <time>2014-11-02T09:57:57.000Z</time>
      </trkpt>
      <trkpt lat="43.54484" lon="1.19456">
        <ele>203.80000305176</ele>
        <time>2014-11-02T09:58:04.000Z</time>
      </trkpt>
      <trkpt lat="43.54487" lon="1.19475">
        <ele>203.60000610352</ele>
        <time>2014-11-02T09:58:06.000Z</time>
      </trkpt>
      <trkpt lat="43.54492" lon="1.19516">
        <ele>203.60000610352</ele>
        <time>2014-11-02T09:58:10.000Z</time>
      </trkpt>
      <trkpt lat="43.54493" lon="1.19574">
        <ele>203.60000610352</ele>
        <time>2014-11-02T09:58:15.000Z</time>
      </trkpt>
      <trkpt lat="43.545" lon="1.19656">
        <ele>203.80000305176</ele>
        <time>2014-11-02T09:58:21.000Z</time>
      </trkpt>
      <trkpt lat="43.54512" lon="1.1974">
        <ele>206.39999389648</ele>
        <time>2014-11-02T09:58:27.000Z</time>
      </trkpt>
      <trkpt lat="43.54513" lon="1.19754">
        <ele>207</ele>
        <time>2014-11-02T09:58:28.000Z</time>
      </trkpt>
      <trkpt lat="43.54524" lon="1.19809">
        <ele>209.39999389648</ele>
        <time>2014-11-02T09:58:33.000Z</time>
      </trkpt>
      <trkpt lat="43.54538" lon="1.19852">
        <ele>211.19999694824</ele>
        <time>2014-11-02T09:58:38.000Z</time>
      </trkpt>
      <trkpt lat="43.54555" lon="1.19908">
        <ele>212.60000610352</ele>
        <time>2014-11-02T09:58:46.000Z</time>
      </trkpt>
      <trkpt lat="43.54557" lon="1.19915">
        <ele>212.39999389648</ele>
        <time>2014-11-02T09:58:47.000Z</time>
      </trkpt>
      <trkpt lat="43.54562" lon="1.19941">
        <ele>211.39999389648</ele>
        <time>2014-11-02T09:58:51.000Z</time>
      </trkpt>
      <trkpt lat="43.54567" lon="1.19975">
        <ele>210.19999694824</ele>
        <time>2014-11-02T09:58:56.000Z</time>
      </trkpt>
      <trkpt lat="43.54568" lon="1.19982">
        <ele>209.80000305176</ele>
        <time>2014-11-02T09:58:57.000Z</time>
      </trkpt>
      <trkpt lat="43.54568" lon="1.20051">
        <ele>206.39999389648</ele>
        <time>2014-11-02T09:59:06.000Z</time>
      </trkpt>
      <trkpt lat="43.54564" lon="1.20131">
        <ele>206.39999389648</ele>
        <time>2014-11-02T09:59:16.000Z</time>
      </trkpt>
      <trkpt lat="43.54565" lon="1.20181">
        <ele>206.80000305176</ele>
        <time>2014-11-02T09:59:22.000Z</time>
      </trkpt>
      <trkpt lat="43.54575" lon="1.20228">
        <ele>206.60000610352</ele>
        <time>2014-11-02T09:59:28.000Z</time>
      </trkpt>
      <trkpt lat="43.54593" lon="1.20295">
        <ele>206.19999694824</ele>
        <time>2014-11-02T09:59:37.000Z</time>
      </trkpt>
      <trkpt lat="43.54608" lon="1.20354">
        <ele>207</ele>
        <time>2014-11-02T09:59:45.000Z</time>
      </trkpt>
      <trkpt lat="43.54614" lon="1.20405">
        <ele>207.80000305176</ele>
        <time>2014-11-02T09:59:51.000Z</time>
      </trkpt>
      <trkpt lat="43.5461" lon="1.20467">
        <ele>207.80000305176</ele>
        <time>2014-11-02T09:59:58.000Z</time>
      </trkpt>
      <trkpt lat="43.54605" lon="1.2054">
        <ele>206.60000610352</ele>
        <time>2014-11-02T10:00:06.000Z</time>
      </trkpt>
      <trkpt lat="43.54594" lon="1.20619">
        <ele>207.60000610352</ele>
        <time>2014-11-02T10:00:14.000Z</time>
      </trkpt>
      <trkpt lat="43.54583" lon="1.20676">
        <ele>209</ele>
        <time>2014-11-02T10:00:20.000Z</time>
      </trkpt>
      <trkpt lat="43.5458" lon="1.20696">
        <ele>209.39999389648</ele>
        <time>2014-11-02T10:00:22.000Z</time>
      </trkpt>
      <trkpt lat="43.54566" lon="1.2077">
        <ele>209.60000610352</ele>
        <time>2014-11-02T10:00:30.000Z</time>
      </trkpt>
      <trkpt lat="43.54563" lon="1.20789">
        <ele>209.80000305176</ele>
        <time>2014-11-02T10:00:32.000Z</time>
      </trkpt>
      <trkpt lat="43.54549" lon="1.20862">
        <ele>210.39999389648</ele>
        <time>2014-11-02T10:00:40.000Z</time>
      </trkpt>
      <trkpt lat="43.54546" lon="1.20881">
        <ele>210.39999389648</ele>
        <time>2014-11-02T10:00:42.000Z</time>
      </trkpt>
      <trkpt lat="43.54533" lon="1.20954">
        <ele>208.60000610352</ele>
        <time>2014-11-02T10:00:50.000Z</time>
      </trkpt>
      <trkpt lat="43.54519" lon="1.21028">
        <ele>208</ele>
        <time>2014-11-02T10:00:58.000Z</time>
      </trkpt>
      <trkpt lat="43.54502" lon="1.21105">
        <ele>208.19999694824</ele>
        <time>2014-11-02T10:01:06.000Z</time>
      </trkpt>
      <trkpt lat="43.54495" lon="1.21131">
        <ele>208.60000610352</ele>
        <time>2014-11-02T10:01:09.000Z</time>
      </trkpt>
      <trkpt lat="43.54473" lon="1.21201">
        <ele>209.80000305176</ele>
        <time>2014-11-02T10:01:17.000Z</time>
      </trkpt>
      <trkpt lat="43.54449" lon="1.21277">
        <ele>209.39999389648</ele>
        <time>2014-11-02T10:01:26.000Z</time>
      </trkpt>
      <trkpt lat="43.5443" lon="1.2135">
        <ele>208.39999389648</ele>
        <time>2014-11-02T10:01:35.000Z</time>
      </trkpt>
      <trkpt lat="43.54428" lon="1.21359">
        <ele>208.39999389648</ele>
        <time>2014-11-02T10:01:36.000Z</time>
      </trkpt>
      <trkpt lat="43.5441" lon="1.21429">
        <ele>207.19999694824</ele>
        <time>2014-11-02T10:01:44.000Z</time>
      </trkpt>
      <trkpt lat="43.5439" lon="1.215">
        <ele>206.19999694824</ele>
        <time>2014-11-02T10:01:52.000Z</time>
      </trkpt>
      <trkpt lat="43.54387" lon="1.21509">
        <ele>206</ele>
        <time>2014-11-02T10:01:53.000Z</time>
      </trkpt>
      <trkpt lat="43.54362" lon="1.21574">
        <ele>204.19999694824</ele>
        <time>2014-11-02T10:02:01.000Z</time>
      </trkpt>
      <trkpt lat="43.54332" lon="1.21636">
        <ele>203.39999389648</ele>
        <time>2014-11-02T10:02:09.000Z</time>
      </trkpt>
      <trkpt lat="43.54327" lon="1.21644">
        <ele>203.80000305176</ele>
        <time>2014-11-02T10:02:10.000Z</time>
      </trkpt>
      <trkpt lat="43.5431" lon="1.21661">
        <ele>204.39999389648</ele>
        <time>2014-11-02T10:02:13.000Z</time>
      </trkpt>
      <trkpt lat="43.54304" lon="1.21686">
        <ele>204.60000610352</ele>
        <time>2014-11-02T10:02:16.000Z</time>
      </trkpt>
      <trkpt lat="43.54296" lon="1.2172">
        <ele>203.80000305176</ele>
        <time>2014-11-02T10:02:20.000Z</time>
      </trkpt>
      <trkpt lat="43.54276" lon="1.21765">
        <ele>204.80000305176</ele>
        <time>2014-11-02T10:02:26.000Z</time>
      </trkpt>
      <trkpt lat="43.54255" lon="1.2181">
        <ele>205.80000305176</ele>
        <time>2014-11-02T10:02:32.000Z</time>
      </trkpt>
      <trkpt lat="43.54249" lon="1.21824">
        <ele>205.80000305176</ele>
        <time>2014-11-02T10:02:34.000Z</time>
      </trkpt>
      <trkpt lat="43.54218" lon="1.21892">
        <ele>206</ele>
        <time>2014-11-02T10:02:43.000Z</time>
      </trkpt>
      <trkpt lat="43.54215" lon="1.21899">
        <ele>206</ele>
        <time>2014-11-02T10:02:44.000Z</time>
      </trkpt>
      <trkpt lat="43.54192" lon="1.21948">
        <ele>204.80000305176</ele>
        <time>2014-11-02T10:02:51.000Z</time>
      </trkpt>
      <trkpt lat="43.54164" lon="1.22013">
        <ele>204</ele>
        <time>2014-11-02T10:02:59.000Z</time>
      </trkpt>
      <trkpt lat="43.5414" lon="1.22069">
        <ele>203.60000610352</ele>
        <time>2014-11-02T10:03:06.000Z</time>
      </trkpt>
      <trkpt lat="43.5411" lon="1.22133">
        <ele>204</ele>
        <time>2014-11-02T10:03:15.000Z</time>
      </trkpt>
      <trkpt lat="43.54078" lon="1.222">
        <ele>203.60000610352</ele>
        <time>2014-11-02T10:03:24.000Z</time>
      </trkpt>
      <trkpt lat="43.54074" lon="1.22207">
        <ele>203.60000610352</ele>
        <time>2014-11-02T10:03:25.000Z</time>
      </trkpt>
      <trkpt lat="43.54042" lon="1.22262">
        <ele>203.60000610352</ele>
        <time>2014-11-02T10:03:33.000Z</time>
      </trkpt>
      <trkpt lat="43.54006" lon="1.22312">
        <ele>203</ele>
        <time>2014-11-02T10:03:41.000Z</time>
      </trkpt>
      <trkpt lat="43.54001" lon="1.22317">
        <ele>202.80000305176</ele>
        <time>2014-11-02T10:03:42.000Z</time>
      </trkpt>
      <trkpt lat="43.53978" lon="1.22334">
        <ele>202.39999389648</ele>
        <time>2014-11-02T10:03:46.000Z</time>
      </trkpt>
      <trkpt lat="43.53938" lon="1.22355">
        <ele>202</ele>
        <time>2014-11-02T10:03:52.000Z</time>
      </trkpt>
      <trkpt lat="43.53884" lon="1.22382">
        <ele>201.19999694824</ele>
        <time>2014-11-02T10:04:00.000Z</time>
      </trkpt>
      <trkpt lat="43.53876" lon="1.22386">
        <ele>201.19999694824</ele>
        <time>2014-11-02T10:04:01.000Z</time>
      </trkpt>
      <trkpt lat="43.53822" lon="1.22413">
        <ele>200.80000305176</ele>
        <time>2014-11-02T10:04:09.000Z</time>
      </trkpt>
      <trkpt lat="43.53815" lon="1.22417">
        <ele>200.80000305176</ele>
        <time>2014-11-02T10:04:10.000Z</time>
      </trkpt>
      <trkpt lat="43.53774" lon="1.22437">
        <ele>201.39999389648</ele>
        <time>2014-11-02T10:04:16.000Z</time>
      </trkpt>
      <trkpt lat="43.53738" lon="1.22458">
        <ele>202.19999694824</ele>
        <time>2014-11-02T10:04:22.000Z</time>
      </trkpt>
      <trkpt lat="43.53694" lon="1.22496">
        <ele>201.60000610352</ele>
        <time>2014-11-02T10:04:30.000Z</time>
      </trkpt>
      <trkpt lat="43.53645" lon="1.22543">
        <ele>201.39999389648</ele>
        <time>2014-11-02T10:04:39.000Z</time>
      </trkpt>
      <trkpt lat="43.53608" lon="1.22583">
        <ele>201.80000305176</ele>
        <time>2014-11-02T10:04:46.000Z</time>
      </trkpt>
      <trkpt lat="43.53603" lon="1.22589">
        <ele>201.60000610352</ele>
        <time>2014-11-02T10:04:47.000Z</time>
      </trkpt>
      <trkpt lat="43.53567" lon="1.22631">
        <ele>202.19999694824</ele>
        <time>2014-11-02T10:04:54.000Z</time>
      </trkpt>
      <trkpt lat="43.53534" lon="1.22671">
        <ele>202.39999389648</ele>
        <time>2014-11-02T10:05:01.000Z</time>
      </trkpt>
      <trkpt lat="43.53495" lon="1.22719">
        <ele>202.19999694824</ele>
        <time>2014-11-02T10:05:09.000Z</time>
      </trkpt>
      <trkpt lat="43.53459" lon="1.22762">
        <ele>203</ele>
        <time>2014-11-02T10:05:17.000Z</time>
      </trkpt>
      <trkpt lat="43.53439" lon="1.22785">
        <ele>203.60000610352</ele>
        <time>2014-11-02T10:05:23.000Z</time>
      </trkpt>
      <trkpt lat="43.53437" lon="1.22787">
        <ele>203.60000610352</ele>
        <time>2014-11-02T10:05:24.000Z</time>
      </trkpt>
      <trkpt lat="43.53428" lon="1.22799">
        <ele>203.80000305176</ele>
        <time>2014-11-02T10:05:29.000Z</time>
      </trkpt>
      <trkpt lat="43.53424" lon="1.22804">
        <ele>204</ele>
        <time>2014-11-02T10:05:34.000Z</time>
      </trkpt>
      <trkpt lat="43.53423" lon="1.22808">
        <ele>204</ele>
        <time>2014-11-02T10:05:39.000Z</time>
      </trkpt>
      <trkpt lat="43.53423" lon="1.2281">
        <ele>204</ele>
        <time>2014-11-02T10:05:40.000Z</time>
      </trkpt>
      <trkpt lat="43.53425" lon="1.22824">
        <ele>204.19999694824</ele>
        <time>2014-11-02T10:05:43.000Z</time>
      </trkpt>
      <trkpt lat="43.53425" lon="1.2283">
        <ele>204.39999389648</ele>
        <time>2014-11-02T10:05:44.000Z</time>
      </trkpt>
      <trkpt lat="43.53417" lon="1.22854">
        <ele>204.60000610352</ele>
        <time>2014-11-02T10:05:48.000Z</time>
      </trkpt>
      <trkpt lat="43.53405" lon="1.22877">
        <ele>205</ele>
        <time>2014-11-02T10:05:52.000Z</time>
      </trkpt>
      <trkpt lat="43.53396" lon="1.22885">
        <ele>205</ele>
        <time>2014-11-02T10:05:54.000Z</time>
      </trkpt>
      <trkpt lat="43.53386" lon="1.229">
        <ele>205</ele>
        <time>2014-11-02T10:05:57.000Z</time>
      </trkpt>
      <trkpt lat="43.53372" lon="1.22932">
        <ele>205.19999694824</ele>
        <time>2014-11-02T10:06:02.000Z</time>
      </trkpt>
      <trkpt lat="43.53352" lon="1.22973">
        <ele>205</ele>
        <time>2014-11-02T10:06:09.000Z</time>
      </trkpt>
      <trkpt lat="43.53349" lon="1.22979">
        <ele>205</ele>
        <time>2014-11-02T10:06:10.000Z</time>
      </trkpt>
      <trkpt lat="43.53345" lon="1.22999">
        <ele>204.80000305176</ele>
        <time>2014-11-02T10:06:13.000Z</time>
      </trkpt>
      <trkpt lat="43.53341" lon="1.23011">
        <ele>204.80000305176</ele>
        <time>2014-11-02T10:06:15.000Z</time>
      </trkpt>
      <trkpt lat="43.53331" lon="1.23037">
        <ele>204.60000610352</ele>
        <time>2014-11-02T10:06:19.000Z</time>
      </trkpt>
      <trkpt lat="43.53314" lon="1.23087">
        <ele>203.19999694824</ele>
        <time>2014-11-02T10:06:26.000Z</time>
      </trkpt>
      <trkpt lat="43.53304" lon="1.23113">
        <ele>202.39999389648</ele>
        <time>2014-11-02T10:06:30.000Z</time>
      </trkpt>
      <trkpt lat="43.53299" lon="1.23126">
        <ele>202.39999389648</ele>
        <time>2014-11-02T10:06:32.000Z</time>
      </trkpt>
      <trkpt lat="43.53295" lon="1.23132">
        <ele>202.39999389648</ele>
        <time>2014-11-02T10:06:33.000Z</time>
      </trkpt>
      <trkpt lat="43.53281" lon="1.23146">
        <ele>202.19999694824</ele>
        <time>2014-11-02T10:06:36.000Z</time>
      </trkpt>
      <trkpt lat="43.53264" lon="1.23149">
        <ele>201.39999389648</ele>
        <time>2014-11-02T10:06:39.000Z</time>
      </trkpt>
      <trkpt lat="43.53257" lon="1.2315">
        <ele>201</ele>
        <time>2014-11-02T10:06:40.000Z</time>
      </trkpt>
      <trkpt lat="43.53218" lon="1.23145">
        <ele>198.60000610352</ele>
        <time>2014-11-02T10:06:46.000Z</time>
      </trkpt>
      <trkpt lat="43.53169" lon="1.23128">
        <ele>195.60000610352</ele>
        <time>2014-11-02T10:06:53.000Z</time>
      </trkpt>
      <trkpt lat="43.53128" lon="1.23113">
        <ele>193.19999694824</ele>
        <time>2014-11-02T10:06:58.000Z</time>
      </trkpt>
      <trkpt lat="43.53079" lon="1.23103">
        <ele>189.39999389648</ele>
        <time>2014-11-02T10:07:03.000Z</time>
      </trkpt>
      <trkpt lat="43.53033" lon="1.23104">
        <ele>185.39999389648</ele>
        <time>2014-11-02T10:07:07.000Z</time>
      </trkpt>
      <trkpt lat="43.52978" lon="1.23103">
        <ele>185.39999389648</ele>
        <time>2014-11-02T10:07:12.000Z</time>
      </trkpt>
      <trkpt lat="43.52955" lon="1.23104">
        <ele>185</ele>
        <time>2014-11-02T10:07:14.000Z</time>
      </trkpt>
      <trkpt lat="43.52925" lon="1.23109">
        <ele>185</ele>
        <time>2014-11-02T10:07:17.000Z</time>
      </trkpt>
      <trkpt lat="43.52915" lon="1.23113">
        <ele>185.80000305176</ele>
        <time>2014-11-02T10:07:18.000Z</time>
      </trkpt>
      <trkpt lat="43.52866" lon="1.23134">
        <ele>185.80000305176</ele>
        <time>2014-11-02T10:07:24.000Z</time>
      </trkpt>
      <trkpt lat="43.5282" lon="1.2315">
        <ele>185.39999389648</ele>
        <time>2014-11-02T10:07:30.000Z</time>
      </trkpt>
      <trkpt lat="43.52779" lon="1.23173">
        <ele>184.39999389648</ele>
        <time>2014-11-02T10:07:35.000Z</time>
      </trkpt>
      <trkpt lat="43.52732" lon="1.2321">
        <ele>180.39999389648</ele>
        <time>2014-11-02T10:07:41.000Z</time>
      </trkpt>
      <trkpt lat="43.52709" lon="1.23228">
        <ele>179.80000305176</ele>
        <time>2014-11-02T10:07:44.000Z</time>
      </trkpt>
      <trkpt lat="43.52688" lon="1.23241">
        <ele>179.60000610352</ele>
        <time>2014-11-02T10:07:47.000Z</time>
      </trkpt>
      <trkpt lat="43.52681" lon="1.23242">
        <ele>179.80000305176</ele>
        <time>2014-11-02T10:07:48.000Z</time>
      </trkpt>
      <trkpt lat="43.52664" lon="1.23236">
        <ele>180</ele>
        <time>2014-11-02T10:07:51.000Z</time>
      </trkpt>
      <trkpt lat="43.52652" lon="1.23245">
        <ele>180</ele>
        <time>2014-11-02T10:07:54.000Z</time>
      </trkpt>
      <trkpt lat="43.5265" lon="1.23248">
        <ele>180</ele>
        <time>2014-11-02T10:07:55.000Z</time>
      </trkpt>
      <trkpt lat="43.52647" lon="1.23251">
        <ele>180</ele>
        <time>2014-11-02T10:07:56.000Z</time>
      </trkpt>
      <trkpt lat="43.52636" lon="1.23254">
        <ele>180</ele>
        <time>2014-11-02T10:07:59.000Z</time>
      </trkpt>
      <trkpt lat="43.52632" lon="1.23254">
        <ele>180</ele>
        <time>2014-11-02T10:08:00.000Z</time>
      </trkpt>
      <trkpt lat="43.52622" lon="1.23252">
        <ele>180.19999694824</ele>
        <time>2014-11-02T10:08:02.000Z</time>
      </trkpt>
      <trkpt lat="43.5261" lon="1.23249">
        <ele>180.19999694824</ele>
        <time>2014-11-02T10:08:04.000Z</time>
      </trkpt>
      <trkpt lat="43.5257" lon="1.23241">
        <ele>179.39999389648</ele>
        <time>2014-11-02T10:08:10.000Z</time>
      </trkpt>
      <trkpt lat="43.52519" lon="1.23228">
        <ele>178.19999694824</ele>
        <time>2014-11-02T10:08:17.000Z</time>
      </trkpt>
      <trkpt lat="43.52471" lon="1.23211">
        <ele>178.19999694824</ele>
        <time>2014-11-02T10:08:24.000Z</time>
      </trkpt>
      <trkpt lat="43.52433" lon="1.23197">
        <ele>178.39999389648</ele>
        <time>2014-11-02T10:08:30.000Z</time>
      </trkpt>
      <trkpt lat="43.52385" lon="1.2318">
        <ele>178</ele>
        <time>2014-11-02T10:08:37.000Z</time>
      </trkpt>
      <trkpt lat="43.52334" lon="1.23163">
        <ele>177.80000305176</ele>
        <time>2014-11-02T10:08:44.000Z</time>
      </trkpt>
      <trkpt lat="43.52284" lon="1.23148">
        <ele>178</ele>
        <time>2014-11-02T10:08:51.000Z</time>
      </trkpt>
      <trkpt lat="43.52257" lon="1.23141">
        <ele>178</ele>
        <time>2014-11-02T10:08:55.000Z</time>
      </trkpt>
      <trkpt lat="43.52245" lon="1.23136">
        <ele>178.19999694824</ele>
        <time>2014-11-02T10:08:57.000Z</time>
      </trkpt>
      <trkpt lat="43.52238" lon="1.23134">
        <ele>178.19999694824</ele>
        <time>2014-11-02T10:08:58.000Z</time>
      </trkpt>
      <trkpt lat="43.52205" lon="1.23126">
        <ele>178.19999694824</ele>
        <time>2014-11-02T10:09:03.000Z</time>
      </trkpt>
      <trkpt lat="43.52165" lon="1.23115">
        <ele>178.39999389648</ele>
        <time>2014-11-02T10:09:09.000Z</time>
      </trkpt>
      <trkpt lat="43.52106" lon="1.23101">
        <ele>178.60000610352</ele>
        <time>2014-11-02T10:09:18.000Z</time>
      </trkpt>
      <trkpt lat="43.52099" lon="1.231">
        <ele>178.60000610352</ele>
        <time>2014-11-02T10:09:19.000Z</time>
      </trkpt>
      <trkpt lat="43.52052" lon="1.23089">
        <ele>179.80000305176</ele>
        <time>2014-11-02T10:09:26.000Z</time>
      </trkpt>
      <trkpt lat="43.52039" lon="1.23086">
        <ele>180.19999694824</ele>
        <time>2014-11-02T10:09:28.000Z</time>
      </trkpt>
      <trkpt lat="43.5199" lon="1.23075">
        <ele>180.60000610352</ele>
        <time>2014-11-02T10:09:35.000Z</time>
      </trkpt>
      <trkpt lat="43.51983" lon="1.23073">
        <ele>180.39999389648</ele>
        <time>2014-11-02T10:09:36.000Z</time>
      </trkpt>
      <trkpt lat="43.51957" lon="1.23066">
        <ele>180.19999694824</ele>
        <time>2014-11-02T10:09:40.000Z</time>
      </trkpt>
      <trkpt lat="43.51952" lon="1.23064">
        <ele>180.19999694824</ele>
        <time>2014-11-02T10:09:41.000Z</time>
      </trkpt>
      <trkpt lat="43.51941" lon="1.23058">
        <ele>180</ele>
        <time>2014-11-02T10:09:44.000Z</time>
      </trkpt>
      <trkpt lat="43.51937" lon="1.23064">
        <ele>180</ele>
        <time>2014-11-02T10:09:46.000Z</time>
      </trkpt>
      <trkpt lat="43.51937" lon="1.23074">
        <ele>179.80000305176</ele>
        <time>2014-11-02T10:09:48.000Z</time>
      </trkpt>
      <trkpt lat="43.51939" lon="1.23087">
        <ele>179.60000610352</ele>
        <time>2014-11-02T10:09:50.000Z</time>
      </trkpt>
      <trkpt lat="43.51944" lon="1.231">
        <ele>179.39999389648</ele>
        <time>2014-11-02T10:09:52.000Z</time>
      </trkpt>
      <trkpt lat="43.51953" lon="1.23121">
        <ele>179</ele>
        <time>2014-11-02T10:09:55.000Z</time>
      </trkpt>
      <trkpt lat="43.51984" lon="1.23179">
        <ele>178.80000305176</ele>
        <time>2014-11-02T10:10:03.000Z</time>
      </trkpt>
      <trkpt lat="43.52017" lon="1.23244">
        <ele>179</ele>
        <time>2014-11-02T10:10:11.000Z</time>
      </trkpt>
      <trkpt lat="43.52021" lon="1.23252">
        <ele>179</ele>
        <time>2014-11-02T10:10:12.000Z</time>
      </trkpt>
      <trkpt lat="43.5205" lon="1.23309">
        <ele>179</ele>
        <time>2014-11-02T10:10:19.000Z</time>
      </trkpt>
      <trkpt lat="43.52085" lon="1.23377">
        <ele>179</ele>
        <time>2014-11-02T10:10:27.000Z</time>
      </trkpt>
      <trkpt lat="43.5212" lon="1.23444">
        <ele>178</ele>
        <time>2014-11-02T10:10:35.000Z</time>
      </trkpt>
      <trkpt lat="43.52157" lon="1.23511">
        <ele>176.80000305176</ele>
        <time>2014-11-02T10:10:43.000Z</time>
      </trkpt>
      <trkpt lat="43.52161" lon="1.2352">
        <ele>176.80000305176</ele>
        <time>2014-11-02T10:10:44.000Z</time>
      </trkpt>
      <trkpt lat="43.52196" lon="1.2359">
        <ele>176.19999694824</ele>
        <time>2014-11-02T10:10:52.000Z</time>
      </trkpt>
      <trkpt lat="43.52229" lon="1.2366">
        <ele>176.60000610352</ele>
        <time>2014-11-02T10:11:00.000Z</time>
      </trkpt>
      <trkpt lat="43.52258" lon="1.23723">
        <ele>176.80000305176</ele>
        <time>2014-11-02T10:11:07.000Z</time>
      </trkpt>
      <trkpt lat="43.52263" lon="1.23732">
        <ele>177</ele>
        <time>2014-11-02T10:11:08.000Z</time>
      </trkpt>
      <trkpt lat="43.52293" lon="1.23795">
        <ele>176.19999694824</ele>
        <time>2014-11-02T10:11:15.000Z</time>
      </trkpt>
      <trkpt lat="43.52297" lon="1.23804">
        <ele>176.19999694824</ele>
        <time>2014-11-02T10:11:16.000Z</time>
      </trkpt>
      <trkpt lat="43.52328" lon="1.23875">
        <ele>175.19999694824</ele>
        <time>2014-11-02T10:11:24.000Z</time>
      </trkpt>
      <trkpt lat="43.52351" lon="1.23948">
        <ele>175</ele>
        <time>2014-11-02T10:11:32.000Z</time>
      </trkpt>
      <trkpt lat="43.52355" lon="1.23967">
        <ele>175</ele>
        <time>2014-11-02T10:11:34.000Z</time>
      </trkpt>
      <trkpt lat="43.52364" lon="1.24023">
        <ele>175.80000305176</ele>
        <time>2014-11-02T10:11:40.000Z</time>
      </trkpt>
      <trkpt lat="43.52377" lon="1.24093">
        <ele>176</ele>
        <time>2014-11-02T10:11:47.000Z</time>
      </trkpt>
      <trkpt lat="43.5239" lon="1.24167">
        <ele>174.60000610352</ele>
        <time>2014-11-02T10:11:55.000Z</time>
      </trkpt>
      <trkpt lat="43.524" lon="1.24221">
        <ele>174.39999389648</ele>
        <time>2014-11-02T10:12:01.000Z</time>
      </trkpt>
      <trkpt lat="43.52413" lon="1.24299">
        <ele>175</ele>
        <time>2014-11-02T10:12:10.000Z</time>
      </trkpt>
      <trkpt lat="43.52415" lon="1.24308">
        <ele>175</ele>
        <time>2014-11-02T10:12:11.000Z</time>
      </trkpt>
      <trkpt lat="43.52424" lon="1.24359">
        <ele>174.39999389648</ele>
        <time>2014-11-02T10:12:17.000Z</time>
      </trkpt>
      <trkpt lat="43.52437" lon="1.24426">
        <ele>174.39999389648</ele>
        <time>2014-11-02T10:12:25.000Z</time>
      </trkpt>
      <trkpt lat="43.52453" lon="1.24494">
        <ele>174.60000610352</ele>
        <time>2014-11-02T10:12:33.000Z</time>
      </trkpt>
      <trkpt lat="43.52471" lon="1.24563">
        <ele>173.60000610352</ele>
        <time>2014-11-02T10:12:41.000Z</time>
      </trkpt>
      <trkpt lat="43.52491" lon="1.2464">
        <ele>174</ele>
        <time>2014-11-02T10:12:50.000Z</time>
      </trkpt>
      <trkpt lat="43.5251" lon="1.24716">
        <ele>174.80000305176</ele>
        <time>2014-11-02T10:12:59.000Z</time>
      </trkpt>
      <trkpt lat="43.52514" lon="1.24733">
        <ele>175</ele>
        <time>2014-11-02T10:13:01.000Z</time>
      </trkpt>
      <trkpt lat="43.52521" lon="1.24767">
        <ele>174.60000610352</ele>
        <time>2014-11-02T10:13:05.000Z</time>
      </trkpt>
      <trkpt lat="43.52522" lon="1.24784">
        <ele>174.19999694824</ele>
        <time>2014-11-02T10:13:07.000Z</time>
      </trkpt>
      <trkpt lat="43.52524" lon="1.24844">
        <ele>173.60000610352</ele>
        <time>2014-11-02T10:13:14.000Z</time>
      </trkpt>
      <trkpt lat="43.52527" lon="1.24913">
        <ele>173</ele>
        <time>2014-11-02T10:13:22.000Z</time>
      </trkpt>
      <trkpt lat="43.52527" lon="1.24921">
        <ele>173</ele>
        <time>2014-11-02T10:13:23.000Z</time>
      </trkpt>
      <trkpt lat="43.52537" lon="1.2497">
        <ele>173</ele>
        <time>2014-11-02T10:13:29.000Z</time>
      </trkpt>
      <trkpt lat="43.52552" lon="1.25036">
        <ele>173</ele>
        <time>2014-11-02T10:13:37.000Z</time>
      </trkpt>
      <trkpt lat="43.52563" lon="1.25097">
        <ele>173.39999389648</ele>
        <time>2014-11-02T10:13:44.000Z</time>
      </trkpt>
      <trkpt lat="43.52562" lon="1.25159">
        <ele>174.39999389648</ele>
        <time>2014-11-02T10:13:51.000Z</time>
      </trkpt>
      <trkpt lat="43.52559" lon="1.25237">
        <ele>176</ele>
        <time>2014-11-02T10:14:00.000Z</time>
      </trkpt>
      <trkpt lat="43.52555" lon="1.25291">
        <ele>175.60000610352</ele>
        <time>2014-11-02T10:14:06.000Z</time>
      </trkpt>
      <trkpt lat="43.52545" lon="1.25351">
        <ele>174.60000610352</ele>
        <time>2014-11-02T10:14:13.000Z</time>
      </trkpt>
      <trkpt lat="43.52535" lon="1.25399">
        <ele>174.39999389648</ele>
        <time>2014-11-02T10:14:19.000Z</time>
      </trkpt>
      <trkpt lat="43.52524" lon="1.25449">
        <ele>174</ele>
        <time>2014-11-02T10:14:25.000Z</time>
      </trkpt>
      <trkpt lat="43.52523" lon="1.25458">
        <ele>174</ele>
        <time>2014-11-02T10:14:26.000Z</time>
      </trkpt>
      <trkpt lat="43.52525" lon="1.25474">
        <ele>174</ele>
        <time>2014-11-02T10:14:28.000Z</time>
      </trkpt>
      <trkpt lat="43.52532" lon="1.25496">
        <ele>174.19999694824</ele>
        <time>2014-11-02T10:14:32.000Z</time>
      </trkpt>
      <trkpt lat="43.52526" lon="1.25512">
        <ele>174.19999694824</ele>
        <time>2014-11-02T10:14:37.000Z</time>
      </trkpt>
      <trkpt lat="43.52524" lon="1.25516">
        <ele>174</ele>
        <time>2014-11-02T10:14:38.000Z</time>
      </trkpt>
      <trkpt lat="43.52512" lon="1.25536">
        <ele>174</ele>
        <time>2014-11-02T10:14:42.000Z</time>
      </trkpt>
      <trkpt lat="43.52493" lon="1.25575">
        <ele>173.80000305176</ele>
        <time>2014-11-02T10:14:48.000Z</time>
      </trkpt>
      <trkpt lat="43.5248" lon="1.25623">
        <ele>173.39999389648</ele>
        <time>2014-11-02T10:14:54.000Z</time>
      </trkpt>
      <trkpt lat="43.52474" lon="1.25686">
        <ele>173.60000610352</ele>
        <time>2014-11-02T10:15:01.000Z</time>
      </trkpt>
      <trkpt lat="43.52468" lon="1.25769">
        <ele>173.19999694824</ele>
        <time>2014-11-02T10:15:10.000Z</time>
      </trkpt>
      <trkpt lat="43.52467" lon="1.25779">
        <ele>173.19999694824</ele>
        <time>2014-11-02T10:15:11.000Z</time>
      </trkpt>
      <trkpt lat="43.52463" lon="1.25853">
        <ele>173.19999694824</ele>
        <time>2014-11-02T10:15:19.000Z</time>
      </trkpt>
      <trkpt lat="43.52463" lon="1.25871">
        <ele>173.19999694824</ele>
        <time>2014-11-02T10:15:21.000Z</time>
      </trkpt>
      <trkpt lat="43.52465" lon="1.25947">
        <ele>174</ele>
        <time>2014-11-02T10:15:29.000Z</time>
      </trkpt>
      <trkpt lat="43.52465" lon="1.25955">
        <ele>174.39999389648</ele>
        <time>2014-11-02T10:15:30.000Z</time>
      </trkpt>
      <trkpt lat="43.52461" lon="1.25992">
        <ele>175.19999694824</ele>
        <time>2014-11-02T10:15:34.000Z</time>
      </trkpt>
      <trkpt lat="43.52449" lon="1.26044">
        <ele>175.60000610352</ele>
        <time>2014-11-02T10:15:40.000Z</time>
      </trkpt>
      <trkpt lat="43.52427" lon="1.26113">
        <ele>174.19999694824</ele>
        <time>2014-11-02T10:15:48.000Z</time>
      </trkpt>
      <trkpt lat="43.52414" lon="1.26171">
        <ele>174.39999389648</ele>
        <time>2014-11-02T10:15:54.000Z</time>
      </trkpt>
      <trkpt lat="43.52415" lon="1.26214">
        <ele>175.19999694824</ele>
        <time>2014-11-02T10:15:58.000Z</time>
      </trkpt>
      <trkpt lat="43.52417" lon="1.26224">
        <ele>175.39999389648</ele>
        <time>2014-11-02T10:15:59.000Z</time>
      </trkpt>
      <trkpt lat="43.52422" lon="1.26244">
        <ele>175.80000305176</ele>
        <time>2014-11-02T10:16:01.000Z</time>
      </trkpt>
      <trkpt lat="43.52429" lon="1.26262">
        <ele>176.19999694824</ele>
        <time>2014-11-02T10:16:03.000Z</time>
      </trkpt>
      <trkpt lat="43.52451" lon="1.26304">
        <ele>177.39999389648</ele>
        <time>2014-11-02T10:16:08.000Z</time>
      </trkpt>
      <trkpt lat="43.52466" lon="1.26327">
        <ele>177.60000610352</ele>
        <time>2014-11-02T10:16:11.000Z</time>
      </trkpt>
      <trkpt lat="43.52482" lon="1.2635">
        <ele>177.39999389648</ele>
        <time>2014-11-02T10:16:14.000Z</time>
      </trkpt>
      <trkpt lat="43.52514" lon="1.26399">
        <ele>177</ele>
        <time>2014-11-02T10:16:21.000Z</time>
      </trkpt>
      <trkpt lat="43.52539" lon="1.26454">
        <ele>175.80000305176</ele>
        <time>2014-11-02T10:16:26.000Z</time>
      </trkpt>
      <trkpt lat="43.52546" lon="1.26496">
        <ele>175.39999389648</ele>
        <time>2014-11-02T10:16:30.000Z</time>
      </trkpt>
      <trkpt lat="43.52544" lon="1.26552">
        <ele>175.39999389648</ele>
        <time>2014-11-02T10:16:35.000Z</time>
      </trkpt>
      <trkpt lat="43.52535" lon="1.26631">
        <ele>175</ele>
        <time>2014-11-02T10:16:42.000Z</time>
      </trkpt>
      <trkpt lat="43.52533" lon="1.26642">
        <ele>174.80000305176</ele>
        <time>2014-11-02T10:16:43.000Z</time>
      </trkpt>
      <trkpt lat="43.52527" lon="1.26707">
        <ele>175</ele>
        <time>2014-11-02T10:16:49.000Z</time>
      </trkpt>
      <trkpt lat="43.52523" lon="1.26779">
        <ele>175</ele>
        <time>2014-11-02T10:16:56.000Z</time>
      </trkpt>
      <trkpt lat="43.52517" lon="1.2686">
        <ele>174.39999389648</ele>
        <time>2014-11-02T10:17:04.000Z</time>
      </trkpt>
      <trkpt lat="43.52516" lon="1.2687">
        <ele>174.39999389648</ele>
        <time>2014-11-02T10:17:05.000Z</time>
      </trkpt>
      <trkpt lat="43.52507" lon="1.26943">
        <ele>174.39999389648</ele>
        <time>2014-11-02T10:17:12.000Z</time>
      </trkpt>
      <trkpt lat="43.52502" lon="1.27023">
        <ele>174.39999389648</ele>
        <time>2014-11-02T10:17:20.000Z</time>
      </trkpt>
      <trkpt lat="43.52501" lon="1.27035">
        <ele>174.39999389648</ele>
        <time>2014-11-02T10:17:21.000Z</time>
      </trkpt>
      <trkpt lat="43.52497" lon="1.27091">
        <ele>174.19999694824</ele>
        <time>2014-11-02T10:17:27.000Z</time>
      </trkpt>
      <trkpt lat="43.52488" lon="1.27149">
        <ele>174.19999694824</ele>
        <time>2014-11-02T10:17:34.000Z</time>
      </trkpt>
      <trkpt lat="43.5247" lon="1.27217">
        <ele>173.39999389648</ele>
        <time>2014-11-02T10:17:42.000Z</time>
      </trkpt>
      <trkpt lat="43.52451" lon="1.27275">
        <ele>173.39999389648</ele>
        <time>2014-11-02T10:17:49.000Z</time>
      </trkpt>
      <trkpt lat="43.52428" lon="1.27347">
        <ele>173.80000305176</ele>
        <time>2014-11-02T10:17:58.000Z</time>
      </trkpt>
      <trkpt lat="43.52423" lon="1.27361">
        <ele>174.19999694824</ele>
        <time>2014-11-02T10:18:00.000Z</time>
      </trkpt>
      <trkpt lat="43.52403" lon="1.27423">
        <ele>174.39999389648</ele>
        <time>2014-11-02T10:18:08.000Z</time>
      </trkpt>
      <trkpt lat="43.52391" lon="1.27475">
        <ele>174</ele>
        <time>2014-11-02T10:18:15.000Z</time>
      </trkpt>
      <trkpt lat="43.52386" lon="1.275">
        <ele>174.39999389648</ele>
        <time>2014-11-02T10:18:18.000Z</time>
      </trkpt>
      <trkpt lat="43.52378" lon="1.2753">
        <ele>174.60000610352</ele>
        <time>2014-11-02T10:18:22.000Z</time>
      </trkpt>
      <trkpt lat="43.52365" lon="1.27583">
        <ele>174.19999694824</ele>
        <time>2014-11-02T10:18:29.000Z</time>
      </trkpt>
      <trkpt lat="43.52345" lon="1.2765">
        <ele>175</ele>
        <time>2014-11-02T10:18:38.000Z</time>
      </trkpt>
      <trkpt lat="43.52326" lon="1.27698">
        <ele>175.19999694824</ele>
        <time>2014-11-02T10:18:45.000Z</time>
      </trkpt>
      <trkpt lat="43.52302" lon="1.27753">
        <ele>175.80000305176</ele>
        <time>2014-11-02T10:18:53.000Z</time>
      </trkpt>
      <trkpt lat="43.52279" lon="1.27802">
        <ele>175.80000305176</ele>
        <time>2014-11-02T10:19:00.000Z</time>
      </trkpt>
      <trkpt lat="43.52257" lon="1.27847">
        <ele>175.60000610352</ele>
        <time>2014-11-02T10:19:07.000Z</time>
      </trkpt>
      <trkpt lat="43.5223" lon="1.27895">
        <ele>175</ele>
        <time>2014-11-02T10:19:15.000Z</time>
      </trkpt>
      <trkpt lat="43.52204" lon="1.27946">
        <ele>175.39999389648</ele>
        <time>2014-11-02T10:19:23.000Z</time>
      </trkpt>
      <trkpt lat="43.52175" lon="1.28002">
        <ele>176.39999389648</ele>
        <time>2014-11-02T10:19:32.000Z</time>
      </trkpt>
      <trkpt lat="43.52146" lon="1.28056">
        <ele>176.19999694824</ele>
        <time>2014-11-02T10:19:41.000Z</time>
      </trkpt>
      <trkpt lat="43.5212" lon="1.28104">
        <ele>176</ele>
        <time>2014-11-02T10:19:49.000Z</time>
      </trkpt>
      <trkpt lat="43.52097" lon="1.28147">
        <ele>175</ele>
        <time>2014-11-02T10:19:56.000Z</time>
      </trkpt>
      <trkpt lat="43.52072" lon="1.28191">
        <ele>174.39999389648</ele>
        <time>2014-11-02T10:20:03.000Z</time>
      </trkpt>
      <trkpt lat="43.52048" lon="1.28235">
        <ele>174.60000610352</ele>
        <time>2014-11-02T10:20:10.000Z</time>
      </trkpt>
      <trkpt lat="43.52014" lon="1.28298">
        <ele>173.19999694824</ele>
        <time>2014-11-02T10:20:19.000Z</time>
      </trkpt>
      <trkpt lat="43.51981" lon="1.28358">
        <ele>173</ele>
        <time>2014-11-02T10:20:27.000Z</time>
      </trkpt>
      <trkpt lat="43.51954" lon="1.28409">
        <ele>174</ele>
        <time>2014-11-02T10:20:34.000Z</time>
      </trkpt>
      <trkpt lat="43.51929" lon="1.28456">
        <ele>174.80000305176</ele>
        <time>2014-11-02T10:20:41.000Z</time>
      </trkpt>
      <trkpt lat="43.51904" lon="1.28515">
        <ele>174.60000610352</ele>
        <time>2014-11-02T10:20:50.000Z</time>
      </trkpt>
      <trkpt lat="43.51899" lon="1.28529">
        <ele>174.39999389648</ele>
        <time>2014-11-02T10:20:52.000Z</time>
      </trkpt>
      <trkpt lat="43.51879" lon="1.28587">
        <ele>174.60000610352</ele>
        <time>2014-11-02T10:21:00.000Z</time>
      </trkpt>
      <trkpt lat="43.51858" lon="1.28656">
        <ele>171.19999694824</ele>
        <time>2014-11-02T10:21:09.000Z</time>
      </trkpt>
      <trkpt lat="43.5184" lon="1.28723">
        <ele>174</ele>
        <time>2014-11-02T10:21:17.000Z</time>
      </trkpt>
      <trkpt lat="43.51827" lon="1.28773">
        <ele>174.60000610352</ele>
        <time>2014-11-02T10:21:23.000Z</time>
      </trkpt>
      <trkpt lat="43.51809" lon="1.28836">
        <ele>174</ele>
        <time>2014-11-02T10:21:31.000Z</time>
      </trkpt>
      <trkpt lat="43.51795" lon="1.28904">
        <ele>173</ele>
        <time>2014-11-02T10:21:39.000Z</time>
      </trkpt>
      <trkpt lat="43.51784" lon="1.28973">
        <ele>174</ele>
        <time>2014-11-02T10:21:47.000Z</time>
      </trkpt>
      <trkpt lat="43.51775" lon="1.29035">
        <ele>172.80000305176</ele>
        <time>2014-11-02T10:21:54.000Z</time>
      </trkpt>
      <trkpt lat="43.51766" lon="1.29103">
        <ele>172.60000610352</ele>
        <time>2014-11-02T10:22:01.000Z</time>
      </trkpt>
      <trkpt lat="43.51767" lon="1.29186">
        <ele>173</ele>
        <time>2014-11-02T10:22:10.000Z</time>
      </trkpt>
      <trkpt lat="43.5177" lon="1.29261">
        <ele>173</ele>
        <time>2014-11-02T10:22:18.000Z</time>
      </trkpt>
      <trkpt lat="43.51772" lon="1.29337">
        <ele>173.19999694824</ele>
        <time>2014-11-02T10:22:26.000Z</time>
      </trkpt>
      <trkpt lat="43.51772" lon="1.29346">
        <ele>173.19999694824</ele>
        <time>2014-11-02T10:22:27.000Z</time>
      </trkpt>
      <trkpt lat="43.51767" lon="1.29412">
        <ele>173.80000305176</ele>
        <time>2014-11-02T10:22:34.000Z</time>
      </trkpt>
      <trkpt lat="43.51759" lon="1.29483">
        <ele>173.19999694824</ele>
        <time>2014-11-02T10:22:42.000Z</time>
      </trkpt>
      <trkpt lat="43.5175" lon="1.29552">
        <ele>174.80000305176</ele>
        <time>2014-11-02T10:22:50.000Z</time>
      </trkpt>
      <trkpt lat="43.51743" lon="1.29607">
        <ele>174.39999389648</ele>
        <time>2014-11-02T10:22:56.000Z</time>
      </trkpt>
      <trkpt lat="43.51734" lon="1.29683">
        <ele>174</ele>
        <time>2014-11-02T10:23:04.000Z</time>
      </trkpt>
      <trkpt lat="43.51732" lon="1.29702">
        <ele>173.80000305176</ele>
        <time>2014-11-02T10:23:06.000Z</time>
      </trkpt>
      <trkpt lat="43.51731" lon="1.29731">
        <ele>173.80000305176</ele>
        <time>2014-11-02T10:23:09.000Z</time>
      </trkpt>
      <trkpt lat="43.51731" lon="1.29768">
        <ele>173.39999389648</ele>
        <time>2014-11-02T10:23:13.000Z</time>
      </trkpt>
      <trkpt lat="43.51733" lon="1.29846">
        <ele>172.39999389648</ele>
        <time>2014-11-02T10:23:21.000Z</time>
      </trkpt>
      <trkpt lat="43.5173" lon="1.29927">
        <ele>172.19999694824</ele>
        <time>2014-11-02T10:23:29.000Z</time>
      </trkpt>
      <trkpt lat="43.5173" lon="1.29937">
        <ele>172.60000610352</ele>
        <time>2014-11-02T10:23:30.000Z</time>
      </trkpt>
      <trkpt lat="43.51724" lon="1.30017">
        <ele>173.39999389648</ele>
        <time>2014-11-02T10:23:38.000Z</time>
      </trkpt>
      <trkpt lat="43.51716" lon="1.30091">
        <ele>174</ele>
        <time>2014-11-02T10:23:45.000Z</time>
      </trkpt>
      <trkpt lat="43.51714" lon="1.30103">
        <ele>173.80000305176</ele>
        <time>2014-11-02T10:23:46.000Z</time>
      </trkpt>
      <trkpt lat="43.51703" lon="1.30184">
        <ele>173</ele>
        <time>2014-11-02T10:23:54.000Z</time>
      </trkpt>
      <trkpt lat="43.51702" lon="1.30193">
        <ele>172.80000305176</ele>
        <time>2014-11-02T10:23:55.000Z</time>
      </trkpt>
      <trkpt lat="43.51691" lon="1.30268">
        <ele>172.19999694824</ele>
        <time>2014-11-02T10:24:03.000Z</time>
      </trkpt>
      <trkpt lat="43.51682" lon="1.3034">
        <ele>172</ele>
        <time>2014-11-02T10:24:11.000Z</time>
      </trkpt>
      <trkpt lat="43.51679" lon="1.30399">
        <ele>172</ele>
        <time>2014-11-02T10:24:18.000Z</time>
      </trkpt>
      <trkpt lat="43.51678" lon="1.30462">
        <ele>171.19999694824</ele>
        <time>2014-11-02T10:24:26.000Z</time>
      </trkpt>
      <trkpt lat="43.51678" lon="1.30525">
        <ele>172.19999694824</ele>
        <time>2014-11-02T10:24:33.000Z</time>
      </trkpt>
      <trkpt lat="43.51675" lon="1.30599">
        <ele>173.60000610352</ele>
        <time>2014-11-02T10:24:41.000Z</time>
      </trkpt>
      <trkpt lat="43.51669" lon="1.3068">
        <ele>173.80000305176</ele>
        <time>2014-11-02T10:24:50.000Z</time>
      </trkpt>
      <trkpt lat="43.51663" lon="1.3074">
        <ele>173.60000610352</ele>
        <time>2014-11-02T10:24:57.000Z</time>
      </trkpt>
      <trkpt lat="43.51659" lon="1.3079">
        <ele>172.39999389648</ele>
        <time>2014-11-02T10:25:03.000Z</time>
      </trkpt>
      <trkpt lat="43.51653" lon="1.30857">
        <ele>172.39999389648</ele>
        <time>2014-11-02T10:25:11.000Z</time>
      </trkpt>
      <trkpt lat="43.5165" lon="1.30902">
        <ele>172.60000610352</ele>
        <time>2014-11-02T10:25:16.000Z</time>
      </trkpt>
      <trkpt lat="43.5165" lon="1.30921">
        <ele>173</ele>
        <time>2014-11-02T10:25:18.000Z</time>
      </trkpt>
      <trkpt lat="43.51648" lon="1.30957">
        <ele>173.39999389648</ele>
        <time>2014-11-02T10:25:22.000Z</time>
      </trkpt>
      <trkpt lat="43.51647" lon="1.30974">
        <ele>173.19999694824</ele>
        <time>2014-11-02T10:25:24.000Z</time>
      </trkpt>
      <trkpt lat="43.51646" lon="1.30991">
        <ele>173</ele>
        <time>2014-11-02T10:25:26.000Z</time>
      </trkpt>
      <trkpt lat="43.51639" lon="1.31056">
        <ele>173.39999389648</ele>
        <time>2014-11-02T10:25:33.000Z</time>
      </trkpt>
      <trkpt lat="43.51634" lon="1.31136">
        <ele>174.80000305176</ele>
        <time>2014-11-02T10:25:41.000Z</time>
      </trkpt>
      <trkpt lat="43.51634" lon="1.31215">
        <ele>173.80000305176</ele>
        <time>2014-11-02T10:25:49.000Z</time>
      </trkpt>
      <trkpt lat="43.51634" lon="1.31223">
        <ele>173.60000610352</ele>
        <time>2014-11-02T10:25:50.000Z</time>
      </trkpt>
      <trkpt lat="43.51635" lon="1.31302">
        <ele>172.60000610352</ele>
        <time>2014-11-02T10:25:58.000Z</time>
      </trkpt>
      <trkpt lat="43.51636" lon="1.3138">
        <ele>172.39999389648</ele>
        <time>2014-11-02T10:26:06.000Z</time>
      </trkpt>
      <trkpt lat="43.51636" lon="1.31389">
        <ele>172.19999694824</ele>
        <time>2014-11-02T10:26:07.000Z</time>
      </trkpt>
      <trkpt lat="43.51637" lon="1.31463">
        <ele>172.80000305176</ele>
        <time>2014-11-02T10:26:15.000Z</time>
      </trkpt>
      <trkpt lat="43.51638" lon="1.31483">
        <ele>173</ele>
        <time>2014-11-02T10:26:17.000Z</time>
      </trkpt>
      <trkpt lat="43.51638" lon="1.31559">
        <ele>173</ele>
        <time>2014-11-02T10:26:25.000Z</time>
      </trkpt>
      <trkpt lat="43.51637" lon="1.31617">
        <ele>174</ele>
        <time>2014-11-02T10:26:31.000Z</time>
      </trkpt>
      <trkpt lat="43.51626" lon="1.31649">
        <ele>175</ele>
        <time>2014-11-02T10:26:35.000Z</time>
      </trkpt>
      <trkpt lat="43.51607" lon="1.31671">
        <ele>175.39999389648</ele>
        <time>2014-11-02T10:26:39.000Z</time>
      </trkpt>
      <trkpt lat="43.51586" lon="1.3169">
        <ele>174.80000305176</ele>
        <time>2014-11-02T10:26:43.000Z</time>
      </trkpt>
      <trkpt lat="43.51581" lon="1.31695">
        <ele>174.60000610352</ele>
        <time>2014-11-02T10:26:44.000Z</time>
      </trkpt>
      <trkpt lat="43.51569" lon="1.31702">
        <ele>174.39999389648</ele>
        <time>2014-11-02T10:26:46.000Z</time>
      </trkpt>
      <trkpt lat="43.51526" lon="1.31723">
        <ele>173.19999694824</ele>
        <time>2014-11-02T10:26:53.000Z</time>
      </trkpt>
      <trkpt lat="43.51508" lon="1.31745">
        <ele>173.39999389648</ele>
        <time>2014-11-02T10:26:57.000Z</time>
      </trkpt>
      <trkpt lat="43.51504" lon="1.31761">
        <ele>173.60000610352</ele>
        <time>2014-11-02T10:26:59.000Z</time>
      </trkpt>
      <trkpt lat="43.515" lon="1.31777">
        <ele>174</ele>
        <time>2014-11-02T10:27:01.000Z</time>
      </trkpt>
      <trkpt lat="43.51487" lon="1.3183">
        <ele>173.80000305176</ele>
        <time>2014-11-02T10:27:07.000Z</time>
      </trkpt>
      <trkpt lat="43.5147" lon="1.319">
        <ele>173.39999389648</ele>
        <time>2014-11-02T10:27:15.000Z</time>
      </trkpt>
      <trkpt lat="43.51456" lon="1.31961">
        <ele>173.60000610352</ele>
        <time>2014-11-02T10:27:22.000Z</time>
      </trkpt>
      <trkpt lat="43.51437" lon="1.3203">
        <ele>173.80000305176</ele>
        <time>2014-11-02T10:27:30.000Z</time>
      </trkpt>
      <trkpt lat="43.51422" lon="1.32072">
        <ele>174</ele>
        <time>2014-11-02T10:27:35.000Z</time>
      </trkpt>
      <trkpt lat="43.51419" lon="1.32081">
        <ele>174.19999694824</ele>
        <time>2014-11-02T10:27:36.000Z</time>
      </trkpt>
      <trkpt lat="43.51392" lon="1.32154">
        <ele>175.60000610352</ele>
        <time>2014-11-02T10:27:45.000Z</time>
      </trkpt>
      <trkpt lat="43.51389" lon="1.32163">
        <ele>175.39999389648</ele>
        <time>2014-11-02T10:27:46.000Z</time>
      </trkpt>
      <trkpt lat="43.51382" lon="1.32179">
        <ele>175.39999389648</ele>
        <time>2014-11-02T10:27:48.000Z</time>
      </trkpt>
      <trkpt lat="43.51373" lon="1.32201">
        <ele>175.19999694824</ele>
        <time>2014-11-02T10:27:51.000Z</time>
      </trkpt>
      <trkpt lat="43.5136" lon="1.32231">
        <ele>175.19999694824</ele>
        <time>2014-11-02T10:27:56.000Z</time>
      </trkpt>
      <trkpt lat="43.51366" lon="1.32239">
        <ele>175.19999694824</ele>
        <time>2014-11-02T10:27:58.000Z</time>
      </trkpt>
      <trkpt lat="43.51377" lon="1.32248">
        <ele>175.60000610352</ele>
        <time>2014-11-02T10:28:01.000Z</time>
      </trkpt>
      <trkpt lat="43.51381" lon="1.32255">
        <ele>175.60000610352</ele>
        <time>2014-11-02T10:28:03.000Z</time>
      </trkpt>
      <trkpt lat="43.51391" lon="1.3227">
        <ele>176</ele>
        <time>2014-11-02T10:28:08.000Z</time>
      </trkpt>
      <trkpt lat="43.51394" lon="1.32281">
        <ele>176</ele>
        <time>2014-11-02T10:28:11.000Z</time>
      </trkpt>
      <trkpt lat="43.51395" lon="1.32286">
        <ele>176</ele>
        <time>2014-11-02T10:28:12.000Z</time>
      </trkpt>
      <trkpt lat="43.51405" lon="1.32306">
        <ele>176.39999389648</ele>
        <time>2014-11-02T10:28:16.000Z</time>
      </trkpt>
      <trkpt lat="43.51419" lon="1.32333">
        <ele>176.80000305176</ele>
        <time>2014-11-02T10:28:22.000Z</time>
      </trkpt>
      <trkpt lat="43.51433" lon="1.32352">
        <ele>177.39999389648</ele>
        <time>2014-11-02T10:28:27.000Z</time>
      </trkpt>
      <trkpt lat="43.51439" lon="1.32357">
        <ele>177.39999389648</ele>
        <time>2014-11-02T10:28:29.000Z</time>
      </trkpt>
      <trkpt lat="43.51452" lon="1.32373">
        <ele>177.39999389648</ele>
        <time>2014-11-02T10:28:35.000Z</time>
      </trkpt>
      <trkpt lat="43.51451" lon="1.32379">
        <ele>177.60000610352</ele>
        <time>2014-11-02T10:28:37.000Z</time>
      </trkpt>
      <trkpt lat="43.51447" lon="1.32387">
        <ele>177.80000305176</ele>
        <time>2014-11-02T10:28:40.000Z</time>
      </trkpt>
      <trkpt lat="43.5144" lon="1.32403">
        <ele>177.80000305176</ele>
        <time>2014-11-02T10:28:44.000Z</time>
      </trkpt>
      <trkpt lat="43.51429" lon="1.32433">
        <ele>177.39999389648</ele>
        <time>2014-11-02T10:28:49.000Z</time>
      </trkpt>
      <trkpt lat="43.51419" lon="1.32454">
        <ele>176.80000305176</ele>
        <time>2014-11-02T10:28:53.000Z</time>
      </trkpt>
      <trkpt lat="43.51418" lon="1.32464">
        <ele>176.60000610352</ele>
        <time>2014-11-02T10:28:55.000Z</time>
      </trkpt>
      <trkpt lat="43.51428" lon="1.32476">
        <ele>176.80000305176</ele>
        <time>2014-11-02T10:28:58.000Z</time>
      </trkpt>
      <trkpt lat="43.51436" lon="1.32484">
        <ele>177</ele>
        <time>2014-11-02T10:29:00.000Z</time>
      </trkpt>
      <trkpt lat="43.5144" lon="1.32488">
        <ele>176.80000305176</ele>
        <time>2014-11-02T10:29:01.000Z</time>
      </trkpt>
      <trkpt lat="43.51447" lon="1.32495">
        <ele>176.60000610352</ele>
        <time>2014-11-02T10:29:03.000Z</time>
      </trkpt>
      <trkpt lat="43.51451" lon="1.32499">
        <ele>176.60000610352</ele>
        <time>2014-11-02T10:29:04.000Z</time>
      </trkpt>
      <trkpt lat="43.51468" lon="1.32515">
        <ele>176.19999694824</ele>
        <time>2014-11-02T10:29:09.000Z</time>
      </trkpt>
      <trkpt lat="43.51467" lon="1.32523">
        <ele>176</ele>
        <time>2014-11-02T10:29:12.000Z</time>
      </trkpt>
      <trkpt lat="43.51465" lon="1.32533">
        <ele>176</ele>
        <time>2014-11-02T10:29:17.000Z</time>
      </trkpt>
      <trkpt lat="43.51464" lon="1.3254">
        <ele>176</ele>
        <time>2014-11-02T10:29:20.000Z</time>
      </trkpt>
      <trkpt lat="43.51463" lon="1.32543">
        <ele>176</ele>
        <time>2014-11-02T10:29:21.000Z</time>
      </trkpt>
      <trkpt lat="43.51457" lon="1.32555">
        <ele>175.80000305176</ele>
        <time>2014-11-02T10:29:26.000Z</time>
      </trkpt>
      <trkpt lat="43.51446" lon="1.32571">
        <ele>176</ele>
        <time>2014-11-02T10:29:32.000Z</time>
      </trkpt>
      <trkpt lat="43.51429" lon="1.32579">
        <ele>176</ele>
        <time>2014-11-02T10:29:38.000Z</time>
      </trkpt>
      <trkpt lat="43.51412" lon="1.32588">
        <ele>176</ele>
        <time>2014-11-02T10:29:43.000Z</time>
      </trkpt>
      <trkpt lat="43.51409" lon="1.32597">
        <ele>176</ele>
        <time>2014-11-02T10:29:45.000Z</time>
      </trkpt>
      <trkpt lat="43.51409" lon="1.32602">
        <ele>176</ele>
        <time>2014-11-02T10:29:46.000Z</time>
      </trkpt>
      <trkpt lat="43.51416" lon="1.32619">
        <ele>176</ele>
        <time>2014-11-02T10:29:50.000Z</time>
      </trkpt>
      <trkpt lat="43.5142" lon="1.32623">
        <ele>176</ele>
        <time>2014-11-02T10:29:51.000Z</time>
      </trkpt>
      <trkpt lat="43.51443" lon="1.32644">
        <ele>176</ele>
        <time>2014-11-02T10:29:57.000Z</time>
      </trkpt>
      <trkpt lat="43.51458" lon="1.32659">
        <ele>176</ele>
        <time>2014-11-02T10:30:01.000Z</time>
      </trkpt>
      <trkpt lat="43.51465" lon="1.32665">
        <ele>176</ele>
        <time>2014-11-02T10:30:03.000Z</time>
      </trkpt>
      <trkpt lat="43.51491" lon="1.32693">
        <ele>176</ele>
        <time>2014-11-02T10:30:10.000Z</time>
      </trkpt>
      <trkpt lat="43.51488" lon="1.3271">
        <ele>176</ele>
        <time>2014-11-02T10:30:13.000Z</time>
      </trkpt>
      <trkpt lat="43.51484" lon="1.32721">
        <ele>176</ele>
        <time>2014-11-02T10:30:15.000Z</time>
      </trkpt>
      <trkpt lat="43.51474" lon="1.32742">
        <ele>176.19999694824</ele>
        <time>2014-11-02T10:30:19.000Z</time>
      </trkpt>
      <trkpt lat="43.51472" lon="1.32747">
        <ele>176.19999694824</ele>
        <time>2014-11-02T10:30:20.000Z</time>
      </trkpt>
      <trkpt lat="43.51473" lon="1.32757">
        <ele>176.39999389648</ele>
        <time>2014-11-02T10:30:22.000Z</time>
      </trkpt>
      <trkpt lat="43.51486" lon="1.32774">
        <ele>176.60000610352</ele>
        <time>2014-11-02T10:30:26.000Z</time>
      </trkpt>
      <trkpt lat="43.51508" lon="1.32798">
        <ele>176.80000305176</ele>
        <time>2014-11-02T10:30:33.000Z</time>
      </trkpt>
      <trkpt lat="43.51511" lon="1.32802">
        <ele>176.80000305176</ele>
        <time>2014-11-02T10:30:36.000Z</time>
      </trkpt>
      <trkpt lat="43.51512" lon="1.32802">
        <ele>176.80000305176</ele>
        <time>2014-11-02T10:30:38.000Z</time>
      </trkpt>
      <trkpt lat="43.51517" lon="1.32803">
        <ele>176.80000305176</ele>
        <time>2014-11-02T10:30:51.000Z</time>
      </trkpt>
      <trkpt lat="43.51518" lon="1.32801">
        <ele>176.80000305176</ele>
        <time>2014-11-02T10:30:52.000Z</time>
      </trkpt>
      <trkpt lat="43.51529" lon="1.32779">
        <ele>176.39999389648</ele>
        <time>2014-11-02T10:30:58.000Z</time>
      </trkpt>
      <trkpt lat="43.51543" lon="1.32745">
        <ele>175.80000305176</ele>
        <time>2014-11-02T10:31:04.000Z</time>
      </trkpt>
      <trkpt lat="43.51561" lon="1.32708">
        <ele>175.39999389648</ele>
        <time>2014-11-02T10:31:10.000Z</time>
      </trkpt>
      <trkpt lat="43.51586" lon="1.32661">
        <ele>175.80000305176</ele>
        <time>2014-11-02T10:31:17.000Z</time>
      </trkpt>
      <trkpt lat="43.51621" lon="1.3261">
        <ele>175.80000305176</ele>
        <time>2014-11-02T10:31:25.000Z</time>
      </trkpt>
      <trkpt lat="43.51625" lon="1.32604">
        <ele>175.80000305176</ele>
        <time>2014-11-02T10:31:26.000Z</time>
      </trkpt>
      <trkpt lat="43.51645" lon="1.32577">
        <ele>175.39999389648</ele>
        <time>2014-11-02T10:31:31.000Z</time>
      </trkpt>
      <trkpt lat="43.51662" lon="1.32552">
        <ele>175.19999694824</ele>
        <time>2014-11-02T10:31:35.000Z</time>
      </trkpt>
      <trkpt lat="43.5167" lon="1.32539">
        <ele>174.80000305176</ele>
        <time>2014-11-02T10:31:37.000Z</time>
      </trkpt>
      <trkpt lat="43.51698" lon="1.32494">
        <ele>174</ele>
        <time>2014-11-02T10:31:44.000Z</time>
      </trkpt>
      <trkpt lat="43.51707" lon="1.32482">
        <ele>174</ele>
        <time>2014-11-02T10:31:46.000Z</time>
      </trkpt>
      <trkpt lat="43.51717" lon="1.3247">
        <ele>173.80000305176</ele>
        <time>2014-11-02T10:31:48.000Z</time>
      </trkpt>
      <trkpt lat="43.51744" lon="1.32427">
        <ele>173.80000305176</ele>
        <time>2014-11-02T10:31:54.000Z</time>
      </trkpt>
      <trkpt lat="43.51774" lon="1.32383">
        <ele>174</ele>
        <time>2014-11-02T10:32:01.000Z</time>
      </trkpt>
      <trkpt lat="43.51797" lon="1.32339">
        <ele>173.60000610352</ele>
        <time>2014-11-02T10:32:07.000Z</time>
      </trkpt>
      <trkpt lat="43.51799" lon="1.3233">
        <ele>173.39999389648</ele>
        <time>2014-11-02T10:32:08.000Z</time>
      </trkpt>
      <trkpt lat="43.51809" lon="1.32296">
        <ele>173.19999694824</ele>
        <time>2014-11-02T10:32:12.000Z</time>
      </trkpt>
      <trkpt lat="43.51823" lon="1.32245">
        <ele>173.39999389648</ele>
        <time>2014-11-02T10:32:18.000Z</time>
      </trkpt>
      <trkpt lat="43.51833" lon="1.32206">
        <ele>173.39999389648</ele>
        <time>2014-11-02T10:32:23.000Z</time>
      </trkpt>
      <trkpt lat="43.51838" lon="1.3219">
        <ele>173.80000305176</ele>
        <time>2014-11-02T10:32:25.000Z</time>
      </trkpt>
      <trkpt lat="43.51853" lon="1.32139">
        <ele>175</ele>
        <time>2014-11-02T10:32:31.000Z</time>
      </trkpt>
      <trkpt lat="43.51862" lon="1.32096">
        <ele>174.39999389648</ele>
        <time>2014-11-02T10:32:36.000Z</time>
      </trkpt>
      <trkpt lat="43.51877" lon="1.32041">
        <ele>173.19999694824</ele>
        <time>2014-11-02T10:32:43.000Z</time>
      </trkpt>
      <trkpt lat="43.5188" lon="1.3203">
        <ele>172.80000305176</ele>
        <time>2014-11-02T10:32:46.000Z</time>
      </trkpt>
      <trkpt lat="43.51881" lon="1.32027">
        <ele>172.80000305176</ele>
        <time>2014-11-02T10:32:47.000Z</time>
      </trkpt>
      <trkpt lat="43.51885" lon="1.32015">
        <ele>172.39999389648</ele>
        <time>2014-11-02T10:32:50.000Z</time>
      </trkpt>
      <trkpt lat="43.51893" lon="1.32009">
        <ele>172.60000610352</ele>
        <time>2014-11-02T10:32:52.000Z</time>
      </trkpt>
      <trkpt lat="43.51912" lon="1.32005">
        <ele>172.80000305176</ele>
        <time>2014-11-02T10:32:56.000Z</time>
      </trkpt>
      <trkpt lat="43.51945" lon="1.32011">
        <ele>173.19999694824</ele>
        <time>2014-11-02T10:33:02.000Z</time>
      </trkpt>
      <trkpt lat="43.51985" lon="1.32024">
        <ele>173.60000610352</ele>
        <time>2014-11-02T10:33:09.000Z</time>
      </trkpt>
      <trkpt lat="43.52024" lon="1.32042">
        <ele>173.60000610352</ele>
        <time>2014-11-02T10:33:16.000Z</time>
      </trkpt>
      <trkpt lat="43.52067" lon="1.32073">
        <ele>173.60000610352</ele>
        <time>2014-11-02T10:33:24.000Z</time>
      </trkpt>
      <trkpt lat="43.52117" lon="1.32114">
        <ele>173.19999694824</ele>
        <time>2014-11-02T10:33:33.000Z</time>
      </trkpt>
      <trkpt lat="43.52123" lon="1.32118">
        <ele>173.19999694824</ele>
        <time>2014-11-02T10:33:34.000Z</time>
      </trkpt>
      <trkpt lat="43.52169" lon="1.32153">
        <ele>172.39999389648</ele>
        <time>2014-11-02T10:33:42.000Z</time>
      </trkpt>
      <trkpt lat="43.52222" lon="1.32195">
        <ele>172.19999694824</ele>
        <time>2014-11-02T10:33:51.000Z</time>
      </trkpt>
      <trkpt lat="43.52239" lon="1.32209">
        <ele>172</ele>
        <time>2014-11-02T10:33:54.000Z</time>
      </trkpt>
      <trkpt lat="43.52263" lon="1.32227">
        <ele>172</ele>
        <time>2014-11-02T10:33:58.000Z</time>
      </trkpt>
      <trkpt lat="43.52313" lon="1.3226">
        <ele>172.19999694824</ele>
        <time>2014-11-02T10:34:06.000Z</time>
      </trkpt>
      <trkpt lat="43.52319" lon="1.32264">
        <ele>172.19999694824</ele>
        <time>2014-11-02T10:34:07.000Z</time>
      </trkpt>
      <trkpt lat="43.52373" lon="1.32291">
        <ele>172</ele>
        <time>2014-11-02T10:34:15.000Z</time>
      </trkpt>
      <trkpt lat="43.52429" lon="1.32309">
        <ele>171</ele>
        <time>2014-11-02T10:34:23.000Z</time>
      </trkpt>
      <trkpt lat="43.5244" lon="1.32313">
        <ele>171</ele>
        <time>2014-11-02T10:34:25.000Z</time>
      </trkpt>
      <trkpt lat="43.5245" lon="1.32322">
        <ele>170.80000305176</ele>
        <time>2014-11-02T10:34:27.000Z</time>
      </trkpt>
      <trkpt lat="43.52455" lon="1.32328">
        <ele>170.80000305176</ele>
        <time>2014-11-02T10:34:28.000Z</time>
      </trkpt>
      <trkpt lat="43.52466" lon="1.32327">
        <ele>170.80000305176</ele>
        <time>2014-11-02T10:34:30.000Z</time>
      </trkpt>
      <trkpt lat="43.52485" lon="1.32318">
        <ele>171</ele>
        <time>2014-11-02T10:34:33.000Z</time>
      </trkpt>
      <trkpt lat="43.52492" lon="1.32319">
        <ele>171</ele>
        <time>2014-11-02T10:34:34.000Z</time>
      </trkpt>
      <trkpt lat="43.52534" lon="1.32325">
        <ele>170.80000305176</ele>
        <time>2014-11-02T10:34:40.000Z</time>
      </trkpt>
      <trkpt lat="43.52575" lon="1.32344">
        <ele>170.19999694824</ele>
        <time>2014-11-02T10:34:46.000Z</time>
      </trkpt>
      <trkpt lat="43.52611" lon="1.32373">
        <ele>170.19999694824</ele>
        <time>2014-11-02T10:34:52.000Z</time>
      </trkpt>
      <trkpt lat="43.52649" lon="1.3242">
        <ele>170.80000305176</ele>
        <time>2014-11-02T10:34:59.000Z</time>
      </trkpt>
      <trkpt lat="43.52687" lon="1.32464">
        <ele>171.80000305176</ele>
        <time>2014-11-02T10:35:06.000Z</time>
      </trkpt>
      <trkpt lat="43.52723" lon="1.32514">
        <ele>171.60000610352</ele>
        <time>2014-11-02T10:35:13.000Z</time>
      </trkpt>
      <trkpt lat="43.52762" lon="1.32568">
        <ele>171</ele>
        <time>2014-11-02T10:35:21.000Z</time>
      </trkpt>
      <trkpt lat="43.52769" lon="1.32577">
        <ele>171</ele>
        <time>2014-11-02T10:35:22.000Z</time>
      </trkpt>
      <trkpt lat="43.52811" lon="1.32626">
        <ele>171</ele>
        <time>2014-11-02T10:35:30.000Z</time>
      </trkpt>
      <trkpt lat="43.52859" lon="1.3267">
        <ele>171</ele>
        <time>2014-11-02T10:35:38.000Z</time>
      </trkpt>
      <trkpt lat="43.52865" lon="1.32675">
        <ele>171.19999694824</ele>
        <time>2014-11-02T10:35:39.000Z</time>
      </trkpt>
      <trkpt lat="43.52905" lon="1.32713">
        <ele>172.19999694824</ele>
        <time>2014-11-02T10:35:46.000Z</time>
      </trkpt>
      <trkpt lat="43.52944" lon="1.32755">
        <ele>172.80000305176</ele>
        <time>2014-11-02T10:35:53.000Z</time>
      </trkpt>
      <trkpt lat="43.52984" lon="1.32805">
        <ele>172.39999389648</ele>
        <time>2014-11-02T10:36:01.000Z</time>
      </trkpt>
      <trkpt lat="43.52988" lon="1.32811">
        <ele>172.39999389648</ele>
        <time>2014-11-02T10:36:02.000Z</time>
      </trkpt>
      <trkpt lat="43.53025" lon="1.32853">
        <ele>171.80000305176</ele>
        <time>2014-11-02T10:36:09.000Z</time>
      </trkpt>
      <trkpt lat="43.53072" lon="1.32897">
        <ele>170.60000610352</ele>
        <time>2014-11-02T10:36:17.000Z</time>
      </trkpt>
      <trkpt lat="43.53119" lon="1.3294">
        <ele>169.80000305176</ele>
        <time>2014-11-02T10:36:25.000Z</time>
      </trkpt>
      <trkpt lat="43.53125" lon="1.32945">
        <ele>169.80000305176</ele>
        <time>2014-11-02T10:36:26.000Z</time>
      </trkpt>
      <trkpt lat="43.53172" lon="1.32989">
        <ele>170</ele>
        <time>2014-11-02T10:36:34.000Z</time>
      </trkpt>
      <trkpt lat="43.53184" lon="1.33">
        <ele>170.19999694824</ele>
        <time>2014-11-02T10:36:36.000Z</time>
      </trkpt>
      <trkpt lat="43.53228" lon="1.33047">
        <ele>170.80000305176</ele>
        <time>2014-11-02T10:36:44.000Z</time>
      </trkpt>
      <trkpt lat="43.53271" lon="1.33098">
        <ele>170.60000610352</ele>
        <time>2014-11-02T10:36:52.000Z</time>
      </trkpt>
      <trkpt lat="43.53313" lon="1.33149">
        <ele>170.60000610352</ele>
        <time>2014-11-02T10:37:00.000Z</time>
      </trkpt>
      <trkpt lat="43.53361" lon="1.33192">
        <ele>171.19999694824</ele>
        <time>2014-11-02T10:37:08.000Z</time>
      </trkpt>
      <trkpt lat="43.53402" lon="1.33227">
        <ele>172.19999694824</ele>
        <time>2014-11-02T10:37:15.000Z</time>
      </trkpt>
      <trkpt lat="43.53442" lon="1.33269">
        <ele>172.60000610352</ele>
        <time>2014-11-02T10:37:22.000Z</time>
      </trkpt>
      <trkpt lat="43.53483" lon="1.3331">
        <ele>172.60000610352</ele>
        <time>2014-11-02T10:37:29.000Z</time>
      </trkpt>
      <trkpt lat="43.53528" lon="1.33362">
        <ele>172.19999694824</ele>
        <time>2014-11-02T10:37:37.000Z</time>
      </trkpt>
      <trkpt lat="43.53573" lon="1.33415">
        <ele>170.60000610352</ele>
        <time>2014-11-02T10:37:45.000Z</time>
      </trkpt>
      <trkpt lat="43.53591" lon="1.33435">
        <ele>170.19999694824</ele>
        <time>2014-11-02T10:37:48.000Z</time>
      </trkpt>
      <trkpt lat="43.53637" lon="1.33486">
        <ele>170</ele>
        <time>2014-11-02T10:37:56.000Z</time>
      </trkpt>
      <trkpt lat="43.53648" lon="1.33499">
        <ele>170</ele>
        <time>2014-11-02T10:37:58.000Z</time>
      </trkpt>
      <trkpt lat="43.53685" lon="1.33543">
        <ele>170</ele>
        <time>2014-11-02T10:38:05.000Z</time>
      </trkpt>
      <trkpt lat="43.53685" lon="1.33557">
        <ele>170</ele>
        <time>2014-11-02T10:38:07.000Z</time>
      </trkpt>
      <trkpt lat="43.53679" lon="1.3357">
        <ele>170</ele>
        <time>2014-11-02T10:38:09.000Z</time>
      </trkpt>
      <trkpt lat="43.53672" lon="1.33584">
        <ele>170.19999694824</ele>
        <time>2014-11-02T10:38:11.000Z</time>
      </trkpt>
      <trkpt lat="43.5365" lon="1.33626">
        <ele>170.39999389648</ele>
        <time>2014-11-02T10:38:17.000Z</time>
      </trkpt>
      <trkpt lat="43.53628" lon="1.33674">
        <ele>169.60000610352</ele>
        <time>2014-11-02T10:38:24.000Z</time>
      </trkpt>
      <trkpt lat="43.53633" lon="1.33684">
        <ele>169.80000305176</ele>
        <time>2014-11-02T10:38:26.000Z</time>
      </trkpt>
      <trkpt lat="43.53646" lon="1.33707">
        <ele>170.19999694824</ele>
        <time>2014-11-02T10:38:30.000Z</time>
      </trkpt>
      <trkpt lat="43.53649" lon="1.33714">
        <ele>170.39999389648</ele>
        <time>2014-11-02T10:38:31.000Z</time>
      </trkpt>
      <trkpt lat="43.53672" lon="1.33761">
        <ele>169.80000305176</ele>
        <time>2014-11-02T10:38:38.000Z</time>
      </trkpt>
      <trkpt lat="43.53682" lon="1.33784">
        <ele>169</ele>
        <time>2014-11-02T10:38:41.000Z</time>
      </trkpt>
      <trkpt lat="43.53689" lon="1.33798">
        <ele>168.60000610352</ele>
        <time>2014-11-02T10:38:43.000Z</time>
      </trkpt>
      <trkpt lat="43.53715" lon="1.33851">
        <ele>168.39999389648</ele>
        <time>2014-11-02T10:38:50.000Z</time>
      </trkpt>
      <trkpt lat="43.53742" lon="1.33906">
        <ele>168.60000610352</ele>
        <time>2014-11-02T10:38:57.000Z</time>
      </trkpt>
      <trkpt lat="43.53773" lon="1.33969">
        <ele>168.19999694824</ele>
        <time>2014-11-02T10:39:05.000Z</time>
      </trkpt>
      <trkpt lat="43.53784" lon="1.33993">
        <ele>168</ele>
        <time>2014-11-02T10:39:08.000Z</time>
      </trkpt>
      <trkpt lat="43.53812" lon="1.34056">
        <ele>167.60000610352</ele>
        <time>2014-11-02T10:39:16.000Z</time>
      </trkpt>
      <trkpt lat="43.53818" lon="1.34069">
        <ele>167.60000610352</ele>
        <time>2014-11-02T10:39:18.000Z</time>
      </trkpt>
      <trkpt lat="43.53818" lon="1.34077">
        <ele>167.60000610352</ele>
        <time>2014-11-02T10:39:19.000Z</time>
      </trkpt>
      <trkpt lat="43.53812" lon="1.341">
        <ele>167.60000610352</ele>
        <time>2014-11-02T10:39:22.000Z</time>
      </trkpt>
      <trkpt lat="43.53804" lon="1.34131">
        <ele>167.80000305176</ele>
        <time>2014-11-02T10:39:26.000Z</time>
      </trkpt>
      <trkpt lat="43.53801" lon="1.34147">
        <ele>168</ele>
        <time>2014-11-02T10:39:28.000Z</time>
      </trkpt>
      <trkpt lat="43.53798" lon="1.34155">
        <ele>168</ele>
        <time>2014-11-02T10:39:29.000Z</time>
      </trkpt>
      <trkpt lat="43.5379" lon="1.34179">
        <ele>168</ele>
        <time>2014-11-02T10:39:32.000Z</time>
      </trkpt>
      <trkpt lat="43.53786" lon="1.34186">
        <ele>168.39999389648</ele>
        <time>2014-11-02T10:39:33.000Z</time>
      </trkpt>
      <trkpt lat="43.53774" lon="1.34217">
        <ele>170.19999694824</ele>
        <time>2014-11-02T10:39:37.000Z</time>
      </trkpt>
      <trkpt lat="43.53765" lon="1.3424">
        <ele>171</ele>
        <time>2014-11-02T10:39:40.000Z</time>
      </trkpt>
      <trkpt lat="43.53758" lon="1.34255">
        <ele>171.19999694824</ele>
        <time>2014-11-02T10:39:42.000Z</time>
      </trkpt>
      <trkpt lat="43.53739" lon="1.34299">
        <ele>170.80000305176</ele>
        <time>2014-11-02T10:39:48.000Z</time>
      </trkpt>
      <trkpt lat="43.53713" lon="1.34358">
        <ele>169.19999694824</ele>
        <time>2014-11-02T10:39:56.000Z</time>
      </trkpt>
      <trkpt lat="43.53684" lon="1.34412">
        <ele>170.19999694824</ele>
        <time>2014-11-02T10:40:04.000Z</time>
      </trkpt>
      <trkpt lat="43.53657" lon="1.34457">
        <ele>170.39999389648</ele>
        <time>2014-11-02T10:40:11.000Z</time>
      </trkpt>
      <trkpt lat="43.5363" lon="1.34504">
        <ele>170.39999389648</ele>
        <time>2014-11-02T10:40:18.000Z</time>
      </trkpt>
      <trkpt lat="43.53602" lon="1.34548">
        <ele>170.19999694824</ele>
        <time>2014-11-02T10:40:25.000Z</time>
      </trkpt>
      <trkpt lat="43.53585" lon="1.34573">
        <ele>169.60000610352</ele>
        <time>2014-11-02T10:40:29.000Z</time>
      </trkpt>
      <trkpt lat="43.5358" lon="1.34577">
        <ele>169.39999389648</ele>
        <time>2014-11-02T10:40:30.000Z</time>
      </trkpt>
      <trkpt lat="43.53563" lon="1.34587">
        <ele>169</ele>
        <time>2014-11-02T10:40:33.000Z</time>
      </trkpt>
      <trkpt lat="43.53552" lon="1.3459">
        <ele>168.80000305176</ele>
        <time>2014-11-02T10:40:35.000Z</time>
      </trkpt>
      <trkpt lat="43.53534" lon="1.34589">
        <ele>168.80000305176</ele>
        <time>2014-11-02T10:40:38.000Z</time>
      </trkpt>
      <trkpt lat="43.53522" lon="1.34608">
        <ele>169</ele>
        <time>2014-11-02T10:40:41.000Z</time>
      </trkpt>
      <trkpt lat="43.53519" lon="1.34614">
        <ele>169</ele>
        <time>2014-11-02T10:40:42.000Z</time>
      </trkpt>
      <trkpt lat="43.53518" lon="1.34623">
        <ele>169</ele>
        <time>2014-11-02T10:40:43.000Z</time>
      </trkpt>
      <trkpt lat="43.53513" lon="1.34637">
        <ele>169</ele>
        <time>2014-11-02T10:40:45.000Z</time>
      </trkpt>
      <trkpt lat="43.53504" lon="1.3465">
        <ele>169</ele>
        <time>2014-11-02T10:40:47.000Z</time>
      </trkpt>
      <trkpt lat="43.53492" lon="1.34667">
        <ele>168.60000610352</ele>
        <time>2014-11-02T10:40:50.000Z</time>
      </trkpt>
      <trkpt lat="43.53463" lon="1.34708">
        <ele>168</ele>
        <time>2014-11-02T10:40:57.000Z</time>
      </trkpt>
      <trkpt lat="43.53448" lon="1.34727">
        <ele>167.80000305176</ele>
        <time>2014-11-02T10:41:01.000Z</time>
      </trkpt>
      <trkpt lat="43.53443" lon="1.34729">
        <ele>168</ele>
        <time>2014-11-02T10:41:02.000Z</time>
      </trkpt>
      <trkpt lat="43.53433" lon="1.34736">
        <ele>168</ele>
        <time>2014-11-02T10:41:04.000Z</time>
      </trkpt>
      <trkpt lat="43.53423" lon="1.34745">
        <ele>167.60000610352</ele>
        <time>2014-11-02T10:41:06.000Z</time>
      </trkpt>
      <trkpt lat="43.5339" lon="1.34767">
        <ele>166.60000610352</ele>
        <time>2014-11-02T10:41:12.000Z</time>
      </trkpt>
      <trkpt lat="43.53379" lon="1.34773">
        <ele>166.60000610352</ele>
        <time>2014-11-02T10:41:14.000Z</time>
      </trkpt>
      <trkpt lat="43.53368" lon="1.34781">
        <ele>166.60000610352</ele>
        <time>2014-11-02T10:41:16.000Z</time>
      </trkpt>
      <trkpt lat="43.53365" lon="1.34796">
        <ele>166.80000305176</ele>
        <time>2014-11-02T10:41:18.000Z</time>
      </trkpt>
      <trkpt lat="43.53358" lon="1.34818">
        <ele>167</ele>
        <time>2014-11-02T10:41:21.000Z</time>
      </trkpt>
      <trkpt lat="43.53327" lon="1.34881">
        <ele>166.60000610352</ele>
        <time>2014-11-02T10:41:30.000Z</time>
      </trkpt>
      <trkpt lat="43.53296" lon="1.34941">
        <ele>167.19999694824</ele>
        <time>2014-11-02T10:41:38.000Z</time>
      </trkpt>
      <trkpt lat="43.53264" lon="1.35006">
        <ele>166.39999389648</ele>
        <time>2014-11-02T10:41:47.000Z</time>
      </trkpt>
      <trkpt lat="43.53252" lon="1.35029">
        <ele>167</ele>
        <time>2014-11-02T10:41:51.000Z</time>
      </trkpt>
      <trkpt lat="43.53247" lon="1.35031">
        <ele>167</ele>
        <time>2014-11-02T10:41:52.000Z</time>
      </trkpt>
      <trkpt lat="43.53231" lon="1.35044">
        <ele>167.19999694824</ele>
        <time>2014-11-02T10:41:56.000Z</time>
      </trkpt>
      <trkpt lat="43.53217" lon="1.35049">
        <ele>167.19999694824</ele>
        <time>2014-11-02T10:41:59.000Z</time>
      </trkpt>
      <trkpt lat="43.53211" lon="1.35049">
        <ele>167.19999694824</ele>
        <time>2014-11-02T10:42:00.000Z</time>
      </trkpt>
      <trkpt lat="43.53171" lon="1.35052">
        <ele>167.39999389648</ele>
        <time>2014-11-02T10:42:07.000Z</time>
      </trkpt>
      <trkpt lat="43.53124" lon="1.3506">
        <ele>168.39999389648</ele>
        <time>2014-11-02T10:42:15.000Z</time>
      </trkpt>
      <trkpt lat="43.53068" lon="1.35076">
        <ele>169.60000610352</ele>
        <time>2014-11-02T10:42:24.000Z</time>
      </trkpt>
      <trkpt lat="43.53011" lon="1.35096">
        <ele>170</ele>
        <time>2014-11-02T10:42:33.000Z</time>
      </trkpt>
      <trkpt lat="43.52979" lon="1.35097">
        <ele>170.39999389648</ele>
        <time>2014-11-02T10:42:38.000Z</time>
      </trkpt>
      <trkpt lat="43.52972" lon="1.35094">
        <ele>170.60000610352</ele>
        <time>2014-11-02T10:42:39.000Z</time>
      </trkpt>
      <trkpt lat="43.52955" lon="1.35081">
        <ele>170.80000305176</ele>
        <time>2014-11-02T10:42:42.000Z</time>
      </trkpt>
      <trkpt lat="43.5295" lon="1.35076">
        <ele>170.80000305176</ele>
        <time>2014-11-02T10:42:43.000Z</time>
      </trkpt>
      <trkpt lat="43.52944" lon="1.35072">
        <ele>170.80000305176</ele>
        <time>2014-11-02T10:42:44.000Z</time>
      </trkpt>
      <trkpt lat="43.52927" lon="1.35068">
        <ele>170.80000305176</ele>
        <time>2014-11-02T10:42:47.000Z</time>
      </trkpt>
      <trkpt lat="43.52914" lon="1.35059">
        <ele>170.60000610352</ele>
        <time>2014-11-02T10:42:50.000Z</time>
      </trkpt>
      <trkpt lat="43.52895" lon="1.35053">
        <ele>170.19999694824</ele>
        <time>2014-11-02T10:42:54.000Z</time>
      </trkpt>
      <trkpt lat="43.52887" lon="1.35071">
        <ele>169.80000305176</ele>
        <time>2014-11-02T10:42:57.000Z</time>
      </trkpt>
      <trkpt lat="43.52894" lon="1.35092">
        <ele>169.39999389648</ele>
        <time>2014-11-02T10:43:00.000Z</time>
      </trkpt>
      <trkpt lat="43.52898" lon="1.35099">
        <ele>169.39999389648</ele>
        <time>2014-11-02T10:43:01.000Z</time>
      </trkpt>
      <trkpt lat="43.52901" lon="1.35106">
        <ele>169.19999694824</ele>
        <time>2014-11-02T10:43:02.000Z</time>
      </trkpt>
      <trkpt lat="43.52906" lon="1.35123">
        <ele>169</ele>
        <time>2014-11-02T10:43:04.000Z</time>
      </trkpt>
      <trkpt lat="43.52925" lon="1.3517">
        <ele>168.60000610352</ele>
        <time>2014-11-02T10:43:10.000Z</time>
      </trkpt>
      <trkpt lat="43.52958" lon="1.35239">
        <ele>168.19999694824</ele>
        <time>2014-11-02T10:43:19.000Z</time>
      </trkpt>
      <trkpt lat="43.52966" lon="1.35254">
        <ele>167.80000305176</ele>
        <time>2014-11-02T10:43:21.000Z</time>
      </trkpt>
      <trkpt lat="43.52992" lon="1.35318">
        <ele>167</ele>
        <time>2014-11-02T10:43:29.000Z</time>
      </trkpt>
      <trkpt lat="43.52995" lon="1.35326">
        <ele>167</ele>
        <time>2014-11-02T10:43:30.000Z</time>
      </trkpt>
      <trkpt lat="43.53017" lon="1.35394">
        <ele>167</ele>
        <time>2014-11-02T10:43:38.000Z</time>
      </trkpt>
      <trkpt lat="43.53038" lon="1.3544">
        <ele>166.39999389648</ele>
        <time>2014-11-02T10:43:44.000Z</time>
      </trkpt>
      <trkpt lat="43.53048" lon="1.35463">
        <ele>166.19999694824</ele>
        <time>2014-11-02T10:43:47.000Z</time>
      </trkpt>
      <trkpt lat="43.5305" lon="1.35472">
        <ele>166</ele>
        <time>2014-11-02T10:43:48.000Z</time>
      </trkpt>
      <trkpt lat="43.53061" lon="1.35493">
        <ele>166.39999389648</ele>
        <time>2014-11-02T10:43:51.000Z</time>
      </trkpt>
      <trkpt lat="43.53073" lon="1.35514">
        <ele>167.19999694824</ele>
        <time>2014-11-02T10:43:54.000Z</time>
      </trkpt>
      <trkpt lat="43.53077" lon="1.35522">
        <ele>167.39999389648</ele>
        <time>2014-11-02T10:43:55.000Z</time>
      </trkpt>
      <trkpt lat="43.531" lon="1.35556">
        <ele>168.80000305176</ele>
        <time>2014-11-02T10:44:00.000Z</time>
      </trkpt>
      <trkpt lat="43.53141" lon="1.35607">
        <ele>167.80000305176</ele>
        <time>2014-11-02T10:44:08.000Z</time>
      </trkpt>
      <trkpt lat="43.53184" lon="1.35657">
        <ele>166.80000305176</ele>
        <time>2014-11-02T10:44:16.000Z</time>
      </trkpt>
      <trkpt lat="43.53224" lon="1.35708">
        <ele>165.60000610352</ele>
        <time>2014-11-02T10:44:24.000Z</time>
      </trkpt>
      <trkpt lat="43.53261" lon="1.35767">
        <ele>165.39999389648</ele>
        <time>2014-11-02T10:44:32.000Z</time>
      </trkpt>
      <trkpt lat="43.53265" lon="1.35773">
        <ele>165.60000610352</ele>
        <time>2014-11-02T10:44:33.000Z</time>
      </trkpt>
      <trkpt lat="43.53302" lon="1.35838">
        <ele>166.39999389648</ele>
        <time>2014-11-02T10:44:41.000Z</time>
      </trkpt>
      <trkpt lat="43.53306" lon="1.35845">
        <ele>166.39999389648</ele>
        <time>2014-11-02T10:44:42.000Z</time>
      </trkpt>
      <trkpt lat="43.53339" lon="1.3591">
        <ele>166.39999389648</ele>
        <time>2014-11-02T10:44:50.000Z</time>
      </trkpt>
      <trkpt lat="43.53347" lon="1.35928">
        <ele>166.80000305176</ele>
        <time>2014-11-02T10:44:52.000Z</time>
      </trkpt>
      <trkpt lat="43.53369" lon="1.35988">
        <ele>166.60000610352</ele>
        <time>2014-11-02T10:44:59.000Z</time>
      </trkpt>
      <trkpt lat="43.53395" lon="1.36062">
        <ele>165.39999389648</ele>
        <time>2014-11-02T10:45:08.000Z</time>
      </trkpt>
      <trkpt lat="43.53399" lon="1.3607">
        <ele>165.39999389648</ele>
        <time>2014-11-02T10:45:09.000Z</time>
      </trkpt>
      <trkpt lat="43.53417" lon="1.36119">
        <ele>164.60000610352</ele>
        <time>2014-11-02T10:45:15.000Z</time>
      </trkpt>
      <trkpt lat="43.53434" lon="1.36163">
        <ele>163.39999389648</ele>
        <time>2014-11-02T10:45:20.000Z</time>
      </trkpt>
      <trkpt lat="43.53462" lon="1.36234">
        <ele>162.19999694824</ele>
        <time>2014-11-02T10:45:28.000Z</time>
      </trkpt>
      <trkpt lat="43.53472" lon="1.36261">
        <ele>161.39999389648</ele>
        <time>2014-11-02T10:45:31.000Z</time>
      </trkpt>
      <trkpt lat="43.535" lon="1.36329">
        <ele>160.80000305176</ele>
        <time>2014-11-02T10:45:39.000Z</time>
      </trkpt>
      <trkpt lat="43.53503" lon="1.36337">
        <ele>161</ele>
        <time>2014-11-02T10:45:40.000Z</time>
      </trkpt>
      <trkpt lat="43.53528" lon="1.36389">
        <ele>162.39999389648</ele>
        <time>2014-11-02T10:45:47.000Z</time>
      </trkpt>
      <trkpt lat="43.53558" lon="1.36453">
        <ele>162.19999694824</ele>
        <time>2014-11-02T10:45:56.000Z</time>
      </trkpt>
      <trkpt lat="43.53575" lon="1.36502">
        <ele>161.39999389648</ele>
        <time>2014-11-02T10:46:02.000Z</time>
      </trkpt>
      <trkpt lat="43.53588" lon="1.36523">
        <ele>161</ele>
        <time>2014-11-02T10:46:05.000Z</time>
      </trkpt>
      <trkpt lat="43.53592" lon="1.36532">
        <ele>160.80000305176</ele>
        <time>2014-11-02T10:46:06.000Z</time>
      </trkpt>
      <trkpt lat="43.53598" lon="1.36547">
        <ele>160.60000610352</ele>
        <time>2014-11-02T10:46:08.000Z</time>
      </trkpt>
      <trkpt lat="43.53607" lon="1.3656">
        <ele>160.39999389648</ele>
        <time>2014-11-02T10:46:10.000Z</time>
      </trkpt>
      <trkpt lat="43.53627" lon="1.36585">
        <ele>161.80000305176</ele>
        <time>2014-11-02T10:46:14.000Z</time>
      </trkpt>
      <trkpt lat="43.53631" lon="1.36611">
        <ele>162.80000305176</ele>
        <time>2014-11-02T10:46:17.000Z</time>
      </trkpt>
      <trkpt lat="43.53633" lon="1.36619">
        <ele>163.19999694824</ele>
        <time>2014-11-02T10:46:18.000Z</time>
      </trkpt>
      <trkpt lat="43.53636" lon="1.36635">
        <ele>163.80000305176</ele>
        <time>2014-11-02T10:46:20.000Z</time>
      </trkpt>
      <trkpt lat="43.53646" lon="1.36659">
        <ele>164.60000610352</ele>
        <time>2014-11-02T10:46:23.000Z</time>
      </trkpt>
      <trkpt lat="43.53671" lon="1.36702">
        <ele>164.80000305176</ele>
        <time>2014-11-02T10:46:29.000Z</time>
      </trkpt>
      <trkpt lat="43.537" lon="1.36767">
        <ele>164.60000610352</ele>
        <time>2014-11-02T10:46:37.000Z</time>
      </trkpt>
      <trkpt lat="43.53731" lon="1.36834">
        <ele>164</ele>
        <time>2014-11-02T10:46:45.000Z</time>
      </trkpt>
      <trkpt lat="43.53764" lon="1.369">
        <ele>163.80000305176</ele>
        <time>2014-11-02T10:46:53.000Z</time>
      </trkpt>
      <trkpt lat="43.53768" lon="1.36907">
        <ele>164</ele>
        <time>2014-11-02T10:46:54.000Z</time>
      </trkpt>
      <trkpt lat="43.53804" lon="1.36973">
        <ele>164.80000305176</ele>
        <time>2014-11-02T10:47:02.000Z</time>
      </trkpt>
      <trkpt lat="43.53823" lon="1.37009">
        <ele>165</ele>
        <time>2014-11-02T10:47:06.000Z</time>
      </trkpt>
      <trkpt lat="43.53857" lon="1.3707">
        <ele>164.80000305176</ele>
        <time>2014-11-02T10:47:13.000Z</time>
      </trkpt>
      <trkpt lat="43.53895" lon="1.37136">
        <ele>163.19999694824</ele>
        <time>2014-11-02T10:47:21.000Z</time>
      </trkpt>
      <trkpt lat="43.53905" lon="1.37153">
        <ele>163</ele>
        <time>2014-11-02T10:47:23.000Z</time>
      </trkpt>
      <trkpt lat="43.5391" lon="1.37161">
        <ele>162.80000305176</ele>
        <time>2014-11-02T10:47:24.000Z</time>
      </trkpt>
      <trkpt lat="43.53944" lon="1.37223">
        <ele>162.39999389648</ele>
        <time>2014-11-02T10:47:31.000Z</time>
      </trkpt>
      <trkpt lat="43.53949" lon="1.37231">
        <ele>162.60000610352</ele>
        <time>2014-11-02T10:47:32.000Z</time>
      </trkpt>
      <trkpt lat="43.53972" lon="1.37287">
        <ele>162.60000610352</ele>
        <time>2014-11-02T10:47:38.000Z</time>
      </trkpt>
      <trkpt lat="43.53985" lon="1.37347">
        <ele>162.39999389648</ele>
        <time>2014-11-02T10:47:44.000Z</time>
      </trkpt>
      <trkpt lat="43.53987" lon="1.37369">
        <ele>162.60000610352</ele>
        <time>2014-11-02T10:47:46.000Z</time>
      </trkpt>
      <trkpt lat="43.53987" lon="1.3739">
        <ele>162.19999694824</ele>
        <time>2014-11-02T10:47:48.000Z</time>
      </trkpt>
      <trkpt lat="43.53986" lon="1.37473">
        <ele>161.60000610352</ele>
        <time>2014-11-02T10:47:56.000Z</time>
      </trkpt>
      <trkpt lat="43.53985" lon="1.37483">
        <ele>161.19999694824</ele>
        <time>2014-11-02T10:47:57.000Z</time>
      </trkpt>
      <trkpt lat="43.53987" lon="1.3756">
        <ele>158.60000610352</ele>
        <time>2014-11-02T10:48:04.000Z</time>
      </trkpt>
      <trkpt lat="43.53988" lon="1.3757">
        <ele>158.19999694824</ele>
        <time>2014-11-02T10:48:05.000Z</time>
      </trkpt>
      <trkpt lat="43.54" lon="1.37625">
        <ele>154.80000305176</ele>
        <time>2014-11-02T10:48:10.000Z</time>
      </trkpt>
      <trkpt lat="43.54027" lon="1.37701">
        <ele>154</ele>
        <time>2014-11-02T10:48:17.000Z</time>
      </trkpt>
      <trkpt lat="43.54053" lon="1.37768">
        <ele>153.80000305176</ele>
        <time>2014-11-02T10:48:23.000Z</time>
      </trkpt>
      <trkpt lat="43.54061" lon="1.37788">
        <ele>154</ele>
        <time>2014-11-02T10:48:25.000Z</time>
      </trkpt>
      <trkpt lat="43.54083" lon="1.37847">
        <ele>154.60000610352</ele>
        <time>2014-11-02T10:48:31.000Z</time>
      </trkpt>
      <trkpt lat="43.54107" lon="1.37911">
        <ele>155.39999389648</ele>
        <time>2014-11-02T10:48:38.000Z</time>
      </trkpt>
      <trkpt lat="43.54134" lon="1.37982">
        <ele>156.60000610352</ele>
        <time>2014-11-02T10:48:46.000Z</time>
      </trkpt>
      <trkpt lat="43.54164" lon="1.38054">
        <ele>154</ele>
        <time>2014-11-02T10:48:55.000Z</time>
      </trkpt>
      <trkpt lat="43.54167" lon="1.38061">
        <ele>153.80000305176</ele>
        <time>2014-11-02T10:48:56.000Z</time>
      </trkpt>
      <trkpt lat="43.54198" lon="1.38126">
        <ele>154.39999389648</ele>
        <time>2014-11-02T10:49:05.000Z</time>
      </trkpt>
      <trkpt lat="43.5422" lon="1.3817">
        <ele>155.19999694824</ele>
        <time>2014-11-02T10:49:12.000Z</time>
      </trkpt>
      <trkpt lat="43.54241" lon="1.3821">
        <ele>155.80000305176</ele>
        <time>2014-11-02T10:49:20.000Z</time>
      </trkpt>
      <trkpt lat="43.54256" lon="1.38234">
        <ele>156.39999389648</ele>
        <time>2014-11-02T10:49:25.000Z</time>
      </trkpt>
      <trkpt lat="43.54263" lon="1.38244">
        <ele>156.60000610352</ele>
        <time>2014-11-02T10:49:27.000Z</time>
      </trkpt>
      <trkpt lat="43.54267" lon="1.38249">
        <ele>156.80000305176</ele>
        <time>2014-11-02T10:49:28.000Z</time>
      </trkpt>
      <trkpt lat="43.5429" lon="1.38274">
        <ele>158.39999389648</ele>
        <time>2014-11-02T10:49:34.000Z</time>
      </trkpt>
      <trkpt lat="43.54324" lon="1.38303">
        <ele>161</ele>
        <time>2014-11-02T10:49:42.000Z</time>
      </trkpt>
      <trkpt lat="43.54359" lon="1.3833">
        <ele>162.80000305176</ele>
        <time>2014-11-02T10:49:49.000Z</time>
      </trkpt>
      <trkpt lat="43.54407" lon="1.38373">
        <ele>161.60000610352</ele>
        <time>2014-11-02T10:49:58.000Z</time>
      </trkpt>
      <trkpt lat="43.54439" lon="1.38416">
        <ele>160.80000305176</ele>
        <time>2014-11-02T10:50:05.000Z</time>
      </trkpt>
      <trkpt lat="43.54464" lon="1.38469">
        <ele>160.19999694824</ele>
        <time>2014-11-02T10:50:12.000Z</time>
      </trkpt>
      <trkpt lat="43.54489" lon="1.38524">
        <ele>160.19999694824</ele>
        <time>2014-11-02T10:50:19.000Z</time>
      </trkpt>
      <trkpt lat="43.54519" lon="1.38586">
        <ele>159.60000610352</ele>
        <time>2014-11-02T10:50:27.000Z</time>
      </trkpt>
      <trkpt lat="43.54536" lon="1.38634">
        <ele>158.60000610352</ele>
        <time>2014-11-02T10:50:33.000Z</time>
      </trkpt>
      <trkpt lat="43.5454" lon="1.38655">
        <ele>158</ele>
        <time>2014-11-02T10:50:36.000Z</time>
      </trkpt>
      <trkpt lat="43.5454" lon="1.3866">
        <ele>157.80000305176</ele>
        <time>2014-11-02T10:50:37.000Z</time>
      </trkpt>
      <trkpt lat="43.54538" lon="1.38675">
        <ele>157.19999694824</ele>
        <time>2014-11-02T10:50:40.000Z</time>
      </trkpt>
      <trkpt lat="43.54538" lon="1.38682">
        <ele>157</ele>
        <time>2014-11-02T10:50:41.000Z</time>
      </trkpt>
      <trkpt lat="43.54546" lon="1.38708">
        <ele>156.19999694824</ele>
        <time>2014-11-02T10:50:45.000Z</time>
      </trkpt>
      <trkpt lat="43.54562" lon="1.38716">
        <ele>156</ele>
        <time>2014-11-02T10:50:48.000Z</time>
      </trkpt>
      <trkpt lat="43.5458" lon="1.38711">
        <ele>156.39999389648</ele>
        <time>2014-11-02T10:50:51.000Z</time>
      </trkpt>
      <trkpt lat="43.54598" lon="1.3872">
        <ele>156.39999389648</ele>
        <time>2014-11-02T10:50:54.000Z</time>
      </trkpt>
      <trkpt lat="43.54608" lon="1.3873">
        <ele>156.39999389648</ele>
        <time>2014-11-02T10:50:56.000Z</time>
      </trkpt>
      <trkpt lat="43.54626" lon="1.38755">
        <ele>156.60000610352</ele>
        <time>2014-11-02T10:51:00.000Z</time>
      </trkpt>
      <trkpt lat="43.54652" lon="1.38805">
        <ele>156.80000305176</ele>
        <time>2014-11-02T10:51:07.000Z</time>
      </trkpt>
      <trkpt lat="43.54684" lon="1.38872">
        <ele>158</ele>
        <time>2014-11-02T10:51:16.000Z</time>
      </trkpt>
      <trkpt lat="43.54714" lon="1.38932">
        <ele>157.60000610352</ele>
        <time>2014-11-02T10:51:24.000Z</time>
      </trkpt>
      <trkpt lat="43.54742" lon="1.38972">
        <ele>157.19999694824</ele>
        <time>2014-11-02T10:51:30.000Z</time>
      </trkpt>
      <trkpt lat="43.54778" lon="1.39018">
        <ele>157.60000610352</ele>
        <time>2014-11-02T10:51:37.000Z</time>
      </trkpt>
      <trkpt lat="43.54818" lon="1.3907">
        <ele>157.80000305176</ele>
        <time>2014-11-02T10:51:45.000Z</time>
      </trkpt>
      <trkpt lat="43.54823" lon="1.39078">
        <ele>157.80000305176</ele>
        <time>2014-11-02T10:51:46.000Z</time>
      </trkpt>
      <trkpt lat="43.54843" lon="1.39099">
        <ele>157.60000610352</ele>
        <time>2014-11-02T10:51:50.000Z</time>
      </trkpt>
      <trkpt lat="43.54858" lon="1.3912">
        <ele>157.60000610352</ele>
        <time>2014-11-02T10:51:53.000Z</time>
      </trkpt>
      <trkpt lat="43.54863" lon="1.39126">
        <ele>157.80000305176</ele>
        <time>2014-11-02T10:51:54.000Z</time>
      </trkpt>
      <trkpt lat="43.54892" lon="1.39164">
        <ele>157.60000610352</ele>
        <time>2014-11-02T10:52:00.000Z</time>
      </trkpt>
      <trkpt lat="43.54932" lon="1.39214">
        <ele>156.39999389648</ele>
        <time>2014-11-02T10:52:08.000Z</time>
      </trkpt>
      <trkpt lat="43.54973" lon="1.39266">
        <ele>156</ele>
        <time>2014-11-02T10:52:16.000Z</time>
      </trkpt>
      <trkpt lat="43.54978" lon="1.39272">
        <ele>156</ele>
        <time>2014-11-02T10:52:17.000Z</time>
      </trkpt>
      <trkpt lat="43.55019" lon="1.39325">
        <ele>155.80000305176</ele>
        <time>2014-11-02T10:52:25.000Z</time>
      </trkpt>
      <trkpt lat="43.55033" lon="1.39343">
        <ele>155.60000610352</ele>
        <time>2014-11-02T10:52:28.000Z</time>
      </trkpt>
      <trkpt lat="43.55078" lon="1.39398">
        <ele>154.80000305176</ele>
        <time>2014-11-02T10:52:37.000Z</time>
      </trkpt>
      <trkpt lat="43.55083" lon="1.39404">
        <ele>154.39999389648</ele>
        <time>2014-11-02T10:52:38.000Z</time>
      </trkpt>
      <trkpt lat="43.55122" lon="1.39452">
        <ele>152.39999389648</ele>
        <time>2014-11-02T10:52:45.000Z</time>
      </trkpt>
      <trkpt lat="43.55164" lon="1.39508">
        <ele>151</ele>
        <time>2014-11-02T10:52:53.000Z</time>
      </trkpt>
      <trkpt lat="43.55203" lon="1.39568">
        <ele>150.60000610352</ele>
        <time>2014-11-02T10:53:00.000Z</time>
      </trkpt>
      <trkpt lat="43.55239" lon="1.39626">
        <ele>151.80000305176</ele>
        <time>2014-11-02T10:53:07.000Z</time>
      </trkpt>
      <trkpt lat="43.55244" lon="1.39635">
        <ele>151.80000305176</ele>
        <time>2014-11-02T10:53:08.000Z</time>
      </trkpt>
      <trkpt lat="43.55284" lon="1.39695">
        <ele>151.80000305176</ele>
        <time>2014-11-02T10:53:16.000Z</time>
      </trkpt>
      <trkpt lat="43.55289" lon="1.39703">
        <ele>151.80000305176</ele>
        <time>2014-11-02T10:53:17.000Z</time>
      </trkpt>
      <trkpt lat="43.55325" lon="1.39751">
        <ele>152.19999694824</ele>
        <time>2014-11-02T10:53:24.000Z</time>
      </trkpt>
      <trkpt lat="43.55369" lon="1.39804">
        <ele>152.39999389648</ele>
        <time>2014-11-02T10:53:33.000Z</time>
      </trkpt>
      <trkpt lat="43.55404" lon="1.39847">
        <ele>151.19999694824</ele>
        <time>2014-11-02T10:53:40.000Z</time>
      </trkpt>
      <trkpt lat="43.55447" lon="1.39891">
        <ele>149.39999389648</ele>
        <time>2014-11-02T10:53:48.000Z</time>
      </trkpt>
      <trkpt lat="43.55484" lon="1.39926">
        <ele>149.39999389648</ele>
        <time>2014-11-02T10:53:55.000Z</time>
      </trkpt>
      <trkpt lat="43.55517" lon="1.39954">
        <ele>149.60000610352</ele>
        <time>2014-11-02T10:54:01.000Z</time>
      </trkpt>
      <trkpt lat="43.55535" lon="1.39969">
        <ele>150.39999389648</ele>
        <time>2014-11-02T10:54:04.000Z</time>
      </trkpt>
      <trkpt lat="43.55585" lon="1.40013">
        <ele>152</ele>
        <time>2014-11-02T10:54:13.000Z</time>
      </trkpt>
      <trkpt lat="43.55632" lon="1.40053">
        <ele>152.60000610352</ele>
        <time>2014-11-02T10:54:22.000Z</time>
      </trkpt>
      <trkpt lat="43.55638" lon="1.40058">
        <ele>152.60000610352</ele>
        <time>2014-11-02T10:54:23.000Z</time>
      </trkpt>
      <trkpt lat="43.55677" lon="1.40092">
        <ele>152</ele>
        <time>2014-11-02T10:54:30.000Z</time>
      </trkpt>
      <trkpt lat="43.55722" lon="1.40132">
        <ele>150.19999694824</ele>
        <time>2014-11-02T10:54:37.000Z</time>
      </trkpt>
      <trkpt lat="43.5576" lon="1.40166">
        <ele>149</ele>
        <time>2014-11-02T10:54:43.000Z</time>
      </trkpt>
      <trkpt lat="43.55789" lon="1.40187">
        <ele>149</ele>
        <time>2014-11-02T10:54:48.000Z</time>
      </trkpt>
      <trkpt lat="43.55792" lon="1.40191">
        <ele>149</ele>
        <time>2014-11-02T10:54:49.000Z</time>
      </trkpt>
      <trkpt lat="43.55794" lon="1.40195">
        <ele>149</ele>
        <time>2014-11-02T10:54:51.000Z</time>
      </trkpt>
      <trkpt lat="43.55796" lon="1.40197">
        <ele>149</ele>
        <time>2014-11-02T10:54:54.000Z</time>
      </trkpt>
      <trkpt lat="43.55796" lon="1.40197">
        <ele>149</ele>
        <time>2014-11-02T10:54:55.000Z</time>
      </trkpt>
      <trkpt lat="43.558" lon="1.40203">
        <ele>149</ele>
        <time>2014-11-02T10:55:21.000Z</time>
      </trkpt>
      <trkpt lat="43.55812" lon="1.40217">
        <ele>149</ele>
        <time>2014-11-02T10:55:25.000Z</time>
      </trkpt>
      <trkpt lat="43.5583" lon="1.40233">
        <ele>149</ele>
        <time>2014-11-02T10:55:29.000Z</time>
      </trkpt>
      <trkpt lat="43.55863" lon="1.40267">
        <ele>149.19999694824</ele>
        <time>2014-11-02T10:55:36.000Z</time>
      </trkpt>
      <trkpt lat="43.55905" lon="1.40312">
        <ele>149.60000610352</ele>
        <time>2014-11-02T10:55:44.000Z</time>
      </trkpt>
      <trkpt lat="43.55951" lon="1.40361">
        <ele>150</ele>
        <time>2014-11-02T10:55:53.000Z</time>
      </trkpt>
      <trkpt lat="43.55957" lon="1.40367">
        <ele>150</ele>
        <time>2014-11-02T10:55:54.000Z</time>
      </trkpt>
      <trkpt lat="43.55992" lon="1.40404">
        <ele>150</ele>
        <time>2014-11-02T10:56:01.000Z</time>
      </trkpt>
      <trkpt lat="43.56029" lon="1.40448">
        <ele>149.19999694824</ele>
        <time>2014-11-02T10:56:08.000Z</time>
      </trkpt>
      <trkpt lat="43.56065" lon="1.40493">
        <ele>148</ele>
        <time>2014-11-02T10:56:15.000Z</time>
      </trkpt>
      <trkpt lat="43.5611" lon="1.40548">
        <ele>147.80000305176</ele>
        <time>2014-11-02T10:56:24.000Z</time>
      </trkpt>
      <trkpt lat="43.56115" lon="1.40554">
        <ele>147.80000305176</ele>
        <time>2014-11-02T10:56:25.000Z</time>
      </trkpt>
      <trkpt lat="43.56156" lon="1.40604">
        <ele>147</ele>
        <time>2014-11-02T10:56:33.000Z</time>
      </trkpt>
      <trkpt lat="43.56166" lon="1.40617">
        <ele>146.80000305176</ele>
        <time>2014-11-02T10:56:35.000Z</time>
      </trkpt>
      <trkpt lat="43.5619" lon="1.40648">
        <ele>146.19999694824</ele>
        <time>2014-11-02T10:56:41.000Z</time>
      </trkpt>
      <trkpt lat="43.56217" lon="1.40681">
        <ele>146.39999389648</ele>
        <time>2014-11-02T10:56:48.000Z</time>
      </trkpt>
      <trkpt lat="43.56221" lon="1.40686">
        <ele>146.39999389648</ele>
        <time>2014-11-02T10:56:49.000Z</time>
      </trkpt>
      <trkpt lat="43.56229" lon="1.40695">
        <ele>146.60000610352</ele>
        <time>2014-11-02T10:56:51.000Z</time>
      </trkpt>
      <trkpt lat="43.56247" lon="1.40719">
        <ele>146.80000305176</ele>
        <time>2014-11-02T10:56:55.000Z</time>
      </trkpt>
      <trkpt lat="43.56273" lon="1.40753">
        <ele>147.60000610352</ele>
        <time>2014-11-02T10:57:01.000Z</time>
      </trkpt>
      <trkpt lat="43.56304" lon="1.40791">
        <ele>148.39999389648</ele>
        <time>2014-11-02T10:57:08.000Z</time>
      </trkpt>
      <trkpt lat="43.56334" lon="1.40828">
        <ele>149</ele>
        <time>2014-11-02T10:57:14.000Z</time>
      </trkpt>
      <trkpt lat="43.56373" lon="1.40878">
        <ele>149.19999694824</ele>
        <time>2014-11-02T10:57:22.000Z</time>
      </trkpt>
      <trkpt lat="43.56407" lon="1.4092">
        <ele>149.60000610352</ele>
        <time>2014-11-02T10:57:29.000Z</time>
      </trkpt>
      <trkpt lat="43.56446" lon="1.4097">
        <ele>149.60000610352</ele>
        <time>2014-11-02T10:57:37.000Z</time>
      </trkpt>
      <trkpt lat="43.56476" lon="1.41">
        <ele>148.80000305176</ele>
        <time>2014-11-02T10:57:43.000Z</time>
      </trkpt>
      <trkpt lat="43.56481" lon="1.41005">
        <ele>148.60000610352</ele>
        <time>2014-11-02T10:57:44.000Z</time>
      </trkpt>
      <trkpt lat="43.56498" lon="1.4102">
        <ele>148.19999694824</ele>
        <time>2014-11-02T10:57:48.000Z</time>
      </trkpt>
      <trkpt lat="43.56506" lon="1.41027">
        <ele>148</ele>
        <time>2014-11-02T10:57:51.000Z</time>
      </trkpt>
      <trkpt lat="43.56508" lon="1.41029">
        <ele>148</ele>
        <time>2014-11-02T10:57:52.000Z</time>
      </trkpt>
      <trkpt lat="43.56512" lon="1.41033">
        <ele>147.80000305176</ele>
        <time>2014-11-02T10:57:54.000Z</time>
      </trkpt>
      <trkpt lat="43.56521" lon="1.41041">
        <ele>147.80000305176</ele>
        <time>2014-11-02T10:57:58.000Z</time>
      </trkpt>
      <trkpt lat="43.56536" lon="1.41054">
        <ele>147.80000305176</ele>
        <time>2014-11-02T10:58:02.000Z</time>
      </trkpt>
      <trkpt lat="43.56563" lon="1.41079">
        <ele>147.80000305176</ele>
        <time>2014-11-02T10:58:08.000Z</time>
      </trkpt>
      <trkpt lat="43.56567" lon="1.41083">
        <ele>147.80000305176</ele>
        <time>2014-11-02T10:58:09.000Z</time>
      </trkpt>
      <trkpt lat="43.56578" lon="1.41093">
        <ele>147.60000610352</ele>
        <time>2014-11-02T10:58:11.000Z</time>
      </trkpt>
      <trkpt lat="43.5659" lon="1.41103">
        <ele>147.60000610352</ele>
        <time>2014-11-02T10:58:13.000Z</time>
      </trkpt>
      <trkpt lat="43.56608" lon="1.41117">
        <ele>147.39999389648</ele>
        <time>2014-11-02T10:58:16.000Z</time>
      </trkpt>
      <trkpt lat="43.56613" lon="1.41122">
        <ele>147.19999694824</ele>
        <time>2014-11-02T10:58:17.000Z</time>
      </trkpt>
      <trkpt lat="43.56648" lon="1.41154">
        <ele>146.60000610352</ele>
        <time>2014-11-02T10:58:23.000Z</time>
      </trkpt>
      <trkpt lat="43.56697" lon="1.41197">
        <ele>146.80000305176</ele>
        <time>2014-11-02T10:58:31.000Z</time>
      </trkpt>
      <trkpt lat="43.56704" lon="1.41203">
        <ele>146.80000305176</ele>
        <time>2014-11-02T10:58:32.000Z</time>
      </trkpt>
      <trkpt lat="43.56747" lon="1.41243">
        <ele>147.80000305176</ele>
        <time>2014-11-02T10:58:39.000Z</time>
      </trkpt>
      <trkpt lat="43.56786" lon="1.41294">
        <ele>147.80000305176</ele>
        <time>2014-11-02T10:58:46.000Z</time>
      </trkpt>
      <trkpt lat="43.56823" lon="1.41344">
        <ele>146.60000610352</ele>
        <time>2014-11-02T10:58:53.000Z</time>
      </trkpt>
      <trkpt lat="43.56853" lon="1.4138">
        <ele>145.80000305176</ele>
        <time>2014-11-02T10:58:59.000Z</time>
      </trkpt>
      <trkpt lat="43.56875" lon="1.4141">
        <ele>146</ele>
        <time>2014-11-02T10:59:05.000Z</time>
      </trkpt>
      <trkpt lat="43.56901" lon="1.41454">
        <ele>145.39999389648</ele>
        <time>2014-11-02T10:59:13.000Z</time>
      </trkpt>
      <trkpt lat="43.56917" lon="1.41483">
        <ele>145.19999694824</ele>
        <time>2014-11-02T10:59:18.000Z</time>
      </trkpt>
      <trkpt lat="43.56927" lon="1.41499">
        <ele>145.60000610352</ele>
        <time>2014-11-02T10:59:21.000Z</time>
      </trkpt>
      <trkpt lat="43.56955" lon="1.41543">
        <ele>146.39999389648</ele>
        <time>2014-11-02T10:59:27.000Z</time>
      </trkpt>
      <trkpt lat="43.56985" lon="1.41582">
        <ele>147</ele>
        <time>2014-11-02T10:59:32.000Z</time>
      </trkpt>
      <trkpt lat="43.57008" lon="1.4161">
        <ele>147</ele>
        <time>2014-11-02T10:59:37.000Z</time>
      </trkpt>
      <trkpt lat="43.57035" lon="1.41639">
        <ele>147</ele>
        <time>2014-11-02T10:59:43.000Z</time>
      </trkpt>
      <trkpt lat="43.57071" lon="1.41679">
        <ele>146.60000610352</ele>
        <time>2014-11-02T10:59:51.000Z</time>
      </trkpt>
      <trkpt lat="43.57101" lon="1.41719">
        <ele>146.19999694824</ele>
        <time>2014-11-02T10:59:58.000Z</time>
      </trkpt>
      <trkpt lat="43.57138" lon="1.41758">
        <ele>144.80000305176</ele>
        <time>2014-11-02T11:00:05.000Z</time>
      </trkpt>
      <trkpt lat="43.57144" lon="1.41764">
        <ele>144.80000305176</ele>
        <time>2014-11-02T11:00:06.000Z</time>
      </trkpt>
      <trkpt lat="43.57178" lon="1.41796">
        <ele>143.80000305176</ele>
        <time>2014-11-02T11:00:11.000Z</time>
      </trkpt>
      <trkpt lat="43.57219" lon="1.4183">
        <ele>144.19999694824</ele>
        <time>2014-11-02T11:00:17.000Z</time>
      </trkpt>
      <trkpt lat="43.57265" lon="1.41867">
        <ele>144.80000305176</ele>
        <time>2014-11-02T11:00:24.000Z</time>
      </trkpt>
      <trkpt lat="43.57306" lon="1.41898">
        <ele>146</ele>
        <time>2014-11-02T11:00:31.000Z</time>
      </trkpt>
      <trkpt lat="43.57354" lon="1.41933">
        <ele>146</ele>
        <time>2014-11-02T11:00:39.000Z</time>
      </trkpt>
      <trkpt lat="43.57394" lon="1.41966">
        <ele>145.39999389648</ele>
        <time>2014-11-02T11:00:46.000Z</time>
      </trkpt>
      <trkpt lat="43.57443" lon="1.42006">
        <ele>145.80000305176</ele>
        <time>2014-11-02T11:00:54.000Z</time>
      </trkpt>
      <trkpt lat="43.5745" lon="1.42011">
        <ele>145.80000305176</ele>
        <time>2014-11-02T11:00:55.000Z</time>
      </trkpt>
      <trkpt lat="43.5748" lon="1.42034">
        <ele>146.39999389648</ele>
        <time>2014-11-02T11:01:00.000Z</time>
      </trkpt>
      <trkpt lat="43.57505" lon="1.42054">
        <ele>146.80000305176</ele>
        <time>2014-11-02T11:01:04.000Z</time>
      </trkpt>
      <trkpt lat="43.57517" lon="1.42063">
        <ele>147</ele>
        <time>2014-11-02T11:01:06.000Z</time>
      </trkpt>
      <trkpt lat="43.5756" lon="1.42098">
        <ele>146</ele>
        <time>2014-11-02T11:01:13.000Z</time>
      </trkpt>
      <trkpt lat="43.57601" lon="1.42131">
        <ele>145</ele>
        <time>2014-11-02T11:01:20.000Z</time>
      </trkpt>
      <trkpt lat="43.57635" lon="1.42154">
        <ele>144.60000610352</ele>
        <time>2014-11-02T11:01:26.000Z</time>
      </trkpt>
      <trkpt lat="43.57659" lon="1.42173">
        <ele>144.60000610352</ele>
        <time>2014-11-02T11:01:30.000Z</time>
      </trkpt>
      <trkpt lat="43.5767" lon="1.42182">
        <ele>144.60000610352</ele>
        <time>2014-11-02T11:01:32.000Z</time>
      </trkpt>
      <trkpt lat="43.57701" lon="1.42203">
        <ele>144.39999389648</ele>
        <time>2014-11-02T11:01:37.000Z</time>
      </trkpt>
      <trkpt lat="43.57745" lon="1.42235">
        <ele>144.39999389648</ele>
        <time>2014-11-02T11:01:44.000Z</time>
      </trkpt>
      <trkpt lat="43.57789" lon="1.42266">
        <ele>144.80000305176</ele>
        <time>2014-11-02T11:01:51.000Z</time>
      </trkpt>
      <trkpt lat="43.57821" lon="1.42287">
        <ele>145.39999389648</ele>
        <time>2014-11-02T11:01:56.000Z</time>
      </trkpt>
      <trkpt lat="43.57861" lon="1.42313">
        <ele>146</ele>
        <time>2014-11-02T11:02:02.000Z</time>
      </trkpt>
      <trkpt lat="43.57905" lon="1.42342">
        <ele>145.39999389648</ele>
        <time>2014-11-02T11:02:09.000Z</time>
      </trkpt>
      <trkpt lat="43.57911" lon="1.42347">
        <ele>145.19999694824</ele>
        <time>2014-11-02T11:02:10.000Z</time>
      </trkpt>
      <trkpt lat="43.57918" lon="1.42359">
        <ele>145</ele>
        <time>2014-11-02T11:02:12.000Z</time>
      </trkpt>
      <trkpt lat="43.57925" lon="1.4237">
        <ele>144.60000610352</ele>
        <time>2014-11-02T11:02:14.000Z</time>
      </trkpt>
      <trkpt lat="43.5793" lon="1.42372">
        <ele>144.60000610352</ele>
        <time>2014-11-02T11:02:15.000Z</time>
      </trkpt>
      <trkpt lat="43.57943" lon="1.42376">
        <ele>144.60000610352</ele>
        <time>2014-11-02T11:02:18.000Z</time>
      </trkpt>
      <trkpt lat="43.57948" lon="1.42379">
        <ele>144.60000610352</ele>
        <time>2014-11-02T11:02:19.000Z</time>
      </trkpt>
      <trkpt lat="43.57962" lon="1.42389">
        <ele>144.60000610352</ele>
        <time>2014-11-02T11:02:23.000Z</time>
      </trkpt>
      <trkpt lat="43.57967" lon="1.42393">
        <ele>144.60000610352</ele>
        <time>2014-11-02T11:02:24.000Z</time>
      </trkpt>
      <trkpt lat="43.57974" lon="1.424">
        <ele>144.39999389648</ele>
        <time>2014-11-02T11:02:26.000Z</time>
      </trkpt>
      <trkpt lat="43.57989" lon="1.42412">
        <ele>144.39999389648</ele>
        <time>2014-11-02T11:02:29.000Z</time>
      </trkpt>
      <trkpt lat="43.58006" lon="1.42424">
        <ele>144.60000610352</ele>
        <time>2014-11-02T11:02:32.000Z</time>
      </trkpt>
      <trkpt lat="43.58018" lon="1.42434">
        <ele>144.60000610352</ele>
        <time>2014-11-02T11:02:34.000Z</time>
      </trkpt>
      <trkpt lat="43.58055" lon="1.42462">
        <ele>145.60000610352</ele>
        <time>2014-11-02T11:02:40.000Z</time>
      </trkpt>
      <trkpt lat="43.58094" lon="1.42494">
        <ele>146.39999389648</ele>
        <time>2014-11-02T11:02:47.000Z</time>
      </trkpt>
      <trkpt lat="43.58099" lon="1.42497">
        <ele>146.39999389648</ele>
        <time>2014-11-02T11:02:48.000Z</time>
      </trkpt>
      <trkpt lat="43.58109" lon="1.42493">
        <ele>146.60000610352</ele>
        <time>2014-11-02T11:02:50.000Z</time>
      </trkpt>
      <trkpt lat="43.58117" lon="1.42473">
        <ele>146.60000610352</ele>
        <time>2014-11-02T11:02:53.000Z</time>
      </trkpt>
      <trkpt lat="43.58124" lon="1.42458">
        <ele>146.19999694824</ele>
        <time>2014-11-02T11:02:55.000Z</time>
      </trkpt>
      <trkpt lat="43.5813" lon="1.42442">
        <ele>145.60000610352</ele>
        <time>2014-11-02T11:02:57.000Z</time>
      </trkpt>
      <trkpt lat="43.58135" lon="1.42425">
        <ele>145.39999389648</ele>
        <time>2014-11-02T11:02:59.000Z</time>
      </trkpt>
      <trkpt lat="43.58144" lon="1.42401">
        <ele>145.60000610352</ele>
        <time>2014-11-02T11:03:02.000Z</time>
      </trkpt>
      <trkpt lat="43.58159" lon="1.42351">
        <ele>145.39999389648</ele>
        <time>2014-11-02T11:03:08.000Z</time>
      </trkpt>
      <trkpt lat="43.58177" lon="1.42299">
        <ele>144</ele>
        <time>2014-11-02T11:03:14.000Z</time>
      </trkpt>
      <trkpt lat="43.58193" lon="1.42246">
        <ele>144</ele>
        <time>2014-11-02T11:03:20.000Z</time>
      </trkpt>
      <trkpt lat="43.58208" lon="1.42196">
        <ele>144.80000305176</ele>
        <time>2014-11-02T11:03:26.000Z</time>
      </trkpt>
      <trkpt lat="43.58211" lon="1.42187">
        <ele>145</ele>
        <time>2014-11-02T11:03:27.000Z</time>
      </trkpt>
      <trkpt lat="43.58219" lon="1.42168">
        <ele>145.19999694824</ele>
        <time>2014-11-02T11:03:29.000Z</time>
      </trkpt>
      <trkpt lat="43.58229" lon="1.42141">
        <ele>144.80000305176</ele>
        <time>2014-11-02T11:03:32.000Z</time>
      </trkpt>
      <trkpt lat="43.5824" lon="1.42114">
        <ele>144</ele>
        <time>2014-11-02T11:03:35.000Z</time>
      </trkpt>
      <trkpt lat="43.58247" lon="1.42096">
        <ele>144.39999389648</ele>
        <time>2014-11-02T11:03:37.000Z</time>
      </trkpt>
      <trkpt lat="43.58271" lon="1.42031">
        <ele>145</ele>
        <time>2014-11-02T11:03:44.000Z</time>
      </trkpt>
      <trkpt lat="43.58277" lon="1.42013">
        <ele>144.60000610352</ele>
        <time>2014-11-02T11:03:46.000Z</time>
      </trkpt>
      <trkpt lat="43.58283" lon="1.41993">
        <ele>144.60000610352</ele>
        <time>2014-11-02T11:03:48.000Z</time>
      </trkpt>
      <trkpt lat="43.58289" lon="1.41974">
        <ele>144.39999389648</ele>
        <time>2014-11-02T11:03:50.000Z</time>
      </trkpt>
      <trkpt lat="43.58309" lon="1.41914">
        <ele>144.39999389648</ele>
        <time>2014-11-02T11:03:57.000Z</time>
      </trkpt>
      <trkpt lat="43.58316" lon="1.41898">
        <ele>144.39999389648</ele>
        <time>2014-11-02T11:04:00.000Z</time>
      </trkpt>
      <trkpt lat="43.58317" lon="1.41895">
        <ele>144.39999389648</ele>
        <time>2014-11-02T11:04:01.000Z</time>
      </trkpt>
      <trkpt lat="43.58323" lon="1.41872">
        <ele>144.60000610352</ele>
        <time>2014-11-02T11:04:06.000Z</time>
      </trkpt>
      <trkpt lat="43.58337" lon="1.41831">
        <ele>144.39999389648</ele>
        <time>2014-11-02T11:04:12.000Z</time>
      </trkpt>
      <trkpt lat="43.58359" lon="1.4177">
        <ele>144.60000610352</ele>
        <time>2014-11-02T11:04:20.000Z</time>
      </trkpt>
      <trkpt lat="43.58381" lon="1.41713">
        <ele>144.39999389648</ele>
        <time>2014-11-02T11:04:27.000Z</time>
      </trkpt>
      <trkpt lat="43.5839" lon="1.41688">
        <ele>143.39999389648</ele>
        <time>2014-11-02T11:04:30.000Z</time>
      </trkpt>
      <trkpt lat="43.58396" lon="1.41673">
        <ele>143.19999694824</ele>
        <time>2014-11-02T11:04:32.000Z</time>
      </trkpt>
      <trkpt lat="43.5841" lon="1.41631">
        <ele>142.80000305176</ele>
        <time>2014-11-02T11:04:37.000Z</time>
      </trkpt>
      <trkpt lat="43.58426" lon="1.41585">
        <ele>142.80000305176</ele>
        <time>2014-11-02T11:04:43.000Z</time>
      </trkpt>
      <trkpt lat="43.58435" lon="1.41566">
        <ele>143</ele>
        <time>2014-11-02T11:04:47.000Z</time>
      </trkpt>
      <trkpt lat="43.58444" lon="1.4155">
        <ele>143.19999694824</ele>
        <time>2014-11-02T11:04:52.000Z</time>
      </trkpt>
      <trkpt lat="43.58461" lon="1.41521">
        <ele>143.80000305176</ele>
        <time>2014-11-02T11:04:59.000Z</time>
      </trkpt>
      <trkpt lat="43.58468" lon="1.41508">
        <ele>144</ele>
        <time>2014-11-02T11:05:02.000Z</time>
      </trkpt>
    </trkseg>
  </trk>
</gpx>